<?xml version='1.0' encoding='UTF-8'?><gpx version="1.1" creator="JPX - https://github.com/jenetics/jpx" xmlns="http://www.topografix.com/GPX/1/1"><trk><trkseg><trkpt lat="43.9579" lon="12.5061283"><ele>233.0</ele><time>2026-04-11T13:01:53.938Z</time></trkpt><trkpt lat="43.9578283" lon="12.5060833"><ele>233.0</ele><time>2026-04-11T13:01:54.939Z</time></trkpt><trkpt lat="43.9577417" lon="12.50603"><ele>233.0</ele><time>2026-04-11T13:01:55.939Z</time></trkpt><trkpt lat="43.95764" lon="12.505975"><ele>233.0</ele><time>2026-04-11T13:01:56.938Z</time></trkpt><trkpt lat="43.9575267" lon="12.5059233"><ele>233.0</ele><time>2026-04-11T13:01:57.939Z</time></trkpt><trkpt lat="43.9574033" lon="12.5058817"><ele>234.5</ele><time>2026-04-11T13:01:58.939Z</time></trkpt><trkpt lat="43.9572733" lon="12.5058533"><ele>236.0</ele><time>2026-04-11T13:01:59.938Z</time></trkpt><trkpt lat="43.957145" lon="12.5058467"><ele>237.5</ele><time>2026-04-11T13:02:00.938Z</time></trkpt><trkpt lat="43.9570017" lon="12.5058683"><ele>239.0</ele><time>2026-04-11T13:02:01.939Z</time></trkpt><trkpt lat="43.9568467" lon="12.5059117"><ele>241.66666666666669</ele><time>2026-04-11T13:02:02.938Z</time></trkpt><trkpt lat="43.956685" lon="12.5059767"><ele>244.33333333333331</ele><time>2026-04-11T13:02:03.938Z</time></trkpt><trkpt lat="43.9565283" lon="12.506045"><ele>247.0</ele><time>2026-04-11T13:02:04.939Z</time></trkpt><trkpt lat="43.9563667" lon="12.5061017"><ele>247.0</ele><time>2026-04-11T13:02:05.939Z</time></trkpt><trkpt lat="43.9562017" lon="12.506155"><ele>247.0</ele><time>2026-04-11T13:02:06.939Z</time></trkpt><trkpt lat="43.95603" lon="12.5062083"><ele>247.0</ele><time>2026-04-11T13:02:07.939Z</time></trkpt><trkpt lat="43.955855" lon="12.5062633"><ele>249.0</ele><time>2026-04-11T13:02:08.939Z</time></trkpt><trkpt lat="43.9556867" lon="12.5063167"><ele>251.0</ele><time>2026-04-11T13:02:09.938Z</time></trkpt><trkpt lat="43.9555133" lon="12.5063833"><ele>253.0</ele><time>2026-04-11T13:02:10.939Z</time></trkpt><trkpt lat="43.9553317" lon="12.5064433"><ele>253.0</ele><time>2026-04-11T13:02:11.939Z</time></trkpt><trkpt lat="43.9551467" lon="12.5065"><ele>253.0</ele><time>2026-04-11T13:02:12.938Z</time></trkpt><trkpt lat="43.954965" lon="12.5065617"><ele>253.0</ele><time>2026-04-11T13:02:13.939Z</time></trkpt><trkpt lat="43.95478" lon="12.5066133"><ele>255.33333333333331</ele><time>2026-04-11T13:02:14.938Z</time></trkpt><trkpt lat="43.9545967" lon="12.5066833"><ele>257.6666666666667</ele><time>2026-04-11T13:02:15.939Z</time></trkpt><trkpt lat="43.9544167" lon="12.5067567"><ele>260.0</ele><time>2026-04-11T13:02:16.938Z</time></trkpt><trkpt lat="43.9542383" lon="12.506805"><ele>262.33333333333337</ele><time>2026-04-11T13:02:17.939Z</time></trkpt><trkpt lat="43.9540733" lon="12.506855"><ele>264.6666666666667</ele><time>2026-04-11T13:02:18.938Z</time></trkpt><trkpt lat="43.9539083" lon="12.5069017"><ele>267.0</ele><time>2026-04-11T13:02:19.938Z</time></trkpt><trkpt lat="43.9537317" lon="12.50694"><ele>267.0</ele><time>2026-04-11T13:02:20.939Z</time></trkpt><trkpt lat="43.953565" lon="12.5069833"><ele>267.0</ele><time>2026-04-11T13:02:21.939Z</time></trkpt><trkpt lat="43.95341" lon="12.50703"><ele>267.0</ele><time>2026-04-11T13:02:22.939Z</time></trkpt><trkpt lat="43.9532683" lon="12.50707"><ele>268.0</ele><time>2026-04-11T13:02:23.938Z</time></trkpt><trkpt lat="43.9531367" lon="12.5070983"><ele>269.0</ele><time>2026-04-11T13:02:24.939Z</time></trkpt><trkpt lat="43.9530133" lon="12.507095"><ele>270.0</ele><time>2026-04-11T13:02:25.939Z</time></trkpt><trkpt lat="43.9528883" lon="12.507055"><ele>271.0</ele><time>2026-04-11T13:02:26.938Z</time></trkpt><trkpt lat="43.9527833" lon="12.5069867"><ele>271.40000000000003</ele><time>2026-04-11T13:02:27.939Z</time></trkpt><trkpt lat="43.9526817" lon="12.5069017"><ele>271.8</ele><time>2026-04-11T13:02:28.939Z</time></trkpt><trkpt lat="43.9526117" lon="12.5068067"><ele>272.20000000000005</ele><time>2026-04-11T13:02:29.939Z</time></trkpt><trkpt lat="43.9525517" lon="12.5067367"><ele>272.6</ele><time>2026-04-11T13:02:30.939Z</time></trkpt><trkpt lat="43.95249" lon="12.506795"><ele>273.0</ele><time>2026-04-11T13:02:32.939Z</time></trkpt><trkpt lat="43.9524333" lon="12.50697"><ele>273.0</ele><time>2026-04-11T13:02:34.939Z</time></trkpt><trkpt lat="43.9523783" lon="12.5071"><ele>273.0</ele><time>2026-04-11T13:02:35.939Z</time></trkpt><trkpt lat="43.9523017" lon="12.5072417"><ele>273.0</ele><time>2026-04-11T13:02:36.939Z</time></trkpt><trkpt lat="43.952225" lon="12.5073817"><ele>273.0</ele><time>2026-04-11T13:02:37.938Z</time></trkpt><trkpt lat="43.9521467" lon="12.5075417"><ele>273.0</ele><time>2026-04-11T13:02:38.939Z</time></trkpt><trkpt lat="43.9520467" lon="12.5076967"><ele>273.0</ele><time>2026-04-11T13:02:39.939Z</time></trkpt><trkpt lat="43.95194" lon="12.50784"><ele>273.0</ele><time>2026-04-11T13:02:40.939Z</time></trkpt><trkpt lat="43.9518183" lon="12.5079767"><ele>271.0</ele><time>2026-04-11T13:02:41.939Z</time></trkpt><trkpt lat="43.9516833" lon="12.5081217"><ele>269.0</ele><time>2026-04-11T13:02:42.938Z</time></trkpt><trkpt lat="43.9515567" lon="12.5082667"><ele>267.0</ele><time>2026-04-11T13:02:43.939Z</time></trkpt><trkpt lat="43.9514367" lon="12.5084033"><ele>267.0</ele><time>2026-04-11T13:02:44.938Z</time></trkpt><trkpt lat="43.95132" lon="12.5085167"><ele>267.0</ele><time>2026-04-11T13:02:45.939Z</time></trkpt><trkpt lat="43.95119" lon="12.50861"><ele>267.0</ele><time>2026-04-11T13:02:46.939Z</time></trkpt><trkpt lat="43.9510467" lon="12.5086767"><ele>267.0</ele><time>2026-04-11T13:02:47.938Z</time></trkpt><trkpt lat="43.9508883" lon="12.5087283"><ele>263.6666666666667</ele><time>2026-04-11T13:02:48.939Z</time></trkpt><trkpt lat="43.950725" lon="12.50878"><ele>260.33333333333337</ele><time>2026-04-11T13:02:49.938Z</time></trkpt><trkpt lat="43.950585" lon="12.50886"><ele>257.0</ele><time>2026-04-11T13:02:50.939Z</time></trkpt><trkpt lat="43.9504267" lon="12.508935"><ele>257.0</ele><time>2026-04-11T13:02:51.939Z</time></trkpt><trkpt lat="43.950275" lon="12.509025"><ele>257.0</ele><time>2026-04-11T13:02:52.938Z</time></trkpt><trkpt lat="43.9501317" lon="12.5091233"><ele>257.0</ele><time>2026-04-11T13:02:53.938Z</time></trkpt><trkpt lat="43.95" lon="12.5092317"><ele>255.5</ele><time>2026-04-11T13:02:54.938Z</time></trkpt><trkpt lat="43.9498767" lon="12.5093533"><ele>254.0</ele><time>2026-04-11T13:02:55.939Z</time></trkpt><trkpt lat="43.94976" lon="12.509475"><ele>252.5</ele><time>2026-04-11T13:02:56.938Z</time></trkpt><trkpt lat="43.9496317" lon="12.5095883"><ele>251.0</ele><time>2026-04-11T13:02:57.939Z</time></trkpt><trkpt lat="43.94951" lon="12.50969"><ele>251.0</ele><time>2026-04-11T13:02:58.939Z</time></trkpt><trkpt lat="43.9493667" lon="12.5097717"><ele>251.0</ele><time>2026-04-11T13:02:59.938Z</time></trkpt><trkpt lat="43.94923" lon="12.50983"><ele>251.0</ele><time>2026-04-11T13:03:00.938Z</time></trkpt><trkpt lat="43.9490867" lon="12.50986"><ele>251.0</ele><time>2026-04-11T13:03:01.939Z</time></trkpt><trkpt lat="43.9489483" lon="12.5098617"><ele>250.75</ele><time>2026-04-11T13:03:02.938Z</time></trkpt><trkpt lat="43.948805" lon="12.50986"><ele>250.5</ele><time>2026-04-11T13:03:03.939Z</time></trkpt><trkpt lat="43.9486633" lon="12.5098633"><ele>250.25</ele><time>2026-04-11T13:03:04.938Z</time></trkpt><trkpt lat="43.9485067" lon="12.5098733"><ele>250.0</ele><time>2026-04-11T13:03:05.939Z</time></trkpt><trkpt lat="43.948345" lon="12.5098983"><ele>250.0</ele><time>2026-04-11T13:03:06.938Z</time></trkpt><trkpt lat="43.94818" lon="12.5099083"><ele>250.0</ele><time>2026-04-11T13:03:07.939Z</time></trkpt><trkpt lat="43.94802" lon="12.5099167"><ele>250.0</ele><time>2026-04-11T13:03:08.938Z</time></trkpt><trkpt lat="43.9478633" lon="12.5099317"><ele>250.0</ele><time>2026-04-11T13:03:09.939Z</time></trkpt><trkpt lat="43.9477167" lon="12.5099617"><ele>250.0</ele><time>2026-04-11T13:03:10.938Z</time></trkpt><trkpt lat="43.94758" lon="12.5100133"><ele>250.0</ele><time>2026-04-11T13:03:11.938Z</time></trkpt><trkpt lat="43.9474533" lon="12.51007"><ele>250.0</ele><time>2026-04-11T13:03:12.939Z</time></trkpt><trkpt lat="43.9473317" lon="12.5101467"><ele>250.25</ele><time>2026-04-11T13:03:13.939Z</time></trkpt><trkpt lat="43.9472133" lon="12.5102367"><ele>250.5</ele><time>2026-04-11T13:03:14.939Z</time></trkpt><trkpt lat="43.9470983" lon="12.5103417"><ele>250.75</ele><time>2026-04-11T13:03:15.939Z</time></trkpt><trkpt lat="43.9469733" lon="12.5104467"><ele>251.0</ele><time>2026-04-11T13:03:16.939Z</time></trkpt><trkpt lat="43.9468483" lon="12.5105467"><ele>251.0</ele><time>2026-04-11T13:03:17.939Z</time></trkpt><trkpt lat="43.9467267" lon="12.510645"><ele>251.0</ele><time>2026-04-11T13:03:18.939Z</time></trkpt><trkpt lat="43.9466167" lon="12.51075"><ele>251.0</ele><time>2026-04-11T13:03:19.939Z</time></trkpt><trkpt lat="43.9464967" lon="12.5108567"><ele>251.0</ele><time>2026-04-11T13:03:20.939Z</time></trkpt><trkpt lat="43.9463717" lon="12.5109517"><ele>248.5</ele><time>2026-04-11T13:03:21.938Z</time></trkpt><trkpt lat="43.9462533" lon="12.5110467"><ele>246.0</ele><time>2026-04-11T13:03:22.938Z</time></trkpt><trkpt lat="43.94614" lon="12.5111317"><ele>243.5</ele><time>2026-04-11T13:03:23.938Z</time></trkpt><trkpt lat="43.9460317" lon="12.511195"><ele>241.0</ele><time>2026-04-11T13:03:24.939Z</time></trkpt><trkpt lat="43.9459233" lon="12.5112467"><ele>240.16666666666666</ele><time>2026-04-11T13:03:25.938Z</time></trkpt><trkpt lat="43.94582" lon="12.511285"><ele>239.33333333333331</ele><time>2026-04-11T13:03:26.938Z</time></trkpt><trkpt lat="43.94573" lon="12.51132"><ele>238.5</ele><time>2026-04-11T13:03:27.938Z</time></trkpt><trkpt lat="43.9456517" lon="12.5113583"><ele>237.66666666666669</ele><time>2026-04-11T13:03:28.939Z</time></trkpt><trkpt lat="43.9455833" lon="12.5114"><ele>236.83333333333334</ele><time>2026-04-11T13:03:29.939Z</time></trkpt><trkpt lat="43.9455333" lon="12.5114633"><ele>236.0</ele><time>2026-04-11T13:03:30.938Z</time></trkpt><trkpt lat="43.9454883" lon="12.5115267"><ele>236.0</ele><time>2026-04-11T13:03:31.939Z</time></trkpt><trkpt lat="43.9454267" lon="12.5116733"><ele>236.00000000000003</ele><time>2026-04-11T13:03:33.938Z</time></trkpt><trkpt lat="43.945395" lon="12.51177"><ele>236.00000000000003</ele><time>2026-04-11T13:03:34.939Z</time></trkpt><trkpt lat="43.9453733" lon="12.51188"><ele>236.0</ele><time>2026-04-11T13:03:35.938Z</time></trkpt><trkpt lat="43.9453533" lon="12.5119783"><ele>236.0</ele><time>2026-04-11T13:03:36.938Z</time></trkpt><trkpt lat="43.9453617" lon="12.5121167"><ele>234.33333333333334</ele><time>2026-04-11T13:03:38.938Z</time></trkpt><trkpt lat="43.94545" lon="12.5122367"><ele>232.66666666666669</ele><time>2026-04-11T13:03:40.939Z</time></trkpt><trkpt lat="43.945505" lon="12.5123117"><ele>231.0</ele><time>2026-04-11T13:03:41.938Z</time></trkpt><trkpt lat="43.9455583" lon="12.512385"><ele>229.33333333333331</ele><time>2026-04-11T13:03:42.938Z</time></trkpt><trkpt lat="43.945615" lon="12.51246"><ele>227.66666666666666</ele><time>2026-04-11T13:03:43.939Z</time></trkpt><trkpt lat="43.94568" lon="12.5125317"><ele>226.0</ele><time>2026-04-11T13:03:44.939Z</time></trkpt><trkpt lat="43.9457367" lon="12.5126133"><ele>225.99999999999997</ele><time>2026-04-11T13:03:45.938Z</time></trkpt><trkpt lat="43.9457917" lon="12.5126917"><ele>226.0</ele><time>2026-04-11T13:03:46.938Z</time></trkpt><trkpt lat="43.9458383" lon="12.512785"><ele>226.0</ele><time>2026-04-11T13:03:47.939Z</time></trkpt><trkpt lat="43.9458883" lon="12.5128683"><ele>226.0</ele><time>2026-04-11T13:03:48.938Z</time></trkpt><trkpt lat="43.94594" lon="12.5129517"><ele>225.99999999999997</ele><time>2026-04-11T13:03:49.939Z</time></trkpt><trkpt lat="43.9459933" lon="12.513035"><ele>226.0</ele><time>2026-04-11T13:03:50.938Z</time></trkpt><trkpt lat="43.946055" lon="12.51312"><ele>224.66666666666666</ele><time>2026-04-11T13:03:51.938Z</time></trkpt><trkpt lat="43.9461033" lon="12.5131833"><ele>223.33333333333331</ele><time>2026-04-11T13:03:52.938Z</time></trkpt><trkpt lat="43.9461717" lon="12.5132933"><ele>222.0</ele><time>2026-04-11T13:03:54.939Z</time></trkpt><trkpt lat="43.9462117" lon="12.5133633"><ele>220.66666666666669</ele><time>2026-04-11T13:03:55.938Z</time></trkpt><trkpt lat="43.9462567" lon="12.5134467"><ele>219.33333333333334</ele><time>2026-04-11T13:03:56.938Z</time></trkpt><trkpt lat="43.9463067" lon="12.5135383"><ele>218.0</ele><time>2026-04-11T13:03:57.938Z</time></trkpt><trkpt lat="43.9463483" lon="12.5136133"><ele>218.00000000000003</ele><time>2026-04-11T13:03:58.938Z</time></trkpt><trkpt lat="43.946385" lon="12.513685"><ele>218.0</ele><time>2026-04-11T13:03:59.939Z</time></trkpt><trkpt lat="43.9464533" lon="12.5138383"><ele>218.0</ele><time>2026-04-11T13:04:01.938Z</time></trkpt><trkpt lat="43.9464767" lon="12.51393"><ele>218.0</ele><time>2026-04-11T13:04:02.938Z</time></trkpt><trkpt lat="43.9464983" lon="12.5140317"><ele>218.00000000000003</ele><time>2026-04-11T13:04:03.939Z</time></trkpt><trkpt lat="43.9465183" lon="12.5141417"><ele>218.0</ele><time>2026-04-11T13:04:04.938Z</time></trkpt><trkpt lat="43.9465367" lon="12.5142467"><ele>216.50000000000003</ele><time>2026-04-11T13:04:05.938Z</time></trkpt><trkpt lat="43.946555" lon="12.5143467"><ele>215.0</ele><time>2026-04-11T13:04:06.938Z</time></trkpt><trkpt lat="43.9465733" lon="12.5144417"><ele>213.5</ele><time>2026-04-11T13:04:07.939Z</time></trkpt><trkpt lat="43.9465933" lon="12.5145333"><ele>212.0</ele><time>2026-04-11T13:04:08.939Z</time></trkpt><trkpt lat="43.9466167" lon="12.5146417"><ele>210.50000000000003</ele><time>2026-04-11T13:04:09.938Z</time></trkpt><trkpt lat="43.9466333" lon="12.514745"><ele>209.0</ele><time>2026-04-11T13:04:10.938Z</time></trkpt><trkpt lat="43.9466533" lon="12.514895"><ele>207.33333333333334</ele><time>2026-04-11T13:04:12.938Z</time></trkpt><trkpt lat="43.946635" lon="12.5150333"><ele>205.66666666666669</ele><time>2026-04-11T13:04:14.939Z</time></trkpt><trkpt lat="43.94658" lon="12.5151283"><ele>204.0</ele><time>2026-04-11T13:04:16.939Z</time></trkpt><trkpt lat="43.9465217" lon="12.5151883"><ele>202.33333333333331</ele><time>2026-04-11T13:04:19.939Z</time></trkpt><trkpt lat="43.946475" lon="12.51528"><ele>200.66666666666666</ele><time>2026-04-11T13:04:21.939Z</time></trkpt><trkpt lat="43.9464333" lon="12.5153667"><ele>199.0</ele><time>2026-04-11T13:04:22.939Z</time></trkpt><trkpt lat="43.9463983" lon="12.51546"><ele>197.66666666666666</ele><time>2026-04-11T13:04:23.938Z</time></trkpt><trkpt lat="43.9463683" lon="12.5155383"><ele>196.33333333333331</ele><time>2026-04-11T13:04:24.938Z</time></trkpt><trkpt lat="43.9463167" lon="12.5156633"><ele>195.0</ele><time>2026-04-11T13:04:26.938Z</time></trkpt><trkpt lat="43.9462967" lon="12.5158217"><ele>193.66666666666666</ele><time>2026-04-11T13:04:28.938Z</time></trkpt><trkpt lat="43.946275" lon="12.5159217"><ele>192.33333333333331</ele><time>2026-04-11T13:04:29.939Z</time></trkpt><trkpt lat="43.9462533" lon="12.5160267"><ele>191.0</ele><time>2026-04-11T13:04:30.938Z</time></trkpt><trkpt lat="43.9462333" lon="12.516135"><ele>191.0</ele><time>2026-04-11T13:04:31.939Z</time></trkpt><trkpt lat="43.9462067" lon="12.516235"><ele>191.0</ele><time>2026-04-11T13:04:32.938Z</time></trkpt><trkpt lat="43.9461883" lon="12.5163367"><ele>191.0</ele><time>2026-04-11T13:04:33.938Z</time></trkpt><trkpt lat="43.9461733" lon="12.5164417"><ele>191.0</ele><time>2026-04-11T13:04:34.939Z</time></trkpt><trkpt lat="43.946165" lon="12.516555"><ele>191.0</ele><time>2026-04-11T13:04:35.939Z</time></trkpt><trkpt lat="43.94616" lon="12.5166817"><ele>191.0</ele><time>2026-04-11T13:04:36.938Z</time></trkpt><trkpt lat="43.9461617" lon="12.5168133"><ele>189.33333333333331</ele><time>2026-04-11T13:04:37.938Z</time></trkpt><trkpt lat="43.9461617" lon="12.51695"><ele>187.66666666666666</ele><time>2026-04-11T13:04:38.939Z</time></trkpt><trkpt lat="43.9461617" lon="12.5170783"><ele>186.0</ele><time>2026-04-11T13:04:39.938Z</time></trkpt><trkpt lat="43.9461617" lon="12.5171933"><ele>184.33333333333334</ele><time>2026-04-11T13:04:40.938Z</time></trkpt><trkpt lat="43.94616" lon="12.5173083"><ele>182.66666666666669</ele><time>2026-04-11T13:04:41.938Z</time></trkpt><trkpt lat="43.9461617" lon="12.5174217"><ele>181.0</ele><time>2026-04-11T13:04:42.938Z</time></trkpt><trkpt lat="43.9461583" lon="12.517525"><ele>179.20000000000002</ele><time>2026-04-11T13:04:43.938Z</time></trkpt><trkpt lat="43.94617" lon="12.5176267"><ele>177.4</ele><time>2026-04-11T13:04:44.938Z</time></trkpt><trkpt lat="43.9462217" lon="12.5177617"><ele>175.6</ele><time>2026-04-11T13:04:46.938Z</time></trkpt><trkpt lat="43.9463467" lon="12.51783"><ele>173.8</ele><time>2026-04-11T13:04:48.939Z</time></trkpt><trkpt lat="43.9464267" lon="12.5178533"><ele>172.0</ele><time>2026-04-11T13:04:49.939Z</time></trkpt><trkpt lat="43.9465017" lon="12.5178783"><ele>172.00000000000003</ele><time>2026-04-11T13:04:50.939Z</time></trkpt><trkpt lat="43.9465767" lon="12.5179017"><ele>172.0</ele><time>2026-04-11T13:04:51.939Z</time></trkpt><trkpt lat="43.9466433" lon="12.5179417"><ele>172.0</ele><time>2026-04-11T13:04:52.938Z</time></trkpt><trkpt lat="43.9466983" lon="12.5179867"><ele>172.0</ele><time>2026-04-11T13:04:53.939Z</time></trkpt><trkpt lat="43.946755" lon="12.51803"><ele>172.0</ele><time>2026-04-11T13:04:54.939Z</time></trkpt><trkpt lat="43.9468067" lon="12.5180883"><ele>172.00000000000003</ele><time>2026-04-11T13:04:55.939Z</time></trkpt><trkpt lat="43.94685" lon="12.5181533"><ele>172.0</ele><time>2026-04-11T13:04:56.939Z</time></trkpt><trkpt lat="43.9468783" lon="12.5182317"><ele>169.5</ele><time>2026-04-11T13:04:57.938Z</time></trkpt><trkpt lat="43.9469117" lon="12.518395"><ele>167.0</ele><time>2026-04-11T13:04:59.938Z</time></trkpt><trkpt lat="43.9469" lon="12.5185433"><ele>164.5</ele><time>2026-04-11T13:05:01.938Z</time></trkpt><trkpt lat="43.9468633" lon="12.5186933"><ele>162.0</ele><time>2026-04-11T13:05:03.939Z</time></trkpt><trkpt lat="43.9468033" lon="12.518815"><ele>160.71428571428572</ele><time>2026-04-11T13:05:05.939Z</time></trkpt><trkpt lat="43.9467483" lon="12.5188617"><ele>159.42857142857142</ele><time>2026-04-11T13:05:06.938Z</time></trkpt><trkpt lat="43.9466883" lon="12.5188967"><ele>158.14285714285714</ele><time>2026-04-11T13:05:07.938Z</time></trkpt><trkpt lat="43.9466233" lon="12.5189183"><ele>156.85714285714286</ele><time>2026-04-11T13:05:08.938Z</time></trkpt><trkpt lat="43.9465533" lon="12.51892"><ele>155.57142857142858</ele><time>2026-04-11T13:05:09.939Z</time></trkpt><trkpt lat="43.9464733" lon="12.51891"><ele>154.28571428571428</ele><time>2026-04-11T13:05:10.939Z</time></trkpt><trkpt lat="43.9463933" lon="12.5189"><ele>153.0</ele><time>2026-04-11T13:05:11.939Z</time></trkpt><trkpt lat="43.946325" lon="12.5188917"><ele>152.4</ele><time>2026-04-11T13:05:12.939Z</time></trkpt><trkpt lat="43.946235" lon="12.518955"><ele>151.8</ele><time>2026-04-11T13:05:14.938Z</time></trkpt><trkpt lat="43.9462267" lon="12.5191067"><ele>151.2</ele><time>2026-04-11T13:05:16.939Z</time></trkpt><trkpt lat="43.9462433" lon="12.5192183"><ele>150.6</ele><time>2026-04-11T13:05:17.938Z</time></trkpt><trkpt lat="43.9462617" lon="12.5193417"><ele>150.0</ele><time>2026-04-11T13:05:18.938Z</time></trkpt><trkpt lat="43.9462617" lon="12.51948"><ele>148.4</ele><time>2026-04-11T13:05:19.939Z</time></trkpt><trkpt lat="43.9462417" lon="12.5196167"><ele>146.8</ele><time>2026-04-11T13:05:20.939Z</time></trkpt><trkpt lat="43.9462167" lon="12.51976"><ele>145.2</ele><time>2026-04-11T13:05:21.939Z</time></trkpt><trkpt lat="43.9461783" lon="12.5199117"><ele>143.6</ele><time>2026-04-11T13:05:22.938Z</time></trkpt><trkpt lat="43.9461417" lon="12.5200683"><ele>142.0</ele><time>2026-04-11T13:05:23.938Z</time></trkpt><trkpt lat="43.9461133" lon="12.5202117"><ele>142.0</ele><time>2026-04-11T13:05:24.939Z</time></trkpt><trkpt lat="43.946105" lon="12.5203383"><ele>142.0</ele><time>2026-04-11T13:05:25.938Z</time></trkpt><trkpt lat="43.9461133" lon="12.520455"><ele>142.0</ele><time>2026-04-11T13:05:26.939Z</time></trkpt><trkpt lat="43.9461367" lon="12.52056"><ele>142.0</ele><time>2026-04-11T13:05:27.938Z</time></trkpt><trkpt lat="43.9461867" lon="12.520735"><ele>142.0</ele><time>2026-04-11T13:05:29.938Z</time></trkpt><trkpt lat="43.9462133" lon="12.5208367"><ele>140.85714285714286</ele><time>2026-04-11T13:05:30.938Z</time></trkpt><trkpt lat="43.9462367" lon="12.5209283"><ele>139.7142857142857</ele><time>2026-04-11T13:05:31.938Z</time></trkpt><trkpt lat="43.9462633" lon="12.5210117"><ele>138.57142857142856</ele><time>2026-04-11T13:05:32.938Z</time></trkpt><trkpt lat="43.946285" lon="12.5211"><ele>137.42857142857142</ele><time>2026-04-11T13:05:33.938Z</time></trkpt><trkpt lat="43.9462967" lon="12.521195"><ele>136.28571428571428</ele><time>2026-04-11T13:05:34.939Z</time></trkpt><trkpt lat="43.946305" lon="12.5212933"><ele>135.14285714285714</ele><time>2026-04-11T13:05:35.938Z</time></trkpt><trkpt lat="43.9463017" lon="12.5213867"><ele>134.0</ele><time>2026-04-11T13:05:36.939Z</time></trkpt><trkpt lat="43.9462683" lon="12.5215333"><ele>133.0</ele><time>2026-04-11T13:05:38.939Z</time></trkpt><trkpt lat="43.9462083" lon="12.5216567"><ele>132.0</ele><time>2026-04-11T13:05:40.939Z</time></trkpt><trkpt lat="43.9461583" lon="12.5217267"><ele>131.0</ele><time>2026-04-11T13:05:41.939Z</time></trkpt><trkpt lat="43.94611" lon="12.5218117"><ele>130.0</ele><time>2026-04-11T13:05:42.939Z</time></trkpt><trkpt lat="43.9460667" lon="12.5219017"><ele>129.0</ele><time>2026-04-11T13:05:43.938Z</time></trkpt><trkpt lat="43.9460267" lon="12.5219883"><ele>128.0</ele><time>2026-04-11T13:05:44.939Z</time></trkpt><trkpt lat="43.9459867" lon="12.5220783"><ele>127.16666666666666</ele><time>2026-04-11T13:05:45.938Z</time></trkpt><trkpt lat="43.94596" lon="12.5221783"><ele>126.33333333333333</ele><time>2026-04-11T13:05:46.938Z</time></trkpt><trkpt lat="43.945945" lon="12.52229"><ele>125.5</ele><time>2026-04-11T13:05:47.938Z</time></trkpt><trkpt lat="43.9459483" lon="12.5223983"><ele>124.66666666666666</ele><time>2026-04-11T13:05:48.938Z</time></trkpt><trkpt lat="43.9459583" lon="12.5225033"><ele>123.83333333333333</ele><time>2026-04-11T13:05:49.938Z</time></trkpt><trkpt lat="43.94597" lon="12.5225917"><ele>123.0</ele><time>2026-04-11T13:05:50.938Z</time></trkpt><trkpt lat="43.9460067" lon="12.5227283"><ele>123.0</ele><time>2026-04-11T13:05:52.938Z</time></trkpt><trkpt lat="43.9460683" lon="12.5228333"><ele>123.00000000000001</ele><time>2026-04-11T13:05:54.938Z</time></trkpt><trkpt lat="43.9461383" lon="12.5229783"><ele>123.00000000000001</ele><time>2026-04-11T13:05:56.939Z</time></trkpt><trkpt lat="43.946175" lon="12.5230683"><ele>123.0</ele><time>2026-04-11T13:05:57.938Z</time></trkpt><trkpt lat="43.946215" lon="12.52317"><ele>123.0</ele><time>2026-04-11T13:05:58.938Z</time></trkpt><trkpt lat="43.9462583" lon="12.5232783"><ele>122.33333333333333</ele><time>2026-04-11T13:05:59.939Z</time></trkpt><trkpt lat="43.946295" lon="12.5233883"><ele>121.66666666666666</ele><time>2026-04-11T13:06:00.939Z</time></trkpt><trkpt lat="43.9463367" lon="12.5234983"><ele>121.0</ele><time>2026-04-11T13:06:01.939Z</time></trkpt><trkpt lat="43.9463783" lon="12.5236017"><ele>120.33333333333333</ele><time>2026-04-11T13:06:02.939Z</time></trkpt><trkpt lat="43.9464133" lon="12.523705"><ele>119.66666666666666</ele><time>2026-04-11T13:06:03.939Z</time></trkpt><trkpt lat="43.9464417" lon="12.5238183"><ele>119.0</ele><time>2026-04-11T13:06:04.939Z</time></trkpt><trkpt lat="43.946465" lon="12.52393"><ele>117.83333333333333</ele><time>2026-04-11T13:06:05.938Z</time></trkpt><trkpt lat="43.9464933" lon="12.52404"><ele>116.66666666666666</ele><time>2026-04-11T13:06:06.939Z</time></trkpt><trkpt lat="43.9465283" lon="12.5241483"><ele>115.5</ele><time>2026-04-11T13:06:07.939Z</time></trkpt><trkpt lat="43.9465633" lon="12.5242583"><ele>114.33333333333334</ele><time>2026-04-11T13:06:08.938Z</time></trkpt><trkpt lat="43.9465983" lon="12.524365"><ele>113.16666666666667</ele><time>2026-04-11T13:06:09.938Z</time></trkpt><trkpt lat="43.9466383" lon="12.5244833"><ele>112.0</ele><time>2026-04-11T13:06:10.938Z</time></trkpt><trkpt lat="43.94667" lon="12.5245967"><ele>110.66666666666667</ele><time>2026-04-11T13:06:11.939Z</time></trkpt><trkpt lat="43.94669" lon="12.5247"><ele>109.33333333333334</ele><time>2026-04-11T13:06:12.938Z</time></trkpt><trkpt lat="43.9466933" lon="12.5247883"><ele>108.0</ele><time>2026-04-11T13:06:13.939Z</time></trkpt><trkpt lat="43.9466333" lon="12.5249"><ele>106.66666666666666</ele><time>2026-04-11T13:06:15.939Z</time></trkpt><trkpt lat="43.9465717" lon="12.5249417"><ele>105.33333333333333</ele><time>2026-04-11T13:06:16.939Z</time></trkpt><trkpt lat="43.9464933" lon="12.524985"><ele>104.0</ele><time>2026-04-11T13:06:17.939Z</time></trkpt><trkpt lat="43.94641" lon="12.52503"><ele>104.0</ele><time>2026-04-11T13:06:18.939Z</time></trkpt><trkpt lat="43.9463133" lon="12.5250667"><ele>104.0</ele><time>2026-04-11T13:06:19.938Z</time></trkpt><trkpt lat="43.946215" lon="12.5251067"><ele>104.0</ele><time>2026-04-11T13:06:20.938Z</time></trkpt><trkpt lat="43.9461367" lon="12.5251567"><ele>104.0</ele><time>2026-04-11T13:06:21.939Z</time></trkpt><trkpt lat="43.94606" lon="12.5252083"><ele>104.0</ele><time>2026-04-11T13:06:22.936Z</time></trkpt><trkpt lat="43.9459967" lon="12.5252883"><ele>103.80000000000001</ele><time>2026-04-11T13:06:23.938Z</time></trkpt><trkpt lat="43.94595" lon="12.5253967"><ele>103.60000000000001</ele><time>2026-04-11T13:06:24.939Z</time></trkpt><trkpt lat="43.9459" lon="12.52552"><ele>103.4</ele><time>2026-04-11T13:06:25.939Z</time></trkpt><trkpt lat="43.9458417" lon="12.5256467"><ele>103.2</ele><time>2026-04-11T13:06:26.938Z</time></trkpt><trkpt lat="43.945785" lon="12.5257683"><ele>103.0</ele><time>2026-04-11T13:06:27.938Z</time></trkpt><trkpt lat="43.9457183" lon="12.5258683"><ele>102.16666666666667</ele><time>2026-04-11T13:06:28.939Z</time></trkpt><trkpt lat="43.945665" lon="12.525965"><ele>101.33333333333334</ele><time>2026-04-11T13:06:29.939Z</time></trkpt><trkpt lat="43.9456333" lon="12.5260767"><ele>100.5</ele><time>2026-04-11T13:06:30.939Z</time></trkpt><trkpt lat="43.9456133" lon="12.5261833"><ele>99.66666666666666</ele><time>2026-04-11T13:06:31.938Z</time></trkpt><trkpt lat="43.945605" lon="12.5262933"><ele>98.83333333333333</ele><time>2026-04-11T13:06:32.939Z</time></trkpt><trkpt lat="43.9455867" lon="12.5264183"><ele>98.0</ele><time>2026-04-11T13:06:34.939Z</time></trkpt><trkpt lat="43.9455233" lon="12.52646"><ele>98.0</ele><time>2026-04-11T13:06:36.938Z</time></trkpt><trkpt lat="43.9454183" lon="12.5263633"><ele>98.0</ele><time>2026-04-11T13:06:38.939Z</time></trkpt><trkpt lat="43.94534" lon="12.5262667"><ele>98.0</ele><time>2026-04-11T13:06:39.939Z</time></trkpt><trkpt lat="43.9452483" lon="12.5261517"><ele>98.0</ele><time>2026-04-11T13:06:40.939Z</time></trkpt><trkpt lat="43.945155" lon="12.5260533"><ele>97.99999999999999</ele><time>2026-04-11T13:06:41.939Z</time></trkpt><trkpt lat="43.9450583" lon="12.5260067"><ele>98.0</ele><time>2026-04-11T13:06:42.939Z</time></trkpt><trkpt lat="43.9449467" lon="12.5260433"><ele>98.0</ele><time>2026-04-11T13:06:44.938Z</time></trkpt><trkpt lat="43.9448817" lon="12.5260533"><ele>98.0</ele><time>2026-04-11T13:06:45.938Z</time></trkpt><trkpt lat="43.9448083" lon="12.52604"><ele>97.99999999999999</ele><time>2026-04-11T13:06:46.938Z</time></trkpt><trkpt lat="43.9447267" lon="12.526015"><ele>98.0</ele><time>2026-04-11T13:06:47.938Z</time></trkpt><trkpt lat="43.9446483" lon="12.5260133"><ele>97.60000000000001</ele><time>2026-04-11T13:06:48.938Z</time></trkpt><trkpt lat="43.944575" lon="12.5260433"><ele>97.2</ele><time>2026-04-11T13:06:49.938Z</time></trkpt><trkpt lat="43.94449" lon="12.5261083"><ele>96.8</ele><time>2026-04-11T13:06:50.939Z</time></trkpt><trkpt lat="43.9443783" lon="12.5261917"><ele>96.4</ele><time>2026-04-11T13:06:51.939Z</time></trkpt><trkpt lat="43.9442683" lon="12.52628"><ele>96.0</ele><time>2026-04-11T13:06:52.939Z</time></trkpt><trkpt lat="43.94414" lon="12.5263833"><ele>95.33333333333333</ele><time>2026-04-11T13:06:53.938Z</time></trkpt><trkpt lat="43.9440067" lon="12.5265"><ele>94.66666666666666</ele><time>2026-04-11T13:06:54.938Z</time></trkpt><trkpt lat="43.943895" lon="12.5266333"><ele>94.0</ele><time>2026-04-11T13:06:55.939Z</time></trkpt><trkpt lat="43.9437883" lon="12.5267833"><ele>94.0</ele><time>2026-04-11T13:06:56.939Z</time></trkpt><trkpt lat="43.9436767" lon="12.5268983"><ele>94.0</ele><time>2026-04-11T13:06:57.938Z</time></trkpt><trkpt lat="43.943535" lon="12.52698"><ele>94.0</ele><time>2026-04-11T13:06:58.939Z</time></trkpt><trkpt lat="43.94338" lon="12.5270267"><ele>95.33333333333333</ele><time>2026-04-11T13:06:59.939Z</time></trkpt><trkpt lat="43.9432233" lon="12.5270583"><ele>96.66666666666666</ele><time>2026-04-11T13:07:00.939Z</time></trkpt><trkpt lat="43.9430633" lon="12.5271"><ele>98.0</ele><time>2026-04-11T13:07:01.939Z</time></trkpt><trkpt lat="43.9429033" lon="12.5271517"><ele>98.0</ele><time>2026-04-11T13:07:02.938Z</time></trkpt><trkpt lat="43.9427517" lon="12.5271883"><ele>98.0</ele><time>2026-04-11T13:07:03.938Z</time></trkpt><trkpt lat="43.9425967" lon="12.52725"><ele>98.0</ele><time>2026-04-11T13:07:04.938Z</time></trkpt><trkpt lat="43.9424367" lon="12.527305"><ele>101.33333333333333</ele><time>2026-04-11T13:07:05.938Z</time></trkpt><trkpt lat="43.9422817" lon="12.527355"><ele>104.66666666666666</ele><time>2026-04-11T13:07:06.939Z</time></trkpt><trkpt lat="43.9421283" lon="12.5274333"><ele>108.0</ele><time>2026-04-11T13:07:07.939Z</time></trkpt><trkpt lat="43.9419933" lon="12.52755"><ele>108.0</ele><time>2026-04-11T13:07:08.938Z</time></trkpt><trkpt lat="43.9418767" lon="12.5276683"><ele>108.00000000000001</ele><time>2026-04-11T13:07:09.938Z</time></trkpt><trkpt lat="43.9418017" lon="12.5277517"><ele>108.00000000000001</ele><time>2026-04-11T13:07:10.939Z</time></trkpt><trkpt lat="43.941725" lon="12.5277517"><ele>108.0</ele><time>2026-04-11T13:07:11.938Z</time></trkpt><trkpt lat="43.94167" lon="12.5276917"><ele>108.0</ele><time>2026-04-11T13:07:12.938Z</time></trkpt><trkpt lat="43.9416267" lon="12.527605"><ele>111.0</ele><time>2026-04-11T13:07:13.938Z</time></trkpt><trkpt lat="43.9415833" lon="12.5275"><ele>114.00000000000001</ele><time>2026-04-11T13:07:14.939Z</time></trkpt><trkpt lat="43.9415283" lon="12.5273883"><ele>117.00000000000001</ele><time>2026-04-11T13:07:15.938Z</time></trkpt><trkpt lat="43.9414667" lon="12.527305"><ele>120.0</ele><time>2026-04-11T13:07:16.938Z</time></trkpt><trkpt lat="43.941405" lon="12.52728"><ele>123.0</ele><time>2026-04-11T13:07:17.939Z</time></trkpt><trkpt lat="43.9412883" lon="12.5272883"><ele>123.0</ele><time>2026-04-11T13:07:19.938Z</time></trkpt><trkpt lat="43.9411917" lon="12.5271833"><ele>123.0</ele><time>2026-04-11T13:07:21.938Z</time></trkpt><trkpt lat="43.941135" lon="12.5270783"><ele>123.0</ele><time>2026-04-11T13:07:22.937Z</time></trkpt><trkpt lat="43.941075" lon="12.5269317"><ele>123.0</ele><time>2026-04-11T13:07:23.937Z</time></trkpt><trkpt lat="43.9410033" lon="12.5267767"><ele>123.25</ele><time>2026-04-11T13:07:24.938Z</time></trkpt><trkpt lat="43.9409333" lon="12.526615"><ele>123.5</ele><time>2026-04-11T13:07:25.937Z</time></trkpt><trkpt lat="43.9408467" lon="12.5264817"><ele>123.75</ele><time>2026-04-11T13:07:26.938Z</time></trkpt><trkpt lat="43.9407517" lon="12.526375"><ele>124.0</ele><time>2026-04-11T13:07:27.938Z</time></trkpt><trkpt lat="43.9406417" lon="12.526295"><ele>124.0</ele><time>2026-04-11T13:07:28.938Z</time></trkpt><trkpt lat="43.9405167" lon="12.5262333"><ele>124.0</ele><time>2026-04-11T13:07:29.937Z</time></trkpt><trkpt lat="43.9403833" lon="12.5261583"><ele>124.0</ele><time>2026-04-11T13:07:30.937Z</time></trkpt><trkpt lat="43.9402483" lon="12.526075"><ele>124.0</ele><time>2026-04-11T13:07:31.938Z</time></trkpt><trkpt lat="43.940115" lon="12.5259667"><ele>125.5</ele><time>2026-04-11T13:07:32.937Z</time></trkpt><trkpt lat="43.9399783" lon="12.5258533"><ele>127.0</ele><time>2026-04-11T13:07:33.937Z</time></trkpt><trkpt lat="43.9398533" lon="12.5257333"><ele>128.5</ele><time>2026-04-11T13:07:34.937Z</time></trkpt><trkpt lat="43.9397533" lon="12.525605"><ele>130.0</ele><time>2026-04-11T13:07:35.938Z</time></trkpt><trkpt lat="43.9396867" lon="12.5254717"><ele>129.25</ele><time>2026-04-11T13:07:36.938Z</time></trkpt><trkpt lat="43.9396483" lon="12.5253267"><ele>128.5</ele><time>2026-04-11T13:07:37.937Z</time></trkpt><trkpt lat="43.9396333" lon="12.525165"><ele>127.75</ele><time>2026-04-11T13:07:38.938Z</time></trkpt><trkpt lat="43.9396433" lon="12.525005"><ele>127.0</ele><time>2026-04-11T13:07:39.938Z</time></trkpt><trkpt lat="43.9396667" lon="12.5248517"><ele>127.0</ele><time>2026-04-11T13:07:40.938Z</time></trkpt><trkpt lat="43.9397217" lon="12.524705"><ele>127.0</ele><time>2026-04-11T13:07:41.938Z</time></trkpt><trkpt lat="43.9397817" lon="12.5245717"><ele>127.0</ele><time>2026-04-11T13:07:42.938Z</time></trkpt><trkpt lat="43.939865" lon="12.5244433"><ele>127.0</ele><time>2026-04-11T13:07:43.937Z</time></trkpt><trkpt lat="43.93994" lon="12.52432"><ele>127.25</ele><time>2026-04-11T13:07:44.938Z</time></trkpt><trkpt lat="43.9400217" lon="12.524185"><ele>127.5</ele><time>2026-04-11T13:07:45.938Z</time></trkpt><trkpt lat="43.9401017" lon="12.524045"><ele>127.75</ele><time>2026-04-11T13:07:46.938Z</time></trkpt><trkpt lat="43.9401867" lon="12.52391"><ele>128.0</ele><time>2026-04-11T13:07:47.938Z</time></trkpt><trkpt lat="43.9402767" lon="12.5237683"><ele>124.75</ele><time>2026-04-11T13:07:48.937Z</time></trkpt><trkpt lat="43.9403633" lon="12.5236233"><ele>121.5</ele><time>2026-04-11T13:07:49.938Z</time></trkpt><trkpt lat="43.9404533" lon="12.5234767"><ele>118.25</ele><time>2026-04-11T13:07:50.938Z</time></trkpt><trkpt lat="43.940535" lon="12.5233233"><ele>115.0</ele><time>2026-04-11T13:07:51.938Z</time></trkpt><trkpt lat="43.9406283" lon="12.523195"><ele>115.0</ele><time>2026-04-11T13:07:52.938Z</time></trkpt><trkpt lat="43.940735" lon="12.5230767"><ele>115.0</ele><time>2026-04-11T13:07:53.938Z</time></trkpt><trkpt lat="43.9408583" lon="12.52297"><ele>115.0</ele><time>2026-04-11T13:07:54.937Z</time></trkpt><trkpt lat="43.94099" lon="12.52286"><ele>115.0</ele><time>2026-04-11T13:07:55.938Z</time></trkpt><trkpt lat="43.9411067" lon="12.5227517"><ele>112.5</ele><time>2026-04-11T13:07:56.937Z</time></trkpt><trkpt lat="43.941195" lon="12.5226133"><ele>110.0</ele><time>2026-04-11T13:07:57.938Z</time></trkpt><trkpt lat="43.94125" lon="12.52246"><ele>107.5</ele><time>2026-04-11T13:07:58.937Z</time></trkpt><trkpt lat="43.9412783" lon="12.522295"><ele>105.0</ele><time>2026-04-11T13:07:59.937Z</time></trkpt><trkpt lat="43.9412833" lon="12.522125"><ele>104.75</ele><time>2026-04-11T13:08:00.938Z</time></trkpt><trkpt lat="43.9412667" lon="12.5219383"><ele>104.5</ele><time>2026-04-11T13:08:01.938Z</time></trkpt><trkpt lat="43.9412483" lon="12.521755"><ele>104.25</ele><time>2026-04-11T13:08:02.937Z</time></trkpt><trkpt lat="43.9412217" lon="12.52157"><ele>104.0</ele><time>2026-04-11T13:08:03.938Z</time></trkpt><trkpt lat="43.941195" lon="12.5213867"><ele>103.75</ele><time>2026-04-11T13:08:04.938Z</time></trkpt><trkpt lat="43.94116" lon="12.5212033"><ele>103.5</ele><time>2026-04-11T13:08:05.938Z</time></trkpt><trkpt lat="43.9411133" lon="12.5210233"><ele>103.25</ele><time>2026-04-11T13:08:06.938Z</time></trkpt><trkpt lat="43.9410633" lon="12.5208317"><ele>103.0</ele><time>2026-04-11T13:08:07.938Z</time></trkpt><trkpt lat="43.9410233" lon="12.52065"><ele>103.0</ele><time>2026-04-11T13:08:08.938Z</time></trkpt><trkpt lat="43.940975" lon="12.5204617"><ele>103.0</ele><time>2026-04-11T13:08:09.938Z</time></trkpt><trkpt lat="43.9409183" lon="12.5202817"><ele>103.0</ele><time>2026-04-11T13:08:10.937Z</time></trkpt><trkpt lat="43.9408617" lon="12.5201167"><ele>103.0</ele><time>2026-04-11T13:08:11.938Z</time></trkpt><trkpt lat="43.9407867" lon="12.5199617"><ele>103.5</ele><time>2026-04-11T13:08:12.937Z</time></trkpt><trkpt lat="43.9406867" lon="12.5198283"><ele>104.0</ele><time>2026-04-11T13:08:13.938Z</time></trkpt><trkpt lat="43.9405633" lon="12.519735"><ele>104.5</ele><time>2026-04-11T13:08:14.937Z</time></trkpt><trkpt lat="43.94043" lon="12.5196483"><ele>105.0</ele><time>2026-04-11T13:08:15.937Z</time></trkpt><trkpt lat="43.9402983" lon="12.5195733"><ele>104.5</ele><time>2026-04-11T13:08:16.937Z</time></trkpt><trkpt lat="43.9401717" lon="12.5194917"><ele>104.0</ele><time>2026-04-11T13:08:17.937Z</time></trkpt><trkpt lat="43.9400567" lon="12.5194117"><ele>103.5</ele><time>2026-04-11T13:08:18.937Z</time></trkpt><trkpt lat="43.9399433" lon="12.51935"><ele>103.0</ele><time>2026-04-11T13:08:19.937Z</time></trkpt><trkpt lat="43.939825" lon="12.5192983"><ele>104.25</ele><time>2026-04-11T13:08:20.938Z</time></trkpt><trkpt lat="43.9396983" lon="12.51923"><ele>105.5</ele><time>2026-04-11T13:08:21.937Z</time></trkpt><trkpt lat="43.9395717" lon="12.5191617"><ele>106.75</ele><time>2026-04-11T13:08:22.937Z</time></trkpt><trkpt lat="43.9394383" lon="12.519085"><ele>108.0</ele><time>2026-04-11T13:08:23.938Z</time></trkpt><trkpt lat="43.939315" lon="12.519"><ele>110.5</ele><time>2026-04-11T13:08:24.938Z</time></trkpt><trkpt lat="43.939185" lon="12.5189083"><ele>113.0</ele><time>2026-04-11T13:08:25.937Z</time></trkpt><trkpt lat="43.9390717" lon="12.518835"><ele>115.5</ele><time>2026-04-11T13:08:26.938Z</time></trkpt><trkpt lat="43.938985" lon="12.51878"><ele>118.0</ele><time>2026-04-11T13:08:27.937Z</time></trkpt><trkpt lat="43.9389033" lon="12.51874"><ele>118.0</ele><time>2026-04-11T13:08:28.937Z</time></trkpt><trkpt lat="43.9388367" lon="12.518725"><ele>118.00000000000001</ele><time>2026-04-11T13:08:29.937Z</time></trkpt><trkpt lat="43.9387467" lon="12.5187317"><ele>118.00000000000001</ele><time>2026-04-11T13:08:31.937Z</time></trkpt><trkpt lat="43.93868" lon="12.5188"><ele>118.0</ele><time>2026-04-11T13:08:33.938Z</time></trkpt><trkpt lat="43.9385717" lon="12.5189067"><ele>118.0</ele><time>2026-04-11T13:08:35.937Z</time></trkpt><trkpt lat="43.9385033" lon="12.5189667"><ele>118.00000000000001</ele><time>2026-04-11T13:08:36.938Z</time></trkpt><trkpt lat="43.938435" lon="12.519035"><ele>118.0</ele><time>2026-04-11T13:08:37.937Z</time></trkpt><trkpt lat="43.938365" lon="12.519105"><ele>118.0</ele><time>2026-04-11T13:08:38.937Z</time></trkpt><trkpt lat="43.9382933" lon="12.5191667"><ele>118.0</ele><time>2026-04-11T13:08:39.938Z</time></trkpt><trkpt lat="43.9382233" lon="12.519225"><ele>118.00000000000001</ele><time>2026-04-11T13:08:40.938Z</time></trkpt><trkpt lat="43.938155" lon="12.51929"><ele>118.0</ele><time>2026-04-11T13:08:41.938Z</time></trkpt><trkpt lat="43.9380867" lon="12.5193533"><ele>119.16666666666667</ele><time>2026-04-11T13:08:42.938Z</time></trkpt><trkpt lat="43.9380267" lon="12.5194117"><ele>120.33333333333334</ele><time>2026-04-11T13:08:43.938Z</time></trkpt><trkpt lat="43.937965" lon="12.51947"><ele>121.5</ele><time>2026-04-11T13:08:44.938Z</time></trkpt><trkpt lat="43.9379" lon="12.5195283"><ele>122.66666666666666</ele><time>2026-04-11T13:08:45.937Z</time></trkpt><trkpt lat="43.9378333" lon="12.5195833"><ele>123.83333333333333</ele><time>2026-04-11T13:08:46.937Z</time></trkpt><trkpt lat="43.9377633" lon="12.519645"><ele>125.0</ele><time>2026-04-11T13:08:47.938Z</time></trkpt><trkpt lat="43.9376917" lon="12.5197333"><ele>126.66666666666666</ele><time>2026-04-11T13:08:48.938Z</time></trkpt><trkpt lat="43.9376283" lon="12.519815"><ele>128.33333333333331</ele><time>2026-04-11T13:08:49.938Z</time></trkpt><trkpt lat="43.9375583" lon="12.5198917"><ele>130.0</ele><time>2026-04-11T13:08:50.938Z</time></trkpt><trkpt lat="43.9374917" lon="12.519975"><ele>131.66666666666666</ele><time>2026-04-11T13:08:51.938Z</time></trkpt><trkpt lat="43.9374333" lon="12.52006"><ele>133.33333333333334</ele><time>2026-04-11T13:08:52.938Z</time></trkpt><trkpt lat="43.9373833" lon="12.5201567"><ele>135.0</ele><time>2026-04-11T13:08:53.938Z</time></trkpt><trkpt lat="43.9373317" lon="12.5202517"><ele>136.5</ele><time>2026-04-11T13:08:54.937Z</time></trkpt><trkpt lat="43.9372867" lon="12.5203383"><ele>138.0</ele><time>2026-04-11T13:08:55.938Z</time></trkpt><trkpt lat="43.937245" lon="12.5204317"><ele>139.5</ele><time>2026-04-11T13:08:56.938Z</time></trkpt><trkpt lat="43.9372117" lon="12.5205317"><ele>141.0</ele><time>2026-04-11T13:08:57.937Z</time></trkpt><trkpt lat="43.9371717" lon="12.5206317"><ele>142.5</ele><time>2026-04-11T13:08:58.937Z</time></trkpt><trkpt lat="43.9371283" lon="12.52073"><ele>144.0</ele><time>2026-04-11T13:08:59.938Z</time></trkpt><trkpt lat="43.93708" lon="12.52082"><ele>145.66666666666666</ele><time>2026-04-11T13:09:00.937Z</time></trkpt><trkpt lat="43.9370183" lon="12.5209083"><ele>147.33333333333334</ele><time>2026-04-11T13:09:01.938Z</time></trkpt><trkpt lat="43.9369567" lon="12.5209917"><ele>149.0</ele><time>2026-04-11T13:09:02.937Z</time></trkpt><trkpt lat="43.9369017" lon="12.5210783"><ele>150.66666666666669</ele><time>2026-04-11T13:09:03.937Z</time></trkpt><trkpt lat="43.9368417" lon="12.5211717"><ele>152.33333333333334</ele><time>2026-04-11T13:09:04.937Z</time></trkpt><trkpt lat="43.9367783" lon="12.52126"><ele>154.0</ele><time>2026-04-11T13:09:05.938Z</time></trkpt><trkpt lat="43.9367117" lon="12.5213367"><ele>157.66666666666669</ele><time>2026-04-11T13:09:06.937Z</time></trkpt><trkpt lat="43.936655" lon="12.5214283"><ele>161.33333333333334</ele><time>2026-04-11T13:09:07.938Z</time></trkpt><trkpt lat="43.9365967" lon="12.52151"><ele>165.0</ele><time>2026-04-11T13:09:08.937Z</time></trkpt><trkpt lat="43.9365383" lon="12.52159"><ele>168.66666666666666</ele><time>2026-04-11T13:09:09.938Z</time></trkpt><trkpt lat="43.9364867" lon="12.5216783"><ele>172.33333333333331</ele><time>2026-04-11T13:09:10.938Z</time></trkpt><trkpt lat="43.9364367" lon="12.5217617"><ele>176.0</ele><time>2026-04-11T13:09:11.937Z</time></trkpt><trkpt lat="43.9363833" lon="12.5218433"><ele>176.0</ele><time>2026-04-11T13:09:12.937Z</time></trkpt><trkpt lat="43.936325" lon="12.5219233"><ele>176.0</ele><time>2026-04-11T13:09:13.938Z</time></trkpt><trkpt lat="43.9362717" lon="12.5220083"><ele>176.0</ele><time>2026-04-11T13:09:14.938Z</time></trkpt><trkpt lat="43.9362217" lon="12.5220983"><ele>176.0</ele><time>2026-04-11T13:09:15.937Z</time></trkpt><trkpt lat="43.9361817" lon="12.522195"><ele>176.0</ele><time>2026-04-11T13:09:16.938Z</time></trkpt><trkpt lat="43.9361417" lon="12.5222967"><ele>176.0</ele><time>2026-04-11T13:09:17.938Z</time></trkpt><trkpt lat="43.936105" lon="12.52241"><ele>177.66666666666666</ele><time>2026-04-11T13:09:18.938Z</time></trkpt><trkpt lat="43.9360667" lon="12.522515"><ele>179.33333333333331</ele><time>2026-04-11T13:09:19.937Z</time></trkpt><trkpt lat="43.9360283" lon="12.5226133"><ele>181.0</ele><time>2026-04-11T13:09:20.937Z</time></trkpt><trkpt lat="43.9359883" lon="12.522705"><ele>182.66666666666666</ele><time>2026-04-11T13:09:21.937Z</time></trkpt><trkpt lat="43.93595" lon="12.5227983"><ele>184.33333333333334</ele><time>2026-04-11T13:09:22.937Z</time></trkpt><trkpt lat="43.9359167" lon="12.52288"><ele>186.0</ele><time>2026-04-11T13:09:23.938Z</time></trkpt><trkpt lat="43.9358983" lon="12.52298"><ele>189.33333333333334</ele><time>2026-04-11T13:09:24.937Z</time></trkpt><trkpt lat="43.9358783" lon="12.52308"><ele>192.66666666666669</ele><time>2026-04-11T13:09:25.938Z</time></trkpt><trkpt lat="43.93585" lon="12.5231817"><ele>196.0</ele><time>2026-04-11T13:09:26.938Z</time></trkpt><trkpt lat="43.9358" lon="12.5232817"><ele>199.33333333333334</ele><time>2026-04-11T13:09:27.938Z</time></trkpt><trkpt lat="43.935745" lon="12.5233833"><ele>202.66666666666669</ele><time>2026-04-11T13:09:28.937Z</time></trkpt><trkpt lat="43.93569" lon="12.5234883"><ele>206.0</ele><time>2026-04-11T13:09:29.938Z</time></trkpt><trkpt lat="43.9356333" lon="12.5235833"><ele>206.00000000000003</ele><time>2026-04-11T13:09:30.937Z</time></trkpt><trkpt lat="43.9355833" lon="12.5236767"><ele>206.0</ele><time>2026-04-11T13:09:31.938Z</time></trkpt><trkpt lat="43.9355367" lon="12.5237783"><ele>206.0</ele><time>2026-04-11T13:09:32.937Z</time></trkpt><trkpt lat="43.9354983" lon="12.5238917"><ele>206.0</ele><time>2026-04-11T13:09:33.937Z</time></trkpt><trkpt lat="43.935455" lon="12.5240067"><ele>206.00000000000003</ele><time>2026-04-11T13:09:34.937Z</time></trkpt><trkpt lat="43.9354167" lon="12.5241167"><ele>206.0</ele><time>2026-04-11T13:09:35.938Z</time></trkpt><trkpt lat="43.9353783" lon="12.5242283"><ele>207.00000000000003</ele><time>2026-04-11T13:09:36.937Z</time></trkpt><trkpt lat="43.9353417" lon="12.524345"><ele>208.0</ele><time>2026-04-11T13:09:37.938Z</time></trkpt><trkpt lat="43.9353133" lon="12.5244567"><ele>209.0</ele><time>2026-04-11T13:09:38.937Z</time></trkpt><trkpt lat="43.9352883" lon="12.5245717"><ele>210.0</ele><time>2026-04-11T13:09:39.937Z</time></trkpt><trkpt lat="43.9352483" lon="12.5246883"><ele>211.00000000000003</ele><time>2026-04-11T13:09:40.938Z</time></trkpt><trkpt lat="43.9352067" lon="12.5248033"><ele>212.0</ele><time>2026-04-11T13:09:41.938Z</time></trkpt><trkpt lat="43.93516" lon="12.5249067"><ele>212.16666666666669</ele><time>2026-04-11T13:09:42.938Z</time></trkpt><trkpt lat="43.9351133" lon="12.5250017"><ele>212.33333333333334</ele><time>2026-04-11T13:09:43.937Z</time></trkpt><trkpt lat="43.9350633" lon="12.52509"><ele>212.5</ele><time>2026-04-11T13:09:44.937Z</time></trkpt><trkpt lat="43.9350167" lon="12.52517"><ele>212.66666666666669</ele><time>2026-04-11T13:09:45.937Z</time></trkpt><trkpt lat="43.934945" lon="12.52531"><ele>212.83333333333334</ele><time>2026-04-11T13:09:47.938Z</time></trkpt><trkpt lat="43.93493" lon="12.52543"><ele>213.0</ele><time>2026-04-11T13:09:49.938Z</time></trkpt><trkpt lat="43.9349417" lon="12.52556"><ele>219.25</ele><time>2026-04-11T13:09:51.937Z</time></trkpt><trkpt lat="43.9349383" lon="12.525715"><ele>225.5</ele><time>2026-04-11T13:09:53.937Z</time></trkpt><trkpt lat="43.9349183" lon="12.5259017"><ele>231.75</ele><time>2026-04-11T13:09:55.938Z</time></trkpt><trkpt lat="43.9348933" lon="12.5260667"><ele>238.0</ele><time>2026-04-11T13:09:57.938Z</time></trkpt><trkpt lat="43.9348667" lon="12.5261917"><ele>237.99999999999997</ele><time>2026-04-11T13:09:59.937Z</time></trkpt><trkpt lat="43.9348067" lon="12.5263033"><ele>238.0</ele><time>2026-04-11T13:10:01.938Z</time></trkpt><trkpt lat="43.9347467" lon="12.5263633"><ele>238.0</ele><time>2026-04-11T13:10:03.937Z</time></trkpt><trkpt lat="43.934695" lon="12.5263067"><ele>238.0</ele><time>2026-04-11T13:10:07.938Z</time></trkpt><trkpt lat="43.9346367" lon="12.5262267"><ele>237.99999999999997</ele><time>2026-04-11T13:10:09.937Z</time></trkpt><trkpt lat="43.93453" lon="12.5262"><ele>238.0</ele><time>2026-04-11T13:10:11.938Z</time></trkpt><trkpt lat="43.9344617" lon="12.526275"><ele>236.2</ele><time>2026-04-11T13:10:12.938Z</time></trkpt><trkpt lat="43.93439" lon="12.5263567"><ele>234.4</ele><time>2026-04-11T13:10:13.937Z</time></trkpt><trkpt lat="43.9343" lon="12.52645"><ele>232.59999999999997</ele><time>2026-04-11T13:10:14.938Z</time></trkpt><trkpt lat="43.9342033" lon="12.5265467"><ele>230.79999999999998</ele><time>2026-04-11T13:10:15.938Z</time></trkpt><trkpt lat="43.9341017" lon="12.52664"><ele>229.0</ele><time>2026-04-11T13:10:16.938Z</time></trkpt><trkpt lat="43.9339967" lon="12.52673"><ele>233.0</ele><time>2026-04-11T13:10:17.937Z</time></trkpt><trkpt lat="43.9338867" lon="12.52682"><ele>237.0</ele><time>2026-04-11T13:10:18.937Z</time></trkpt><trkpt lat="43.9337767" lon="12.5269033"><ele>241.0</ele><time>2026-04-11T13:10:19.937Z</time></trkpt><trkpt lat="43.9336717" lon="12.52701"><ele>245.0</ele><time>2026-04-11T13:10:20.937Z</time></trkpt><trkpt lat="43.93356" lon="12.5271083"><ele>245.0</ele><time>2026-04-11T13:10:21.937Z</time></trkpt><trkpt lat="43.9334617" lon="12.5271917"><ele>245.0</ele><time>2026-04-11T13:10:22.938Z</time></trkpt><trkpt lat="43.9333683" lon="12.5272483"><ele>245.0</ele><time>2026-04-11T13:10:23.937Z</time></trkpt><trkpt lat="43.9332567" lon="12.5273067"><ele>245.0</ele><time>2026-04-11T13:10:24.938Z</time></trkpt><trkpt lat="43.9331333" lon="12.527345"><ele>246.25</ele><time>2026-04-11T13:10:25.938Z</time></trkpt><trkpt lat="43.9330083" lon="12.5273867"><ele>247.5</ele><time>2026-04-11T13:10:26.938Z</time></trkpt><trkpt lat="43.932875" lon="12.5274383"><ele>248.75</ele><time>2026-04-11T13:10:27.937Z</time></trkpt><trkpt lat="43.9327467" lon="12.5274983"><ele>250.0</ele><time>2026-04-11T13:10:28.937Z</time></trkpt><trkpt lat="43.9326233" lon="12.5275483"><ele>250.0</ele><time>2026-04-11T13:10:29.938Z</time></trkpt><trkpt lat="43.9325133" lon="12.527605"><ele>250.0</ele><time>2026-04-11T13:10:30.937Z</time></trkpt><trkpt lat="43.9323967" lon="12.5276617"><ele>250.0</ele><time>2026-04-11T13:10:31.937Z</time></trkpt><trkpt lat="43.93229" lon="12.5277083"><ele>250.0</ele><time>2026-04-11T13:10:32.937Z</time></trkpt><trkpt lat="43.9321933" lon="12.5277383"><ele>250.0</ele><time>2026-04-11T13:10:33.937Z</time></trkpt><trkpt lat="43.9320933" lon="12.5277467"><ele>250.0</ele><time>2026-04-11T13:10:34.937Z</time></trkpt><trkpt lat="43.9320017" lon="12.527725"><ele>250.0</ele><time>2026-04-11T13:10:35.937Z</time></trkpt><trkpt lat="43.931905" lon="12.527675"><ele>250.0</ele><time>2026-04-11T13:10:36.938Z</time></trkpt><trkpt lat="43.9318133" lon="12.5276233"><ele>250.0</ele><time>2026-04-11T13:10:37.938Z</time></trkpt><trkpt lat="43.931725" lon="12.52757"><ele>248.2</ele><time>2026-04-11T13:10:38.938Z</time></trkpt><trkpt lat="43.9316467" lon="12.5275083"><ele>246.4</ele><time>2026-04-11T13:10:39.937Z</time></trkpt><trkpt lat="43.93158" lon="12.5274267"><ele>244.60000000000002</ele><time>2026-04-11T13:10:40.937Z</time></trkpt><trkpt lat="43.9315317" lon="12.5273317"><ele>242.8</ele><time>2026-04-11T13:10:41.937Z</time></trkpt><trkpt lat="43.9314983" lon="12.5272067"><ele>241.0</ele><time>2026-04-11T13:10:42.937Z</time></trkpt><trkpt lat="43.9314867" lon="12.52706"><ele>240.20000000000002</ele><time>2026-04-11T13:10:43.938Z</time></trkpt><trkpt lat="43.9314767" lon="12.5269167"><ele>239.40000000000003</ele><time>2026-04-11T13:10:44.938Z</time></trkpt><trkpt lat="43.93144" lon="12.5268033"><ele>238.6</ele><time>2026-04-11T13:10:45.937Z</time></trkpt><trkpt lat="43.931375" lon="12.5267117"><ele>237.8</ele><time>2026-04-11T13:10:46.938Z</time></trkpt><trkpt lat="43.9312917" lon="12.5266267"><ele>237.0</ele><time>2026-04-11T13:10:47.937Z</time></trkpt><trkpt lat="43.9312083" lon="12.5265233"><ele>237.0</ele><time>2026-04-11T13:10:48.937Z</time></trkpt><trkpt lat="43.9311183" lon="12.5264033"><ele>237.0</ele><time>2026-04-11T13:10:49.937Z</time></trkpt><trkpt lat="43.93103" lon="12.5262617"><ele>237.0</ele><time>2026-04-11T13:10:50.937Z</time></trkpt><trkpt lat="43.93094" lon="12.5261033"><ele>237.0</ele><time>2026-04-11T13:10:51.938Z</time></trkpt><trkpt lat="43.9308583" lon="12.525945"><ele>240.0</ele><time>2026-04-11T13:10:52.937Z</time></trkpt><trkpt lat="43.93078" lon="12.52579"><ele>243.0</ele><time>2026-04-11T13:10:53.937Z</time></trkpt><trkpt lat="43.930695" lon="12.5256533"><ele>246.0</ele><time>2026-04-11T13:10:54.937Z</time></trkpt><trkpt lat="43.930605" lon="12.52555"><ele>249.0</ele><time>2026-04-11T13:10:55.937Z</time></trkpt><trkpt lat="43.9305283" lon="12.5255117"><ele>249.0</ele><time>2026-04-11T13:10:56.938Z</time></trkpt><trkpt lat="43.930445" lon="12.5255183"><ele>249.0</ele><time>2026-04-11T13:10:57.938Z</time></trkpt><trkpt lat="43.9303733" lon="12.5255683"><ele>249.0</ele><time>2026-04-11T13:10:58.938Z</time></trkpt><trkpt lat="43.9303033" lon="12.525645"><ele>249.0</ele><time>2026-04-11T13:10:59.938Z</time></trkpt><trkpt lat="43.9302383" lon="12.5257333"><ele>249.0</ele><time>2026-04-11T13:11:00.938Z</time></trkpt><trkpt lat="43.9301733" lon="12.5257983"><ele>249.0</ele><time>2026-04-11T13:11:01.937Z</time></trkpt><trkpt lat="43.9300917" lon="12.52584"><ele>252.5</ele><time>2026-04-11T13:11:02.937Z</time></trkpt><trkpt lat="43.92999" lon="12.5258817"><ele>256.0</ele><time>2026-04-11T13:11:03.938Z</time></trkpt><trkpt lat="43.9298817" lon="12.525925"><ele>259.5</ele><time>2026-04-11T13:11:04.938Z</time></trkpt><trkpt lat="43.929765" lon="12.52598"><ele>263.0</ele><time>2026-04-11T13:11:05.937Z</time></trkpt><trkpt lat="43.929645" lon="12.5260317"><ele>263.0</ele><time>2026-04-11T13:11:06.938Z</time></trkpt><trkpt lat="43.92953" lon="12.5260733"><ele>263.0</ele><time>2026-04-11T13:11:07.938Z</time></trkpt><trkpt lat="43.929415" lon="12.52612"><ele>263.0</ele><time>2026-04-11T13:11:08.937Z</time></trkpt><trkpt lat="43.9293033" lon="12.5261683"><ele>263.0</ele><time>2026-04-11T13:11:09.938Z</time></trkpt><trkpt lat="43.9292017" lon="12.5262067"><ele>264.6666666666667</ele><time>2026-04-11T13:11:10.938Z</time></trkpt><trkpt lat="43.9291167" lon="12.5262333"><ele>266.33333333333337</ele><time>2026-04-11T13:11:11.938Z</time></trkpt><trkpt lat="43.9290433" lon="12.5262367"><ele>268.0</ele><time>2026-04-11T13:11:12.938Z</time></trkpt><trkpt lat="43.9289567" lon="12.5262333"><ele>269.6666666666667</ele><time>2026-04-11T13:11:13.938Z</time></trkpt><trkpt lat="43.9288667" lon="12.5262167"><ele>271.3333333333333</ele><time>2026-04-11T13:11:14.937Z</time></trkpt><trkpt lat="43.9287767" lon="12.526185"><ele>273.0</ele><time>2026-04-11T13:11:15.938Z</time></trkpt><trkpt lat="43.9286833" lon="12.5261533"><ele>273.0</ele><time>2026-04-11T13:11:16.938Z</time></trkpt><trkpt lat="43.92858" lon="12.5261317"><ele>273.0</ele><time>2026-04-11T13:11:17.938Z</time></trkpt><trkpt lat="43.92847" lon="12.526105"><ele>273.0</ele><time>2026-04-11T13:11:18.937Z</time></trkpt><trkpt lat="43.92836" lon="12.52608"><ele>273.0</ele><time>2026-04-11T13:11:19.937Z</time></trkpt><trkpt lat="43.9282467" lon="12.526055"><ele>273.0</ele><time>2026-04-11T13:11:20.937Z</time></trkpt><trkpt lat="43.9281383" lon="12.526015"><ele>275.75</ele><time>2026-04-11T13:11:21.937Z</time></trkpt><trkpt lat="43.9280283" lon="12.5259683"><ele>278.5</ele><time>2026-04-11T13:11:22.938Z</time></trkpt><trkpt lat="43.9279283" lon="12.5259"><ele>281.25</ele><time>2026-04-11T13:11:23.938Z</time></trkpt><trkpt lat="43.927825" lon="12.5258133"><ele>284.0</ele><time>2026-04-11T13:11:24.937Z</time></trkpt><trkpt lat="43.92773" lon="12.5256933"><ele>284.0</ele><time>2026-04-11T13:11:25.938Z</time></trkpt><trkpt lat="43.9276467" lon="12.525575"><ele>284.0</ele><time>2026-04-11T13:11:26.938Z</time></trkpt><trkpt lat="43.9275683" lon="12.5254983"><ele>284.0</ele><time>2026-04-11T13:11:27.938Z</time></trkpt><trkpt lat="43.9274717" lon="12.5254633"><ele>284.0</ele><time>2026-04-11T13:11:28.937Z</time></trkpt><trkpt lat="43.9273633" lon="12.5254433"><ele>284.0</ele><time>2026-04-11T13:11:29.938Z</time></trkpt><trkpt lat="43.9272533" lon="12.525425"><ele>285.59999999999997</ele><time>2026-04-11T13:11:30.937Z</time></trkpt><trkpt lat="43.9271433" lon="12.5254033"><ele>287.2</ele><time>2026-04-11T13:11:31.938Z</time></trkpt><trkpt lat="43.9270383" lon="12.52537"><ele>288.79999999999995</ele><time>2026-04-11T13:11:32.938Z</time></trkpt><trkpt lat="43.9269367" lon="12.5253183"><ele>290.4</ele><time>2026-04-11T13:11:33.938Z</time></trkpt><trkpt lat="43.9268367" lon="12.5252533"><ele>292.0</ele><time>2026-04-11T13:11:34.937Z</time></trkpt><trkpt lat="43.9267433" lon="12.5251633"><ele>297.0</ele><time>2026-04-11T13:11:35.937Z</time></trkpt><trkpt lat="43.9266617" lon="12.525055"><ele>302.0</ele><time>2026-04-11T13:11:36.937Z</time></trkpt><trkpt lat="43.9265683" lon="12.52494"><ele>307.0</ele><time>2026-04-11T13:11:37.938Z</time></trkpt><trkpt lat="43.92647" lon="12.5248267"><ele>312.0</ele><time>2026-04-11T13:11:38.938Z</time></trkpt><trkpt lat="43.9263667" lon="12.5247067"><ele>312.0</ele><time>2026-04-11T13:11:39.937Z</time></trkpt><trkpt lat="43.926275" lon="12.5245983"><ele>312.0</ele><time>2026-04-11T13:11:40.937Z</time></trkpt><trkpt lat="43.926185" lon="12.5244933"><ele>312.0</ele><time>2026-04-11T13:11:41.938Z</time></trkpt><trkpt lat="43.9261033" lon="12.5244367"><ele>312.0</ele><time>2026-04-11T13:11:42.938Z</time></trkpt><trkpt lat="43.926025" lon="12.5244217"><ele>312.0</ele><time>2026-04-11T13:11:43.937Z</time></trkpt><trkpt lat="43.925945" lon="12.5244233"><ele>315.8</ele><time>2026-04-11T13:11:44.938Z</time></trkpt><trkpt lat="43.92585" lon="12.5244217"><ele>319.6</ele><time>2026-04-11T13:11:45.938Z</time></trkpt><trkpt lat="43.925745" lon="12.5244183"><ele>323.40000000000003</ele><time>2026-04-11T13:11:46.938Z</time></trkpt><trkpt lat="43.9256283" lon="12.5244033"><ele>327.2</ele><time>2026-04-11T13:11:47.938Z</time></trkpt><trkpt lat="43.9255117" lon="12.5243867"><ele>331.0</ele><time>2026-04-11T13:11:48.937Z</time></trkpt><trkpt lat="43.925395" lon="12.5243783"><ele>331.0</ele><time>2026-04-11T13:11:49.937Z</time></trkpt><trkpt lat="43.9252767" lon="12.5243783"><ele>331.0</ele><time>2026-04-11T13:11:50.938Z</time></trkpt><trkpt lat="43.925155" lon="12.5243967"><ele>331.0</ele><time>2026-04-11T13:11:51.937Z</time></trkpt><trkpt lat="43.9250467" lon="12.52441"><ele>331.0</ele><time>2026-04-11T13:11:52.938Z</time></trkpt><trkpt lat="43.9249367" lon="12.5244233"><ele>335.6</ele><time>2026-04-11T13:11:53.938Z</time></trkpt><trkpt lat="43.9248317" lon="12.5244433"><ele>340.20000000000005</ele><time>2026-04-11T13:11:54.937Z</time></trkpt><trkpt lat="43.9247567" lon="12.5244533"><ele>344.79999999999995</ele><time>2026-04-11T13:11:55.937Z</time></trkpt><trkpt lat="43.9246567" lon="12.524425"><ele>349.4</ele><time>2026-04-11T13:11:57.938Z</time></trkpt><trkpt lat="43.9245867" lon="12.5243167"><ele>354.0</ele><time>2026-04-11T13:11:59.937Z</time></trkpt><trkpt lat="43.9245417" lon="12.5242367"><ele>354.0</ele><time>2026-04-11T13:12:00.937Z</time></trkpt><trkpt lat="43.924505" lon="12.5241533"><ele>354.0</ele><time>2026-04-11T13:12:01.937Z</time></trkpt><trkpt lat="43.9244667" lon="12.5240567"><ele>354.0</ele><time>2026-04-11T13:12:02.937Z</time></trkpt><trkpt lat="43.9244267" lon="12.52396"><ele>354.0</ele><time>2026-04-11T13:12:03.938Z</time></trkpt><trkpt lat="43.9243783" lon="12.5238567"><ele>354.0</ele><time>2026-04-11T13:12:04.938Z</time></trkpt><trkpt lat="43.9243333" lon="12.523745"><ele>354.0</ele><time>2026-04-11T13:12:05.938Z</time></trkpt><trkpt lat="43.924265" lon="12.5236333"><ele>359.75</ele><time>2026-04-11T13:12:06.938Z</time></trkpt><trkpt lat="43.9241817" lon="12.52353"><ele>365.5</ele><time>2026-04-11T13:12:07.937Z</time></trkpt><trkpt lat="43.9240917" lon="12.5234133"><ele>371.25</ele><time>2026-04-11T13:12:08.937Z</time></trkpt><trkpt lat="43.924" lon="12.5232767"><ele>377.0</ele><time>2026-04-11T13:12:09.938Z</time></trkpt><trkpt lat="43.92391" lon="12.5231467"><ele>377.0</ele><time>2026-04-11T13:12:10.937Z</time></trkpt><trkpt lat="43.9238417" lon="12.5230267"><ele>377.0</ele><time>2026-04-11T13:12:11.937Z</time></trkpt><trkpt lat="43.9237817" lon="12.522925"><ele>377.0</ele><time>2026-04-11T13:12:12.938Z</time></trkpt><trkpt lat="43.92373" lon="12.5228383"><ele>377.0</ele><time>2026-04-11T13:12:13.937Z</time></trkpt><trkpt lat="43.9236817" lon="12.5227283"><ele>377.0</ele><time>2026-04-11T13:12:15.938Z</time></trkpt><trkpt lat="43.9236283" lon="12.52281"><ele>377.0</ele><time>2026-04-11T13:12:20.938Z</time></trkpt><trkpt lat="43.92364" lon="12.5229217"><ele>377.0</ele><time>2026-04-11T13:12:21.937Z</time></trkpt><trkpt lat="43.9236683" lon="12.5230617"><ele>377.0</ele><time>2026-04-11T13:12:22.938Z</time></trkpt><trkpt lat="43.9236983" lon="12.5232267"><ele>377.0</ele><time>2026-04-11T13:12:23.938Z</time></trkpt><trkpt lat="43.9237433" lon="12.5233867"><ele>377.0</ele><time>2026-04-11T13:12:24.938Z</time></trkpt><trkpt lat="43.9237933" lon="12.5235417"><ele>377.0</ele><time>2026-04-11T13:12:25.938Z</time></trkpt><trkpt lat="43.9238333" lon="12.5237"><ele>377.0</ele><time>2026-04-11T13:12:26.938Z</time></trkpt><trkpt lat="43.9238583" lon="12.5238617"><ele>377.0</ele><time>2026-04-11T13:12:27.937Z</time></trkpt><trkpt lat="43.92387" lon="12.52404"><ele>377.0</ele><time>2026-04-11T13:12:28.938Z</time></trkpt><trkpt lat="43.9238517" lon="12.5242367"><ele>377.75</ele><time>2026-04-11T13:12:29.937Z</time></trkpt><trkpt lat="43.9238217" lon="12.5244333"><ele>378.5</ele><time>2026-04-11T13:12:30.937Z</time></trkpt><trkpt lat="43.923765" lon="12.5246117"><ele>379.25</ele><time>2026-04-11T13:12:31.938Z</time></trkpt><trkpt lat="43.9236483" lon="12.52475"><ele>380.0</ele><time>2026-04-11T13:12:32.938Z</time></trkpt><trkpt lat="43.9235133" lon="12.5248617"><ele>384.6666666666667</ele><time>2026-04-11T13:12:33.938Z</time></trkpt><trkpt lat="43.9233633" lon="12.52495"><ele>389.33333333333337</ele><time>2026-04-11T13:12:34.938Z</time></trkpt><trkpt lat="43.923215" lon="12.525035"><ele>394.0</ele><time>2026-04-11T13:12:35.937Z</time></trkpt><trkpt lat="43.9230683" lon="12.525085"><ele>394.0</ele><time>2026-04-11T13:12:36.937Z</time></trkpt><trkpt lat="43.922925" lon="12.525115"><ele>394.0</ele><time>2026-04-11T13:12:37.938Z</time></trkpt><trkpt lat="43.9228067" lon="12.5251867"><ele>394.0</ele><time>2026-04-11T13:12:38.938Z</time></trkpt><trkpt lat="43.9227117" lon="12.5252917"><ele>394.0</ele><time>2026-04-11T13:12:39.937Z</time></trkpt><trkpt lat="43.9226333" lon="12.525455"><ele>396.0</ele><time>2026-04-11T13:12:40.937Z</time></trkpt><trkpt lat="43.92256" lon="12.5256483"><ele>398.0</ele><time>2026-04-11T13:12:41.938Z</time></trkpt><trkpt lat="43.9225017" lon="12.5258467"><ele>400.0</ele><time>2026-04-11T13:12:42.936Z</time></trkpt><trkpt lat="43.9224383" lon="12.526055"><ele>397.5</ele><time>2026-04-11T13:12:43.936Z</time></trkpt><trkpt lat="43.92239" lon="12.5262717"><ele>395.0</ele><time>2026-04-11T13:12:44.937Z</time></trkpt><trkpt lat="43.922355" lon="12.5264667"><ele>392.5</ele><time>2026-04-11T13:12:45.937Z</time></trkpt><trkpt lat="43.9223233" lon="12.52665"><ele>390.0</ele><time>2026-04-11T13:12:46.937Z</time></trkpt><trkpt lat="43.9222667" lon="12.52681"><ele>390.0</ele><time>2026-04-11T13:12:47.936Z</time></trkpt><trkpt lat="43.9221917" lon="12.5269617"><ele>390.0</ele><time>2026-04-11T13:12:48.936Z</time></trkpt><trkpt lat="43.9220767" lon="12.5270767"><ele>390.0</ele><time>2026-04-11T13:12:49.936Z</time></trkpt><trkpt lat="43.92193" lon="12.5271517"><ele>390.0</ele><time>2026-04-11T13:12:50.937Z</time></trkpt><trkpt lat="43.92178" lon="12.5271883"><ele>390.66666666666663</ele><time>2026-04-11T13:12:51.937Z</time></trkpt><trkpt lat="43.9216267" lon="12.52725"><ele>391.3333333333333</ele><time>2026-04-11T13:12:52.937Z</time></trkpt><trkpt lat="43.9214817" lon="12.52734"><ele>392.0</ele><time>2026-04-11T13:12:53.937Z</time></trkpt><trkpt lat="43.92136" lon="12.5274467"><ele>392.0</ele><time>2026-04-11T13:12:54.936Z</time></trkpt><trkpt lat="43.9212483" lon="12.527575"><ele>392.0</ele><time>2026-04-11T13:12:55.937Z</time></trkpt><trkpt lat="43.92115" lon="12.527695"><ele>392.0</ele><time>2026-04-11T13:12:56.937Z</time></trkpt><trkpt lat="43.9210667" lon="12.5277817"><ele>392.0</ele><time>2026-04-11T13:12:57.937Z</time></trkpt><trkpt lat="43.92098" lon="12.5278333"><ele>394.49999999999994</ele><time>2026-04-11T13:12:58.937Z</time></trkpt><trkpt lat="43.9208983" lon="12.5278333"><ele>397.0</ele><time>2026-04-11T13:12:59.936Z</time></trkpt><trkpt lat="43.9208283" lon="12.5278117"><ele>399.5</ele><time>2026-04-11T13:13:00.937Z</time></trkpt><trkpt lat="43.9207533" lon="12.52776"><ele>402.0</ele><time>2026-04-11T13:13:01.937Z</time></trkpt><trkpt lat="43.92067" lon="12.5276933"><ele>404.49999999999994</ele><time>2026-04-11T13:13:02.937Z</time></trkpt><trkpt lat="43.9205867" lon="12.5276333"><ele>407.0</ele><time>2026-04-11T13:13:03.937Z</time></trkpt><trkpt lat="43.9204967" lon="12.5276117"><ele>406.99999999999994</ele><time>2026-04-11T13:13:04.937Z</time></trkpt><trkpt lat="43.9204117" lon="12.5276467"><ele>407.0</ele><time>2026-04-11T13:13:05.937Z</time></trkpt><trkpt lat="43.9203383" lon="12.527725"><ele>407.0</ele><time>2026-04-11T13:13:06.937Z</time></trkpt><trkpt lat="43.9202633" lon="12.5278183"><ele>407.0</ele><time>2026-04-11T13:13:07.936Z</time></trkpt><trkpt lat="43.9201933" lon="12.527905"><ele>406.99999999999994</ele><time>2026-04-11T13:13:08.937Z</time></trkpt><trkpt lat="43.9201367" lon="12.5279567"><ele>407.0</ele><time>2026-04-11T13:13:09.937Z</time></trkpt><trkpt lat="43.9200583" lon="12.5279633"><ele>407.75</ele><time>2026-04-11T13:13:10.937Z</time></trkpt><trkpt lat="43.9199633" lon="12.5279417"><ele>408.5</ele><time>2026-04-11T13:13:11.936Z</time></trkpt><trkpt lat="43.9198417" lon="12.5278883"><ele>409.25</ele><time>2026-04-11T13:13:12.936Z</time></trkpt><trkpt lat="43.919705" lon="12.5278233"><ele>410.0</ele><time>2026-04-11T13:13:13.937Z</time></trkpt><trkpt lat="43.9195633" lon="12.527765"><ele>410.0</ele><time>2026-04-11T13:13:14.936Z</time></trkpt><trkpt lat="43.919415" lon="12.5277117"><ele>410.0</ele><time>2026-04-11T13:13:15.937Z</time></trkpt><trkpt lat="43.919265" lon="12.527655"><ele>410.0</ele><time>2026-04-11T13:13:16.937Z</time></trkpt><trkpt lat="43.919125" lon="12.52761"><ele>410.75</ele><time>2026-04-11T13:13:17.936Z</time></trkpt><trkpt lat="43.918995" lon="12.5275767"><ele>411.5</ele><time>2026-04-11T13:13:18.936Z</time></trkpt><trkpt lat="43.9188683" lon="12.5275867"><ele>412.25</ele><time>2026-04-11T13:13:19.936Z</time></trkpt><trkpt lat="43.9187567" lon="12.5276017"><ele>413.0</ele><time>2026-04-11T13:13:20.936Z</time></trkpt><trkpt lat="43.91865" lon="12.52762"><ele>412.99999999999994</ele><time>2026-04-11T13:13:21.937Z</time></trkpt><trkpt lat="43.9185517" lon="12.5276367"><ele>413.0</ele><time>2026-04-11T13:13:22.937Z</time></trkpt><trkpt lat="43.91845" lon="12.52765"><ele>413.0</ele><time>2026-04-11T13:13:23.937Z</time></trkpt><trkpt lat="43.9183617" lon="12.5276767"><ele>413.0</ele><time>2026-04-11T13:13:24.936Z</time></trkpt><trkpt lat="43.9182933" lon="12.5277117"><ele>412.99999999999994</ele><time>2026-04-11T13:13:25.937Z</time></trkpt><trkpt lat="43.91824" lon="12.52776"><ele>413.0</ele><time>2026-04-11T13:13:26.937Z</time></trkpt><trkpt lat="43.9181783" lon="12.5278917"><ele>414.0</ele><time>2026-04-11T13:13:28.937Z</time></trkpt><trkpt lat="43.9181" lon="12.5279183"><ele>415.0</ele><time>2026-04-11T13:13:30.937Z</time></trkpt><trkpt lat="43.918055" lon="12.5277617"><ele>416.0</ele><time>2026-04-11T13:13:32.936Z</time></trkpt><trkpt lat="43.9180383" lon="12.527655"><ele>417.0</ele><time>2026-04-11T13:13:33.937Z</time></trkpt><trkpt lat="43.918015" lon="12.52756"><ele>418.0</ele><time>2026-04-11T13:13:34.937Z</time></trkpt><trkpt lat="43.9179133" lon="12.52744"><ele>416.1666666666667</ele><time>2026-04-11T13:13:36.936Z</time></trkpt><trkpt lat="43.9178383" lon="12.5273717"><ele>414.33333333333337</ele><time>2026-04-11T13:13:37.936Z</time></trkpt><trkpt lat="43.9177617" lon="12.527305"><ele>412.5</ele><time>2026-04-11T13:13:38.937Z</time></trkpt><trkpt lat="43.9177" lon="12.5272417"><ele>410.66666666666663</ele><time>2026-04-11T13:13:39.937Z</time></trkpt><trkpt lat="43.917645" lon="12.52719"><ele>408.8333333333333</ele><time>2026-04-11T13:13:40.937Z</time></trkpt><trkpt lat="43.9175683" lon="12.527095"><ele>407.0</ele><time>2026-04-11T13:13:42.936Z</time></trkpt><trkpt lat="43.9175483" lon="12.526995"><ele>402.40000000000003</ele><time>2026-04-11T13:13:44.936Z</time></trkpt><trkpt lat="43.9174933" lon="12.5269117"><ele>397.8</ele><time>2026-04-11T13:13:46.937Z</time></trkpt><trkpt lat="43.91739" lon="12.5268617"><ele>393.2</ele><time>2026-04-11T13:13:48.936Z</time></trkpt><trkpt lat="43.9172667" lon="12.52684"><ele>388.6</ele><time>2026-04-11T13:13:50.936Z</time></trkpt><trkpt lat="43.917185" lon="12.5268533"><ele>384.0</ele><time>2026-04-11T13:13:51.937Z</time></trkpt><trkpt lat="43.9171017" lon="12.52687"><ele>384.0</ele><time>2026-04-11T13:13:52.937Z</time></trkpt><trkpt lat="43.9170233" lon="12.526925"><ele>384.0</ele><time>2026-04-11T13:13:53.937Z</time></trkpt><trkpt lat="43.9169483" lon="12.5269867"><ele>384.0</ele><time>2026-04-11T13:13:54.936Z</time></trkpt><trkpt lat="43.9168817" lon="12.5270567"><ele>384.0</ele><time>2026-04-11T13:13:55.937Z</time></trkpt><trkpt lat="43.91682" lon="12.5271233"><ele>384.0</ele><time>2026-04-11T13:13:56.937Z</time></trkpt><trkpt lat="43.9167583" lon="12.5271933"><ele>384.0</ele><time>2026-04-11T13:13:57.937Z</time></trkpt><trkpt lat="43.9166983" lon="12.5272433"><ele>382.6666666666667</ele><time>2026-04-11T13:13:58.937Z</time></trkpt><trkpt lat="43.91664" lon="12.5272783"><ele>381.3333333333333</ele><time>2026-04-11T13:13:59.937Z</time></trkpt><trkpt lat="43.9165467" lon="12.52724"><ele>380.0</ele><time>2026-04-11T13:14:01.937Z</time></trkpt><trkpt lat="43.9165133" lon="12.527165"><ele>378.66666666666663</ele><time>2026-04-11T13:14:02.937Z</time></trkpt><trkpt lat="43.9164817" lon="12.527065"><ele>377.3333333333333</ele><time>2026-04-11T13:14:03.936Z</time></trkpt><trkpt lat="43.9164567" lon="12.52695"><ele>376.0</ele><time>2026-04-11T13:14:04.936Z</time></trkpt><trkpt lat="43.9164383" lon="12.5268517"><ele>375.4</ele><time>2026-04-11T13:14:05.937Z</time></trkpt><trkpt lat="43.9163983" lon="12.5267167"><ele>374.8</ele><time>2026-04-11T13:14:07.936Z</time></trkpt><trkpt lat="43.9163317" lon="12.5266883"><ele>374.2</ele><time>2026-04-11T13:14:09.936Z</time></trkpt><trkpt lat="43.916245" lon="12.5267383"><ele>373.59999999999997</ele><time>2026-04-11T13:14:11.937Z</time></trkpt><trkpt lat="43.9161483" lon="12.5268583"><ele>373.0</ele><time>2026-04-11T13:14:13.937Z</time></trkpt><trkpt lat="43.9161133" lon="12.52694"><ele>373.0</ele><time>2026-04-11T13:14:14.937Z</time></trkpt><trkpt lat="43.9161017" lon="12.5270483"><ele>373.0</ele><time>2026-04-11T13:14:15.937Z</time></trkpt><trkpt lat="43.9160983" lon="12.52718"><ele>373.0</ele><time>2026-04-11T13:14:16.937Z</time></trkpt><trkpt lat="43.9160983" lon="12.52732"><ele>373.0</ele><time>2026-04-11T13:14:17.937Z</time></trkpt><trkpt lat="43.9160817" lon="12.5274533"><ele>373.0</ele><time>2026-04-11T13:14:18.937Z</time></trkpt><trkpt lat="43.9160533" lon="12.5275733"><ele>373.0</ele><time>2026-04-11T13:14:19.937Z</time></trkpt><trkpt lat="43.916005" lon="12.5276883"><ele>373.0</ele><time>2026-04-11T13:14:20.936Z</time></trkpt><trkpt lat="43.9159583" lon="12.52782"><ele>373.0</ele><time>2026-04-11T13:14:21.937Z</time></trkpt><trkpt lat="43.9159067" lon="12.52795"><ele>373.0</ele><time>2026-04-11T13:14:22.937Z</time></trkpt><trkpt lat="43.915855" lon="12.5280733"><ele>373.0</ele><time>2026-04-11T13:14:23.936Z</time></trkpt><trkpt lat="43.9158117" lon="12.52819"><ele>369.2</ele><time>2026-04-11T13:14:24.937Z</time></trkpt><trkpt lat="43.9157733" lon="12.5283017"><ele>365.4</ele><time>2026-04-11T13:14:25.936Z</time></trkpt><trkpt lat="43.9157483" lon="12.52843"><ele>361.59999999999997</ele><time>2026-04-11T13:14:26.936Z</time></trkpt><trkpt lat="43.9157267" lon="12.528575"><ele>357.79999999999995</ele><time>2026-04-11T13:14:27.937Z</time></trkpt><trkpt lat="43.9157117" lon="12.528715"><ele>354.0</ele><time>2026-04-11T13:14:28.937Z</time></trkpt><trkpt lat="43.9156933" lon="12.5288517"><ele>354.0</ele><time>2026-04-11T13:14:29.936Z</time></trkpt><trkpt lat="43.915665" lon="12.5289817"><ele>354.0</ele><time>2026-04-11T13:14:30.937Z</time></trkpt><trkpt lat="43.915625" lon="12.52909"><ele>354.0</ele><time>2026-04-11T13:14:31.937Z</time></trkpt><trkpt lat="43.9155183" lon="12.5291633"><ele>354.0</ele><time>2026-04-11T13:14:33.936Z</time></trkpt><trkpt lat="43.9153933" lon="12.5290883"><ele>354.0</ele><time>2026-04-11T13:14:35.936Z</time></trkpt><trkpt lat="43.9153033" lon="12.529025"><ele>354.0</ele><time>2026-04-11T13:14:36.937Z</time></trkpt><trkpt lat="43.91519" lon="12.52897"><ele>354.0</ele><time>2026-04-11T13:14:37.936Z</time></trkpt><trkpt lat="43.91508" lon="12.5289133"><ele>354.0</ele><time>2026-04-11T13:14:38.937Z</time></trkpt><trkpt lat="43.9149833" lon="12.52887"><ele>354.0</ele><time>2026-04-11T13:14:39.936Z</time></trkpt><trkpt lat="43.9149017" lon="12.528825"><ele>354.0</ele><time>2026-04-11T13:14:40.936Z</time></trkpt><trkpt lat="43.914835" lon="12.5287767"><ele>351.0</ele><time>2026-04-11T13:14:41.937Z</time></trkpt><trkpt lat="43.9147783" lon="12.5287283"><ele>348.0</ele><time>2026-04-11T13:14:42.937Z</time></trkpt><trkpt lat="43.9147017" lon="12.52873"><ele>345.0</ele><time>2026-04-11T13:14:45.936Z</time></trkpt><trkpt lat="43.914675" lon="12.52884"><ele>342.0</ele><time>2026-04-11T13:14:47.937Z</time></trkpt><trkpt lat="43.914635" lon="12.52901"><ele>339.0</ele><time>2026-04-11T13:14:49.937Z</time></trkpt><trkpt lat="43.9146017" lon="12.529115"><ele>336.0</ele><time>2026-04-11T13:14:50.936Z</time></trkpt><trkpt lat="43.9145767" lon="12.5292183"><ele>336.0</ele><time>2026-04-11T13:14:51.937Z</time></trkpt><trkpt lat="43.91455" lon="12.5293217"><ele>336.0</ele><time>2026-04-11T13:14:52.936Z</time></trkpt><trkpt lat="43.9145183" lon="12.5294233"><ele>336.0</ele><time>2026-04-11T13:14:53.936Z</time></trkpt><trkpt lat="43.9144983" lon="12.52953"><ele>336.0</ele><time>2026-04-11T13:14:54.937Z</time></trkpt><trkpt lat="43.91447" lon="12.5296133"><ele>336.0</ele><time>2026-04-11T13:14:55.937Z</time></trkpt><trkpt lat="43.914445" lon="12.5296983"><ele>336.0</ele><time>2026-04-11T13:14:56.936Z</time></trkpt><trkpt lat="43.9144183" lon="12.529855"><ele>336.3333333333333</ele><time>2026-04-11T13:14:58.937Z</time></trkpt><trkpt lat="43.914395" lon="12.5299583"><ele>336.6666666666667</ele><time>2026-04-11T13:14:59.936Z</time></trkpt><trkpt lat="43.91438" lon="12.53005"><ele>337.0</ele><time>2026-04-11T13:15:00.936Z</time></trkpt><trkpt lat="43.9143667" lon="12.5301883"><ele>337.33333333333337</ele><time>2026-04-11T13:15:02.937Z</time></trkpt><trkpt lat="43.9143867" lon="12.530315"><ele>337.6666666666667</ele><time>2026-04-11T13:15:04.937Z</time></trkpt><trkpt lat="43.914425" lon="12.5304483"><ele>338.0</ele><time>2026-04-11T13:15:06.937Z</time></trkpt><trkpt lat="43.91449" lon="12.5305983"><ele>338.7142857142857</ele><time>2026-04-11T13:15:08.936Z</time></trkpt><trkpt lat="43.9145217" lon="12.530675"><ele>339.42857142857144</ele><time>2026-04-11T13:15:09.937Z</time></trkpt><trkpt lat="43.9145483" lon="12.5307567"><ele>340.1428571428571</ele><time>2026-04-11T13:15:10.937Z</time></trkpt><trkpt lat="43.9145717" lon="12.5308417"><ele>340.8571428571429</ele><time>2026-04-11T13:15:11.937Z</time></trkpt><trkpt lat="43.9145867" lon="12.5309367"><ele>341.57142857142856</ele><time>2026-04-11T13:15:12.937Z</time></trkpt><trkpt lat="43.9145917" lon="12.53103"><ele>342.2857142857143</ele><time>2026-04-11T13:15:13.937Z</time></trkpt><trkpt lat="43.91459" lon="12.5311383"><ele>343.0</ele><time>2026-04-11T13:15:14.937Z</time></trkpt><trkpt lat="43.91458" lon="12.5312367"><ele>345.14285714285717</ele><time>2026-04-11T13:15:15.937Z</time></trkpt><trkpt lat="43.9145717" lon="12.531335"><ele>347.2857142857143</ele><time>2026-04-11T13:15:16.936Z</time></trkpt><trkpt lat="43.9145467" lon="12.531425"><ele>349.42857142857144</ele><time>2026-04-11T13:15:17.937Z</time></trkpt><trkpt lat="43.9145167" lon="12.5315217"><ele>351.57142857142856</ele><time>2026-04-11T13:15:18.937Z</time></trkpt><trkpt lat="43.9144933" lon="12.5316167"><ele>353.7142857142857</ele><time>2026-04-11T13:15:19.937Z</time></trkpt><trkpt lat="43.91447" lon="12.5317067"><ele>355.8571428571429</ele><time>2026-04-11T13:15:20.936Z</time></trkpt><trkpt lat="43.914455" lon="12.53182"><ele>358.0</ele><time>2026-04-11T13:15:21.937Z</time></trkpt><trkpt lat="43.91443" lon="12.5319217"><ele>358.0</ele><time>2026-04-11T13:15:22.937Z</time></trkpt><trkpt lat="43.91443" lon="12.5320217"><ele>358.0</ele><time>2026-04-11T13:15:23.936Z</time></trkpt><trkpt lat="43.9144283" lon="12.5321117"><ele>358.0</ele><time>2026-04-11T13:15:24.936Z</time></trkpt><trkpt lat="43.914445" lon="12.532285"><ele>358.0</ele><time>2026-04-11T13:15:26.936Z</time></trkpt><trkpt lat="43.91446" lon="12.5323817"><ele>358.0</ele><time>2026-04-11T13:15:27.936Z</time></trkpt><trkpt lat="43.9145017" lon="12.5324967"><ele>358.0</ele><time>2026-04-11T13:15:28.937Z</time></trkpt><trkpt lat="43.9145233" lon="12.53263"><ele>358.66666666666663</ele><time>2026-04-11T13:15:29.936Z</time></trkpt><trkpt lat="43.9145383" lon="12.5327583"><ele>359.3333333333333</ele><time>2026-04-11T13:15:30.937Z</time></trkpt><trkpt lat="43.91453" lon="12.5328567"><ele>360.0</ele><time>2026-04-11T13:15:31.937Z</time></trkpt><trkpt lat="43.91449" lon="12.5329333"><ele>360.6666666666667</ele><time>2026-04-11T13:15:32.937Z</time></trkpt><trkpt lat="43.9144383" lon="12.5330117"><ele>361.33333333333337</ele><time>2026-04-11T13:15:33.937Z</time></trkpt><trkpt lat="43.914375" lon="12.5330867"><ele>362.0</ele><time>2026-04-11T13:15:34.936Z</time></trkpt><trkpt lat="43.9143217" lon="12.5331567"><ele>362.20000000000005</ele><time>2026-04-11T13:15:35.937Z</time></trkpt><trkpt lat="43.914285" lon="12.5332333"><ele>362.4</ele><time>2026-04-11T13:15:36.936Z</time></trkpt><trkpt lat="43.9142567" lon="12.533325"><ele>362.6</ele><time>2026-04-11T13:15:37.936Z</time></trkpt><trkpt lat="43.914235" lon="12.5334533"><ele>362.79999999999995</ele><time>2026-04-11T13:15:38.937Z</time></trkpt><trkpt lat="43.9142167" lon="12.5336117"><ele>363.0</ele><time>2026-04-11T13:15:39.936Z</time></trkpt><trkpt lat="43.914195" lon="12.53375"><ele>364.6666666666667</ele><time>2026-04-11T13:15:40.937Z</time></trkpt><trkpt lat="43.9141783" lon="12.53387"><ele>366.3333333333333</ele><time>2026-04-11T13:15:41.936Z</time></trkpt><trkpt lat="43.9141767" lon="12.53397"><ele>368.0</ele><time>2026-04-11T13:15:42.937Z</time></trkpt><trkpt lat="43.914175" lon="12.5340583"><ele>369.66666666666663</ele><time>2026-04-11T13:15:43.936Z</time></trkpt><trkpt lat="43.9141983" lon="12.5341467"><ele>371.3333333333333</ele><time>2026-04-11T13:15:44.936Z</time></trkpt><trkpt lat="43.9142467" lon="12.53423"><ele>373.0</ele><time>2026-04-11T13:15:45.937Z</time></trkpt><trkpt lat="43.9143" lon="12.5343217"><ele>373.0</ele><time>2026-04-11T13:15:46.937Z</time></trkpt><trkpt lat="43.9143383" lon="12.5344083"><ele>373.0</ele><time>2026-04-11T13:15:47.937Z</time></trkpt><trkpt lat="43.9143767" lon="12.5345067"><ele>373.0</ele><time>2026-04-11T13:15:48.937Z</time></trkpt><trkpt lat="43.9144" lon="12.5345983"><ele>373.0</ele><time>2026-04-11T13:15:49.937Z</time></trkpt><trkpt lat="43.91442" lon="12.5347183"><ele>373.0</ele><time>2026-04-11T13:15:50.937Z</time></trkpt><trkpt lat="43.9144367" lon="12.5348233"><ele>373.0</ele><time>2026-04-11T13:15:51.937Z</time></trkpt><trkpt lat="43.9144417" lon="12.5349233"><ele>373.0</ele><time>2026-04-11T13:15:52.937Z</time></trkpt><trkpt lat="43.91443" lon="12.53502"><ele>373.0</ele><time>2026-04-11T13:15:53.937Z</time></trkpt><trkpt lat="43.9144083" lon="12.5351117"><ele>373.0</ele><time>2026-04-11T13:15:54.936Z</time></trkpt><trkpt lat="43.9143667" lon="12.53519"><ele>373.0</ele><time>2026-04-11T13:15:55.937Z</time></trkpt><trkpt lat="43.9143067" lon="12.53526"><ele>373.0</ele><time>2026-04-11T13:15:56.937Z</time></trkpt><trkpt lat="43.9142483" lon="12.5353133"><ele>373.0</ele><time>2026-04-11T13:15:57.936Z</time></trkpt><trkpt lat="43.9141917" lon="12.535365"><ele>373.0</ele><time>2026-04-11T13:15:58.937Z</time></trkpt><trkpt lat="43.9141233" lon="12.5353917"><ele>373.0</ele><time>2026-04-11T13:15:59.936Z</time></trkpt><trkpt lat="43.9140433" lon="12.5354033"><ele>373.0</ele><time>2026-04-11T13:16:00.936Z</time></trkpt><trkpt lat="43.9139467" lon="12.5354"><ele>373.0</ele><time>2026-04-11T13:16:01.937Z</time></trkpt><trkpt lat="43.9138433" lon="12.5353967"><ele>373.0</ele><time>2026-04-11T13:16:02.937Z</time></trkpt><trkpt lat="43.9137433" lon="12.535395"><ele>373.0</ele><time>2026-04-11T13:16:03.937Z</time></trkpt><trkpt lat="43.9136583" lon="12.5353867"><ele>373.0</ele><time>2026-04-11T13:16:04.937Z</time></trkpt><trkpt lat="43.91359" lon="12.5354017"><ele>373.0</ele><time>2026-04-11T13:16:05.936Z</time></trkpt><trkpt lat="43.9135283" lon="12.5354417"><ele>373.0</ele><time>2026-04-11T13:16:06.936Z</time></trkpt><trkpt lat="43.913475" lon="12.5355033"><ele>373.0</ele><time>2026-04-11T13:16:07.937Z</time></trkpt><trkpt lat="43.9134317" lon="12.535585"><ele>373.0</ele><time>2026-04-11T13:16:08.937Z</time></trkpt><trkpt lat="43.91338" lon="12.5356883"><ele>373.0</ele><time>2026-04-11T13:16:09.937Z</time></trkpt><trkpt lat="43.9133233" lon="12.5358083"><ele>374.5</ele><time>2026-04-11T13:16:10.936Z</time></trkpt><trkpt lat="43.9132567" lon="12.53593"><ele>376.0</ele><time>2026-04-11T13:16:11.937Z</time></trkpt><trkpt lat="43.9131783" lon="12.53606"><ele>377.5</ele><time>2026-04-11T13:16:12.936Z</time></trkpt><trkpt lat="43.9131" lon="12.53618"><ele>379.0</ele><time>2026-04-11T13:16:13.936Z</time></trkpt><trkpt lat="43.9130083" lon="12.536275"><ele>379.0</ele><time>2026-04-11T13:16:14.936Z</time></trkpt><trkpt lat="43.9129383" lon="12.536365"><ele>379.0</ele><time>2026-04-11T13:16:15.936Z</time></trkpt><trkpt lat="43.9128883" lon="12.5364483"><ele>379.0</ele><time>2026-04-11T13:16:16.936Z</time></trkpt><trkpt lat="43.9128483" lon="12.5365233"><ele>379.0</ele><time>2026-04-11T13:16:17.936Z</time></trkpt><trkpt lat="43.9127833" lon="12.53662"><ele>379.0</ele><time>2026-04-11T13:16:19.936Z</time></trkpt><trkpt lat="43.9127183" lon="12.5366633"><ele>379.0</ele><time>2026-04-11T13:16:21.936Z</time></trkpt><trkpt lat="43.9126333" lon="12.53671"><ele>377.6</ele><time>2026-04-11T13:16:23.937Z</time></trkpt><trkpt lat="43.9125267" lon="12.5367717"><ele>376.2</ele><time>2026-04-11T13:16:25.936Z</time></trkpt><trkpt lat="43.91244" lon="12.536825"><ele>374.8</ele><time>2026-04-11T13:16:27.937Z</time></trkpt><trkpt lat="43.9123767" lon="12.5369317"><ele>373.40000000000003</ele><time>2026-04-11T13:16:29.937Z</time></trkpt><trkpt lat="43.9123267" lon="12.53707"><ele>372.0</ele><time>2026-04-11T13:16:31.937Z</time></trkpt><trkpt lat="43.91229" lon="12.5372133"><ele>372.0</ele><time>2026-04-11T13:16:33.936Z</time></trkpt><trkpt lat="43.9122467" lon="12.537295"><ele>372.0</ele><time>2026-04-11T13:16:35.936Z</time></trkpt><trkpt lat="43.91219" lon="12.5373617"><ele>372.0</ele><time>2026-04-11T13:16:37.937Z</time></trkpt><trkpt lat="43.9120733" lon="12.537465"><ele>372.0</ele><time>2026-04-11T13:16:39.936Z</time></trkpt><trkpt lat="43.912" lon="12.53753"><ele>372.0</ele><time>2026-04-11T13:16:40.937Z</time></trkpt><trkpt lat="43.9119183" lon="12.53759"><ele>372.0</ele><time>2026-04-11T13:16:41.937Z</time></trkpt><trkpt lat="43.9118333" lon="12.537655"><ele>372.0</ele><time>2026-04-11T13:16:42.936Z</time></trkpt><trkpt lat="43.9117683" lon="12.5377267"><ele>372.0</ele><time>2026-04-11T13:16:43.937Z</time></trkpt><trkpt lat="43.9117183" lon="12.5378183"><ele>372.0</ele><time>2026-04-11T13:16:44.937Z</time></trkpt><trkpt lat="43.9116717" lon="12.5379133"><ele>372.0</ele><time>2026-04-11T13:16:45.937Z</time></trkpt><trkpt lat="43.911635" lon="12.538005"><ele>372.0</ele><time>2026-04-11T13:16:46.936Z</time></trkpt><trkpt lat="43.9115983" lon="12.5381"><ele>369.5</ele><time>2026-04-11T13:16:47.937Z</time></trkpt><trkpt lat="43.9115533" lon="12.5381867"><ele>367.0</ele><time>2026-04-11T13:16:48.937Z</time></trkpt><trkpt lat="43.9115083" lon="12.53825"><ele>364.5</ele><time>2026-04-11T13:16:49.936Z</time></trkpt><trkpt lat="43.9114317" lon="12.5383033"><ele>362.0</ele><time>2026-04-11T13:16:51.936Z</time></trkpt><trkpt lat="43.911345" lon="12.5382233"><ele>359.5</ele><time>2026-04-11T13:16:53.936Z</time></trkpt><trkpt lat="43.9113017" lon="12.5381567"><ele>357.0</ele><time>2026-04-11T13:16:54.936Z</time></trkpt><trkpt lat="43.9111917" lon="12.5380933"><ele>357.0</ele><time>2026-04-11T13:16:56.937Z</time></trkpt><trkpt lat="43.9111267" lon="12.5380933"><ele>357.0</ele><time>2026-04-11T13:16:57.937Z</time></trkpt><trkpt lat="43.91105" lon="12.5380967"><ele>357.0</ele><time>2026-04-11T13:16:58.936Z</time></trkpt><trkpt lat="43.91097" lon="12.5380817"><ele>357.0</ele><time>2026-04-11T13:16:59.936Z</time></trkpt><trkpt lat="43.9108983" lon="12.53807"><ele>357.0</ele><time>2026-04-11T13:17:00.937Z</time></trkpt><trkpt lat="43.9108233" lon="12.5380567"><ele>357.0</ele><time>2026-04-11T13:17:01.937Z</time></trkpt><trkpt lat="43.91075" lon="12.5380783"><ele>357.0</ele><time>2026-04-11T13:17:02.937Z</time></trkpt><trkpt lat="43.9106833" lon="12.5381183"><ele>354.5</ele><time>2026-04-11T13:17:03.936Z</time></trkpt><trkpt lat="43.9106183" lon="12.5381517"><ele>352.0</ele><time>2026-04-11T13:17:04.936Z</time></trkpt><trkpt lat="43.9105633" lon="12.5382317"><ele>349.5</ele><time>2026-04-11T13:17:06.937Z</time></trkpt><trkpt lat="43.9106517" lon="12.5383233"><ele>347.0</ele><time>2026-04-11T13:17:10.936Z</time></trkpt><trkpt lat="43.910715" lon="12.5383783"><ele>344.5</ele><time>2026-04-11T13:17:11.936Z</time></trkpt><trkpt lat="43.9108" lon="12.5384483"><ele>342.0</ele><time>2026-04-11T13:17:12.937Z</time></trkpt><trkpt lat="43.9108867" lon="12.538535"><ele>340.25</ele><time>2026-04-11T13:17:13.937Z</time></trkpt><trkpt lat="43.9109767" lon="12.5386267"><ele>338.5</ele><time>2026-04-11T13:17:14.936Z</time></trkpt><trkpt lat="43.911075" lon="12.5387167"><ele>336.75</ele><time>2026-04-11T13:17:15.936Z</time></trkpt><trkpt lat="43.9111767" lon="12.538815"><ele>335.0</ele><time>2026-04-11T13:17:16.937Z</time></trkpt><trkpt lat="43.9112783" lon="12.53889"><ele>335.0</ele><time>2026-04-11T13:17:17.937Z</time></trkpt><trkpt lat="43.9113733" lon="12.53895"><ele>335.0</ele><time>2026-04-11T13:17:18.936Z</time></trkpt><trkpt lat="43.9114767" lon="12.539"><ele>335.0</ele><time>2026-04-11T13:17:19.936Z</time></trkpt><trkpt lat="43.9115867" lon="12.539035"><ele>335.0</ele><time>2026-04-11T13:17:20.937Z</time></trkpt><trkpt lat="43.911705" lon="12.5390533"><ele>335.0</ele><time>2026-04-11T13:17:21.937Z</time></trkpt><trkpt lat="43.9118333" lon="12.5390617"><ele>334.33333333333337</ele><time>2026-04-11T13:17:22.936Z</time></trkpt><trkpt lat="43.9119783" lon="12.5390733"><ele>333.6666666666667</ele><time>2026-04-11T13:17:23.936Z</time></trkpt><trkpt lat="43.91214" lon="12.5390983"><ele>333.0</ele><time>2026-04-11T13:17:24.936Z</time></trkpt><trkpt lat="43.912305" lon="12.539125"><ele>333.0</ele><time>2026-04-11T13:17:25.936Z</time></trkpt><trkpt lat="43.9124767" lon="12.5391367"><ele>333.0</ele><time>2026-04-11T13:17:26.937Z</time></trkpt><trkpt lat="43.91264" lon="12.539155"><ele>333.0</ele><time>2026-04-11T13:17:27.936Z</time></trkpt><trkpt lat="43.9127967" lon="12.5391567"><ele>332.79999999999995</ele><time>2026-04-11T13:17:28.937Z</time></trkpt><trkpt lat="43.9129317" lon="12.5391733"><ele>332.6</ele><time>2026-04-11T13:17:29.937Z</time></trkpt><trkpt lat="43.91305" lon="12.539205"><ele>332.4</ele><time>2026-04-11T13:17:30.936Z</time></trkpt><trkpt lat="43.9131533" lon="12.5392267"><ele>332.20000000000005</ele><time>2026-04-11T13:17:31.936Z</time></trkpt><trkpt lat="43.9132333" lon="12.53925"><ele>332.0</ele><time>2026-04-11T13:17:32.936Z</time></trkpt><trkpt lat="43.91333" lon="12.5392833"><ele>332.0</ele><time>2026-04-11T13:17:34.937Z</time></trkpt><trkpt lat="43.91325" lon="12.5393733"><ele>332.0</ele><time>2026-04-11T13:17:38.936Z</time></trkpt><trkpt lat="43.9131767" lon="12.5393733"><ele>332.0</ele><time>2026-04-11T13:17:39.936Z</time></trkpt><trkpt lat="43.9131" lon="12.5393833"><ele>332.0</ele><time>2026-04-11T13:17:40.937Z</time></trkpt><trkpt lat="43.913" lon="12.539395"><ele>332.0</ele><time>2026-04-11T13:17:41.936Z</time></trkpt><trkpt lat="43.9128883" lon="12.5394083"><ele>332.0</ele><time>2026-04-11T13:17:42.936Z</time></trkpt><trkpt lat="43.9127617" lon="12.5394317"><ele>332.0</ele><time>2026-04-11T13:17:43.936Z</time></trkpt><trkpt lat="43.9126267" lon="12.5394667"><ele>332.0</ele><time>2026-04-11T13:17:44.937Z</time></trkpt><trkpt lat="43.9124867" lon="12.5395083"><ele>332.0</ele><time>2026-04-11T13:17:45.937Z</time></trkpt><trkpt lat="43.9123517" lon="12.53954"><ele>324.6666666666667</ele><time>2026-04-11T13:17:46.936Z</time></trkpt><trkpt lat="43.9122033" lon="12.5395883"><ele>317.3333333333333</ele><time>2026-04-11T13:17:47.936Z</time></trkpt><trkpt lat="43.9120583" lon="12.53963"><ele>310.0</ele><time>2026-04-11T13:17:48.936Z</time></trkpt><trkpt lat="43.9118967" lon="12.53967"><ele>309.3333333333333</ele><time>2026-04-11T13:17:49.936Z</time></trkpt><trkpt lat="43.911735" lon="12.5397167"><ele>308.6666666666667</ele><time>2026-04-11T13:17:50.936Z</time></trkpt><trkpt lat="43.911565" lon="12.539785"><ele>308.0</ele><time>2026-04-11T13:17:51.937Z</time></trkpt><trkpt lat="43.9114017" lon="12.5398167"><ele>308.0</ele><time>2026-04-11T13:17:52.937Z</time></trkpt><trkpt lat="43.9112417" lon="12.539845"><ele>308.0</ele><time>2026-04-11T13:17:53.937Z</time></trkpt><trkpt lat="43.9110933" lon="12.5398567"><ele>308.0</ele><time>2026-04-11T13:17:54.937Z</time></trkpt><trkpt lat="43.9109433" lon="12.5398317"><ele>305.6666666666667</ele><time>2026-04-11T13:17:55.936Z</time></trkpt><trkpt lat="43.9107933" lon="12.539775"><ele>303.3333333333333</ele><time>2026-04-11T13:17:56.937Z</time></trkpt><trkpt lat="43.910645" lon="12.5397083"><ele>301.0</ele><time>2026-04-11T13:17:57.936Z</time></trkpt><trkpt lat="43.9104867" lon="12.5396283"><ele>304.0</ele><time>2026-04-11T13:17:58.937Z</time></trkpt><trkpt lat="43.9103183" lon="12.5395433"><ele>307.0</ele><time>2026-04-11T13:17:59.936Z</time></trkpt><trkpt lat="43.9101367" lon="12.5394717"><ele>310.0</ele><time>2026-04-11T13:18:00.937Z</time></trkpt><trkpt lat="43.9099433" lon="12.5394167"><ele>310.0</ele><time>2026-04-11T13:18:01.937Z</time></trkpt><trkpt lat="43.9097633" lon="12.5393783"><ele>310.0</ele><time>2026-04-11T13:18:02.937Z</time></trkpt><trkpt lat="43.9095933" lon="12.539345"><ele>310.0</ele><time>2026-04-11T13:18:03.937Z</time></trkpt><trkpt lat="43.90945" lon="12.5393"><ele>310.0</ele><time>2026-04-11T13:18:04.936Z</time></trkpt><trkpt lat="43.9093383" lon="12.5392233"><ele>310.0</ele><time>2026-04-11T13:18:05.936Z</time></trkpt><trkpt lat="43.9092567" lon="12.5391083"><ele>310.0</ele><time>2026-04-11T13:18:06.936Z</time></trkpt><trkpt lat="43.9091833" lon="12.53896"><ele>310.0</ele><time>2026-04-11T13:18:07.935Z</time></trkpt><trkpt lat="43.9091233" lon="12.5387733"><ele>306.66666666666663</ele><time>2026-04-11T13:18:08.935Z</time></trkpt><trkpt lat="43.9090683" lon="12.538565"><ele>303.3333333333333</ele><time>2026-04-11T13:18:09.936Z</time></trkpt><trkpt lat="43.9090167" lon="12.53837"><ele>300.0</ele><time>2026-04-11T13:18:10.936Z</time></trkpt><trkpt lat="43.9089333" lon="12.5381683"><ele>300.0</ele><time>2026-04-11T13:18:11.936Z</time></trkpt><trkpt lat="43.90883" lon="12.5379883"><ele>300.0</ele><time>2026-04-11T13:18:12.936Z</time></trkpt><trkpt lat="43.9087283" lon="12.53782"><ele>300.0</ele><time>2026-04-11T13:18:13.935Z</time></trkpt><trkpt lat="43.9086583" lon="12.5376633"><ele>300.25</ele><time>2026-04-11T13:18:14.935Z</time></trkpt><trkpt lat="43.90862" lon="12.5374933"><ele>300.5</ele><time>2026-04-11T13:18:15.936Z</time></trkpt><trkpt lat="43.90861" lon="12.5372917"><ele>300.75</ele><time>2026-04-11T13:18:16.935Z</time></trkpt><trkpt lat="43.9086367" lon="12.5370633"><ele>301.0</ele><time>2026-04-11T13:18:17.935Z</time></trkpt><trkpt lat="43.9086633" lon="12.53683"><ele>301.0</ele><time>2026-04-11T13:18:18.935Z</time></trkpt><trkpt lat="43.908705" lon="12.5365917"><ele>301.0</ele><time>2026-04-11T13:18:19.935Z</time></trkpt><trkpt lat="43.9087617" lon="12.53635"><ele>301.0</ele><time>2026-04-11T13:18:20.936Z</time></trkpt><trkpt lat="43.9088117" lon="12.5361083"><ele>296.66666666666663</ele><time>2026-04-11T13:18:21.935Z</time></trkpt><trkpt lat="43.9088917" lon="12.535885"><ele>292.3333333333333</ele><time>2026-04-11T13:18:22.936Z</time></trkpt><trkpt lat="43.9089917" lon="12.5356883"><ele>288.0</ele><time>2026-04-11T13:18:23.936Z</time></trkpt><trkpt lat="43.909115" lon="12.5355283"><ele>287.5</ele><time>2026-04-11T13:18:24.936Z</time></trkpt><trkpt lat="43.9092367" lon="12.5353833"><ele>287.0</ele><time>2026-04-11T13:18:25.936Z</time></trkpt><trkpt lat="43.9093467" lon="12.5352483"><ele>286.5</ele><time>2026-04-11T13:18:26.935Z</time></trkpt><trkpt lat="43.9094417" lon="12.53513"><ele>286.0</ele><time>2026-04-11T13:18:27.936Z</time></trkpt><trkpt lat="43.9095017" lon="12.535015"><ele>286.0</ele><time>2026-04-11T13:18:28.935Z</time></trkpt><trkpt lat="43.909515" lon="12.5348683"><ele>286.0</ele><time>2026-04-11T13:18:30.935Z</time></trkpt><trkpt lat="43.909485" lon="12.534755"><ele>286.0</ele><time>2026-04-11T13:18:32.935Z</time></trkpt><trkpt lat="43.9094083" lon="12.53466"><ele>286.0</ele><time>2026-04-11T13:18:34.936Z</time></trkpt><trkpt lat="43.9093167" lon="12.5345667"><ele>286.0</ele><time>2026-04-11T13:18:36.935Z</time></trkpt><trkpt lat="43.9092667" lon="12.5345067"><ele>280.66666666666663</ele><time>2026-04-11T13:18:37.936Z</time></trkpt><trkpt lat="43.9092183" lon="12.53444"><ele>275.3333333333333</ele><time>2026-04-11T13:18:38.935Z</time></trkpt><trkpt lat="43.9091667" lon="12.5343883"><ele>270.0</ele><time>2026-04-11T13:18:39.936Z</time></trkpt><trkpt lat="43.9091167" lon="12.5343317"><ele>264.6666666666667</ele><time>2026-04-11T13:18:40.935Z</time></trkpt><trkpt lat="43.9090267" lon="12.5342383"><ele>259.33333333333337</ele><time>2026-04-11T13:18:42.936Z</time></trkpt><trkpt lat="43.9089467" lon="12.5342267"><ele>254.0</ele><time>2026-04-11T13:18:44.936Z</time></trkpt><trkpt lat="43.9088317" lon="12.53428"><ele>254.0</ele><time>2026-04-11T13:18:46.935Z</time></trkpt><trkpt lat="43.9087683" lon="12.5343117"><ele>254.0</ele><time>2026-04-11T13:18:47.936Z</time></trkpt><trkpt lat="43.9087033" lon="12.5343333"><ele>254.0</ele><time>2026-04-11T13:18:48.936Z</time></trkpt><trkpt lat="43.90863" lon="12.5343317"><ele>254.0</ele><time>2026-04-11T13:18:49.936Z</time></trkpt><trkpt lat="43.9085483" lon="12.5343233"><ele>254.0</ele><time>2026-04-11T13:18:50.935Z</time></trkpt><trkpt lat="43.908475" lon="12.534325"><ele>254.0</ele><time>2026-04-11T13:18:51.936Z</time></trkpt><trkpt lat="43.9084017" lon="12.5343383"><ele>254.0</ele><time>2026-04-11T13:18:52.936Z</time></trkpt><trkpt lat="43.90834" lon="12.53436"><ele>252.0</ele><time>2026-04-11T13:18:53.935Z</time></trkpt><trkpt lat="43.9082483" lon="12.5344367"><ele>249.99999999999997</ele><time>2026-04-11T13:18:55.936Z</time></trkpt><trkpt lat="43.90815" lon="12.534515"><ele>247.99999999999997</ele><time>2026-04-11T13:18:57.936Z</time></trkpt><trkpt lat="43.9080483" lon="12.5346033"><ele>246.0</ele><time>2026-04-11T13:18:59.936Z</time></trkpt><trkpt lat="43.9079933" lon="12.5346467"><ele>244.0</ele><time>2026-04-11T13:19:00.935Z</time></trkpt><trkpt lat="43.9079433" lon="12.5347"><ele>243.99999999999997</ele><time>2026-04-11T13:19:01.935Z</time></trkpt><trkpt lat="43.9078867" lon="12.5347533"><ele>244.0</ele><time>2026-04-11T13:19:02.936Z</time></trkpt><trkpt lat="43.9078133" lon="12.5348083"><ele>244.0</ele><time>2026-04-11T13:19:03.936Z</time></trkpt><trkpt lat="43.9077367" lon="12.5348617"><ele>244.0</ele><time>2026-04-11T13:19:04.936Z</time></trkpt><trkpt lat="43.907665" lon="12.534915"><ele>243.99999999999997</ele><time>2026-04-11T13:19:05.935Z</time></trkpt><trkpt lat="43.9075917" lon="12.5349483"><ele>244.0</ele><time>2026-04-11T13:19:06.935Z</time></trkpt><trkpt lat="43.9075167" lon="12.5349883"><ele>241.49999999999997</ele><time>2026-04-11T13:19:07.935Z</time></trkpt><trkpt lat="43.9074517" lon="12.5350267"><ele>239.0</ele><time>2026-04-11T13:19:08.936Z</time></trkpt><trkpt lat="43.9073717" lon="12.5351067"><ele>236.5</ele><time>2026-04-11T13:19:10.935Z</time></trkpt><trkpt lat="43.9073433" lon="12.5351933"><ele>234.0</ele><time>2026-04-11T13:19:13.936Z</time></trkpt><trkpt lat="43.907305" lon="12.5352667"><ele>231.49999999999997</ele><time>2026-04-11T13:19:15.936Z</time></trkpt><trkpt lat="43.9072333" lon="12.5353733"><ele>229.0</ele><time>2026-04-11T13:19:17.935Z</time></trkpt><trkpt lat="43.9071833" lon="12.5354383"><ele>228.99999999999997</ele><time>2026-04-11T13:19:18.936Z</time></trkpt><trkpt lat="43.9071267" lon="12.5355033"><ele>229.0</ele><time>2026-04-11T13:19:19.936Z</time></trkpt><trkpt lat="43.9070617" lon="12.5355733"><ele>229.0</ele><time>2026-04-11T13:19:20.935Z</time></trkpt><trkpt lat="43.90699" lon="12.5356383"><ele>229.0</ele><time>2026-04-11T13:19:21.936Z</time></trkpt><trkpt lat="43.9069283" lon="12.5357"><ele>228.99999999999997</ele><time>2026-04-11T13:19:22.936Z</time></trkpt><trkpt lat="43.906875" lon="12.535755"><ele>229.0</ele><time>2026-04-11T13:19:23.935Z</time></trkpt><trkpt lat="43.9068233" lon="12.535815"><ele>228.99999999999997</ele><time>2026-04-11T13:19:24.935Z</time></trkpt><trkpt lat="43.9067683" lon="12.5358817"><ele>229.0</ele><time>2026-04-11T13:19:25.936Z</time></trkpt><trkpt lat="43.906715" lon="12.5359433"><ele>229.0</ele><time>2026-04-11T13:19:26.935Z</time></trkpt><trkpt lat="43.9066317" lon="12.53604"><ele>229.0</ele><time>2026-04-11T13:19:28.935Z</time></trkpt><trkpt lat="43.9065467" lon="12.5360417"><ele>228.99999999999997</ele><time>2026-04-11T13:19:30.936Z</time></trkpt><trkpt lat="43.9064783" lon="12.5359983"><ele>229.0</ele><time>2026-04-11T13:19:31.935Z</time></trkpt><trkpt lat="43.9064" lon="12.5359467"><ele>225.49999999999997</ele><time>2026-04-11T13:19:32.935Z</time></trkpt><trkpt lat="43.9063267" lon="12.5359033"><ele>222.0</ele><time>2026-04-11T13:19:33.935Z</time></trkpt><trkpt lat="43.906255" lon="12.5358733"><ele>218.5</ele><time>2026-04-11T13:19:34.935Z</time></trkpt><trkpt lat="43.9061917" lon="12.5358567"><ele>215.0</ele><time>2026-04-11T13:19:35.935Z</time></trkpt><trkpt lat="43.9061267" lon="12.5358567"><ele>211.49999999999997</ele><time>2026-04-11T13:19:36.935Z</time></trkpt><trkpt lat="43.90602" lon="12.5358683"><ele>208.0</ele><time>2026-04-11T13:19:38.935Z</time></trkpt><trkpt lat="43.90593" lon="12.535895"><ele>208.0</ele><time>2026-04-11T13:19:40.935Z</time></trkpt><trkpt lat="43.905955" lon="12.536055"><ele>208.0</ele><time>2026-04-11T13:19:43.935Z</time></trkpt><trkpt lat="43.9059883" lon="12.5361617"><ele>208.0</ele><time>2026-04-11T13:19:44.935Z</time></trkpt><trkpt lat="43.9060267" lon="12.5362983"><ele>208.0</ele><time>2026-04-11T13:19:45.935Z</time></trkpt><trkpt lat="43.9060583" lon="12.5364533"><ele>208.0</ele><time>2026-04-11T13:19:46.935Z</time></trkpt><trkpt lat="43.90608" lon="12.53661"><ele>207.8</ele><time>2026-04-11T13:19:47.936Z</time></trkpt><trkpt lat="43.9060983" lon="12.5367633"><ele>207.60000000000002</ele><time>2026-04-11T13:19:48.935Z</time></trkpt><trkpt lat="43.9060867" lon="12.5368983"><ele>207.39999999999998</ele><time>2026-04-11T13:19:49.936Z</time></trkpt><trkpt lat="43.9060433" lon="12.537015"><ele>207.2</ele><time>2026-04-11T13:19:50.936Z</time></trkpt><trkpt lat="43.9059933" lon="12.5371467"><ele>207.0</ele><time>2026-04-11T13:19:51.935Z</time></trkpt><trkpt lat="43.90595" lon="12.5372783"><ele>205.0</ele><time>2026-04-11T13:19:52.935Z</time></trkpt><trkpt lat="43.9059033" lon="12.5374233"><ele>203.0</ele><time>2026-04-11T13:19:53.935Z</time></trkpt><trkpt lat="43.9058783" lon="12.5375733"><ele>201.0</ele><time>2026-04-11T13:19:54.935Z</time></trkpt><trkpt lat="43.905875" lon="12.537735"><ele>199.0</ele><time>2026-04-11T13:19:55.936Z</time></trkpt><trkpt lat="43.9059" lon="12.5379333"><ele>203.0</ele><time>2026-04-11T13:19:56.935Z</time></trkpt><trkpt lat="43.9059217" lon="12.5381483"><ele>207.0</ele><time>2026-04-11T13:19:57.935Z</time></trkpt><trkpt lat="43.9059433" lon="12.5383817"><ele>211.0</ele><time>2026-04-11T13:19:58.935Z</time></trkpt><trkpt lat="43.90595" lon="12.5386083"><ele>208.66666666666666</ele><time>2026-04-11T13:19:59.935Z</time></trkpt><trkpt lat="43.9059567" lon="12.53883"><ele>206.33333333333331</ele><time>2026-04-11T13:20:00.936Z</time></trkpt><trkpt lat="43.9059783" lon="12.5390533"><ele>204.0</ele><time>2026-04-11T13:20:01.936Z</time></trkpt><trkpt lat="43.9060067" lon="12.5392617"><ele>204.0</ele><time>2026-04-11T13:20:02.936Z</time></trkpt><trkpt lat="43.9060383" lon="12.53945"><ele>204.0</ele><time>2026-04-11T13:20:03.936Z</time></trkpt><trkpt lat="43.906075" lon="12.53963"><ele>204.0</ele><time>2026-04-11T13:20:04.935Z</time></trkpt><trkpt lat="43.9060933" lon="12.53978"><ele>204.0</ele><time>2026-04-11T13:20:05.935Z</time></trkpt><trkpt lat="43.90612" lon="12.5399117"><ele>202.2</ele><time>2026-04-11T13:20:06.935Z</time></trkpt><trkpt lat="43.906125" lon="12.5400367"><ele>200.39999999999998</ele><time>2026-04-11T13:20:07.935Z</time></trkpt><trkpt lat="43.906125" lon="12.5401717"><ele>198.6</ele><time>2026-04-11T13:20:08.936Z</time></trkpt><trkpt lat="43.9061" lon="12.54032"><ele>196.8</ele><time>2026-04-11T13:20:09.935Z</time></trkpt><trkpt lat="43.9060483" lon="12.54045"><ele>195.0</ele><time>2026-04-11T13:20:10.935Z</time></trkpt><trkpt lat="43.9059683" lon="12.5405667"><ele>194.0</ele><time>2026-04-11T13:20:11.936Z</time></trkpt><trkpt lat="43.9058817" lon="12.5406683"><ele>193.0</ele><time>2026-04-11T13:20:12.936Z</time></trkpt><trkpt lat="43.9057933" lon="12.540735"><ele>192.0</ele><time>2026-04-11T13:20:13.936Z</time></trkpt><trkpt lat="43.9057233" lon="12.5407833"><ele>191.0</ele><time>2026-04-11T13:20:14.936Z</time></trkpt><trkpt lat="43.9056517" lon="12.5408417"><ele>190.0</ele><time>2026-04-11T13:20:16.935Z</time></trkpt><trkpt lat="43.905645" lon="12.5409783"><ele>190.0</ele><time>2026-04-11T13:20:20.936Z</time></trkpt><trkpt lat="43.9056583" lon="12.5410783"><ele>190.0</ele><time>2026-04-11T13:20:21.935Z</time></trkpt><trkpt lat="43.9056967" lon="12.5412017"><ele>190.0</ele><time>2026-04-11T13:20:22.936Z</time></trkpt><trkpt lat="43.9057467" lon="12.541345"><ele>190.0</ele><time>2026-04-11T13:20:23.936Z</time></trkpt><trkpt lat="43.9058117" lon="12.5414933"><ele>190.0</ele><time>2026-04-11T13:20:24.936Z</time></trkpt><trkpt lat="43.90588" lon="12.5416583"><ele>190.0</ele><time>2026-04-11T13:20:25.936Z</time></trkpt><trkpt lat="43.9059567" lon="12.5418383"><ele>190.0</ele><time>2026-04-11T13:20:26.936Z</time></trkpt><trkpt lat="43.90604" lon="12.5420383"><ele>190.0</ele><time>2026-04-11T13:20:27.936Z</time></trkpt><trkpt lat="43.9061233" lon="12.542245"><ele>188.66666666666669</ele><time>2026-04-11T13:20:28.935Z</time></trkpt><trkpt lat="43.9062117" lon="12.5424667"><ele>187.33333333333334</ele><time>2026-04-11T13:20:29.936Z</time></trkpt><trkpt lat="43.9063117" lon="12.5427083"><ele>186.0</ele><time>2026-04-11T13:20:30.936Z</time></trkpt><trkpt lat="43.9064067" lon="12.542955"><ele>184.66666666666666</ele><time>2026-04-11T13:20:31.936Z</time></trkpt><trkpt lat="43.906515" lon="12.5432117"><ele>183.33333333333331</ele><time>2026-04-11T13:20:32.935Z</time></trkpt><trkpt lat="43.90662" lon="12.54347"><ele>182.0</ele><time>2026-04-11T13:20:33.936Z</time></trkpt><trkpt lat="43.9067217" lon="12.5437467"><ele>182.0</ele><time>2026-04-11T13:20:34.936Z</time></trkpt><trkpt lat="43.90682" lon="12.5440233"><ele>182.0</ele><time>2026-04-11T13:20:35.936Z</time></trkpt><trkpt lat="43.9069033" lon="12.544305"><ele>182.0</ele><time>2026-04-11T13:20:36.936Z</time></trkpt><trkpt lat="43.906975" lon="12.5445967"><ele>182.0</ele><time>2026-04-11T13:20:37.935Z</time></trkpt><trkpt lat="43.9070483" lon="12.5449033"><ele>182.0</ele><time>2026-04-11T13:20:38.935Z</time></trkpt><trkpt lat="43.9071083" lon="12.54522"><ele>180.0</ele><time>2026-04-11T13:20:39.936Z</time></trkpt><trkpt lat="43.9071717" lon="12.5455383"><ele>178.0</ele><time>2026-04-11T13:20:40.935Z</time></trkpt><trkpt lat="43.9072333" lon="12.5458417"><ele>178.0</ele><time>2026-04-11T13:20:41.935Z</time></trkpt><trkpt lat="43.9072867" lon="12.54614"><ele>178.0</ele><time>2026-04-11T13:20:42.935Z</time></trkpt><trkpt lat="43.90734" lon="12.54643"><ele>178.0</ele><time>2026-04-11T13:20:43.936Z</time></trkpt><trkpt lat="43.9073983" lon="12.5467083"><ele>177.33333333333334</ele><time>2026-04-11T13:20:44.936Z</time></trkpt><trkpt lat="43.9074467" lon="12.5469783"><ele>176.66666666666666</ele><time>2026-04-11T13:20:45.936Z</time></trkpt><trkpt lat="43.9074983" lon="12.5472433"><ele>176.0</ele><time>2026-04-11T13:20:46.935Z</time></trkpt><trkpt lat="43.9075417" lon="12.54749"><ele>176.66666666666666</ele><time>2026-04-11T13:20:47.935Z</time></trkpt><trkpt lat="43.9075867" lon="12.5477267"><ele>177.33333333333334</ele><time>2026-04-11T13:20:48.936Z</time></trkpt><trkpt lat="43.9076467" lon="12.5479567"><ele>178.0</ele><time>2026-04-11T13:20:49.936Z</time></trkpt><trkpt lat="43.90772" lon="12.5481567"><ele>178.0</ele><time>2026-04-11T13:20:50.935Z</time></trkpt><trkpt lat="43.9078183" lon="12.5483483"><ele>178.0</ele><time>2026-04-11T13:20:51.936Z</time></trkpt><trkpt lat="43.9079283" lon="12.548535"><ele>178.0</ele><time>2026-04-11T13:20:52.935Z</time></trkpt><trkpt lat="43.908045" lon="12.5487183"><ele>176.33333333333334</ele><time>2026-04-11T13:20:53.936Z</time></trkpt><trkpt lat="43.9081567" lon="12.548885"><ele>174.66666666666666</ele><time>2026-04-11T13:20:54.936Z</time></trkpt><trkpt lat="43.9082733" lon="12.549045"><ele>173.0</ele><time>2026-04-11T13:20:55.935Z</time></trkpt><trkpt lat="43.9083817" lon="12.5492017"><ele>173.75</ele><time>2026-04-11T13:20:56.935Z</time></trkpt><trkpt lat="43.908475" lon="12.5493567"><ele>174.5</ele><time>2026-04-11T13:20:57.935Z</time></trkpt><trkpt lat="43.9085717" lon="12.5495133"><ele>175.25</ele><time>2026-04-11T13:20:58.935Z</time></trkpt><trkpt lat="43.9086633" lon="12.549665"><ele>176.0</ele><time>2026-04-11T13:20:59.936Z</time></trkpt><trkpt lat="43.9087383" lon="12.5497967"><ele>176.0</ele><time>2026-04-11T13:21:00.936Z</time></trkpt><trkpt lat="43.9087967" lon="12.5499017"><ele>176.0</ele><time>2026-04-11T13:21:01.935Z</time></trkpt><trkpt lat="43.9088167" lon="12.5500017"><ele>176.0</ele><time>2026-04-11T13:21:02.936Z</time></trkpt><trkpt lat="43.908765" lon="12.5501333"><ele>176.0</ele><time>2026-04-11T13:21:04.935Z</time></trkpt><trkpt lat="43.9087417" lon="12.5502233"><ele>176.0</ele><time>2026-04-11T13:21:05.936Z</time></trkpt><trkpt lat="43.90874" lon="12.5503433"><ele>176.0</ele><time>2026-04-11T13:21:06.936Z</time></trkpt><trkpt lat="43.908755" lon="12.5504867"><ele>175.25</ele><time>2026-04-11T13:21:07.936Z</time></trkpt><trkpt lat="43.9087817" lon="12.55066"><ele>174.5</ele><time>2026-04-11T13:21:08.936Z</time></trkpt><trkpt lat="43.9088117" lon="12.5508467"><ele>173.75</ele><time>2026-04-11T13:21:09.936Z</time></trkpt><trkpt lat="43.908835" lon="12.5510483"><ele>173.0</ele><time>2026-04-11T13:21:10.936Z</time></trkpt><trkpt lat="43.90885" lon="12.5512433"><ele>171.5</ele><time>2026-04-11T13:21:11.936Z</time></trkpt><trkpt lat="43.9088483" lon="12.5514167"><ele>170.0</ele><time>2026-04-11T13:21:12.936Z</time></trkpt><trkpt lat="43.9088283" lon="12.5515783"><ele>168.5</ele><time>2026-04-11T13:21:13.936Z</time></trkpt><trkpt lat="43.9087717" lon="12.5517083"><ele>167.0</ele><time>2026-04-11T13:21:14.935Z</time></trkpt><trkpt lat="43.9087" lon="12.551805"><ele>167.0</ele><time>2026-04-11T13:21:15.936Z</time></trkpt><trkpt lat="43.9085917" lon="12.5519033"><ele>167.0</ele><time>2026-04-11T13:21:16.936Z</time></trkpt><trkpt lat="43.9084833" lon="12.551945"><ele>167.0</ele><time>2026-04-11T13:21:17.936Z</time></trkpt><trkpt lat="43.908365" lon="12.55198"><ele>167.0</ele><time>2026-04-11T13:21:18.936Z</time></trkpt><trkpt lat="43.908225" lon="12.5520117"><ele>164.75</ele><time>2026-04-11T13:21:19.936Z</time></trkpt><trkpt lat="43.9080933" lon="12.5520567"><ele>162.5</ele><time>2026-04-11T13:21:20.935Z</time></trkpt><trkpt lat="43.907955" lon="12.552105"><ele>160.25</ele><time>2026-04-11T13:21:21.936Z</time></trkpt><trkpt lat="43.9078083" lon="12.5521583"><ele>158.0</ele><time>2026-04-11T13:21:22.936Z</time></trkpt><trkpt lat="43.9076583" lon="12.5522067"><ele>158.66666666666666</ele><time>2026-04-11T13:21:23.936Z</time></trkpt><trkpt lat="43.907505" lon="12.55225"><ele>159.33333333333334</ele><time>2026-04-11T13:21:24.936Z</time></trkpt><trkpt lat="43.9073517" lon="12.5522633"><ele>160.0</ele><time>2026-04-11T13:21:25.936Z</time></trkpt><trkpt lat="43.9072" lon="12.552255"><ele>160.0</ele><time>2026-04-11T13:21:26.935Z</time></trkpt><trkpt lat="43.90704" lon="12.5522217"><ele>160.0</ele><time>2026-04-11T13:21:27.936Z</time></trkpt><trkpt lat="43.9068717" lon="12.5521633"><ele>160.0</ele><time>2026-04-11T13:21:28.936Z</time></trkpt><trkpt lat="43.9067" lon="12.5521283"><ele>160.66666666666669</ele><time>2026-04-11T13:21:29.936Z</time></trkpt><trkpt lat="43.90652" lon="12.5521283"><ele>161.33333333333334</ele><time>2026-04-11T13:21:30.936Z</time></trkpt><trkpt lat="43.9063433" lon="12.5521633"><ele>162.0</ele><time>2026-04-11T13:21:31.936Z</time></trkpt><trkpt lat="43.9061817" lon="12.55221"><ele>162.0</ele><time>2026-04-11T13:21:32.936Z</time></trkpt><trkpt lat="43.90604" lon="12.5522633"><ele>162.0</ele><time>2026-04-11T13:21:33.935Z</time></trkpt><trkpt lat="43.9058933" lon="12.5523033"><ele>162.0</ele><time>2026-04-11T13:21:34.935Z</time></trkpt><trkpt lat="43.90574" lon="12.552315"><ele>163.25</ele><time>2026-04-11T13:21:35.936Z</time></trkpt><trkpt lat="43.9056" lon="12.5522983"><ele>164.5</ele><time>2026-04-11T13:21:36.936Z</time></trkpt><trkpt lat="43.9054483" lon="12.5522583"><ele>165.75</ele><time>2026-04-11T13:21:37.936Z</time></trkpt><trkpt lat="43.9053017" lon="12.5522133"><ele>167.0</ele><time>2026-04-11T13:21:38.935Z</time></trkpt><trkpt lat="43.9051517" lon="12.552165"><ele>168.25</ele><time>2026-04-11T13:21:39.935Z</time></trkpt><trkpt lat="43.905" lon="12.5521233"><ele>169.5</ele><time>2026-04-11T13:21:40.935Z</time></trkpt><trkpt lat="43.9048567" lon="12.5521183"><ele>170.75</ele><time>2026-04-11T13:21:41.936Z</time></trkpt><trkpt lat="43.9047383" lon="12.5521217"><ele>172.0</ele><time>2026-04-11T13:21:42.936Z</time></trkpt><trkpt lat="43.9046517" lon="12.552135"><ele>172.0</ele><time>2026-04-11T13:21:43.936Z</time></trkpt><trkpt lat="43.90458" lon="12.55216"><ele>172.0</ele><time>2026-04-11T13:21:44.935Z</time></trkpt><trkpt lat="43.904515" lon="12.5521967"><ele>172.0</ele><time>2026-04-11T13:21:45.936Z</time></trkpt><trkpt lat="43.9044" lon="12.5522733"><ele>172.0</ele><time>2026-04-11T13:21:47.936Z</time></trkpt><trkpt lat="43.904335" lon="12.552305"><ele>172.0</ele><time>2026-04-11T13:21:48.935Z</time></trkpt><trkpt lat="43.9042483" lon="12.5523033"><ele>172.0</ele><time>2026-04-11T13:21:50.935Z</time></trkpt><trkpt lat="43.904205" lon="12.5520633"><ele>172.2</ele><time>2026-04-11T13:21:59.935Z</time></trkpt><trkpt lat="43.9042" lon="12.55195"><ele>172.39999999999998</ele><time>2026-04-11T13:22:00.936Z</time></trkpt><trkpt lat="43.9041883" lon="12.5518367"><ele>172.60000000000002</ele><time>2026-04-11T13:22:01.936Z</time></trkpt><trkpt lat="43.9042033" lon="12.5517133"><ele>172.8</ele><time>2026-04-11T13:22:02.936Z</time></trkpt><trkpt lat="43.9042483" lon="12.551575"><ele>173.0</ele><time>2026-04-11T13:22:03.936Z</time></trkpt><trkpt lat="43.9043117" lon="12.551435"><ele>173.0</ele><time>2026-04-11T13:22:04.935Z</time></trkpt><trkpt lat="43.90438" lon="12.5513"><ele>173.0</ele><time>2026-04-11T13:22:05.936Z</time></trkpt><trkpt lat="43.9044383" lon="12.5511767"><ele>173.0</ele><time>2026-04-11T13:22:06.936Z</time></trkpt><trkpt lat="43.9044967" lon="12.5510583"><ele>173.0</ele><time>2026-04-11T13:22:07.935Z</time></trkpt><trkpt lat="43.904525" lon="12.5509483"><ele>173.0</ele><time>2026-04-11T13:22:08.936Z</time></trkpt><trkpt lat="43.90451" lon="12.5508467"><ele>174.5</ele><time>2026-04-11T13:22:09.935Z</time></trkpt><trkpt lat="43.9044733" lon="12.55075"><ele>176.0</ele><time>2026-04-11T13:22:10.935Z</time></trkpt><trkpt lat="43.9044283" lon="12.5506783"><ele>177.5</ele><time>2026-04-11T13:22:11.936Z</time></trkpt><trkpt lat="43.9043717" lon="12.5506317"><ele>179.0</ele><time>2026-04-11T13:22:12.936Z</time></trkpt><trkpt lat="43.9042967" lon="12.550595"><ele>180.5</ele><time>2026-04-11T13:22:13.935Z</time></trkpt><trkpt lat="43.9042067" lon="12.5505767"><ele>182.0</ele><time>2026-04-11T13:22:14.935Z</time></trkpt><trkpt lat="43.9041" lon="12.5505617"><ele>184.25</ele><time>2026-04-11T13:22:15.936Z</time></trkpt><trkpt lat="43.90399" lon="12.55054"><ele>186.5</ele><time>2026-04-11T13:22:16.935Z</time></trkpt><trkpt lat="43.9038683" lon="12.5505267"><ele>188.75</ele><time>2026-04-11T13:22:17.935Z</time></trkpt><trkpt lat="43.9037283" lon="12.5505067"><ele>191.0</ele><time>2026-04-11T13:22:18.936Z</time></trkpt><trkpt lat="43.9035933" lon="12.5505017"><ele>191.0</ele><time>2026-04-11T13:22:19.935Z</time></trkpt><trkpt lat="43.9034583" lon="12.5504967"><ele>191.0</ele><time>2026-04-11T13:22:20.935Z</time></trkpt><trkpt lat="43.903325" lon="12.5505"><ele>191.0</ele><time>2026-04-11T13:22:21.936Z</time></trkpt><trkpt lat="43.9031983" lon="12.55051"><ele>191.0</ele><time>2026-04-11T13:22:22.936Z</time></trkpt><trkpt lat="43.903075" lon="12.5505217"><ele>194.5</ele><time>2026-04-11T13:22:23.936Z</time></trkpt><trkpt lat="43.9029533" lon="12.55053"><ele>198.0</ele><time>2026-04-11T13:22:24.935Z</time></trkpt><trkpt lat="43.9028333" lon="12.55054"><ele>201.5</ele><time>2026-04-11T13:22:25.936Z</time></trkpt><trkpt lat="43.9027167" lon="12.55055"><ele>205.0</ele><time>2026-04-11T13:22:26.936Z</time></trkpt><trkpt lat="43.90261" lon="12.5505567"><ele>208.8</ele><time>2026-04-11T13:22:27.935Z</time></trkpt><trkpt lat="43.9024983" lon="12.5505717"><ele>212.6</ele><time>2026-04-11T13:22:28.936Z</time></trkpt><trkpt lat="43.90239" lon="12.5505817"><ele>216.39999999999998</ele><time>2026-04-11T13:22:29.936Z</time></trkpt><trkpt lat="43.9023" lon="12.5505817"><ele>220.2</ele><time>2026-04-11T13:22:30.935Z</time></trkpt><trkpt lat="43.9022283" lon="12.550575"><ele>224.0</ele><time>2026-04-11T13:22:31.936Z</time></trkpt><trkpt lat="43.9021567" lon="12.5505033"><ele>224.0</ele><time>2026-04-11T13:22:33.936Z</time></trkpt><trkpt lat="43.9021" lon="12.5504117"><ele>223.99999999999997</ele><time>2026-04-11T13:22:35.935Z</time></trkpt><trkpt lat="43.902005" lon="12.5503533"><ele>223.99999999999997</ele><time>2026-04-11T13:22:37.935Z</time></trkpt><trkpt lat="43.9019367" lon="12.550305"><ele>224.0</ele><time>2026-04-11T13:22:38.935Z</time></trkpt><trkpt lat="43.9018583" lon="12.5502367"><ele>224.0</ele><time>2026-04-11T13:22:39.936Z</time></trkpt><trkpt lat="43.9017783" lon="12.5501617"><ele>227.6</ele><time>2026-04-11T13:22:40.936Z</time></trkpt><trkpt lat="43.9017017" lon="12.55008"><ele>231.2</ele><time>2026-04-11T13:22:41.936Z</time></trkpt><trkpt lat="43.9016183" lon="12.5500083"><ele>234.79999999999998</ele><time>2026-04-11T13:22:42.936Z</time></trkpt><trkpt lat="43.90153" lon="12.5499317"><ele>238.39999999999998</ele><time>2026-04-11T13:22:43.936Z</time></trkpt><trkpt lat="43.9014483" lon="12.5498533"><ele>242.0</ele><time>2026-04-11T13:22:44.936Z</time></trkpt><trkpt lat="43.9013717" lon="12.5497883"><ele>242.0</ele><time>2026-04-11T13:22:45.936Z</time></trkpt><trkpt lat="43.9012933" lon="12.5497283"><ele>242.0</ele><time>2026-04-11T13:22:46.935Z</time></trkpt><trkpt lat="43.9012" lon="12.5496767"><ele>242.0</ele><time>2026-04-11T13:22:47.935Z</time></trkpt><trkpt lat="43.9011067" lon="12.5496283"><ele>242.0</ele><time>2026-04-11T13:22:48.936Z</time></trkpt><trkpt lat="43.901015" lon="12.5495767"><ele>242.0</ele><time>2026-04-11T13:22:49.935Z</time></trkpt><trkpt lat="43.9009317" lon="12.54953"><ele>244.50000000000003</ele><time>2026-04-11T13:22:50.936Z</time></trkpt><trkpt lat="43.9008517" lon="12.5495033"><ele>247.0</ele><time>2026-04-11T13:22:51.936Z</time></trkpt><trkpt lat="43.90078" lon="12.5494833"><ele>249.5</ele><time>2026-04-11T13:22:52.935Z</time></trkpt><trkpt lat="43.9007017" lon="12.5494733"><ele>252.0</ele><time>2026-04-11T13:22:53.936Z</time></trkpt><trkpt lat="43.90062" lon="12.5494833"><ele>254.50000000000003</ele><time>2026-04-11T13:22:54.936Z</time></trkpt><trkpt lat="43.9005333" lon="12.5494833"><ele>257.0</ele><time>2026-04-11T13:22:55.935Z</time></trkpt><trkpt lat="43.900445" lon="12.549475"><ele>257.0</ele><time>2026-04-11T13:22:56.936Z</time></trkpt><trkpt lat="43.9003567" lon="12.5494683"><ele>257.0</ele><time>2026-04-11T13:22:57.935Z</time></trkpt><trkpt lat="43.9002733" lon="12.54947"><ele>257.0</ele><time>2026-04-11T13:22:58.935Z</time></trkpt><trkpt lat="43.9001983" lon="12.549475"><ele>257.0</ele><time>2026-04-11T13:22:59.935Z</time></trkpt><trkpt lat="43.90013" lon="12.5494867"><ele>257.0</ele><time>2026-04-11T13:23:00.935Z</time></trkpt><trkpt lat="43.9000267" lon="12.549495"><ele>257.0</ele><time>2026-04-11T13:23:02.936Z</time></trkpt><trkpt lat="43.8999583" lon="12.5494817"><ele>257.5</ele><time>2026-04-11T13:23:04.935Z</time></trkpt><trkpt lat="43.8998933" lon="12.549475"><ele>258.0</ele><time>2026-04-11T13:23:06.935Z</time></trkpt><trkpt lat="43.899815" lon="12.5494583"><ele>258.5</ele><time>2026-04-11T13:23:36.936Z</time></trkpt><trkpt lat="43.8996967" lon="12.54942"><ele>259.0</ele><time>2026-04-11T13:23:38.936Z</time></trkpt><trkpt lat="43.8996283" lon="12.5493883"><ele>259.5</ele><time>2026-04-11T13:23:40.935Z</time></trkpt><trkpt lat="43.8995517" lon="12.549345"><ele>260.0</ele><time>2026-04-11T13:23:42.936Z</time></trkpt><trkpt lat="43.8994367" lon="12.5492783"><ele>260.00000000000006</ele><time>2026-04-11T13:23:44.936Z</time></trkpt><trkpt lat="43.8993617" lon="12.5492517"><ele>260.0</ele><time>2026-04-11T13:23:45.936Z</time></trkpt><trkpt lat="43.8992983" lon="12.5492267"><ele>260.0</ele><time>2026-04-11T13:23:46.934Z</time></trkpt><trkpt lat="43.8992333" lon="12.5492083"><ele>260.0</ele><time>2026-04-11T13:23:47.934Z</time></trkpt><trkpt lat="43.8991683" lon="12.54919"><ele>260.0</ele><time>2026-04-11T13:23:48.934Z</time></trkpt><trkpt lat="43.8991017" lon="12.54917"><ele>260.00000000000006</ele><time>2026-04-11T13:23:49.934Z</time></trkpt><trkpt lat="43.899035" lon="12.5491533"><ele>260.0</ele><time>2026-04-11T13:23:50.935Z</time></trkpt><trkpt lat="43.8989733" lon="12.5491267"><ele>261.33333333333337</ele><time>2026-04-11T13:23:51.934Z</time></trkpt><trkpt lat="43.89891" lon="12.549095"><ele>262.6666666666667</ele><time>2026-04-11T13:23:52.934Z</time></trkpt><trkpt lat="43.8988483" lon="12.5490683"><ele>264.0</ele><time>2026-04-11T13:23:53.935Z</time></trkpt><trkpt lat="43.898785" lon="12.5490417"><ele>265.3333333333333</ele><time>2026-04-11T13:23:54.934Z</time></trkpt><trkpt lat="43.8987217" lon="12.5490167"><ele>266.66666666666663</ele><time>2026-04-11T13:23:55.935Z</time></trkpt><trkpt lat="43.8986617" lon="12.5489883"><ele>268.0</ele><time>2026-04-11T13:23:56.934Z</time></trkpt><trkpt lat="43.89854" lon="12.5489367"><ele>268.0</ele><time>2026-04-11T13:23:58.934Z</time></trkpt><trkpt lat="43.8984217" lon="12.5488967"><ele>268.0</ele><time>2026-04-11T13:24:00.934Z</time></trkpt><trkpt lat="43.8983017" lon="12.54886"><ele>268.0</ele><time>2026-04-11T13:24:02.934Z</time></trkpt><trkpt lat="43.8982367" lon="12.5488433"><ele>268.0</ele><time>2026-04-11T13:24:03.935Z</time></trkpt><trkpt lat="43.8981083" lon="12.54883"><ele>268.0</ele><time>2026-04-11T13:24:05.934Z</time></trkpt><trkpt lat="43.8980317" lon="12.5488167"><ele>267.8571428571429</ele><time>2026-04-11T13:24:06.934Z</time></trkpt><trkpt lat="43.897955" lon="12.5487933"><ele>267.7142857142857</ele><time>2026-04-11T13:24:07.934Z</time></trkpt><trkpt lat="43.897885" lon="12.548755"><ele>267.57142857142856</ele><time>2026-04-11T13:24:08.935Z</time></trkpt><trkpt lat="43.8978233" lon="12.5487033"><ele>267.42857142857144</ele><time>2026-04-11T13:24:09.935Z</time></trkpt><trkpt lat="43.8977733" lon="12.5486467"><ele>267.2857142857143</ele><time>2026-04-11T13:24:10.935Z</time></trkpt><trkpt lat="43.89772" lon="12.5485867"><ele>267.14285714285717</ele><time>2026-04-11T13:24:11.934Z</time></trkpt><trkpt lat="43.8976667" lon="12.5485267"><ele>267.0</ele><time>2026-04-11T13:24:12.935Z</time></trkpt><trkpt lat="43.8976167" lon="12.5484617"><ele>271.0</ele><time>2026-04-11T13:24:13.934Z</time></trkpt><trkpt lat="43.897565" lon="12.5483983"><ele>275.0</ele><time>2026-04-11T13:24:14.935Z</time></trkpt><trkpt lat="43.8975133" lon="12.5483383"><ele>279.0</ele><time>2026-04-11T13:24:15.935Z</time></trkpt><trkpt lat="43.8974167" lon="12.5482283"><ele>283.0</ele><time>2026-04-11T13:24:17.934Z</time></trkpt><trkpt lat="43.8973183" lon="12.548115"><ele>287.0</ele><time>2026-04-11T13:24:19.934Z</time></trkpt><trkpt lat="43.8972633" lon="12.548055"><ele>287.0</ele><time>2026-04-11T13:24:20.934Z</time></trkpt><trkpt lat="43.8972067" lon="12.5479917"><ele>287.0</ele><time>2026-04-11T13:24:21.934Z</time></trkpt><trkpt lat="43.8971483" lon="12.54793"><ele>287.0</ele><time>2026-04-11T13:24:22.934Z</time></trkpt><trkpt lat="43.8970917" lon="12.5478617"><ele>287.0</ele><time>2026-04-11T13:24:23.934Z</time></trkpt><trkpt lat="43.8970317" lon="12.547785"><ele>287.0</ele><time>2026-04-11T13:24:24.935Z</time></trkpt><trkpt lat="43.8969767" lon="12.5477133"><ele>287.0</ele><time>2026-04-11T13:24:25.935Z</time></trkpt><trkpt lat="43.8969217" lon="12.5476517"><ele>287.0</ele><time>2026-04-11T13:24:26.934Z</time></trkpt><trkpt lat="43.89687" lon="12.547595"><ele>287.2</ele><time>2026-04-11T13:24:27.935Z</time></trkpt><trkpt lat="43.8967967" lon="12.5474967"><ele>287.4</ele><time>2026-04-11T13:24:29.934Z</time></trkpt><trkpt lat="43.896715" lon="12.54741"><ele>287.6</ele><time>2026-04-11T13:24:31.934Z</time></trkpt><trkpt lat="43.89663" lon="12.5473267"><ele>287.8</ele><time>2026-04-11T13:24:33.934Z</time></trkpt><trkpt lat="43.8965417" lon="12.547235"><ele>288.0</ele><time>2026-04-11T13:24:35.935Z</time></trkpt><trkpt lat="43.896455" lon="12.54714"><ele>291.1666666666667</ele><time>2026-04-11T13:24:37.934Z</time></trkpt><trkpt lat="43.8963533" lon="12.54706"><ele>294.3333333333333</ele><time>2026-04-11T13:24:39.934Z</time></trkpt><trkpt lat="43.8962983" lon="12.547015"><ele>297.5</ele><time>2026-04-11T13:24:40.934Z</time></trkpt><trkpt lat="43.8961917" lon="12.5469383"><ele>300.66666666666663</ele><time>2026-04-11T13:24:42.934Z</time></trkpt><trkpt lat="43.8961317" lon="12.5469"><ele>303.8333333333333</ele><time>2026-04-11T13:24:43.934Z</time></trkpt><trkpt lat="43.89607" lon="12.5468583"><ele>307.0</ele><time>2026-04-11T13:24:44.935Z</time></trkpt><trkpt lat="43.89601" lon="12.5468267"><ele>307.8</ele><time>2026-04-11T13:24:45.934Z</time></trkpt><trkpt lat="43.895915" lon="12.5467733"><ele>308.6</ele><time>2026-04-11T13:24:47.934Z</time></trkpt><trkpt lat="43.8958467" lon="12.546745"><ele>309.40000000000003</ele><time>2026-04-11T13:24:49.935Z</time></trkpt><trkpt lat="43.8957767" lon="12.546735"><ele>310.2</ele><time>2026-04-11T13:24:51.935Z</time></trkpt><trkpt lat="43.8956783" lon="12.5467233"><ele>311.0</ele><time>2026-04-11T13:24:53.935Z</time></trkpt><trkpt lat="43.8955683" lon="12.54671"><ele>311.0</ele><time>2026-04-11T13:24:55.935Z</time></trkpt><trkpt lat="43.895505" lon="12.5467117"><ele>311.0</ele><time>2026-04-11T13:24:56.935Z</time></trkpt><trkpt lat="43.8954383" lon="12.5467067"><ele>311.0</ele><time>2026-04-11T13:24:57.935Z</time></trkpt><trkpt lat="43.89537" lon="12.5466983"><ele>311.0</ele><time>2026-04-11T13:24:58.935Z</time></trkpt><trkpt lat="43.8953067" lon="12.5466567"><ele>311.0</ele><time>2026-04-11T13:24:59.935Z</time></trkpt><trkpt lat="43.895245" lon="12.5466083"><ele>311.0</ele><time>2026-04-11T13:25:00.934Z</time></trkpt><trkpt lat="43.8951967" lon="12.546545"><ele>311.0</ele><time>2026-04-11T13:25:01.935Z</time></trkpt><trkpt lat="43.8951467" lon="12.5464483"><ele>311.0</ele><time>2026-04-11T13:25:03.935Z</time></trkpt><trkpt lat="43.89511" lon="12.5463717"><ele>311.0</ele><time>2026-04-11T13:25:43.935Z</time></trkpt><trkpt lat="43.8950583" lon="12.5462983"><ele>311.0</ele><time>2026-04-11T13:25:46.934Z</time></trkpt><trkpt lat="43.8949833" lon="12.546245"><ele>311.0</ele><time>2026-04-11T13:29:54.933Z</time></trkpt><trkpt lat="43.8948917" lon="12.5461817"><ele>311.0</ele><time>2026-04-11T13:29:56.934Z</time></trkpt><trkpt lat="43.8947983" lon="12.5461617"><ele>311.0</ele><time>2026-04-11T13:29:58.933Z</time></trkpt><trkpt lat="43.8946883" lon="12.54616"><ele>311.6</ele><time>2026-04-11T13:30:00.933Z</time></trkpt><trkpt lat="43.89458" lon="12.5461733"><ele>312.20000000000005</ele><time>2026-04-11T13:30:02.934Z</time></trkpt><trkpt lat="43.8944817" lon="12.546215"><ele>312.79999999999995</ele><time>2026-04-11T13:30:04.933Z</time></trkpt><trkpt lat="43.8943767" lon="12.54625"><ele>313.4</ele><time>2026-04-11T13:30:06.934Z</time></trkpt><trkpt lat="43.8942683" lon="12.546295"><ele>314.0</ele><time>2026-04-11T13:30:08.934Z</time></trkpt><trkpt lat="43.8941717" lon="12.5463267"><ele>317.2</ele><time>2026-04-11T13:30:10.934Z</time></trkpt><trkpt lat="43.8940683" lon="12.54636"><ele>320.4</ele><time>2026-04-11T13:30:12.934Z</time></trkpt><trkpt lat="43.8939867" lon="12.54638"><ele>323.6</ele><time>2026-04-11T13:30:14.934Z</time></trkpt><trkpt lat="43.8939083" lon="12.5463317"><ele>326.8</ele><time>2026-04-11T13:30:16.934Z</time></trkpt><trkpt lat="43.893795" lon="12.5462633"><ele>330.0</ele><time>2026-04-11T13:30:18.934Z</time></trkpt><trkpt lat="43.8937233" lon="12.5462317"><ele>329.3333333333333</ele><time>2026-04-11T13:30:19.934Z</time></trkpt><trkpt lat="43.8936517" lon="12.5462017"><ele>328.6666666666667</ele><time>2026-04-11T13:30:20.933Z</time></trkpt><trkpt lat="43.8935733" lon="12.5461883"><ele>328.0</ele><time>2026-04-11T13:30:21.934Z</time></trkpt><trkpt lat="43.8934933" lon="12.5461733"><ele>327.33333333333337</ele><time>2026-04-11T13:30:22.933Z</time></trkpt><trkpt lat="43.8934033" lon="12.5461667"><ele>326.6666666666667</ele><time>2026-04-11T13:30:23.933Z</time></trkpt><trkpt lat="43.893305" lon="12.5461567"><ele>326.0</ele><time>2026-04-11T13:30:24.934Z</time></trkpt><trkpt lat="43.89321" lon="12.5461533"><ele>326.0</ele><time>2026-04-11T13:30:25.933Z</time></trkpt><trkpt lat="43.8931167" lon="12.5461467"><ele>326.0</ele><time>2026-04-11T13:30:26.933Z</time></trkpt><trkpt lat="43.8930167" lon="12.5461367"><ele>326.0</ele><time>2026-04-11T13:30:27.934Z</time></trkpt><trkpt lat="43.8929183" lon="12.546125"><ele>326.0</ele><time>2026-04-11T13:30:28.934Z</time></trkpt><trkpt lat="43.8928167" lon="12.5461017"><ele>326.0</ele><time>2026-04-11T13:30:29.933Z</time></trkpt><trkpt lat="43.8927233" lon="12.5460633"><ele>326.0</ele><time>2026-04-11T13:30:30.934Z</time></trkpt><trkpt lat="43.892635" lon="12.546015"><ele>326.0</ele><time>2026-04-11T13:30:31.934Z</time></trkpt><trkpt lat="43.8925417" lon="12.5459717"><ele>326.0</ele><time>2026-04-11T13:30:32.934Z</time></trkpt><trkpt lat="43.8924567" lon="12.545935"><ele>326.0</ele><time>2026-04-11T13:30:33.933Z</time></trkpt><trkpt lat="43.8923783" lon="12.545895"><ele>326.0</ele><time>2026-04-11T13:30:34.933Z</time></trkpt><trkpt lat="43.8923017" lon="12.5458467"><ele>326.14285714285717</ele><time>2026-04-11T13:30:35.934Z</time></trkpt><trkpt lat="43.8922333" lon="12.5457983"><ele>326.2857142857143</ele><time>2026-04-11T13:30:36.934Z</time></trkpt><trkpt lat="43.8921767" lon="12.5457533"><ele>326.42857142857144</ele><time>2026-04-11T13:30:37.933Z</time></trkpt><trkpt lat="43.8921167" lon="12.5457133"><ele>326.57142857142856</ele><time>2026-04-11T13:30:38.934Z</time></trkpt><trkpt lat="43.8920517" lon="12.5456783"><ele>326.7142857142857</ele><time>2026-04-11T13:30:39.933Z</time></trkpt><trkpt lat="43.8919867" lon="12.54564"><ele>326.85714285714283</ele><time>2026-04-11T13:30:40.933Z</time></trkpt><trkpt lat="43.8919283" lon="12.5455983"><ele>327.0</ele><time>2026-04-11T13:30:41.934Z</time></trkpt><trkpt lat="43.8918717" lon="12.5455467"><ele>327.0</ele><time>2026-04-11T13:30:42.933Z</time></trkpt><trkpt lat="43.8918167" lon="12.5454867"><ele>327.0</ele><time>2026-04-11T13:30:43.934Z</time></trkpt><trkpt lat="43.8917717" lon="12.5454217"><ele>327.0</ele><time>2026-04-11T13:30:44.933Z</time></trkpt><trkpt lat="43.891725" lon="12.5453517"><ele>327.0</ele><time>2026-04-11T13:30:45.933Z</time></trkpt><trkpt lat="43.8916733" lon="12.54528"><ele>327.0</ele><time>2026-04-11T13:30:46.934Z</time></trkpt><trkpt lat="43.8916283" lon="12.5452"><ele>327.0</ele><time>2026-04-11T13:30:47.934Z</time></trkpt><trkpt lat="43.8915783" lon="12.5451133"><ele>327.0</ele><time>2026-04-11T13:30:48.934Z</time></trkpt><trkpt lat="43.8915417" lon="12.5450217"><ele>326.42857142857144</ele><time>2026-04-11T13:30:49.934Z</time></trkpt><trkpt lat="43.891505" lon="12.5449333"><ele>325.8571428571429</ele><time>2026-04-11T13:30:50.934Z</time></trkpt><trkpt lat="43.8914683" lon="12.5448333"><ele>325.28571428571433</ele><time>2026-04-11T13:30:51.934Z</time></trkpt><trkpt lat="43.891435" lon="12.54474"><ele>324.7142857142857</ele><time>2026-04-11T13:30:52.933Z</time></trkpt><trkpt lat="43.891405" lon="12.5446417"><ele>324.14285714285717</ele><time>2026-04-11T13:30:53.934Z</time></trkpt><trkpt lat="43.8913783" lon="12.5445467"><ele>323.5714285714286</ele><time>2026-04-11T13:30:54.933Z</time></trkpt><trkpt lat="43.8913533" lon="12.54446"><ele>323.0</ele><time>2026-04-11T13:30:55.933Z</time></trkpt><trkpt lat="43.8913233" lon="12.544375"><ele>321.5</ele><time>2026-04-11T13:30:56.934Z</time></trkpt><trkpt lat="43.8912767" lon="12.5443"><ele>320.0</ele><time>2026-04-11T13:30:57.934Z</time></trkpt><trkpt lat="43.8912233" lon="12.5442267"><ele>318.5</ele><time>2026-04-11T13:30:58.933Z</time></trkpt><trkpt lat="43.89117" lon="12.54416"><ele>317.0</ele><time>2026-04-11T13:30:59.933Z</time></trkpt><trkpt lat="43.89111" lon="12.5441033"><ele>315.5</ele><time>2026-04-11T13:31:00.933Z</time></trkpt><trkpt lat="43.8910417" lon="12.5440433"><ele>314.0</ele><time>2026-04-11T13:31:01.934Z</time></trkpt><trkpt lat="43.89097" lon="12.5439833"><ele>313.6666666666667</ele><time>2026-04-11T13:31:02.934Z</time></trkpt><trkpt lat="43.8908967" lon="12.5439167"><ele>313.33333333333337</ele><time>2026-04-11T13:31:03.934Z</time></trkpt><trkpt lat="43.8908233" lon="12.543845"><ele>313.0</ele><time>2026-04-11T13:31:04.934Z</time></trkpt><trkpt lat="43.8907483" lon="12.54377"><ele>312.6666666666667</ele><time>2026-04-11T13:31:05.933Z</time></trkpt><trkpt lat="43.89067" lon="12.54369"><ele>312.3333333333333</ele><time>2026-04-11T13:31:06.933Z</time></trkpt><trkpt lat="43.8906" lon="12.5436317"><ele>312.0</ele><time>2026-04-11T13:31:07.933Z</time></trkpt><trkpt lat="43.8905317" lon="12.5435883"><ele>310.3333333333333</ele><time>2026-04-11T13:31:08.933Z</time></trkpt><trkpt lat="43.89046" lon="12.5435483"><ele>308.6666666666667</ele><time>2026-04-11T13:31:09.933Z</time></trkpt><trkpt lat="43.8903917" lon="12.54353"><ele>307.0</ele><time>2026-04-11T13:31:10.934Z</time></trkpt><trkpt lat="43.8903083" lon="12.543515"><ele>305.33333333333337</ele><time>2026-04-11T13:31:11.934Z</time></trkpt><trkpt lat="43.8902133" lon="12.5435117"><ele>303.6666666666667</ele><time>2026-04-11T13:31:12.934Z</time></trkpt><trkpt lat="43.8901167" lon="12.5435067"><ele>302.0</ele><time>2026-04-11T13:31:13.934Z</time></trkpt><trkpt lat="43.8900133" lon="12.5435067"><ele>302.0</ele><time>2026-04-11T13:31:14.933Z</time></trkpt><trkpt lat="43.8899233" lon="12.5435067"><ele>302.0</ele><time>2026-04-11T13:31:15.934Z</time></trkpt><trkpt lat="43.8898333" lon="12.5435083"><ele>302.0</ele><time>2026-04-11T13:31:16.934Z</time></trkpt><trkpt lat="43.889745" lon="12.5435083"><ele>302.0</ele><time>2026-04-11T13:31:17.934Z</time></trkpt><trkpt lat="43.8896667" lon="12.54349"><ele>302.0</ele><time>2026-04-11T13:31:18.933Z</time></trkpt><trkpt lat="43.8896017" lon="12.5434733"><ele>302.0</ele><time>2026-04-11T13:31:19.934Z</time></trkpt><trkpt lat="43.8894733" lon="12.5434367"><ele>302.00000000000006</ele><time>2026-04-11T13:31:21.934Z</time></trkpt><trkpt lat="43.8893933" lon="12.54342"><ele>302.0</ele><time>2026-04-11T13:31:22.934Z</time></trkpt><trkpt lat="43.8893233" lon="12.5434067"><ele>302.0</ele><time>2026-04-11T13:31:23.934Z</time></trkpt><trkpt lat="43.88926" lon="12.5433883"><ele>302.0</ele><time>2026-04-11T13:31:24.934Z</time></trkpt><trkpt lat="43.8891917" lon="12.5433583"><ele>302.0</ele><time>2026-04-11T13:31:25.934Z</time></trkpt><trkpt lat="43.8891217" lon="12.543315"><ele>302.00000000000006</ele><time>2026-04-11T13:31:26.934Z</time></trkpt><trkpt lat="43.8890667" lon="12.5432517"><ele>302.0</ele><time>2026-04-11T13:31:27.934Z</time></trkpt><trkpt lat="43.88901" lon="12.5431067"><ele>301.0</ele><time>2026-04-11T13:31:29.933Z</time></trkpt><trkpt lat="43.8889783" lon="12.5430267"><ele>300.0</ele><time>2026-04-11T13:31:30.934Z</time></trkpt><trkpt lat="43.8888867" lon="12.5429067"><ele>299.0</ele><time>2026-04-11T13:31:32.934Z</time></trkpt><trkpt lat="43.8888217" lon="12.5428483"><ele>298.0</ele><time>2026-04-11T13:31:33.934Z</time></trkpt><trkpt lat="43.888745" lon="12.542795"><ele>297.0</ele><time>2026-04-11T13:31:34.933Z</time></trkpt><trkpt lat="43.8886533" lon="12.5427367"><ele>296.0</ele><time>2026-04-11T13:31:35.933Z</time></trkpt><trkpt lat="43.8885517" lon="12.5426833"><ele>295.0</ele><time>2026-04-11T13:31:36.933Z</time></trkpt><trkpt lat="43.888445" lon="12.5426483"><ele>294.0</ele><time>2026-04-11T13:31:37.934Z</time></trkpt><trkpt lat="43.88834" lon="12.5426117"><ele>293.0</ele><time>2026-04-11T13:31:38.934Z</time></trkpt><trkpt lat="43.8882383" lon="12.5425617"><ele>292.0</ele><time>2026-04-11T13:31:39.934Z</time></trkpt><trkpt lat="43.8881433" lon="12.5425267"><ele>294.0</ele><time>2026-04-11T13:31:40.933Z</time></trkpt><trkpt lat="43.8880617" lon="12.5425067"><ele>296.0</ele><time>2026-04-11T13:31:41.934Z</time></trkpt><trkpt lat="43.8879517" lon="12.5424933"><ele>298.0</ele><time>2026-04-11T13:31:43.934Z</time></trkpt><trkpt lat="43.8878433" lon="12.5424633"><ele>300.0</ele><time>2026-04-11T13:31:45.934Z</time></trkpt><trkpt lat="43.8877783" lon="12.5424517"><ele>302.0</ele><time>2026-04-11T13:31:46.934Z</time></trkpt><trkpt lat="43.887715" lon="12.5424383"><ele>304.0</ele><time>2026-04-11T13:31:47.933Z</time></trkpt><trkpt lat="43.887595" lon="12.5424033"><ele>303.57142857142856</ele><time>2026-04-11T13:31:49.934Z</time></trkpt><trkpt lat="43.8875333" lon="12.54238"><ele>303.14285714285717</ele><time>2026-04-11T13:31:50.933Z</time></trkpt><trkpt lat="43.887475" lon="12.542345"><ele>302.7142857142857</ele><time>2026-04-11T13:31:51.933Z</time></trkpt><trkpt lat="43.88742" lon="12.5423"><ele>302.2857142857143</ele><time>2026-04-11T13:31:52.934Z</time></trkpt><trkpt lat="43.8873733" lon="12.5422383"><ele>301.8571428571429</ele><time>2026-04-11T13:31:53.934Z</time></trkpt><trkpt lat="43.8873167" lon="12.5421117"><ele>301.42857142857144</ele><time>2026-04-11T13:31:55.934Z</time></trkpt><trkpt lat="43.8872683" lon="12.5420317"><ele>301.0</ele><time>2026-04-11T13:31:57.934Z</time></trkpt><trkpt lat="43.8872083" lon="12.5419617"><ele>301.0</ele><time>2026-04-11T13:32:05.933Z</time></trkpt><trkpt lat="43.887155" lon="12.5419067"><ele>301.0</ele><time>2026-04-11T13:32:06.934Z</time></trkpt><trkpt lat="43.8871" lon="12.5418583"><ele>301.0</ele><time>2026-04-11T13:32:07.934Z</time></trkpt><trkpt lat="43.8870433" lon="12.5418117"><ele>301.0</ele><time>2026-04-11T13:32:08.933Z</time></trkpt><trkpt lat="43.886985" lon="12.5417617"><ele>301.0</ele><time>2026-04-11T13:32:09.933Z</time></trkpt><trkpt lat="43.88693" lon="12.5417033"><ele>301.0</ele><time>2026-04-11T13:32:10.934Z</time></trkpt><trkpt lat="43.88688" lon="12.541645"><ele>301.0</ele><time>2026-04-11T13:32:11.934Z</time></trkpt><trkpt lat="43.886835" lon="12.5415633"><ele>301.0</ele><time>2026-04-11T13:32:12.934Z</time></trkpt><trkpt lat="43.8867817" lon="12.5414517"><ele>301.0</ele><time>2026-04-11T13:32:13.933Z</time></trkpt><trkpt lat="43.8867267" lon="12.54131"><ele>301.0</ele><time>2026-04-11T13:32:14.934Z</time></trkpt><trkpt lat="43.8866767" lon="12.54117"><ele>301.0</ele><time>2026-04-11T13:32:15.934Z</time></trkpt><trkpt lat="43.8866267" lon="12.5410567"><ele>301.0</ele><time>2026-04-11T13:32:16.933Z</time></trkpt><trkpt lat="43.8865617" lon="12.54096"><ele>298.0</ele><time>2026-04-11T13:32:17.934Z</time></trkpt><trkpt lat="43.886495" lon="12.5408667"><ele>295.0</ele><time>2026-04-11T13:32:18.934Z</time></trkpt><trkpt lat="43.8864217" lon="12.540765"><ele>292.0</ele><time>2026-04-11T13:32:19.933Z</time></trkpt><trkpt lat="43.88635" lon="12.54067"><ele>289.0</ele><time>2026-04-11T13:32:20.934Z</time></trkpt><trkpt lat="43.88628" lon="12.5405783"><ele>286.0</ele><time>2026-04-11T13:32:21.934Z</time></trkpt><trkpt lat="43.886215" lon="12.540465"><ele>285.2</ele><time>2026-04-11T13:32:22.934Z</time></trkpt><trkpt lat="43.8861617" lon="12.5403467"><ele>284.40000000000003</ele><time>2026-04-11T13:32:23.933Z</time></trkpt><trkpt lat="43.8861" lon="12.54023"><ele>283.6</ele><time>2026-04-11T13:32:24.933Z</time></trkpt><trkpt lat="43.8860383" lon="12.540115"><ele>282.8</ele><time>2026-04-11T13:32:25.933Z</time></trkpt><trkpt lat="43.8859667" lon="12.5400033"><ele>282.0</ele><time>2026-04-11T13:32:26.933Z</time></trkpt><trkpt lat="43.885885" lon="12.5399083"><ele>282.0</ele><time>2026-04-11T13:32:27.934Z</time></trkpt><trkpt lat="43.885785" lon="12.5398367"><ele>282.0</ele><time>2026-04-11T13:32:28.933Z</time></trkpt><trkpt lat="43.88568" lon="12.53977"><ele>282.0</ele><time>2026-04-11T13:32:29.933Z</time></trkpt><trkpt lat="43.8855733" lon="12.53971"><ele>282.0</ele><time>2026-04-11T13:32:30.933Z</time></trkpt><trkpt lat="43.8854567" lon="12.5396467"><ele>282.0</ele><time>2026-04-11T13:32:31.933Z</time></trkpt><trkpt lat="43.8853267" lon="12.5395867"><ele>282.0</ele><time>2026-04-11T13:32:32.934Z</time></trkpt><trkpt lat="43.8851933" lon="12.5395233"><ele>282.0</ele><time>2026-04-11T13:32:33.933Z</time></trkpt><trkpt lat="43.8850683" lon="12.5394567"><ele>282.0</ele><time>2026-04-11T13:32:34.934Z</time></trkpt><trkpt lat="43.8849417" lon="12.5393833"><ele>281.6</ele><time>2026-04-11T13:32:35.933Z</time></trkpt><trkpt lat="43.88482" lon="12.5393183"><ele>281.2</ele><time>2026-04-11T13:32:36.934Z</time></trkpt><trkpt lat="43.8847" lon="12.5392583"><ele>280.8</ele><time>2026-04-11T13:32:37.934Z</time></trkpt><trkpt lat="43.8846033" lon="12.5392117"><ele>280.4</ele><time>2026-04-11T13:32:38.933Z</time></trkpt><trkpt lat="43.8845183" lon="12.5391983"><ele>280.0</ele><time>2026-04-11T13:32:39.934Z</time></trkpt><trkpt lat="43.8844317" lon="12.539205"><ele>280.0</ele><time>2026-04-11T13:32:40.934Z</time></trkpt><trkpt lat="43.8843417" lon="12.53922"><ele>280.0</ele><time>2026-04-11T13:32:41.934Z</time></trkpt><trkpt lat="43.884265" lon="12.5392317"><ele>280.0</ele><time>2026-04-11T13:32:42.934Z</time></trkpt><trkpt lat="43.8842" lon="12.5392367"><ele>280.0</ele><time>2026-04-11T13:32:43.934Z</time></trkpt><trkpt lat="43.8841033" lon="12.5391933"><ele>280.0</ele><time>2026-04-11T13:32:45.933Z</time></trkpt><trkpt lat="43.88405" lon="12.539145"><ele>280.0</ele><time>2026-04-11T13:32:46.933Z</time></trkpt><trkpt lat="43.8839883" lon="12.53908"><ele>281.3333333333333</ele><time>2026-04-11T13:32:47.934Z</time></trkpt><trkpt lat="43.883925" lon="12.5390033"><ele>282.66666666666663</ele><time>2026-04-11T13:32:48.933Z</time></trkpt><trkpt lat="43.8838617" lon="12.5389217"><ele>284.0</ele><time>2026-04-11T13:32:49.933Z</time></trkpt><trkpt lat="43.883805" lon="12.5388583"><ele>285.3333333333333</ele><time>2026-04-11T13:32:50.933Z</time></trkpt><trkpt lat="43.8837417" lon="12.5387717"><ele>286.6666666666667</ele><time>2026-04-11T13:32:52.934Z</time></trkpt><trkpt lat="43.88381" lon="12.5387383"><ele>288.0</ele><time>2026-04-11T13:33:06.934Z</time></trkpt><trkpt lat="43.8839083" lon="12.5388633"><ele>288.0</ele><time>2026-04-11T13:33:08.933Z</time></trkpt><trkpt lat="43.8839667" lon="12.538945"><ele>288.0</ele><time>2026-04-11T13:33:09.934Z</time></trkpt><trkpt lat="43.8840433" lon="12.5390217"><ele>288.0</ele><time>2026-04-11T13:33:10.933Z</time></trkpt><trkpt lat="43.8841383" lon="12.53908"><ele>288.0</ele><time>2026-04-11T13:33:11.934Z</time></trkpt><trkpt lat="43.88422" lon="12.5391133"><ele>288.0</ele><time>2026-04-11T13:33:12.933Z</time></trkpt><trkpt lat="43.8842917" lon="12.539125"><ele>288.0</ele><time>2026-04-11T13:33:13.934Z</time></trkpt><trkpt lat="43.8843583" lon="12.5391133"><ele>286.6666666666667</ele><time>2026-04-11T13:33:14.934Z</time></trkpt><trkpt lat="43.8844117" lon="12.5390583"><ele>285.3333333333333</ele><time>2026-04-11T13:33:15.934Z</time></trkpt><trkpt lat="43.884465" lon="12.5389833"><ele>284.0</ele><time>2026-04-11T13:33:16.934Z</time></trkpt><trkpt lat="43.88451" lon="12.5388817"><ele>282.66666666666663</ele><time>2026-04-11T13:33:17.934Z</time></trkpt><trkpt lat="43.8845467" lon="12.53876"><ele>281.3333333333333</ele><time>2026-04-11T13:33:18.934Z</time></trkpt><trkpt lat="43.8845633" lon="12.5386183"><ele>280.0</ele><time>2026-04-11T13:33:19.934Z</time></trkpt><trkpt lat="43.88458" lon="12.5384533"><ele>277.25</ele><time>2026-04-11T13:33:20.934Z</time></trkpt><trkpt lat="43.8846017" lon="12.53829"><ele>274.5</ele><time>2026-04-11T13:33:21.934Z</time></trkpt><trkpt lat="43.8846183" lon="12.538135"><ele>271.75</ele><time>2026-04-11T13:33:22.933Z</time></trkpt><trkpt lat="43.8846333" lon="12.5379867"><ele>269.0</ele><time>2026-04-11T13:33:23.933Z</time></trkpt><trkpt lat="43.884625" lon="12.537835"><ele>267.75</ele><time>2026-04-11T13:33:24.934Z</time></trkpt><trkpt lat="43.8845917" lon="12.5376817"><ele>266.5</ele><time>2026-04-11T13:33:25.934Z</time></trkpt><trkpt lat="43.8845317" lon="12.5375433"><ele>265.25</ele><time>2026-04-11T13:33:26.933Z</time></trkpt><trkpt lat="43.884445" lon="12.5374067"><ele>264.0</ele><time>2026-04-11T13:33:27.934Z</time></trkpt><trkpt lat="43.884345" lon="12.5372633"><ele>264.75</ele><time>2026-04-11T13:33:28.934Z</time></trkpt><trkpt lat="43.8842383" lon="12.5371317"><ele>265.5</ele><time>2026-04-11T13:33:29.934Z</time></trkpt><trkpt lat="43.8841417" lon="12.5369967"><ele>266.25</ele><time>2026-04-11T13:33:30.933Z</time></trkpt><trkpt lat="43.8840517" lon="12.536865"><ele>267.0</ele><time>2026-04-11T13:33:31.934Z</time></trkpt><trkpt lat="43.8839767" lon="12.5367433"><ele>267.0</ele><time>2026-04-11T13:33:32.934Z</time></trkpt><trkpt lat="43.88391" lon="12.53664"><ele>267.0</ele><time>2026-04-11T13:33:33.933Z</time></trkpt><trkpt lat="43.8838583" lon="12.5365283"><ele>267.0</ele><time>2026-04-11T13:33:34.934Z</time></trkpt><trkpt lat="43.8838367" lon="12.536405"><ele>267.0</ele><time>2026-04-11T13:33:35.934Z</time></trkpt><trkpt lat="43.8838417" lon="12.5362883"><ele>267.0</ele><time>2026-04-11T13:33:36.934Z</time></trkpt><trkpt lat="43.8838733" lon="12.5361733"><ele>264.6</ele><time>2026-04-11T13:33:37.934Z</time></trkpt><trkpt lat="43.8839367" lon="12.5360683"><ele>262.2</ele><time>2026-04-11T13:33:38.933Z</time></trkpt><trkpt lat="43.8840217" lon="12.536025"><ele>259.8</ele><time>2026-04-11T13:33:39.934Z</time></trkpt><trkpt lat="43.884105" lon="12.5360033"><ele>257.4</ele><time>2026-04-11T13:33:40.933Z</time></trkpt><trkpt lat="43.8841917" lon="12.5360383"><ele>255.0</ele><time>2026-04-11T13:33:41.934Z</time></trkpt><trkpt lat="43.8842767" lon="12.5361"><ele>252.2</ele><time>2026-04-11T13:33:42.934Z</time></trkpt><trkpt lat="43.884365" lon="12.5361517"><ele>249.4</ele><time>2026-04-11T13:33:43.934Z</time></trkpt><trkpt lat="43.88446" lon="12.53618"><ele>246.60000000000002</ele><time>2026-04-11T13:33:44.933Z</time></trkpt><trkpt lat="43.8845617" lon="12.5361567"><ele>243.8</ele><time>2026-04-11T13:33:45.933Z</time></trkpt><trkpt lat="43.8846783" lon="12.5361217"><ele>241.0</ele><time>2026-04-11T13:33:46.934Z</time></trkpt><trkpt lat="43.8847983" lon="12.53609"><ele>241.0</ele><time>2026-04-11T13:33:47.934Z</time></trkpt><trkpt lat="43.884905" lon="12.5360817"><ele>241.0</ele><time>2026-04-11T13:33:48.933Z</time></trkpt><trkpt lat="43.885035" lon="12.5361033"><ele>241.0</ele><time>2026-04-11T13:33:49.934Z</time></trkpt><trkpt lat="43.8851617" lon="12.53615"><ele>241.0</ele><time>2026-04-11T13:33:50.934Z</time></trkpt><trkpt lat="43.8852917" lon="12.5362167"><ele>239.4</ele><time>2026-04-11T13:33:51.934Z</time></trkpt><trkpt lat="43.8854267" lon="12.536295"><ele>237.8</ele><time>2026-04-11T13:33:52.933Z</time></trkpt><trkpt lat="43.8855433" lon="12.5363583"><ele>236.20000000000002</ele><time>2026-04-11T13:33:53.933Z</time></trkpt><trkpt lat="43.8856267" lon="12.536385"><ele>234.60000000000002</ele><time>2026-04-11T13:33:54.933Z</time></trkpt><trkpt lat="43.8856983" lon="12.5363833"><ele>233.0</ele><time>2026-04-11T13:33:55.934Z</time></trkpt><trkpt lat="43.8857617" lon="12.536355"><ele>233.00000000000003</ele><time>2026-04-11T13:33:56.934Z</time></trkpt><trkpt lat="43.8858117" lon="12.53629"><ele>233.0</ele><time>2026-04-11T13:33:57.933Z</time></trkpt><trkpt lat="43.8858433" lon="12.5362017"><ele>233.0</ele><time>2026-04-11T13:33:58.933Z</time></trkpt><trkpt lat="43.8858483" lon="12.536095"><ele>233.0</ele><time>2026-04-11T13:33:59.933Z</time></trkpt><trkpt lat="43.885825" lon="12.535965"><ele>233.00000000000003</ele><time>2026-04-11T13:34:00.933Z</time></trkpt><trkpt lat="43.8857833" lon="12.5358267"><ele>233.0</ele><time>2026-04-11T13:34:01.933Z</time></trkpt><trkpt lat="43.88573" lon="12.535675"><ele>230.0</ele><time>2026-04-11T13:34:02.934Z</time></trkpt><trkpt lat="43.8856467" lon="12.5355017"><ele>227.0</ele><time>2026-04-11T13:34:03.934Z</time></trkpt><trkpt lat="43.8855633" lon="12.5353183"><ele>224.0</ele><time>2026-04-11T13:34:04.933Z</time></trkpt><trkpt lat="43.8854717" lon="12.5351317"><ele>220.66666666666669</ele><time>2026-04-11T13:34:05.933Z</time></trkpt><trkpt lat="43.8853633" lon="12.5349383"><ele>217.33333333333331</ele><time>2026-04-11T13:34:06.933Z</time></trkpt><trkpt lat="43.8852417" lon="12.5347367"><ele>214.0</ele><time>2026-04-11T13:34:07.933Z</time></trkpt><trkpt lat="43.8851317" lon="12.5345267"><ele>214.66666666666666</ele><time>2026-04-11T13:34:08.933Z</time></trkpt><trkpt lat="43.8850217" lon="12.5343283"><ele>215.33333333333331</ele><time>2026-04-11T13:34:09.934Z</time></trkpt><trkpt lat="43.8849283" lon="12.53414"><ele>216.0</ele><time>2026-04-11T13:34:10.933Z</time></trkpt><trkpt lat="43.88484" lon="12.5339633"><ele>216.0</ele><time>2026-04-11T13:34:11.932Z</time></trkpt><trkpt lat="43.8847517" lon="12.5338083"><ele>216.0</ele><time>2026-04-11T13:34:12.933Z</time></trkpt><trkpt lat="43.8846583" lon="12.53365"><ele>216.0</ele><time>2026-04-11T13:34:13.932Z</time></trkpt><trkpt lat="43.8845533" lon="12.5334833"><ele>216.0</ele><time>2026-04-11T13:34:14.933Z</time></trkpt><trkpt lat="43.884445" lon="12.53333"><ele>215.0</ele><time>2026-04-11T13:34:15.933Z</time></trkpt><trkpt lat="43.8843433" lon="12.5331817"><ele>214.0</ele><time>2026-04-11T13:34:16.933Z</time></trkpt><trkpt lat="43.88425" lon="12.53304"><ele>213.0</ele><time>2026-04-11T13:34:17.932Z</time></trkpt><trkpt lat="43.8841717" lon="12.5329"><ele>212.0</ele><time>2026-04-11T13:34:18.932Z</time></trkpt><trkpt lat="43.8840933" lon="12.53276"><ele>212.0</ele><time>2026-04-11T13:34:19.933Z</time></trkpt><trkpt lat="43.8840183" lon="12.5326117"><ele>212.0</ele><time>2026-04-11T13:34:20.932Z</time></trkpt><trkpt lat="43.883975" lon="12.5324783"><ele>212.0</ele><time>2026-04-11T13:34:21.933Z</time></trkpt><trkpt lat="43.88394" lon="12.5323583"><ele>212.0</ele><time>2026-04-11T13:34:22.932Z</time></trkpt><trkpt lat="43.8839083" lon="12.5322483"><ele>212.0</ele><time>2026-04-11T13:34:23.933Z</time></trkpt><trkpt lat="43.8838783" lon="12.53215"><ele>211.66666666666669</ele><time>2026-04-11T13:34:24.932Z</time></trkpt><trkpt lat="43.8838483" lon="12.5320483"><ele>211.33333333333334</ele><time>2026-04-11T13:34:25.932Z</time></trkpt><trkpt lat="43.8838083" lon="12.5319483"><ele>211.0</ele><time>2026-04-11T13:34:26.933Z</time></trkpt><trkpt lat="43.8837767" lon="12.5318433"><ele>210.66666666666669</ele><time>2026-04-11T13:34:27.932Z</time></trkpt><trkpt lat="43.8837417" lon="12.5317267"><ele>210.33333333333334</ele><time>2026-04-11T13:34:28.932Z</time></trkpt><trkpt lat="43.883715" lon="12.5316133"><ele>210.0</ele><time>2026-04-11T13:34:29.932Z</time></trkpt><trkpt lat="43.8836917" lon="12.531505"><ele>210.0</ele><time>2026-04-11T13:34:30.933Z</time></trkpt><trkpt lat="43.8836833" lon="12.5314067"><ele>210.0</ele><time>2026-04-11T13:34:31.933Z</time></trkpt><trkpt lat="43.8836767" lon="12.5313067"><ele>210.0</ele><time>2026-04-11T13:34:32.932Z</time></trkpt><trkpt lat="43.8836683" lon="12.531205"><ele>210.0</ele><time>2026-04-11T13:34:33.932Z</time></trkpt><trkpt lat="43.883635" lon="12.5311083"><ele>210.0</ele><time>2026-04-11T13:34:34.932Z</time></trkpt><trkpt lat="43.883585" lon="12.5310083"><ele>210.0</ele><time>2026-04-11T13:34:35.933Z</time></trkpt><trkpt lat="43.883515" lon="12.530915"><ele>210.0</ele><time>2026-04-11T13:34:36.932Z</time></trkpt><trkpt lat="43.883435" lon="12.5308283"><ele>210.0</ele><time>2026-04-11T13:34:37.933Z</time></trkpt><trkpt lat="43.8833583" lon="12.530745"><ele>210.0</ele><time>2026-04-11T13:34:38.933Z</time></trkpt><trkpt lat="43.8832933" lon="12.530665"><ele>210.0</ele><time>2026-04-11T13:34:39.932Z</time></trkpt><trkpt lat="43.88325" lon="12.53058"><ele>210.0</ele><time>2026-04-11T13:34:40.933Z</time></trkpt><trkpt lat="43.88324" lon="12.5304883"><ele>210.0</ele><time>2026-04-11T13:34:41.932Z</time></trkpt><trkpt lat="43.8832583" lon="12.53039"><ele>210.2</ele><time>2026-04-11T13:34:42.932Z</time></trkpt><trkpt lat="43.8832983" lon="12.5302917"><ele>210.4</ele><time>2026-04-11T13:34:43.932Z</time></trkpt><trkpt lat="43.883355" lon="12.53018"><ele>210.60000000000002</ele><time>2026-04-11T13:34:44.932Z</time></trkpt><trkpt lat="43.8834233" lon="12.5300533"><ele>210.8</ele><time>2026-04-11T13:34:45.933Z</time></trkpt><trkpt lat="43.8834883" lon="12.5299033"><ele>211.0</ele><time>2026-04-11T13:34:46.933Z</time></trkpt><trkpt lat="43.8835483" lon="12.5297467"><ele>210.60000000000002</ele><time>2026-04-11T13:34:47.933Z</time></trkpt><trkpt lat="43.883595" lon="12.5295883"><ele>210.2</ele><time>2026-04-11T13:34:48.932Z</time></trkpt><trkpt lat="43.8836033" lon="12.5294233"><ele>209.8</ele><time>2026-04-11T13:34:49.933Z</time></trkpt><trkpt lat="43.8836067" lon="12.52928"><ele>209.39999999999998</ele><time>2026-04-11T13:34:50.932Z</time></trkpt><trkpt lat="43.8836183" lon="12.529175"><ele>209.0</ele><time>2026-04-11T13:34:51.933Z</time></trkpt><trkpt lat="43.8836383" lon="12.5290817"><ele>208.79999999999998</ele><time>2026-04-11T13:34:52.932Z</time></trkpt><trkpt lat="43.8836767" lon="12.5289883"><ele>208.6</ele><time>2026-04-11T13:34:53.933Z</time></trkpt><trkpt lat="43.8837383" lon="12.5288817"><ele>208.4</ele><time>2026-04-11T13:34:54.933Z</time></trkpt><trkpt lat="43.8838133" lon="12.528775"><ele>208.2</ele><time>2026-04-11T13:34:55.933Z</time></trkpt><trkpt lat="43.8839" lon="12.528645"><ele>208.0</ele><time>2026-04-11T13:34:56.932Z</time></trkpt><trkpt lat="43.88399" lon="12.5285083"><ele>208.33333333333331</ele><time>2026-04-11T13:34:57.933Z</time></trkpt><trkpt lat="43.8840783" lon="12.5283583"><ele>208.66666666666669</ele><time>2026-04-11T13:34:58.932Z</time></trkpt><trkpt lat="43.8841783" lon="12.528195"><ele>209.0</ele><time>2026-04-11T13:34:59.932Z</time></trkpt><trkpt lat="43.884285" lon="12.5280283"><ele>209.33333333333334</ele><time>2026-04-11T13:35:00.933Z</time></trkpt><trkpt lat="43.8843833" lon="12.52784"><ele>209.66666666666669</ele><time>2026-04-11T13:35:01.932Z</time></trkpt><trkpt lat="43.8844817" lon="12.52764"><ele>210.0</ele><time>2026-04-11T13:35:02.932Z</time></trkpt><trkpt lat="43.8845717" lon="12.527465"><ele>210.0</ele><time>2026-04-11T13:35:03.933Z</time></trkpt><trkpt lat="43.8846417" lon="12.5273117"><ele>210.0</ele><time>2026-04-11T13:35:04.933Z</time></trkpt><trkpt lat="43.88469" lon="12.5271817"><ele>210.0</ele><time>2026-04-11T13:35:05.933Z</time></trkpt><trkpt lat="43.884735" lon="12.5270767"><ele>210.0</ele><time>2026-04-11T13:35:06.933Z</time></trkpt><trkpt lat="43.8847933" lon="12.526995"><ele>210.0</ele><time>2026-04-11T13:35:07.932Z</time></trkpt><trkpt lat="43.8848567" lon="12.526935"><ele>210.4</ele><time>2026-04-11T13:35:08.933Z</time></trkpt><trkpt lat="43.8849133" lon="12.526875"><ele>210.8</ele><time>2026-04-11T13:35:09.932Z</time></trkpt><trkpt lat="43.8849617" lon="12.52681"><ele>211.2</ele><time>2026-04-11T13:35:10.933Z</time></trkpt><trkpt lat="43.88499" lon="12.526655"><ele>211.6</ele><time>2026-04-11T13:35:12.933Z</time></trkpt><trkpt lat="43.8849" lon="12.5265517"><ele>212.0</ele><time>2026-04-11T13:35:14.932Z</time></trkpt><trkpt lat="43.8848167" lon="12.526545"><ele>212.0</ele><time>2026-04-11T13:35:15.932Z</time></trkpt><trkpt lat="43.884735" lon="12.526525"><ele>212.0</ele><time>2026-04-11T13:35:16.933Z</time></trkpt><trkpt lat="43.8846433" lon="12.5264767"><ele>212.0</ele><time>2026-04-11T13:35:17.933Z</time></trkpt><trkpt lat="43.8845483" lon="12.526405"><ele>212.0</ele><time>2026-04-11T13:35:18.932Z</time></trkpt><trkpt lat="43.8844467" lon="12.526315"><ele>212.0</ele><time>2026-04-11T13:35:19.932Z</time></trkpt><trkpt lat="43.8843333" lon="12.52622"><ele>212.25</ele><time>2026-04-11T13:35:20.933Z</time></trkpt><trkpt lat="43.8842117" lon="12.5261117"><ele>212.5</ele><time>2026-04-11T13:35:21.932Z</time></trkpt><trkpt lat="43.8840933" lon="12.5260033"><ele>212.75</ele><time>2026-04-11T13:35:22.933Z</time></trkpt><trkpt lat="43.8839733" lon="12.52589"><ele>213.0</ele><time>2026-04-11T13:35:23.933Z</time></trkpt><trkpt lat="43.8838517" lon="12.5257767"><ele>213.0</ele><time>2026-04-11T13:35:24.932Z</time></trkpt><trkpt lat="43.8837367" lon="12.5256583"><ele>213.0</ele><time>2026-04-11T13:35:25.933Z</time></trkpt><trkpt lat="43.8836267" lon="12.52553"><ele>213.0</ele><time>2026-04-11T13:35:26.933Z</time></trkpt><trkpt lat="43.8835217" lon="12.525405"><ele>213.0</ele><time>2026-04-11T13:35:27.932Z</time></trkpt><trkpt lat="43.8834133" lon="12.525275"><ele>213.75</ele><time>2026-04-11T13:35:28.932Z</time></trkpt><trkpt lat="43.8833067" lon="12.5251483"><ele>214.5</ele><time>2026-04-11T13:35:29.932Z</time></trkpt><trkpt lat="43.8832067" lon="12.5250133"><ele>215.25</ele><time>2026-04-11T13:35:30.933Z</time></trkpt><trkpt lat="43.883115" lon="12.5248617"><ele>216.0</ele><time>2026-04-11T13:35:31.933Z</time></trkpt><trkpt lat="43.883035" lon="12.524695"><ele>217.0</ele><time>2026-04-11T13:35:32.933Z</time></trkpt><trkpt lat="43.88296" lon="12.5245283"><ele>218.0</ele><time>2026-04-11T13:35:33.933Z</time></trkpt><trkpt lat="43.8828817" lon="12.524365"><ele>219.0</ele><time>2026-04-11T13:35:34.932Z</time></trkpt><trkpt lat="43.8828167" lon="12.5242"><ele>220.0</ele><time>2026-04-11T13:35:35.933Z</time></trkpt><trkpt lat="43.8827583" lon="12.5240317"><ele>220.0</ele><time>2026-04-11T13:35:36.933Z</time></trkpt><trkpt lat="43.8827133" lon="12.52385"><ele>220.0</ele><time>2026-04-11T13:35:37.933Z</time></trkpt><trkpt lat="43.882675" lon="12.523675"><ele>220.0</ele><time>2026-04-11T13:35:38.932Z</time></trkpt><trkpt lat="43.8826317" lon="12.5235033"><ele>220.0</ele><time>2026-04-11T13:35:39.932Z</time></trkpt><trkpt lat="43.882615" lon="12.5233233"><ele>220.25</ele><time>2026-04-11T13:35:40.933Z</time></trkpt><trkpt lat="43.8825967" lon="12.5231433"><ele>220.5</ele><time>2026-04-11T13:35:41.933Z</time></trkpt><trkpt lat="43.88259" lon="12.5229467"><ele>220.75</ele><time>2026-04-11T13:35:42.932Z</time></trkpt><trkpt lat="43.8825767" lon="12.5227533"><ele>221.0</ele><time>2026-04-11T13:35:43.933Z</time></trkpt><trkpt lat="43.8825633" lon="12.522545"><ele>223.33333333333334</ele><time>2026-04-11T13:35:44.933Z</time></trkpt><trkpt lat="43.8825483" lon="12.5223333"><ele>225.66666666666669</ele><time>2026-04-11T13:35:45.933Z</time></trkpt><trkpt lat="43.8825283" lon="12.5221117"><ele>228.0</ele><time>2026-04-11T13:35:46.933Z</time></trkpt><trkpt lat="43.8825133" lon="12.52189"><ele>228.66666666666669</ele><time>2026-04-11T13:35:47.933Z</time></trkpt><trkpt lat="43.8825" lon="12.5216667"><ele>229.33333333333334</ele><time>2026-04-11T13:35:48.933Z</time></trkpt><trkpt lat="43.8824867" lon="12.5214467"><ele>230.0</ele><time>2026-04-11T13:35:49.932Z</time></trkpt><trkpt lat="43.88248" lon="12.52122"><ele>228.66666666666669</ele><time>2026-04-11T13:35:50.932Z</time></trkpt><trkpt lat="43.8824617" lon="12.5209767"><ele>227.33333333333331</ele><time>2026-04-11T13:35:51.933Z</time></trkpt><trkpt lat="43.882445" lon="12.52074"><ele>226.0</ele><time>2026-04-11T13:35:52.932Z</time></trkpt><trkpt lat="43.88243" lon="12.5204983"><ele>225.66666666666666</ele><time>2026-04-11T13:35:53.933Z</time></trkpt><trkpt lat="43.8824133" lon="12.5202517"><ele>225.33333333333331</ele><time>2026-04-11T13:35:54.933Z</time></trkpt><trkpt lat="43.8823983" lon="12.5200033"><ele>225.0</ele><time>2026-04-11T13:35:55.932Z</time></trkpt><trkpt lat="43.8823767" lon="12.5197617"><ele>226.0</ele><time>2026-04-11T13:35:56.932Z</time></trkpt><trkpt lat="43.8823533" lon="12.519505"><ele>227.0</ele><time>2026-04-11T13:35:57.933Z</time></trkpt><trkpt lat="43.8823283" lon="12.5192533"><ele>228.0</ele><time>2026-04-11T13:35:58.933Z</time></trkpt><trkpt lat="43.8822967" lon="12.5190017"><ele>228.0</ele><time>2026-04-11T13:35:59.933Z</time></trkpt><trkpt lat="43.88227" lon="12.5187417"><ele>228.0</ele><time>2026-04-11T13:36:00.932Z</time></trkpt><trkpt lat="43.8822367" lon="12.5184833"><ele>228.0</ele><time>2026-04-11T13:36:01.933Z</time></trkpt><trkpt lat="43.8821983" lon="12.5182183"><ele>229.66666666666669</ele><time>2026-04-11T13:36:02.933Z</time></trkpt><trkpt lat="43.88216" lon="12.517955"><ele>231.33333333333334</ele><time>2026-04-11T13:36:03.932Z</time></trkpt><trkpt lat="43.8821233" lon="12.5176867"><ele>233.0</ele><time>2026-04-11T13:36:04.932Z</time></trkpt><trkpt lat="43.8820783" lon="12.5174133"><ele>235.0</ele><time>2026-04-11T13:36:05.932Z</time></trkpt><trkpt lat="43.88204" lon="12.5171417"><ele>237.0</ele><time>2026-04-11T13:36:06.933Z</time></trkpt><trkpt lat="43.8820017" lon="12.5168733"><ele>239.0</ele><time>2026-04-11T13:36:07.932Z</time></trkpt><trkpt lat="43.8819583" lon="12.5165967"><ele>240.0</ele><time>2026-04-11T13:36:08.933Z</time></trkpt><trkpt lat="43.8819117" lon="12.5163183"><ele>241.0</ele><time>2026-04-11T13:36:09.932Z</time></trkpt><trkpt lat="43.8818717" lon="12.5160383"><ele>242.0</ele><time>2026-04-11T13:36:10.932Z</time></trkpt><trkpt lat="43.881835" lon="12.5157583"><ele>242.66666666666669</ele><time>2026-04-11T13:36:11.933Z</time></trkpt><trkpt lat="43.881795" lon="12.51548"><ele>243.33333333333331</ele><time>2026-04-11T13:36:12.933Z</time></trkpt><trkpt lat="43.8817683" lon="12.515205"><ele>244.0</ele><time>2026-04-11T13:36:13.933Z</time></trkpt><trkpt lat="43.88175" lon="12.514925"><ele>241.66666666666666</ele><time>2026-04-11T13:36:14.932Z</time></trkpt><trkpt lat="43.8817333" lon="12.51464"><ele>239.33333333333331</ele><time>2026-04-11T13:36:15.933Z</time></trkpt><trkpt lat="43.8817217" lon="12.514355"><ele>237.0</ele><time>2026-04-11T13:36:16.933Z</time></trkpt><trkpt lat="43.88171" lon="12.514065"><ele>237.0</ele><time>2026-04-11T13:36:17.933Z</time></trkpt><trkpt lat="43.8817017" lon="12.5137733"><ele>237.0</ele><time>2026-04-11T13:36:18.933Z</time></trkpt><trkpt lat="43.88169" lon="12.5134867"><ele>237.0</ele><time>2026-04-11T13:36:19.933Z</time></trkpt><trkpt lat="43.8816683" lon="12.5132033"><ele>238.0</ele><time>2026-04-11T13:36:20.932Z</time></trkpt><trkpt lat="43.8816317" lon="12.512915"><ele>239.0</ele><time>2026-04-11T13:36:21.933Z</time></trkpt><trkpt lat="43.88159" lon="12.5126333"><ele>240.0</ele><time>2026-04-11T13:36:22.933Z</time></trkpt><trkpt lat="43.88154" lon="12.512355"><ele>240.33333333333331</ele><time>2026-04-11T13:36:23.932Z</time></trkpt><trkpt lat="43.8814717" lon="12.51208"><ele>240.66666666666666</ele><time>2026-04-11T13:36:24.933Z</time></trkpt><trkpt lat="43.8814083" lon="12.511815"><ele>241.0</ele><time>2026-04-11T13:36:25.933Z</time></trkpt><trkpt lat="43.88134" lon="12.5115533"><ele>241.33333333333331</ele><time>2026-04-11T13:36:26.933Z</time></trkpt><trkpt lat="43.8812683" lon="12.511295"><ele>241.66666666666669</ele><time>2026-04-11T13:36:27.933Z</time></trkpt><trkpt lat="43.8812017" lon="12.5110467"><ele>242.0</ele><time>2026-04-11T13:36:28.932Z</time></trkpt><trkpt lat="43.8811233" lon="12.5107967"><ele>243.33333333333334</ele><time>2026-04-11T13:36:29.932Z</time></trkpt><trkpt lat="43.8810483" lon="12.5105433"><ele>244.66666666666669</ele><time>2026-04-11T13:36:30.933Z</time></trkpt><trkpt lat="43.8809767" lon="12.5102883"><ele>246.0</ele><time>2026-04-11T13:36:31.933Z</time></trkpt><trkpt lat="43.8809067" lon="12.510035"><ele>246.0</ele><time>2026-04-11T13:36:32.933Z</time></trkpt><trkpt lat="43.8808283" lon="12.5097883"><ele>246.0</ele><time>2026-04-11T13:36:33.933Z</time></trkpt><trkpt lat="43.88074" lon="12.5095383"><ele>246.0</ele><time>2026-04-11T13:36:34.933Z</time></trkpt><trkpt lat="43.8806433" lon="12.5092983"><ele>248.66666666666669</ele><time>2026-04-11T13:36:35.932Z</time></trkpt><trkpt lat="43.88054" lon="12.50907"><ele>251.33333333333334</ele><time>2026-04-11T13:36:36.932Z</time></trkpt><trkpt lat="43.8804417" lon="12.508845"><ele>254.0</ele><time>2026-04-11T13:36:37.933Z</time></trkpt><trkpt lat="43.8803467" lon="12.5086117"><ele>254.33333333333334</ele><time>2026-04-11T13:36:38.932Z</time></trkpt><trkpt lat="43.8802517" lon="12.50839"><ele>254.66666666666669</ele><time>2026-04-11T13:36:39.932Z</time></trkpt><trkpt lat="43.8801483" lon="12.5081683"><ele>255.0</ele><time>2026-04-11T13:36:40.933Z</time></trkpt><trkpt lat="43.8800533" lon="12.5079433"><ele>253.33333333333331</ele><time>2026-04-11T13:36:41.933Z</time></trkpt><trkpt lat="43.8799567" lon="12.5077117"><ele>251.66666666666666</ele><time>2026-04-11T13:36:42.933Z</time></trkpt><trkpt lat="43.879865" lon="12.50748"><ele>250.0</ele><time>2026-04-11T13:36:43.932Z</time></trkpt><trkpt lat="43.8797667" lon="12.507245"><ele>252.33333333333331</ele><time>2026-04-11T13:36:44.933Z</time></trkpt><trkpt lat="43.8796817" lon="12.5070033"><ele>254.66666666666669</ele><time>2026-04-11T13:36:45.933Z</time></trkpt><trkpt lat="43.8796083" lon="12.50675"><ele>257.0</ele><time>2026-04-11T13:36:46.932Z</time></trkpt><trkpt lat="43.8795433" lon="12.5064967"><ele>259.0</ele><time>2026-04-11T13:36:47.933Z</time></trkpt><trkpt lat="43.87948" lon="12.5062383"><ele>261.0</ele><time>2026-04-11T13:36:48.932Z</time></trkpt><trkpt lat="43.8794117" lon="12.50599"><ele>263.0</ele><time>2026-04-11T13:36:49.932Z</time></trkpt><trkpt lat="43.879335" lon="12.5057333"><ele>262.0</ele><time>2026-04-11T13:36:50.933Z</time></trkpt><trkpt lat="43.8792517" lon="12.5054967"><ele>261.0</ele><time>2026-04-11T13:36:51.933Z</time></trkpt><trkpt lat="43.8791517" lon="12.5052767"><ele>260.0</ele><time>2026-04-11T13:36:52.932Z</time></trkpt><trkpt lat="43.8790367" lon="12.505065"><ele>260.0</ele><time>2026-04-11T13:36:53.932Z</time></trkpt><trkpt lat="43.8789133" lon="12.5048533"><ele>260.0</ele><time>2026-04-11T13:36:54.932Z</time></trkpt><trkpt lat="43.8787933" lon="12.504645"><ele>260.0</ele><time>2026-04-11T13:36:55.933Z</time></trkpt><trkpt lat="43.8786733" lon="12.5044283"><ele>258.6666666666667</ele><time>2026-04-11T13:36:56.932Z</time></trkpt><trkpt lat="43.8785517" lon="12.5042183"><ele>257.3333333333333</ele><time>2026-04-11T13:36:57.933Z</time></trkpt><trkpt lat="43.8784467" lon="12.504005"><ele>256.0</ele><time>2026-04-11T13:36:58.933Z</time></trkpt><trkpt lat="43.8783317" lon="12.5037783"><ele>258.66666666666663</ele><time>2026-04-11T13:36:59.933Z</time></trkpt><trkpt lat="43.87822" lon="12.5035533"><ele>261.3333333333333</ele><time>2026-04-11T13:37:00.933Z</time></trkpt><trkpt lat="43.8781183" lon="12.5033133"><ele>264.0</ele><time>2026-04-11T13:37:01.933Z</time></trkpt><trkpt lat="43.878015" lon="12.5030867"><ele>266.0</ele><time>2026-04-11T13:37:02.932Z</time></trkpt><trkpt lat="43.8779183" lon="12.5028517"><ele>268.0</ele><time>2026-04-11T13:37:03.932Z</time></trkpt><trkpt lat="43.87782" lon="12.5026183"><ele>270.0</ele><time>2026-04-11T13:37:04.932Z</time></trkpt><trkpt lat="43.87772" lon="12.5023783"><ele>270.0</ele><time>2026-04-11T13:37:05.932Z</time></trkpt><trkpt lat="43.8776233" lon="12.50215"><ele>270.0</ele><time>2026-04-11T13:37:06.933Z</time></trkpt><trkpt lat="43.87753" lon="12.501925"><ele>270.0</ele><time>2026-04-11T13:37:07.932Z</time></trkpt><trkpt lat="43.8774333" lon="12.5017"><ele>269.0</ele><time>2026-04-11T13:37:08.933Z</time></trkpt><trkpt lat="43.8773367" lon="12.5014767"><ele>268.0</ele><time>2026-04-11T13:37:09.932Z</time></trkpt><trkpt lat="43.8772467" lon="12.501245"><ele>267.0</ele><time>2026-04-11T13:37:10.932Z</time></trkpt><trkpt lat="43.87716" lon="12.5010183"><ele>267.0</ele><time>2026-04-11T13:37:11.933Z</time></trkpt><trkpt lat="43.877065" lon="12.50079"><ele>267.0</ele><time>2026-04-11T13:37:12.932Z</time></trkpt><trkpt lat="43.8769717" lon="12.5005667"><ele>267.0</ele><time>2026-04-11T13:37:13.932Z</time></trkpt><trkpt lat="43.87689" lon="12.5003533"><ele>266.0</ele><time>2026-04-11T13:37:14.933Z</time></trkpt><trkpt lat="43.8768017" lon="12.5001267"><ele>265.0</ele><time>2026-04-11T13:37:15.933Z</time></trkpt><trkpt lat="43.8767217" lon="12.499915"><ele>264.0</ele><time>2026-04-11T13:37:16.933Z</time></trkpt><trkpt lat="43.876635" lon="12.4996883"><ele>265.0</ele><time>2026-04-11T13:37:17.933Z</time></trkpt><trkpt lat="43.8765467" lon="12.4994683"><ele>266.0</ele><time>2026-04-11T13:37:18.933Z</time></trkpt><trkpt lat="43.87646" lon="12.4992383"><ele>267.0</ele><time>2026-04-11T13:37:19.933Z</time></trkpt><trkpt lat="43.876365" lon="12.499005"><ele>267.0</ele><time>2026-04-11T13:37:20.933Z</time></trkpt><trkpt lat="43.87629" lon="12.4987717"><ele>267.0</ele><time>2026-04-11T13:37:21.933Z</time></trkpt><trkpt lat="43.8762283" lon="12.4985317"><ele>267.0</ele><time>2026-04-11T13:37:22.932Z</time></trkpt><trkpt lat="43.87617" lon="12.4982933"><ele>268.6666666666667</ele><time>2026-04-11T13:37:23.932Z</time></trkpt><trkpt lat="43.87612" lon="12.4980683"><ele>270.33333333333337</ele><time>2026-04-11T13:37:24.932Z</time></trkpt><trkpt lat="43.8760833" lon="12.4978617"><ele>272.0</ele><time>2026-04-11T13:37:25.932Z</time></trkpt><trkpt lat="43.8760533" lon="12.49766"><ele>272.0</ele><time>2026-04-11T13:37:26.932Z</time></trkpt><trkpt lat="43.876015" lon="12.4974617"><ele>272.0</ele><time>2026-04-11T13:37:27.933Z</time></trkpt><trkpt lat="43.875985" lon="12.49727"><ele>272.0</ele><time>2026-04-11T13:37:28.932Z</time></trkpt><trkpt lat="43.875945" lon="12.4970867"><ele>272.0</ele><time>2026-04-11T13:37:29.933Z</time></trkpt><trkpt lat="43.8758917" lon="12.4969183"><ele>272.0</ele><time>2026-04-11T13:37:30.932Z</time></trkpt><trkpt lat="43.8758267" lon="12.4967683"><ele>272.0</ele><time>2026-04-11T13:37:31.932Z</time></trkpt><trkpt lat="43.8757567" lon="12.4966233"><ele>272.0</ele><time>2026-04-11T13:37:32.933Z</time></trkpt><trkpt lat="43.8756717" lon="12.4964883"><ele>272.0</ele><time>2026-04-11T13:37:33.933Z</time></trkpt><trkpt lat="43.8755867" lon="12.4963583"><ele>273.5</ele><time>2026-04-11T13:37:34.932Z</time></trkpt><trkpt lat="43.8755033" lon="12.4962333"><ele>275.0</ele><time>2026-04-11T13:37:35.933Z</time></trkpt><trkpt lat="43.8754117" lon="12.4961067"><ele>276.5</ele><time>2026-04-11T13:37:36.932Z</time></trkpt><trkpt lat="43.87532" lon="12.4959983"><ele>278.0</ele><time>2026-04-11T13:37:37.932Z</time></trkpt><trkpt lat="43.8752283" lon="12.4959133"><ele>278.0</ele><time>2026-04-11T13:37:38.933Z</time></trkpt><trkpt lat="43.87514" lon="12.4958383"><ele>278.0</ele><time>2026-04-11T13:37:39.933Z</time></trkpt><trkpt lat="43.8750583" lon="12.4957933"><ele>278.0</ele><time>2026-04-11T13:37:40.933Z</time></trkpt><trkpt lat="43.874995" lon="12.4957717"><ele>278.0</ele><time>2026-04-11T13:37:41.932Z</time></trkpt><trkpt lat="43.8749283" lon="12.4957667"><ele>278.0</ele><time>2026-04-11T13:37:42.932Z</time></trkpt><trkpt lat="43.87486" lon="12.4957717"><ele>278.0</ele><time>2026-04-11T13:37:43.933Z</time></trkpt><trkpt lat="43.8747933" lon="12.4958083"><ele>277.6</ele><time>2026-04-11T13:37:44.932Z</time></trkpt><trkpt lat="43.87471" lon="12.495845"><ele>277.20000000000005</ele><time>2026-04-11T13:37:45.933Z</time></trkpt><trkpt lat="43.874615" lon="12.4958383"><ele>276.8</ele><time>2026-04-11T13:37:46.933Z</time></trkpt><trkpt lat="43.8745233" lon="12.4958"><ele>276.40000000000003</ele><time>2026-04-11T13:37:47.932Z</time></trkpt><trkpt lat="43.87442" lon="12.4957317"><ele>276.0</ele><time>2026-04-11T13:37:48.933Z</time></trkpt><trkpt lat="43.8743233" lon="12.4956467"><ele>278.0</ele><time>2026-04-11T13:37:49.932Z</time></trkpt><trkpt lat="43.8742167" lon="12.495525"><ele>280.0</ele><time>2026-04-11T13:37:50.933Z</time></trkpt><trkpt lat="43.8741133" lon="12.4953883"><ele>282.0</ele><time>2026-04-11T13:37:51.933Z</time></trkpt><trkpt lat="43.874005" lon="12.4952333"><ele>284.0</ele><time>2026-04-11T13:37:52.932Z</time></trkpt><trkpt lat="43.8738783" lon="12.4950817"><ele>284.0</ele><time>2026-04-11T13:37:53.932Z</time></trkpt><trkpt lat="43.87374" lon="12.4949383"><ele>284.0</ele><time>2026-04-11T13:37:54.932Z</time></trkpt><trkpt lat="43.87359" lon="12.4948083"><ele>284.0</ele><time>2026-04-11T13:37:55.932Z</time></trkpt><trkpt lat="43.8734383" lon="12.4946967"><ele>284.33333333333337</ele><time>2026-04-11T13:37:56.932Z</time></trkpt><trkpt lat="43.8732883" lon="12.494565"><ele>284.6666666666667</ele><time>2026-04-11T13:37:57.932Z</time></trkpt><trkpt lat="43.8731333" lon="12.4944433"><ele>285.0</ele><time>2026-04-11T13:37:58.933Z</time></trkpt><trkpt lat="43.87298" lon="12.4943317"><ele>285.0</ele><time>2026-04-11T13:37:59.933Z</time></trkpt><trkpt lat="43.87284" lon="12.4942117"><ele>285.0</ele><time>2026-04-11T13:38:00.932Z</time></trkpt><trkpt lat="43.8726833" lon="12.4940983"><ele>285.0</ele><time>2026-04-11T13:38:01.933Z</time></trkpt><trkpt lat="43.8725267" lon="12.494"><ele>285.5</ele><time>2026-04-11T13:38:02.933Z</time></trkpt><trkpt lat="43.872385" lon="12.4939267"><ele>286.0</ele><time>2026-04-11T13:38:03.933Z</time></trkpt><trkpt lat="43.8722317" lon="12.4938533"><ele>286.5</ele><time>2026-04-11T13:38:04.932Z</time></trkpt><trkpt lat="43.87211" lon="12.4937917"><ele>287.0</ele><time>2026-04-11T13:38:05.933Z</time></trkpt><trkpt lat="43.872005" lon="12.4937433"><ele>287.0</ele><time>2026-04-11T13:38:06.932Z</time></trkpt><trkpt lat="43.8719167" lon="12.49371"><ele>287.0</ele><time>2026-04-11T13:38:07.933Z</time></trkpt><trkpt lat="43.871845" lon="12.4936983"><ele>287.0</ele><time>2026-04-11T13:38:08.932Z</time></trkpt><trkpt lat="43.871755" lon="12.49374"><ele>287.0</ele><time>2026-04-11T13:38:10.932Z</time></trkpt><trkpt lat="43.871695" lon="12.4939183"><ele>287.0</ele><time>2026-04-11T13:38:12.932Z</time></trkpt><trkpt lat="43.8716667" lon="12.4940683"><ele>283.25</ele><time>2026-04-11T13:38:13.933Z</time></trkpt><trkpt lat="43.871625" lon="12.4942217"><ele>279.5</ele><time>2026-04-11T13:38:14.933Z</time></trkpt><trkpt lat="43.8715783" lon="12.4943833"><ele>275.75</ele><time>2026-04-11T13:38:15.932Z</time></trkpt><trkpt lat="43.87153" lon="12.49456"><ele>272.0</ele><time>2026-04-11T13:38:16.932Z</time></trkpt><trkpt lat="43.87147" lon="12.4947317"><ele>271.25</ele><time>2026-04-11T13:38:17.932Z</time></trkpt><trkpt lat="43.8713967" lon="12.4948917"><ele>270.5</ele><time>2026-04-11T13:38:18.933Z</time></trkpt><trkpt lat="43.8713167" lon="12.4950483"><ele>269.75</ele><time>2026-04-11T13:38:19.932Z</time></trkpt><trkpt lat="43.8712333" lon="12.495205"><ele>269.0</ele><time>2026-04-11T13:38:20.933Z</time></trkpt><trkpt lat="43.8711417" lon="12.49536"><ele>269.0</ele><time>2026-04-11T13:38:21.932Z</time></trkpt><trkpt lat="43.8710617" lon="12.495525"><ele>269.0</ele><time>2026-04-11T13:38:22.932Z</time></trkpt><trkpt lat="43.8709733" lon="12.4956817"><ele>269.0</ele><time>2026-04-11T13:38:23.933Z</time></trkpt><trkpt lat="43.8708967" lon="12.4958183"><ele>269.0</ele><time>2026-04-11T13:38:24.932Z</time></trkpt><trkpt lat="43.8708267" lon="12.49594"><ele>269.0</ele><time>2026-04-11T13:38:25.933Z</time></trkpt><trkpt lat="43.8707683" lon="12.49604"><ele>269.0</ele><time>2026-04-11T13:38:26.933Z</time></trkpt><trkpt lat="43.87072" lon="12.4961133"><ele>269.0</ele><time>2026-04-11T13:38:27.933Z</time></trkpt><trkpt lat="43.8706317" lon="12.4961383"><ele>269.0</ele><time>2026-04-11T13:38:29.933Z</time></trkpt><trkpt lat="43.8705583" lon="12.495975"><ele>269.0</ele><time>2026-04-11T13:38:31.933Z</time></trkpt><trkpt lat="43.8705267" lon="12.4958483"><ele>269.0</ele><time>2026-04-11T13:38:32.932Z</time></trkpt><trkpt lat="43.8704767" lon="12.4957267"><ele>269.0</ele><time>2026-04-11T13:38:33.933Z</time></trkpt><trkpt lat="43.8704183" lon="12.4956117"><ele>269.0</ele><time>2026-04-11T13:38:34.933Z</time></trkpt><trkpt lat="43.8703467" lon="12.4955233"><ele>269.0</ele><time>2026-04-11T13:38:35.933Z</time></trkpt><trkpt lat="43.8702567" lon="12.49545"><ele>269.0</ele><time>2026-04-11T13:38:36.933Z</time></trkpt><trkpt lat="43.8701433" lon="12.4953983"><ele>270.25</ele><time>2026-04-11T13:38:37.933Z</time></trkpt><trkpt lat="43.870025" lon="12.4953617"><ele>271.5</ele><time>2026-04-11T13:38:38.933Z</time></trkpt><trkpt lat="43.86991" lon="12.49531"><ele>272.75</ele><time>2026-04-11T13:38:39.932Z</time></trkpt><trkpt lat="43.8698" lon="12.495225"><ele>274.0</ele><time>2026-04-11T13:38:40.933Z</time></trkpt><trkpt lat="43.869685" lon="12.4951083"><ele>274.0</ele><time>2026-04-11T13:38:41.932Z</time></trkpt><trkpt lat="43.8695817" lon="12.49497"><ele>274.0</ele><time>2026-04-11T13:38:42.932Z</time></trkpt><trkpt lat="43.8694883" lon="12.4948017"><ele>274.0</ele><time>2026-04-11T13:38:43.933Z</time></trkpt><trkpt lat="43.8694" lon="12.494605"><ele>273.3333333333333</ele><time>2026-04-11T13:38:44.933Z</time></trkpt><trkpt lat="43.8693267" lon="12.4944133"><ele>272.6666666666667</ele><time>2026-04-11T13:38:45.933Z</time></trkpt><trkpt lat="43.8692533" lon="12.4942217"><ele>272.0</ele><time>2026-04-11T13:38:46.932Z</time></trkpt><trkpt lat="43.869175" lon="12.4940317"><ele>272.0</ele><time>2026-04-11T13:38:47.933Z</time></trkpt><trkpt lat="43.8691067" lon="12.4938583"><ele>272.0</ele><time>2026-04-11T13:38:48.933Z</time></trkpt><trkpt lat="43.8690383" lon="12.4936933"><ele>272.0</ele><time>2026-04-11T13:38:49.932Z</time></trkpt><trkpt lat="43.8689667" lon="12.4935567"><ele>272.0</ele><time>2026-04-11T13:38:50.933Z</time></trkpt><trkpt lat="43.86889" lon="12.49343"><ele>272.0</ele><time>2026-04-11T13:38:51.933Z</time></trkpt><trkpt lat="43.8688217" lon="12.4933067"><ele>272.0</ele><time>2026-04-11T13:38:52.933Z</time></trkpt><trkpt lat="43.8687617" lon="12.4932"><ele>272.0</ele><time>2026-04-11T13:38:53.933Z</time></trkpt><trkpt lat="43.86871" lon="12.4931017"><ele>272.0</ele><time>2026-04-11T13:38:54.932Z</time></trkpt><trkpt lat="43.868655" lon="12.49301"><ele>272.0</ele><time>2026-04-11T13:38:55.933Z</time></trkpt><trkpt lat="43.8686" lon="12.49291"><ele>272.4</ele><time>2026-04-11T13:38:56.933Z</time></trkpt><trkpt lat="43.8685433" lon="12.49281"><ele>272.79999999999995</ele><time>2026-04-11T13:38:57.932Z</time></trkpt><trkpt lat="43.86849" lon="12.49271"><ele>273.2</ele><time>2026-04-11T13:38:58.933Z</time></trkpt><trkpt lat="43.86843" lon="12.4926017"><ele>273.59999999999997</ele><time>2026-04-11T13:38:59.933Z</time></trkpt><trkpt lat="43.8683717" lon="12.4924833"><ele>274.0</ele><time>2026-04-11T13:39:00.932Z</time></trkpt><trkpt lat="43.8683117" lon="12.49237"><ele>274.3333333333333</ele><time>2026-04-11T13:39:01.932Z</time></trkpt><trkpt lat="43.8682567" lon="12.492265"><ele>274.66666666666663</ele><time>2026-04-11T13:39:02.933Z</time></trkpt><trkpt lat="43.8682117" lon="12.4921783"><ele>275.0</ele><time>2026-04-11T13:39:03.933Z</time></trkpt><trkpt lat="43.8681517" lon="12.4920517"><ele>275.3333333333333</ele><time>2026-04-11T13:39:05.933Z</time></trkpt><trkpt lat="43.8681067" lon="12.491925"><ele>275.6666666666667</ele><time>2026-04-11T13:39:07.933Z</time></trkpt><trkpt lat="43.86808" lon="12.491845"><ele>276.0</ele><time>2026-04-11T13:39:08.933Z</time></trkpt><trkpt lat="43.868055" lon="12.49176"><ele>276.0</ele><time>2026-04-11T13:39:09.932Z</time></trkpt><trkpt lat="43.8680267" lon="12.4916717"><ele>276.0</ele><time>2026-04-11T13:39:10.933Z</time></trkpt><trkpt lat="43.8680067" lon="12.491585"><ele>276.0</ele><time>2026-04-11T13:39:11.932Z</time></trkpt><trkpt lat="43.867985" lon="12.4914967"><ele>276.0</ele><time>2026-04-11T13:39:12.933Z</time></trkpt><trkpt lat="43.8679517" lon="12.4913783"><ele>276.0</ele><time>2026-04-11T13:39:14.932Z</time></trkpt><trkpt lat="43.86787" lon="12.4912883"><ele>276.0</ele><time>2026-04-11T13:39:28.932Z</time></trkpt><trkpt lat="43.86781" lon="12.49123"><ele>276.0</ele><time>2026-04-11T13:39:29.933Z</time></trkpt><trkpt lat="43.86773" lon="12.491155"><ele>276.0</ele><time>2026-04-11T13:39:30.933Z</time></trkpt><trkpt lat="43.8676417" lon="12.4910683"><ele>276.0</ele><time>2026-04-11T13:39:31.932Z</time></trkpt><trkpt lat="43.86754" lon="12.4909717"><ele>276.0</ele><time>2026-04-11T13:39:32.932Z</time></trkpt><trkpt lat="43.86743" lon="12.4908683"><ele>276.25</ele><time>2026-04-11T13:39:33.932Z</time></trkpt><trkpt lat="43.8673083" lon="12.49078"><ele>276.5</ele><time>2026-04-11T13:39:34.932Z</time></trkpt><trkpt lat="43.8671833" lon="12.490695"><ele>276.75</ele><time>2026-04-11T13:39:35.932Z</time></trkpt><trkpt lat="43.8670683" lon="12.4905967"><ele>277.0</ele><time>2026-04-11T13:39:36.933Z</time></trkpt><trkpt lat="43.8669567" lon="12.4904783"><ele>277.0</ele><time>2026-04-11T13:39:37.932Z</time></trkpt><trkpt lat="43.8668583" lon="12.4903467"><ele>277.0</ele><time>2026-04-11T13:39:38.933Z</time></trkpt><trkpt lat="43.8667783" lon="12.4902283"><ele>277.0</ele><time>2026-04-11T13:39:39.933Z</time></trkpt><trkpt lat="43.8667133" lon="12.4901383"><ele>277.0</ele><time>2026-04-11T13:39:40.932Z</time></trkpt><trkpt lat="43.866665" lon="12.4900683"><ele>277.0</ele><time>2026-04-11T13:39:41.932Z</time></trkpt><trkpt lat="43.866605" lon="12.489965"><ele>277.8</ele><time>2026-04-11T13:39:43.933Z</time></trkpt><trkpt lat="43.8665217" lon="12.489855"><ele>278.6</ele><time>2026-04-11T13:39:45.932Z</time></trkpt><trkpt lat="43.8664583" lon="12.489785"><ele>279.40000000000003</ele><time>2026-04-11T13:39:46.933Z</time></trkpt><trkpt lat="43.8663883" lon="12.489695"><ele>280.2</ele><time>2026-04-11T13:39:47.933Z</time></trkpt><trkpt lat="43.8663167" lon="12.48959"><ele>281.0</ele><time>2026-04-11T13:39:48.932Z</time></trkpt><trkpt lat="43.8662533" lon="12.4894817"><ele>281.0</ele><time>2026-04-11T13:39:49.932Z</time></trkpt><trkpt lat="43.8662017" lon="12.489365"><ele>281.0</ele><time>2026-04-11T13:39:50.933Z</time></trkpt><trkpt lat="43.8661583" lon="12.4892483"><ele>281.0</ele><time>2026-04-11T13:39:51.932Z</time></trkpt><trkpt lat="43.866115" lon="12.4891633"><ele>281.0</ele><time>2026-04-11T13:39:52.933Z</time></trkpt><trkpt lat="43.86608" lon="12.4890867"><ele>281.0</ele><time>2026-04-11T13:39:53.933Z</time></trkpt><trkpt lat="43.86603" lon="12.4890267"><ele>281.0</ele><time>2026-04-11T13:39:54.933Z</time></trkpt><trkpt lat="43.8659467" lon="12.4889633"><ele>283.40000000000003</ele><time>2026-04-11T13:39:56.932Z</time></trkpt><trkpt lat="43.8658067" lon="12.489005"><ele>285.8</ele><time>2026-04-11T13:39:58.933Z</time></trkpt><trkpt lat="43.865715" lon="12.48905"><ele>288.20000000000005</ele><time>2026-04-11T13:39:59.932Z</time></trkpt><trkpt lat="43.865625" lon="12.489125"><ele>290.6</ele><time>2026-04-11T13:40:00.933Z</time></trkpt><trkpt lat="43.86554" lon="12.4892"><ele>293.0</ele><time>2026-04-11T13:40:01.932Z</time></trkpt><trkpt lat="43.8654633" lon="12.489275"><ele>293.0</ele><time>2026-04-11T13:40:02.932Z</time></trkpt><trkpt lat="43.8653967" lon="12.48935"><ele>293.0</ele><time>2026-04-11T13:40:03.932Z</time></trkpt><trkpt lat="43.8653417" lon="12.4894333"><ele>293.0</ele><time>2026-04-11T13:40:04.933Z</time></trkpt><trkpt lat="43.865305" lon="12.4895183"><ele>293.0</ele><time>2026-04-11T13:40:05.932Z</time></trkpt><trkpt lat="43.8652767" lon="12.48961"><ele>293.0</ele><time>2026-04-11T13:40:06.933Z</time></trkpt><trkpt lat="43.8652533" lon="12.4897017"><ele>293.0</ele><time>2026-04-11T13:40:07.933Z</time></trkpt><trkpt lat="43.86523" lon="12.4898"><ele>293.6</ele><time>2026-04-11T13:40:08.932Z</time></trkpt><trkpt lat="43.8652" lon="12.4899167"><ele>294.20000000000005</ele><time>2026-04-11T13:40:09.933Z</time></trkpt><trkpt lat="43.8651617" lon="12.490045"><ele>294.8</ele><time>2026-04-11T13:40:10.932Z</time></trkpt><trkpt lat="43.8651133" lon="12.4901833"><ele>295.40000000000003</ele><time>2026-04-11T13:40:11.932Z</time></trkpt><trkpt lat="43.8650567" lon="12.4903367"><ele>296.0</ele><time>2026-04-11T13:40:12.932Z</time></trkpt><trkpt lat="43.8649967" lon="12.4904833"><ele>299.5</ele><time>2026-04-11T13:40:13.933Z</time></trkpt><trkpt lat="43.864945" lon="12.490645"><ele>303.0</ele><time>2026-04-11T13:40:14.933Z</time></trkpt><trkpt lat="43.8648967" lon="12.4907967"><ele>306.5</ele><time>2026-04-11T13:40:15.933Z</time></trkpt><trkpt lat="43.8648533" lon="12.49093"><ele>310.0</ele><time>2026-04-11T13:40:16.933Z</time></trkpt><trkpt lat="43.8648233" lon="12.4910667"><ele>310.0</ele><time>2026-04-11T13:40:17.933Z</time></trkpt><trkpt lat="43.8648033" lon="12.4912067"><ele>310.0</ele><time>2026-04-11T13:40:18.932Z</time></trkpt><trkpt lat="43.86479" lon="12.491345"><ele>310.0</ele><time>2026-04-11T13:40:19.933Z</time></trkpt><trkpt lat="43.8647833" lon="12.4914717"><ele>310.0</ele><time>2026-04-11T13:40:20.933Z</time></trkpt><trkpt lat="43.8647783" lon="12.4915867"><ele>310.0</ele><time>2026-04-11T13:40:21.932Z</time></trkpt><trkpt lat="43.864775" lon="12.4916783"><ele>310.0</ele><time>2026-04-11T13:40:22.933Z</time></trkpt><trkpt lat="43.8647833" lon="12.49177"><ele>311.5</ele><time>2026-04-11T13:40:24.933Z</time></trkpt><trkpt lat="43.86483" lon="12.49187"><ele>313.0</ele><time>2026-04-11T13:40:27.932Z</time></trkpt><trkpt lat="43.86492" lon="12.4919583"><ele>314.5</ele><time>2026-04-11T13:40:29.933Z</time></trkpt><trkpt lat="43.8649817" lon="12.4920083"><ele>316.0</ele><time>2026-04-11T13:40:30.932Z</time></trkpt><trkpt lat="43.8650617" lon="12.4920633"><ele>317.5</ele><time>2026-04-11T13:40:31.933Z</time></trkpt><trkpt lat="43.8651317" lon="12.4921233"><ele>319.0</ele><time>2026-04-11T13:40:32.932Z</time></trkpt><trkpt lat="43.86519" lon="12.4921883"><ele>319.0</ele><time>2026-04-11T13:40:33.933Z</time></trkpt><trkpt lat="43.8652583" lon="12.492305"><ele>319.0</ele><time>2026-04-11T13:40:35.932Z</time></trkpt><trkpt lat="43.865235" lon="12.4923933"><ele>319.0</ele><time>2026-04-11T13:40:37.932Z</time></trkpt><trkpt lat="43.8651367" lon="12.4924233"><ele>319.0</ele><time>2026-04-11T13:40:39.932Z</time></trkpt><trkpt lat="43.8650667" lon="12.4924283"><ele>319.0</ele><time>2026-04-11T13:40:41.933Z</time></trkpt><trkpt lat="43.865125" lon="12.4923917"><ele>319.0</ele><time>2026-04-11T13:41:02.931Z</time></trkpt><trkpt lat="43.8652067" lon="12.4923083"><ele>319.0</ele><time>2026-04-11T13:41:04.932Z</time></trkpt><trkpt lat="43.865255" lon="12.492205"><ele>319.0</ele><time>2026-04-11T13:41:06.931Z</time></trkpt><trkpt lat="43.8652033" lon="12.4920817"><ele>319.0</ele><time>2026-04-11T13:41:08.931Z</time></trkpt><trkpt lat="43.8650933" lon="12.4919817"><ele>319.0</ele><time>2026-04-11T13:41:10.932Z</time></trkpt><trkpt lat="43.8650233" lon="12.4919483"><ele>319.0</ele><time>2026-04-11T13:41:11.932Z</time></trkpt><trkpt lat="43.8649533" lon="12.49191"><ele>319.4</ele><time>2026-04-11T13:41:12.932Z</time></trkpt><trkpt lat="43.8648917" lon="12.4918633"><ele>319.79999999999995</ele><time>2026-04-11T13:41:13.932Z</time></trkpt><trkpt lat="43.8648067" lon="12.491755"><ele>320.20000000000005</ele><time>2026-04-11T13:41:15.932Z</time></trkpt><trkpt lat="43.8647783" lon="12.4915983"><ele>320.6</ele><time>2026-04-11T13:41:17.931Z</time></trkpt><trkpt lat="43.8647717" lon="12.491485"><ele>321.0</ele><time>2026-04-11T13:41:18.932Z</time></trkpt><trkpt lat="43.8647733" lon="12.4913717"><ele>320.99999999999994</ele><time>2026-04-11T13:41:19.931Z</time></trkpt><trkpt lat="43.864785" lon="12.4912617"><ele>321.0</ele><time>2026-04-11T13:41:20.932Z</time></trkpt><trkpt lat="43.8647967" lon="12.49116"><ele>321.0</ele><time>2026-04-11T13:41:21.932Z</time></trkpt><trkpt lat="43.86481" lon="12.491065"><ele>321.0</ele><time>2026-04-11T13:41:22.931Z</time></trkpt><trkpt lat="43.86483" lon="12.490965"><ele>321.0</ele><time>2026-04-11T13:41:23.931Z</time></trkpt><trkpt lat="43.8648483" lon="12.49087"><ele>320.99999999999994</ele><time>2026-04-11T13:41:24.932Z</time></trkpt><trkpt lat="43.8648733" lon="12.49077"><ele>321.0</ele><time>2026-04-11T13:41:25.932Z</time></trkpt><trkpt lat="43.8649017" lon="12.490675"><ele>319.1666666666667</ele><time>2026-04-11T13:41:26.931Z</time></trkpt><trkpt lat="43.864935" lon="12.4905867"><ele>317.3333333333333</ele><time>2026-04-11T13:41:27.932Z</time></trkpt><trkpt lat="43.864965" lon="12.4905"><ele>315.5</ele><time>2026-04-11T13:41:28.931Z</time></trkpt><trkpt lat="43.8649917" lon="12.4904183"><ele>313.66666666666663</ele><time>2026-04-11T13:41:29.931Z</time></trkpt><trkpt lat="43.8650533" lon="12.4902683"><ele>311.8333333333333</ele><time>2026-04-11T13:41:31.931Z</time></trkpt><trkpt lat="43.8650867" lon="12.4901933"><ele>310.0</ele><time>2026-04-11T13:41:32.931Z</time></trkpt><trkpt lat="43.8651467" lon="12.490035"><ele>307.66666666666663</ele><time>2026-04-11T13:41:34.931Z</time></trkpt><trkpt lat="43.8651783" lon="12.48994"><ele>305.3333333333333</ele><time>2026-04-11T13:41:35.931Z</time></trkpt><trkpt lat="43.8652067" lon="12.4898317"><ele>303.0</ele><time>2026-04-11T13:41:36.931Z</time></trkpt><trkpt lat="43.8652333" lon="12.48972"><ele>300.6666666666667</ele><time>2026-04-11T13:41:37.932Z</time></trkpt><trkpt lat="43.8652567" lon="12.48962"><ele>298.33333333333337</ele><time>2026-04-11T13:41:38.932Z</time></trkpt><trkpt lat="43.8652833" lon="12.489535"><ele>296.0</ele><time>2026-04-11T13:41:39.932Z</time></trkpt><trkpt lat="43.8653167" lon="12.4894567"><ele>295.40000000000003</ele><time>2026-04-11T13:41:40.932Z</time></trkpt><trkpt lat="43.8653567" lon="12.489385"><ele>294.8</ele><time>2026-04-11T13:41:41.932Z</time></trkpt><trkpt lat="43.8654467" lon="12.4892817"><ele>294.20000000000005</ele><time>2026-04-11T13:41:43.931Z</time></trkpt><trkpt lat="43.8655467" lon="12.489165"><ele>293.6</ele><time>2026-04-11T13:41:45.931Z</time></trkpt><trkpt lat="43.8656083" lon="12.489115"><ele>293.0</ele><time>2026-04-11T13:41:46.932Z</time></trkpt><trkpt lat="43.8656733" lon="12.4890733"><ele>293.0</ele><time>2026-04-11T13:41:47.931Z</time></trkpt><trkpt lat="43.86573" lon="12.4890317"><ele>293.0</ele><time>2026-04-11T13:41:48.931Z</time></trkpt><trkpt lat="43.865825" lon="12.4889817"><ele>293.0</ele><time>2026-04-11T13:41:50.931Z</time></trkpt><trkpt lat="43.865915" lon="12.4889917"><ele>293.0</ele><time>2026-04-11T13:41:52.932Z</time></trkpt><trkpt lat="43.86601" lon="12.4890417"><ele>293.0</ele><time>2026-04-11T13:41:54.931Z</time></trkpt><trkpt lat="43.8660867" lon="12.489125"><ele>291.2</ele><time>2026-04-11T13:41:56.932Z</time></trkpt><trkpt lat="43.86613" lon="12.4892617"><ele>289.4</ele><time>2026-04-11T13:41:58.931Z</time></trkpt><trkpt lat="43.8661583" lon="12.4893433"><ele>287.59999999999997</ele><time>2026-04-11T13:41:59.931Z</time></trkpt><trkpt lat="43.8661967" lon="12.4894533"><ele>285.8</ele><time>2026-04-11T13:42:00.932Z</time></trkpt><trkpt lat="43.8662533" lon="12.4895717"><ele>284.0</ele><time>2026-04-11T13:42:01.931Z</time></trkpt><trkpt lat="43.8663167" lon="12.4896783"><ele>284.0</ele><time>2026-04-11T13:42:02.931Z</time></trkpt><trkpt lat="43.8664083" lon="12.4897983"><ele>284.0</ele><time>2026-04-11T13:42:03.932Z</time></trkpt><trkpt lat="43.8665117" lon="12.4899117"><ele>284.0</ele><time>2026-04-11T13:42:04.931Z</time></trkpt><trkpt lat="43.866595" lon="12.4900067"><ele>284.0</ele><time>2026-04-11T13:42:05.932Z</time></trkpt><trkpt lat="43.8666667" lon="12.4900967"><ele>284.0</ele><time>2026-04-11T13:42:06.931Z</time></trkpt><trkpt lat="43.8667367" lon="12.4902033"><ele>284.0</ele><time>2026-04-11T13:42:07.932Z</time></trkpt><trkpt lat="43.866805" lon="12.4903"><ele>284.0</ele><time>2026-04-11T13:42:08.932Z</time></trkpt><trkpt lat="43.8668917" lon="12.4904183"><ele>284.0</ele><time>2026-04-11T13:42:09.932Z</time></trkpt><trkpt lat="43.86698" lon="12.49052"><ele>284.0</ele><time>2026-04-11T13:42:10.932Z</time></trkpt><trkpt lat="43.8670767" lon="12.4906133"><ele>282.59999999999997</ele><time>2026-04-11T13:42:11.932Z</time></trkpt><trkpt lat="43.8671767" lon="12.490685"><ele>281.2</ele><time>2026-04-11T13:42:12.932Z</time></trkpt><trkpt lat="43.8672767" lon="12.490745"><ele>279.79999999999995</ele><time>2026-04-11T13:42:13.931Z</time></trkpt><trkpt lat="43.86738" lon="12.4908083"><ele>278.4</ele><time>2026-04-11T13:42:14.932Z</time></trkpt><trkpt lat="43.867475" lon="12.490885"><ele>277.0</ele><time>2026-04-11T13:42:15.931Z</time></trkpt><trkpt lat="43.8675767" lon="12.49097"><ele>276.8</ele><time>2026-04-11T13:42:16.931Z</time></trkpt><trkpt lat="43.8676733" lon="12.4910617"><ele>276.6</ele><time>2026-04-11T13:42:17.931Z</time></trkpt><trkpt lat="43.86777" lon="12.4911567"><ele>276.40000000000003</ele><time>2026-04-11T13:42:18.932Z</time></trkpt><trkpt lat="43.86785" lon="12.49125"><ele>276.2</ele><time>2026-04-11T13:42:19.932Z</time></trkpt><trkpt lat="43.8679217" lon="12.4913417"><ele>276.0</ele><time>2026-04-11T13:42:20.931Z</time></trkpt><trkpt lat="43.86797" lon="12.4914283"><ele>276.0</ele><time>2026-04-11T13:42:21.931Z</time></trkpt><trkpt lat="43.86801" lon="12.491535"><ele>276.0</ele><time>2026-04-11T13:42:22.931Z</time></trkpt><trkpt lat="43.8680367" lon="12.4916567"><ele>276.0</ele><time>2026-04-11T13:42:23.931Z</time></trkpt><trkpt lat="43.8680633" lon="12.4917867"><ele>276.0</ele><time>2026-04-11T13:42:24.931Z</time></trkpt><trkpt lat="43.8681033" lon="12.4919367"><ele>276.0</ele><time>2026-04-11T13:42:25.932Z</time></trkpt><trkpt lat="43.868155" lon="12.4920933"><ele>276.0</ele><time>2026-04-11T13:42:26.931Z</time></trkpt><trkpt lat="43.8682217" lon="12.4922417"><ele>276.0</ele><time>2026-04-11T13:42:27.932Z</time></trkpt><trkpt lat="43.8682983" lon="12.4923967"><ele>276.0</ele><time>2026-04-11T13:42:28.931Z</time></trkpt><trkpt lat="43.868375" lon="12.4925217"><ele>276.0</ele><time>2026-04-11T13:42:29.931Z</time></trkpt><trkpt lat="43.8684383" lon="12.4926333"><ele>275.6</ele><time>2026-04-11T13:42:30.932Z</time></trkpt><trkpt lat="43.8684833" lon="12.4927283"><ele>275.20000000000005</ele><time>2026-04-11T13:42:31.931Z</time></trkpt><trkpt lat="43.8685083" lon="12.49281"><ele>274.79999999999995</ele><time>2026-04-11T13:42:32.931Z</time></trkpt><trkpt lat="43.8685067" lon="12.4929717"><ele>274.4</ele><time>2026-04-11T13:42:34.932Z</time></trkpt><trkpt lat="43.8685033" lon="12.4931333"><ele>274.0</ele><time>2026-04-11T13:42:36.931Z</time></trkpt><trkpt lat="43.8685083" lon="12.49331"><ele>273.59999999999997</ele><time>2026-04-11T13:42:38.932Z</time></trkpt><trkpt lat="43.8685217" lon="12.4934867"><ele>273.2</ele><time>2026-04-11T13:42:40.932Z</time></trkpt><trkpt lat="43.868535" lon="12.4936317"><ele>272.79999999999995</ele><time>2026-04-11T13:42:42.931Z</time></trkpt><trkpt lat="43.8685417" lon="12.4937367"><ele>272.4</ele><time>2026-04-11T13:42:44.931Z</time></trkpt><trkpt lat="43.8685283" lon="12.49384"><ele>272.0</ele><time>2026-04-11T13:42:46.931Z</time></trkpt><trkpt lat="43.8684967" lon="12.493965"><ele>272.83333333333337</ele><time>2026-04-11T13:42:48.931Z</time></trkpt><trkpt lat="43.868445" lon="12.4940517"><ele>273.6666666666667</ele><time>2026-04-11T13:42:50.931Z</time></trkpt><trkpt lat="43.8683733" lon="12.4939783"><ele>274.5</ele><time>2026-04-11T13:42:53.932Z</time></trkpt><trkpt lat="43.8683283" lon="12.4938633"><ele>275.3333333333333</ele><time>2026-04-11T13:42:55.932Z</time></trkpt><trkpt lat="43.8682683" lon="12.4938333"><ele>276.16666666666663</ele><time>2026-04-11T13:42:57.932Z</time></trkpt><trkpt lat="43.8682033" lon="12.4939167"><ele>277.0</ele><time>2026-04-11T13:42:59.931Z</time></trkpt><trkpt lat="43.868145" lon="12.49405"><ele>279.8333333333333</ele><time>2026-04-11T13:43:01.931Z</time></trkpt><trkpt lat="43.86808" lon="12.4941617"><ele>282.66666666666663</ele><time>2026-04-11T13:43:03.932Z</time></trkpt><trkpt lat="43.8679933" lon="12.49428"><ele>285.5</ele><time>2026-04-11T13:43:05.932Z</time></trkpt><trkpt lat="43.8679467" lon="12.4943417"><ele>288.3333333333333</ele><time>2026-04-11T13:43:06.931Z</time></trkpt><trkpt lat="43.8678917" lon="12.4943967"><ele>291.1666666666667</ele><time>2026-04-11T13:43:07.931Z</time></trkpt><trkpt lat="43.8678317" lon="12.4944533"><ele>294.0</ele><time>2026-04-11T13:43:08.932Z</time></trkpt><trkpt lat="43.86777" lon="12.4945117"><ele>294.0</ele><time>2026-04-11T13:43:09.931Z</time></trkpt><trkpt lat="43.86771" lon="12.4945683"><ele>294.0</ele><time>2026-04-11T13:43:10.932Z</time></trkpt><trkpt lat="43.8675917" lon="12.4946533"><ele>294.0</ele><time>2026-04-11T13:43:12.931Z</time></trkpt><trkpt lat="43.867515" lon="12.4946983"><ele>294.0</ele><time>2026-04-11T13:43:13.931Z</time></trkpt><trkpt lat="43.8674433" lon="12.4947467"><ele>294.0</ele><time>2026-04-11T13:43:14.931Z</time></trkpt><trkpt lat="43.8673767" lon="12.4947983"><ele>294.0</ele><time>2026-04-11T13:43:15.931Z</time></trkpt><trkpt lat="43.867315" lon="12.4948583"><ele>297.3333333333333</ele><time>2026-04-11T13:43:16.931Z</time></trkpt><trkpt lat="43.8672617" lon="12.4949367"><ele>300.6666666666667</ele><time>2026-04-11T13:43:17.931Z</time></trkpt><trkpt lat="43.8672167" lon="12.4950317"><ele>304.0</ele><time>2026-04-11T13:43:18.932Z</time></trkpt><trkpt lat="43.8671783" lon="12.49513"><ele>307.33333333333337</ele><time>2026-04-11T13:43:19.931Z</time></trkpt><trkpt lat="43.8671333" lon="12.4952283"><ele>310.6666666666667</ele><time>2026-04-11T13:43:20.932Z</time></trkpt><trkpt lat="43.8670833" lon="12.495315"><ele>314.0</ele><time>2026-04-11T13:43:21.932Z</time></trkpt><trkpt lat="43.86703" lon="12.4953983"><ele>316.1666666666667</ele><time>2026-04-11T13:43:22.932Z</time></trkpt><trkpt lat="43.86697" lon="12.4954883"><ele>318.33333333333337</ele><time>2026-04-11T13:43:23.931Z</time></trkpt><trkpt lat="43.8669167" lon="12.4955833"><ele>320.5</ele><time>2026-04-11T13:43:24.931Z</time></trkpt><trkpt lat="43.8668633" lon="12.49567"><ele>322.6666666666667</ele><time>2026-04-11T13:43:25.932Z</time></trkpt><trkpt lat="43.8668133" lon="12.4957467"><ele>324.8333333333333</ele><time>2026-04-11T13:43:26.932Z</time></trkpt><trkpt lat="43.866765" lon="12.4958117"><ele>327.0</ele><time>2026-04-11T13:43:27.931Z</time></trkpt><trkpt lat="43.8667133" lon="12.4958683"><ele>327.0</ele><time>2026-04-11T13:43:28.931Z</time></trkpt><trkpt lat="43.8666583" lon="12.495915"><ele>327.0</ele><time>2026-04-11T13:43:29.931Z</time></trkpt><trkpt lat="43.866605" lon="12.49597"><ele>327.0</ele><time>2026-04-11T13:43:30.931Z</time></trkpt><trkpt lat="43.86656" lon="12.49604"><ele>327.0</ele><time>2026-04-11T13:43:31.931Z</time></trkpt><trkpt lat="43.86647" lon="12.4961517"><ele>327.0</ele><time>2026-04-11T13:43:33.931Z</time></trkpt><trkpt lat="43.866365" lon="12.4962283"><ele>327.0</ele><time>2026-04-11T13:43:35.931Z</time></trkpt><trkpt lat="43.8662867" lon="12.496355"><ele>328.8333333333333</ele><time>2026-04-11T13:43:37.932Z</time></trkpt><trkpt lat="43.8662517" lon="12.4964433"><ele>330.6666666666667</ele><time>2026-04-11T13:43:38.932Z</time></trkpt><trkpt lat="43.8662067" lon="12.4965417"><ele>332.5</ele><time>2026-04-11T13:43:39.931Z</time></trkpt><trkpt lat="43.8661617" lon="12.4966433"><ele>334.33333333333337</ele><time>2026-04-11T13:43:40.931Z</time></trkpt><trkpt lat="43.8661267" lon="12.4967483"><ele>336.1666666666667</ele><time>2026-04-11T13:43:41.931Z</time></trkpt><trkpt lat="43.8660967" lon="12.4968383"><ele>338.0</ele><time>2026-04-11T13:43:42.932Z</time></trkpt><trkpt lat="43.866065" lon="12.4969217"><ele>338.0</ele><time>2026-04-11T13:43:43.931Z</time></trkpt><trkpt lat="43.866" lon="12.497005"><ele>338.0</ele><time>2026-04-11T13:43:45.931Z</time></trkpt><trkpt lat="43.865925" lon="12.4969417"><ele>338.0</ele><time>2026-04-11T13:43:49.932Z</time></trkpt><trkpt lat="43.8658717" lon="12.4968867"><ele>338.0</ele><time>2026-04-11T13:43:53.931Z</time></trkpt><trkpt lat="43.8658017" lon="12.496885"><ele>338.0</ele><time>2026-04-11T13:43:55.931Z</time></trkpt><trkpt lat="43.8657133" lon="12.4968733"><ele>338.0</ele><time>2026-04-11T13:43:57.931Z</time></trkpt><trkpt lat="43.8656433" lon="12.4968917"><ele>340.33333333333337</ele><time>2026-04-11T13:43:59.932Z</time></trkpt><trkpt lat="43.865605" lon="12.4969817"><ele>342.6666666666667</ele><time>2026-04-11T13:44:02.932Z</time></trkpt><trkpt lat="43.8656" lon="12.4970867"><ele>345.0</ele><time>2026-04-11T13:44:04.932Z</time></trkpt><trkpt lat="43.86559" lon="12.4971983"><ele>347.3333333333333</ele><time>2026-04-11T13:44:06.932Z</time></trkpt><trkpt lat="43.865535" lon="12.4972817"><ele>349.66666666666663</ele><time>2026-04-11T13:44:15.931Z</time></trkpt><trkpt lat="43.8654517" lon="12.497245"><ele>352.0</ele><time>2026-04-11T13:44:18.932Z</time></trkpt><trkpt lat="43.8653833" lon="12.4972283"><ele>352.8333333333333</ele><time>2026-04-11T13:44:20.931Z</time></trkpt><trkpt lat="43.865295" lon="12.4972833"><ele>353.66666666666663</ele><time>2026-04-11T13:44:22.932Z</time></trkpt><trkpt lat="43.8652183" lon="12.4974133"><ele>354.5</ele><time>2026-04-11T13:44:24.932Z</time></trkpt><trkpt lat="43.865175" lon="12.4974767"><ele>355.3333333333333</ele><time>2026-04-11T13:44:25.931Z</time></trkpt><trkpt lat="43.8651083" lon="12.49753"><ele>356.1666666666667</ele><time>2026-04-11T13:44:27.932Z</time></trkpt><trkpt lat="43.865055" lon="12.4974833"><ele>357.0</ele><time>2026-04-11T13:44:29.932Z</time></trkpt><trkpt lat="43.86498" lon="12.497415"><ele>362.20000000000005</ele><time>2026-04-11T13:44:31.932Z</time></trkpt><trkpt lat="43.864905" lon="12.4973967"><ele>367.4</ele><time>2026-04-11T13:44:33.931Z</time></trkpt><trkpt lat="43.8648017" lon="12.4974217"><ele>372.6</ele><time>2026-04-11T13:44:35.931Z</time></trkpt><trkpt lat="43.8647" lon="12.497435"><ele>377.79999999999995</ele><time>2026-04-11T13:44:37.932Z</time></trkpt><trkpt lat="43.864605" lon="12.4973833"><ele>383.0</ele><time>2026-04-11T13:44:39.932Z</time></trkpt><trkpt lat="43.8645183" lon="12.4973467"><ele>383.0</ele><time>2026-04-11T13:44:41.932Z</time></trkpt><trkpt lat="43.8644483" lon="12.4973333"><ele>383.0</ele><time>2026-04-11T13:44:43.932Z</time></trkpt><trkpt lat="43.8643617" lon="12.497315"><ele>383.0</ele><time>2026-04-11T13:44:45.931Z</time></trkpt><trkpt lat="43.8642433" lon="12.4973"><ele>383.0</ele><time>2026-04-11T13:44:47.932Z</time></trkpt><trkpt lat="43.86418" lon="12.49729"><ele>383.0</ele><time>2026-04-11T13:44:48.931Z</time></trkpt><trkpt lat="43.8640583" lon="12.497315"><ele>385.1666666666667</ele><time>2026-04-11T13:44:50.932Z</time></trkpt><trkpt lat="43.8639917" lon="12.4973283"><ele>387.33333333333337</ele><time>2026-04-11T13:44:51.931Z</time></trkpt><trkpt lat="43.8639283" lon="12.49733"><ele>389.5</ele><time>2026-04-11T13:44:52.931Z</time></trkpt><trkpt lat="43.8638217" lon="12.497305"><ele>391.6666666666667</ele><time>2026-04-11T13:44:54.932Z</time></trkpt><trkpt lat="43.8637417" lon="12.4972967"><ele>393.8333333333333</ele><time>2026-04-11T13:53:21.93Z</time></trkpt><trkpt lat="43.8636333" lon="12.4973333"><ele>396.0</ele><time>2026-04-11T13:53:23.93Z</time></trkpt><trkpt lat="43.8635633" lon="12.49737"><ele>396.0</ele><time>2026-04-11T13:53:24.929Z</time></trkpt><trkpt lat="43.8634967" lon="12.4974283"><ele>396.0</ele><time>2026-04-11T13:53:25.929Z</time></trkpt><trkpt lat="43.86343" lon="12.4975083"><ele>396.0</ele><time>2026-04-11T13:53:26.93Z</time></trkpt><trkpt lat="43.8633667" lon="12.4976"><ele>396.0</ele><time>2026-04-11T13:53:27.93Z</time></trkpt><trkpt lat="43.8633083" lon="12.4977017"><ele>396.0</ele><time>2026-04-11T13:53:28.93Z</time></trkpt><trkpt lat="43.8632483" lon="12.4978083"><ele>396.5</ele><time>2026-04-11T13:53:29.929Z</time></trkpt><trkpt lat="43.86318" lon="12.4979083"><ele>397.0</ele><time>2026-04-11T13:53:30.929Z</time></trkpt><trkpt lat="43.86311" lon="12.498"><ele>397.5</ele><time>2026-04-11T13:53:31.93Z</time></trkpt><trkpt lat="43.8630467" lon="12.4980817"><ele>398.0</ele><time>2026-04-11T13:53:32.929Z</time></trkpt><trkpt lat="43.8629783" lon="12.4981517"><ele>398.5</ele><time>2026-04-11T13:53:33.929Z</time></trkpt><trkpt lat="43.8629133" lon="12.4982017"><ele>399.0</ele><time>2026-04-11T13:53:34.93Z</time></trkpt><trkpt lat="43.8628483" lon="12.4982483"><ele>399.0</ele><time>2026-04-11T13:53:35.929Z</time></trkpt><trkpt lat="43.86279" lon="12.4982933"><ele>399.0</ele><time>2026-04-11T13:53:36.93Z</time></trkpt><trkpt lat="43.8627283" lon="12.4983417"><ele>399.0</ele><time>2026-04-11T13:53:37.929Z</time></trkpt><trkpt lat="43.8626633" lon="12.49839"><ele>399.0</ele><time>2026-04-11T13:53:38.93Z</time></trkpt><trkpt lat="43.862595" lon="12.4984333"><ele>399.0</ele><time>2026-04-11T13:53:39.93Z</time></trkpt><trkpt lat="43.8625317" lon="12.49847"><ele>399.0</ele><time>2026-04-11T13:53:40.93Z</time></trkpt><trkpt lat="43.86242" lon="12.4985417"><ele>400.1666666666667</ele><time>2026-04-11T13:53:42.93Z</time></trkpt><trkpt lat="43.862315" lon="12.4986433"><ele>401.33333333333337</ele><time>2026-04-11T13:53:44.93Z</time></trkpt><trkpt lat="43.862255" lon="12.4986967"><ele>402.5</ele><time>2026-04-11T13:53:45.93Z</time></trkpt><trkpt lat="43.8621867" lon="12.4987417"><ele>403.6666666666667</ele><time>2026-04-11T13:53:46.93Z</time></trkpt><trkpt lat="43.86212" lon="12.4987933"><ele>404.83333333333337</ele><time>2026-04-11T13:53:47.929Z</time></trkpt><trkpt lat="43.8620483" lon="12.4988483"><ele>406.0</ele><time>2026-04-11T13:53:48.93Z</time></trkpt><trkpt lat="43.86198" lon="12.498905"><ele>406.00000000000006</ele><time>2026-04-11T13:53:49.93Z</time></trkpt><trkpt lat="43.8619083" lon="12.4989567"><ele>406.0</ele><time>2026-04-11T13:53:50.93Z</time></trkpt><trkpt lat="43.86184" lon="12.4990183"><ele>406.0</ele><time>2026-04-11T13:53:51.929Z</time></trkpt><trkpt lat="43.861775" lon="12.49908"><ele>406.0</ele><time>2026-04-11T13:53:52.93Z</time></trkpt><trkpt lat="43.8617017" lon="12.499145"><ele>406.00000000000006</ele><time>2026-04-11T13:53:53.929Z</time></trkpt><trkpt lat="43.861635" lon="12.499215"><ele>406.0</ele><time>2026-04-11T13:53:54.929Z</time></trkpt><trkpt lat="43.8615617" lon="12.4992767"><ele>408.1666666666667</ele><time>2026-04-11T13:53:55.93Z</time></trkpt><trkpt lat="43.86149" lon="12.4993283"><ele>410.33333333333337</ele><time>2026-04-11T13:53:56.93Z</time></trkpt><trkpt lat="43.8614167" lon="12.4993683"><ele>412.5</ele><time>2026-04-11T13:53:57.929Z</time></trkpt><trkpt lat="43.8613483" lon="12.499395"><ele>414.66666666666663</ele><time>2026-04-11T13:53:58.93Z</time></trkpt><trkpt lat="43.8612783" lon="12.4994267"><ele>416.8333333333333</ele><time>2026-04-11T13:53:59.929Z</time></trkpt><trkpt lat="43.861205" lon="12.4994583"><ele>419.0</ele><time>2026-04-11T13:54:00.93Z</time></trkpt><trkpt lat="43.86113" lon="12.4994917"><ele>418.99999999999994</ele><time>2026-04-11T13:54:01.929Z</time></trkpt><trkpt lat="43.8610567" lon="12.499525"><ele>419.0</ele><time>2026-04-11T13:54:02.929Z</time></trkpt><trkpt lat="43.8609933" lon="12.4995533"><ele>419.0</ele><time>2026-04-11T13:54:03.93Z</time></trkpt><trkpt lat="43.8609283" lon="12.4995633"><ele>419.0</ele><time>2026-04-11T13:54:04.93Z</time></trkpt><trkpt lat="43.860815" lon="12.4995383"><ele>418.99999999999994</ele><time>2026-04-11T13:54:06.93Z</time></trkpt><trkpt lat="43.860755" lon="12.4995117"><ele>419.0</ele><time>2026-04-11T13:54:07.93Z</time></trkpt><trkpt lat="43.8606917" lon="12.4994817"><ele>420.66666666666663</ele><time>2026-04-11T13:54:08.93Z</time></trkpt><trkpt lat="43.86063" lon="12.4994583"><ele>422.3333333333333</ele><time>2026-04-11T13:54:09.93Z</time></trkpt><trkpt lat="43.86054" lon="12.4994267"><ele>424.0</ele><time>2026-04-11T13:54:11.93Z</time></trkpt><trkpt lat="43.8604767" lon="12.4994233"><ele>425.66666666666663</ele><time>2026-04-11T13:54:13.93Z</time></trkpt><trkpt lat="43.8603967" lon="12.4994517"><ele>427.3333333333333</ele><time>2026-04-11T13:54:15.929Z</time></trkpt><trkpt lat="43.8602783" lon="12.49953"><ele>429.0</ele><time>2026-04-11T13:54:17.93Z</time></trkpt><trkpt lat="43.8602283" lon="12.4995967"><ele>430.1666666666667</ele><time>2026-04-11T13:54:18.93Z</time></trkpt><trkpt lat="43.8601833" lon="12.4996617"><ele>431.33333333333337</ele><time>2026-04-11T13:54:19.93Z</time></trkpt><trkpt lat="43.860135" lon="12.4997233"><ele>432.5</ele><time>2026-04-11T13:54:20.93Z</time></trkpt><trkpt lat="43.8600867" lon="12.499795"><ele>433.6666666666667</ele><time>2026-04-11T13:54:21.929Z</time></trkpt><trkpt lat="43.8600367" lon="12.4998583"><ele>434.83333333333337</ele><time>2026-04-11T13:54:22.929Z</time></trkpt><trkpt lat="43.8599683" lon="12.49995"><ele>436.0</ele><time>2026-04-11T13:54:24.929Z</time></trkpt><trkpt lat="43.859855" lon="12.4999683"><ele>437.00000000000006</ele><time>2026-04-11T13:54:26.93Z</time></trkpt><trkpt lat="43.8597867" lon="12.499975"><ele>438.0</ele><time>2026-04-11T13:54:27.929Z</time></trkpt><trkpt lat="43.859715" lon="12.4999767"><ele>439.0</ele><time>2026-04-11T13:54:28.929Z</time></trkpt><trkpt lat="43.8596067" lon="12.499985"><ele>440.0</ele><time>2026-04-11T13:54:30.93Z</time></trkpt><trkpt lat="43.8595383" lon="12.500035"><ele>441.00000000000006</ele><time>2026-04-11T13:54:32.93Z</time></trkpt><trkpt lat="43.8594567" lon="12.5000517"><ele>442.0</ele><time>2026-04-11T13:54:34.929Z</time></trkpt><trkpt lat="43.8593867" lon="12.5000383"><ele>442.0</ele><time>2026-04-11T13:54:35.93Z</time></trkpt><trkpt lat="43.8592933" lon="12.500025"><ele>442.00000000000006</ele><time>2026-04-11T13:54:36.93Z</time></trkpt><trkpt lat="43.8591917" lon="12.5000033"><ele>442.00000000000006</ele><time>2026-04-11T13:54:37.93Z</time></trkpt><trkpt lat="43.859085" lon="12.4999483"><ele>442.0</ele><time>2026-04-11T13:54:38.929Z</time></trkpt><trkpt lat="43.8589833" lon="12.4998517"><ele>442.0</ele><time>2026-04-11T13:54:39.929Z</time></trkpt><trkpt lat="43.8588733" lon="12.4997383"><ele>441.5</ele><time>2026-04-11T13:54:40.93Z</time></trkpt><trkpt lat="43.858785" lon="12.4996083"><ele>441.0</ele><time>2026-04-11T13:54:41.93Z</time></trkpt><trkpt lat="43.8587217" lon="12.4994667"><ele>440.5</ele><time>2026-04-11T13:54:42.93Z</time></trkpt><trkpt lat="43.8586783" lon="12.4993117"><ele>440.0</ele><time>2026-04-11T13:54:43.929Z</time></trkpt><trkpt lat="43.8586383" lon="12.49917"><ele>437.4</ele><time>2026-04-11T13:54:44.93Z</time></trkpt><trkpt lat="43.8586083" lon="12.4990317"><ele>434.8</ele><time>2026-04-11T13:54:45.93Z</time></trkpt><trkpt lat="43.8585817" lon="12.4988917"><ele>432.20000000000005</ele><time>2026-04-11T13:54:46.93Z</time></trkpt><trkpt lat="43.8585667" lon="12.4987667"><ele>429.6</ele><time>2026-04-11T13:54:47.93Z</time></trkpt><trkpt lat="43.85858" lon="12.49863"><ele>427.0</ele><time>2026-04-11T13:54:48.93Z</time></trkpt><trkpt lat="43.8585983" lon="12.4985"><ele>427.00000000000006</ele><time>2026-04-11T13:54:49.929Z</time></trkpt><trkpt lat="43.8586217" lon="12.498385"><ele>427.0</ele><time>2026-04-11T13:54:50.929Z</time></trkpt><trkpt lat="43.85865" lon="12.4982767"><ele>427.0</ele><time>2026-04-11T13:54:51.93Z</time></trkpt><trkpt lat="43.85866" lon="12.498185"><ele>427.0</ele><time>2026-04-11T13:54:52.93Z</time></trkpt><trkpt lat="43.858575" lon="12.4980783"><ele>427.00000000000006</ele><time>2026-04-11T13:54:54.929Z</time></trkpt><trkpt lat="43.8585033" lon="12.498045"><ele>427.0</ele><time>2026-04-11T13:54:55.93Z</time></trkpt><trkpt lat="43.8584083" lon="12.49802"><ele>427.0</ele><time>2026-04-11T13:54:56.93Z</time></trkpt><trkpt lat="43.8582883" lon="12.4979933"><ele>427.0</ele><time>2026-04-11T13:54:57.93Z</time></trkpt><trkpt lat="43.8581567" lon="12.49795"><ele>427.0</ele><time>2026-04-11T13:54:58.93Z</time></trkpt><trkpt lat="43.8580383" lon="12.49789"><ele>427.0</ele><time>2026-04-11T13:54:59.929Z</time></trkpt><trkpt lat="43.85793" lon="12.4978133"><ele>426.8</ele><time>2026-04-11T13:55:00.93Z</time></trkpt><trkpt lat="43.8578367" lon="12.4977267"><ele>426.6</ele><time>2026-04-11T13:55:01.93Z</time></trkpt><trkpt lat="43.8577633" lon="12.49763"><ele>426.40000000000003</ele><time>2026-04-11T13:55:02.93Z</time></trkpt><trkpt lat="43.857695" lon="12.497535"><ele>426.20000000000005</ele><time>2026-04-11T13:55:03.93Z</time></trkpt><trkpt lat="43.857615" lon="12.4974417"><ele>426.0</ele><time>2026-04-11T13:55:04.93Z</time></trkpt><trkpt lat="43.8575383" lon="12.497345"><ele>426.0</ele><time>2026-04-11T13:55:05.93Z</time></trkpt><trkpt lat="43.8574683" lon="12.4972367"><ele>426.0</ele><time>2026-04-11T13:55:06.93Z</time></trkpt><trkpt lat="43.8574167" lon="12.49711"><ele>426.0</ele><time>2026-04-11T13:55:07.93Z</time></trkpt><trkpt lat="43.857385" lon="12.4969633"><ele>426.0</ele><time>2026-04-11T13:55:08.93Z</time></trkpt><trkpt lat="43.85736" lon="12.4968183"><ele>426.0</ele><time>2026-04-11T13:55:09.93Z</time></trkpt><trkpt lat="43.857335" lon="12.4966583"><ele>425.1666666666667</ele><time>2026-04-11T13:55:10.93Z</time></trkpt><trkpt lat="43.85731" lon="12.496505"><ele>424.33333333333337</ele><time>2026-04-11T13:55:11.93Z</time></trkpt><trkpt lat="43.8572817" lon="12.496375"><ele>423.5</ele><time>2026-04-11T13:55:12.929Z</time></trkpt><trkpt lat="43.857245" lon="12.4962717"><ele>422.6666666666667</ele><time>2026-04-11T13:55:13.93Z</time></trkpt><trkpt lat="43.8572" lon="12.4962067"><ele>421.83333333333337</ele><time>2026-04-11T13:55:14.929Z</time></trkpt><trkpt lat="43.8571333" lon="12.4961233"><ele>421.0</ele><time>2026-04-11T13:55:16.929Z</time></trkpt><trkpt lat="43.8570433" lon="12.495995"><ele>420.0</ele><time>2026-04-11T13:55:18.93Z</time></trkpt><trkpt lat="43.8569883" lon="12.49591"><ele>419.0</ele><time>2026-04-11T13:55:19.929Z</time></trkpt><trkpt lat="43.8569133" lon="12.4958233"><ele>418.0</ele><time>2026-04-11T13:55:20.93Z</time></trkpt><trkpt lat="43.8568317" lon="12.49573"><ele>417.0</ele><time>2026-04-11T13:55:21.929Z</time></trkpt><trkpt lat="43.85673" lon="12.49563"><ele>416.0</ele><time>2026-04-11T13:55:22.93Z</time></trkpt><trkpt lat="43.85661" lon="12.4955383"><ele>416.0</ele><time>2026-04-11T13:55:23.929Z</time></trkpt><trkpt lat="43.85648" lon="12.495435"><ele>416.0</ele><time>2026-04-11T13:55:24.93Z</time></trkpt><trkpt lat="43.8563517" lon="12.49533"><ele>416.0</ele><time>2026-04-11T13:55:25.93Z</time></trkpt><trkpt lat="43.8562367" lon="12.4952367"><ele>416.0</ele><time>2026-04-11T13:55:26.929Z</time></trkpt><trkpt lat="43.8561333" lon="12.4951767"><ele>416.0</ele><time>2026-04-11T13:55:27.929Z</time></trkpt><trkpt lat="43.8560233" lon="12.49513"><ele>416.0</ele><time>2026-04-11T13:55:28.929Z</time></trkpt><trkpt lat="43.8558933" lon="12.4951083"><ele>416.0</ele><time>2026-04-11T13:55:29.93Z</time></trkpt><trkpt lat="43.8557567" lon="12.4950867"><ele>416.0</ele><time>2026-04-11T13:55:30.929Z</time></trkpt><trkpt lat="43.855615" lon="12.4950683"><ele>419.3333333333333</ele><time>2026-04-11T13:55:31.93Z</time></trkpt><trkpt lat="43.855455" lon="12.4950533"><ele>422.66666666666663</ele><time>2026-04-11T13:55:32.93Z</time></trkpt><trkpt lat="43.85529" lon="12.49502"><ele>426.0</ele><time>2026-04-11T13:55:33.929Z</time></trkpt><trkpt lat="43.85512" lon="12.49496"><ele>429.66666666666663</ele><time>2026-04-11T13:55:34.93Z</time></trkpt><trkpt lat="43.8549633" lon="12.4948933"><ele>433.3333333333333</ele><time>2026-04-11T13:55:35.929Z</time></trkpt><trkpt lat="43.854815" lon="12.494825"><ele>437.0</ele><time>2026-04-11T13:55:36.929Z</time></trkpt><trkpt lat="43.8546883" lon="12.494785"><ele>436.99999999999994</ele><time>2026-04-11T13:55:37.93Z</time></trkpt><trkpt lat="43.854595" lon="12.494775"><ele>437.0</ele><time>2026-04-11T13:55:38.929Z</time></trkpt><trkpt lat="43.85453" lon="12.4948117"><ele>437.0</ele><time>2026-04-11T13:55:39.93Z</time></trkpt><trkpt lat="43.8544817" lon="12.4948917"><ele>437.0</ele><time>2026-04-11T13:55:40.929Z</time></trkpt><trkpt lat="43.854435" lon="12.494985"><ele>436.99999999999994</ele><time>2026-04-11T13:55:41.929Z</time></trkpt><trkpt lat="43.85438" lon="12.4950967"><ele>437.0</ele><time>2026-04-11T13:55:42.929Z</time></trkpt><trkpt lat="43.8543133" lon="12.4951767"><ele>440.6</ele><time>2026-04-11T13:55:43.929Z</time></trkpt><trkpt lat="43.8542417" lon="12.495195"><ele>444.20000000000005</ele><time>2026-04-11T13:55:44.93Z</time></trkpt><trkpt lat="43.8541617" lon="12.4951733"><ele>447.8</ele><time>2026-04-11T13:55:45.929Z</time></trkpt><trkpt lat="43.8540717" lon="12.4951417"><ele>451.4</ele><time>2026-04-11T13:55:46.93Z</time></trkpt><trkpt lat="43.85397" lon="12.4951033"><ele>455.0</ele><time>2026-04-11T13:55:47.93Z</time></trkpt><trkpt lat="43.8538683" lon="12.4950817"><ele>454.99999999999994</ele><time>2026-04-11T13:55:48.929Z</time></trkpt><trkpt lat="43.8537817" lon="12.4950783"><ele>455.0</ele><time>2026-04-11T13:55:49.93Z</time></trkpt><trkpt lat="43.853705" lon="12.4950867"><ele>455.0</ele><time>2026-04-11T13:55:50.93Z</time></trkpt><trkpt lat="43.8536317" lon="12.49511"><ele>455.0</ele><time>2026-04-11T13:55:51.93Z</time></trkpt><trkpt lat="43.853575" lon="12.4951633"><ele>454.99999999999994</ele><time>2026-04-11T13:55:52.93Z</time></trkpt><trkpt lat="43.8535183" lon="12.4952333"><ele>455.0</ele><time>2026-04-11T13:55:53.929Z</time></trkpt><trkpt lat="43.853485" lon="12.4953267"><ele>457.66666666666663</ele><time>2026-04-11T13:55:54.929Z</time></trkpt><trkpt lat="43.8534533" lon="12.4954067"><ele>460.3333333333333</ele><time>2026-04-11T13:55:55.93Z</time></trkpt><trkpt lat="43.85334" lon="12.4954617"><ele>463.0</ele><time>2026-04-11T13:55:57.929Z</time></trkpt><trkpt lat="43.8532617" lon="12.495475"><ele>465.66666666666663</ele><time>2026-04-11T13:55:58.929Z</time></trkpt><trkpt lat="43.8531867" lon="12.4954833"><ele>468.3333333333333</ele><time>2026-04-11T13:55:59.93Z</time></trkpt><trkpt lat="43.8531033" lon="12.4954867"><ele>471.0</ele><time>2026-04-11T13:56:00.93Z</time></trkpt><trkpt lat="43.85302" lon="12.4954883"><ele>472.6</ele><time>2026-04-11T13:56:01.93Z</time></trkpt><trkpt lat="43.8529267" lon="12.4955"><ele>474.20000000000005</ele><time>2026-04-11T13:56:02.929Z</time></trkpt><trkpt lat="43.8528417" lon="12.4955383"><ele>475.79999999999995</ele><time>2026-04-11T13:56:03.929Z</time></trkpt><trkpt lat="43.85276" lon="12.4955933"><ele>477.4</ele><time>2026-04-11T13:56:04.93Z</time></trkpt><trkpt lat="43.8526833" lon="12.4956717"><ele>479.0</ele><time>2026-04-11T13:56:05.93Z</time></trkpt><trkpt lat="43.8526" lon="12.4957567"><ele>481.75</ele><time>2026-04-11T13:56:06.929Z</time></trkpt><trkpt lat="43.8524967" lon="12.4958417"><ele>484.5</ele><time>2026-04-11T13:56:07.929Z</time></trkpt><trkpt lat="43.8523817" lon="12.4959133"><ele>487.25</ele><time>2026-04-11T13:56:08.929Z</time></trkpt><trkpt lat="43.852255" lon="12.4959733"><ele>490.0</ele><time>2026-04-11T13:56:09.93Z</time></trkpt><trkpt lat="43.8521133" lon="12.496005"><ele>490.0</ele><time>2026-04-11T13:56:10.929Z</time></trkpt><trkpt lat="43.8519833" lon="12.4960217"><ele>490.0</ele><time>2026-04-11T13:56:11.93Z</time></trkpt><trkpt lat="43.8518683" lon="12.4960217"><ele>490.0</ele><time>2026-04-11T13:56:12.93Z</time></trkpt><trkpt lat="43.8517733" lon="12.4960333"><ele>490.0</ele><time>2026-04-11T13:56:13.93Z</time></trkpt><trkpt lat="43.8517" lon="12.49605"><ele>490.0</ele><time>2026-04-11T13:56:14.93Z</time></trkpt><trkpt lat="43.85161" lon="12.4960967"><ele>491.00000000000006</ele><time>2026-04-11T13:56:16.93Z</time></trkpt><trkpt lat="43.8515567" lon="12.4961567"><ele>492.0</ele><time>2026-04-11T13:56:19.93Z</time></trkpt><trkpt lat="43.851515" lon="12.49608"><ele>493.0</ele><time>2026-04-11T13:56:22.93Z</time></trkpt><trkpt lat="43.8514733" lon="12.4959367"><ele>494.0</ele><time>2026-04-11T13:56:24.93Z</time></trkpt><trkpt lat="43.851435" lon="12.4957717"><ele>495.00000000000006</ele><time>2026-04-11T13:56:26.93Z</time></trkpt><trkpt lat="43.8514183" lon="12.4956867"><ele>496.0</ele><time>2026-04-11T13:56:27.93Z</time></trkpt><trkpt lat="43.8513917" lon="12.49559"><ele>496.0</ele><time>2026-04-11T13:56:28.929Z</time></trkpt><trkpt lat="43.851355" lon="12.49548"><ele>496.0</ele><time>2026-04-11T13:56:29.929Z</time></trkpt><trkpt lat="43.8513183" lon="12.49536"><ele>496.0</ele><time>2026-04-11T13:56:30.93Z</time></trkpt><trkpt lat="43.8512783" lon="12.495235"><ele>496.0</ele><time>2026-04-11T13:56:31.93Z</time></trkpt><trkpt lat="43.8512467" lon="12.4951217"><ele>496.0</ele><time>2026-04-11T13:56:32.93Z</time></trkpt><trkpt lat="43.851215" lon="12.4950067"><ele>494.20000000000005</ele><time>2026-04-11T13:56:33.93Z</time></trkpt><trkpt lat="43.85119" lon="12.4948867"><ele>492.40000000000003</ele><time>2026-04-11T13:56:34.929Z</time></trkpt><trkpt lat="43.8511817" lon="12.49476"><ele>490.6</ele><time>2026-04-11T13:56:35.93Z</time></trkpt><trkpt lat="43.851185" lon="12.494625"><ele>488.8</ele><time>2026-04-11T13:56:36.929Z</time></trkpt><trkpt lat="43.8511767" lon="12.4944867"><ele>487.0</ele><time>2026-04-11T13:56:37.93Z</time></trkpt><trkpt lat="43.851165" lon="12.4943683"><ele>485.6666666666667</ele><time>2026-04-11T13:56:38.93Z</time></trkpt><trkpt lat="43.8511567" lon="12.4942517"><ele>484.33333333333337</ele><time>2026-04-11T13:56:39.93Z</time></trkpt><trkpt lat="43.8511433" lon="12.4941583"><ele>483.0</ele><time>2026-04-11T13:56:40.93Z</time></trkpt><trkpt lat="43.8511317" lon="12.494045"><ele>481.66666666666663</ele><time>2026-04-11T13:56:41.929Z</time></trkpt><trkpt lat="43.8510983" lon="12.493935"><ele>480.3333333333333</ele><time>2026-04-11T13:56:42.929Z</time></trkpt><trkpt lat="43.851075" lon="12.4938167"><ele>479.0</ele><time>2026-04-11T13:56:43.93Z</time></trkpt><trkpt lat="43.8510433" lon="12.4936983"><ele>479.99999999999994</ele><time>2026-04-11T13:56:44.93Z</time></trkpt><trkpt lat="43.85102" lon="12.4935767"><ele>481.0</ele><time>2026-04-11T13:56:45.93Z</time></trkpt><trkpt lat="43.8510133" lon="12.4934567"><ele>482.0</ele><time>2026-04-11T13:56:46.93Z</time></trkpt><trkpt lat="43.8509983" lon="12.4933383"><ele>483.0</ele><time>2026-04-11T13:56:47.93Z</time></trkpt><trkpt lat="43.850975" lon="12.4932283"><ele>483.99999999999994</ele><time>2026-04-11T13:56:48.93Z</time></trkpt><trkpt lat="43.8509517" lon="12.4931233"><ele>485.0</ele><time>2026-04-11T13:56:49.93Z</time></trkpt><trkpt lat="43.850905" lon="12.4930233"><ele>484.99999999999994</ele><time>2026-04-11T13:56:50.929Z</time></trkpt><trkpt lat="43.8508367" lon="12.492925"><ele>485.0</ele><time>2026-04-11T13:56:51.929Z</time></trkpt><trkpt lat="43.8507833" lon="12.492825"><ele>485.0</ele><time>2026-04-11T13:56:52.93Z</time></trkpt><trkpt lat="43.850745" lon="12.4927317"><ele>485.0</ele><time>2026-04-11T13:56:53.93Z</time></trkpt><trkpt lat="43.85071" lon="12.4926467"><ele>484.99999999999994</ele><time>2026-04-11T13:56:54.929Z</time></trkpt><trkpt lat="43.850675" lon="12.4925483"><ele>485.0</ele><time>2026-04-11T13:56:55.93Z</time></trkpt><trkpt lat="43.850645" lon="12.492435"><ele>484.49999999999994</ele><time>2026-04-11T13:56:56.93Z</time></trkpt><trkpt lat="43.8506217" lon="12.49232"><ele>484.0</ele><time>2026-04-11T13:56:57.93Z</time></trkpt><trkpt lat="43.8505917" lon="12.4922"><ele>483.5</ele><time>2026-04-11T13:56:58.929Z</time></trkpt><trkpt lat="43.8505583" lon="12.492095"><ele>483.0</ele><time>2026-04-11T13:56:59.93Z</time></trkpt><trkpt lat="43.850525" lon="12.4919967"><ele>482.49999999999994</ele><time>2026-04-11T13:57:00.93Z</time></trkpt><trkpt lat="43.8504933" lon="12.49191"><ele>482.0</ele><time>2026-04-11T13:57:01.93Z</time></trkpt><trkpt lat="43.8504733" lon="12.491765"><ele>481.20000000000005</ele><time>2026-04-11T13:57:03.929Z</time></trkpt><trkpt lat="43.8504733" lon="12.4915917"><ele>480.40000000000003</ele><time>2026-04-11T13:57:05.93Z</time></trkpt><trkpt lat="43.8504617" lon="12.4914833"><ele>479.59999999999997</ele><time>2026-04-11T13:57:06.93Z</time></trkpt><trkpt lat="43.8504417" lon="12.4913667"><ele>478.79999999999995</ele><time>2026-04-11T13:57:07.93Z</time></trkpt><trkpt lat="43.85041" lon="12.4912367"><ele>478.0</ele><time>2026-04-11T13:57:08.93Z</time></trkpt><trkpt lat="43.8503883" lon="12.4910867"><ele>477.79999999999995</ele><time>2026-04-11T13:57:09.929Z</time></trkpt><trkpt lat="43.8503667" lon="12.4909383"><ele>477.59999999999997</ele><time>2026-04-11T13:57:10.929Z</time></trkpt><trkpt lat="43.8503417" lon="12.490805"><ele>477.40000000000003</ele><time>2026-04-11T13:57:11.93Z</time></trkpt><trkpt lat="43.85031" lon="12.4907"><ele>477.20000000000005</ele><time>2026-04-11T13:57:12.93Z</time></trkpt><trkpt lat="43.8502683" lon="12.4905983"><ele>477.0</ele><time>2026-04-11T13:57:13.929Z</time></trkpt><trkpt lat="43.8502283" lon="12.49049"><ele>476.0</ele><time>2026-04-11T13:57:14.93Z</time></trkpt><trkpt lat="43.85019" lon="12.4903683"><ele>475.00000000000006</ele><time>2026-04-11T13:57:15.93Z</time></trkpt><trkpt lat="43.850155" lon="12.490235"><ele>474.00000000000006</ele><time>2026-04-11T13:57:16.93Z</time></trkpt><trkpt lat="43.8501183" lon="12.4900933"><ele>473.0</ele><time>2026-04-11T13:57:17.93Z</time></trkpt><trkpt lat="43.850075" lon="12.489955"><ele>472.0</ele><time>2026-04-11T13:57:18.929Z</time></trkpt><trkpt lat="43.8500317" lon="12.489825"><ele>473.6666666666667</ele><time>2026-04-11T13:57:19.93Z</time></trkpt><trkpt lat="43.85" lon="12.4897"><ele>475.33333333333337</ele><time>2026-04-11T13:57:20.93Z</time></trkpt><trkpt lat="43.8499717" lon="12.4895833"><ele>477.0</ele><time>2026-04-11T13:57:21.93Z</time></trkpt><trkpt lat="43.8499517" lon="12.4894833"><ele>478.66666666666663</ele><time>2026-04-11T13:57:22.929Z</time></trkpt><trkpt lat="43.849935" lon="12.4893917"><ele>480.3333333333333</ele><time>2026-04-11T13:57:23.929Z</time></trkpt><trkpt lat="43.8499033" lon="12.48925"><ele>482.0</ele><time>2026-04-11T13:57:25.929Z</time></trkpt><trkpt lat="43.8498617" lon="12.4891183"><ele>481.8571428571429</ele><time>2026-04-11T13:57:27.93Z</time></trkpt><trkpt lat="43.8498283" lon="12.4890333"><ele>481.7142857142858</ele><time>2026-04-11T13:57:28.929Z</time></trkpt><trkpt lat="43.8497783" lon="12.4889517"><ele>481.57142857142856</ele><time>2026-04-11T13:57:29.93Z</time></trkpt><trkpt lat="43.8497433" lon="12.4888617"><ele>481.42857142857144</ele><time>2026-04-11T13:57:30.93Z</time></trkpt><trkpt lat="43.849715" lon="12.4887683"><ele>481.2857142857143</ele><time>2026-04-11T13:57:31.93Z</time></trkpt><trkpt lat="43.849695" lon="12.488675"><ele>481.1428571428571</ele><time>2026-04-11T13:57:32.93Z</time></trkpt><trkpt lat="43.8496717" lon="12.4885667"><ele>480.99999999999994</ele><time>2026-04-11T13:57:33.93Z</time></trkpt><trkpt lat="43.8496433" lon="12.4884533"><ele>481.00000000000006</ele><time>2026-04-11T13:57:34.93Z</time></trkpt><trkpt lat="43.8496133" lon="12.4883483"><ele>481.0</ele><time>2026-04-11T13:57:35.93Z</time></trkpt><trkpt lat="43.84959" lon="12.4882483"><ele>481.0</ele><time>2026-04-11T13:57:36.929Z</time></trkpt><trkpt lat="43.8495767" lon="12.4881467"><ele>481.0</ele><time>2026-04-11T13:57:37.93Z</time></trkpt><trkpt lat="43.84958" lon="12.48805"><ele>481.00000000000006</ele><time>2026-04-11T13:57:38.93Z</time></trkpt><trkpt lat="43.8495817" lon="12.4879617"><ele>481.0</ele><time>2026-04-11T13:57:39.929Z</time></trkpt><trkpt lat="43.849625" lon="12.4878233"><ele>481.50000000000006</ele><time>2026-04-11T13:57:41.93Z</time></trkpt><trkpt lat="43.8496717" lon="12.4877567"><ele>482.0</ele><time>2026-04-11T13:57:42.93Z</time></trkpt><trkpt lat="43.84974" lon="12.48769"><ele>482.5</ele><time>2026-04-11T13:57:43.93Z</time></trkpt><trkpt lat="43.8498167" lon="12.48762"><ele>483.0</ele><time>2026-04-11T13:57:44.929Z</time></trkpt><trkpt lat="43.8498917" lon="12.487545"><ele>483.50000000000006</ele><time>2026-04-11T13:57:45.929Z</time></trkpt><trkpt lat="43.8499517" lon="12.487475"><ele>484.0</ele><time>2026-04-11T13:57:46.93Z</time></trkpt><trkpt lat="43.8500067" lon="12.487325"><ele>484.00000000000006</ele><time>2026-04-11T13:57:48.93Z</time></trkpt><trkpt lat="43.8500183" lon="12.4872383"><ele>484.0</ele><time>2026-04-11T13:57:49.929Z</time></trkpt><trkpt lat="43.850025" lon="12.48714"><ele>484.0</ele><time>2026-04-11T13:57:50.93Z</time></trkpt><trkpt lat="43.850025" lon="12.4870317"><ele>484.0</ele><time>2026-04-11T13:57:51.93Z</time></trkpt><trkpt lat="43.85002" lon="12.4869267"><ele>484.00000000000006</ele><time>2026-04-11T13:57:52.929Z</time></trkpt><trkpt lat="43.85001" lon="12.486815"><ele>484.0</ele><time>2026-04-11T13:57:53.93Z</time></trkpt><trkpt lat="43.8499967" lon="12.486695"><ele>486.0</ele><time>2026-04-11T13:57:54.929Z</time></trkpt><trkpt lat="43.8499867" lon="12.4865617"><ele>488.0</ele><time>2026-04-11T13:57:55.929Z</time></trkpt><trkpt lat="43.8499767" lon="12.4864217"><ele>490.0</ele><time>2026-04-11T13:57:56.93Z</time></trkpt><trkpt lat="43.8499633" lon="12.4862883"><ele>492.0</ele><time>2026-04-11T13:57:57.93Z</time></trkpt><trkpt lat="43.8499567" lon="12.486165"><ele>494.0</ele><time>2026-04-11T13:57:58.929Z</time></trkpt><trkpt lat="43.8499433" lon="12.486045"><ele>496.0</ele><time>2026-04-11T13:57:59.929Z</time></trkpt><trkpt lat="43.849925" lon="12.4859217"><ele>498.0</ele><time>2026-04-11T13:58:00.93Z</time></trkpt><trkpt lat="43.8499133" lon="12.4858017"><ele>500.0</ele><time>2026-04-11T13:58:01.929Z</time></trkpt><trkpt lat="43.8498933" lon="12.4856883"><ele>502.0</ele><time>2026-04-11T13:58:02.93Z</time></trkpt><trkpt lat="43.8498783" lon="12.48559"><ele>504.0</ele><time>2026-04-11T13:58:03.93Z</time></trkpt><trkpt lat="43.84985" lon="12.4854317"><ele>506.2</ele><time>2026-04-11T13:58:05.93Z</time></trkpt><trkpt lat="43.8498333" lon="12.485245"><ele>508.4</ele><time>2026-04-11T13:58:07.93Z</time></trkpt><trkpt lat="43.849825" lon="12.4851267"><ele>510.6</ele><time>2026-04-11T13:58:08.929Z</time></trkpt><trkpt lat="43.8498167" lon="12.485015"><ele>512.8</ele><time>2026-04-11T13:58:09.929Z</time></trkpt><trkpt lat="43.849815" lon="12.4848967"><ele>515.0</ele><time>2026-04-11T13:58:10.93Z</time></trkpt><trkpt lat="43.849825" lon="12.4847767"><ele>515.0</ele><time>2026-04-11T13:58:11.929Z</time></trkpt><trkpt lat="43.8498317" lon="12.4846667"><ele>515.0</ele><time>2026-04-11T13:58:12.929Z</time></trkpt><trkpt lat="43.8498367" lon="12.4845567"><ele>515.0</ele><time>2026-04-11T13:58:13.93Z</time></trkpt><trkpt lat="43.8498367" lon="12.484445"><ele>515.0</ele><time>2026-04-11T13:58:14.93Z</time></trkpt><trkpt lat="43.8498367" lon="12.4843283"><ele>515.0</ele><time>2026-04-11T13:58:15.93Z</time></trkpt><trkpt lat="43.8498383" lon="12.4842183"><ele>515.0</ele><time>2026-04-11T13:58:16.929Z</time></trkpt><trkpt lat="43.8498483" lon="12.4841067"><ele>516.3333333333333</ele><time>2026-04-11T13:58:17.929Z</time></trkpt><trkpt lat="43.8498683" lon="12.4839917"><ele>517.6666666666666</ele><time>2026-04-11T13:58:18.929Z</time></trkpt><trkpt lat="43.849895" lon="12.4838867"><ele>519.0</ele><time>2026-04-11T13:58:19.929Z</time></trkpt><trkpt lat="43.8499367" lon="12.4837767"><ele>520.3333333333334</ele><time>2026-04-11T13:58:20.93Z</time></trkpt><trkpt lat="43.84998" lon="12.48368"><ele>521.6666666666667</ele><time>2026-04-11T13:58:21.93Z</time></trkpt><trkpt lat="43.850035" lon="12.48357"><ele>523.0</ele><time>2026-04-11T13:58:22.929Z</time></trkpt><trkpt lat="43.8500833" lon="12.483455"><ele>523.1666666666667</ele><time>2026-04-11T13:58:23.929Z</time></trkpt><trkpt lat="43.8501217" lon="12.4833417"><ele>523.3333333333334</ele><time>2026-04-11T13:58:24.929Z</time></trkpt><trkpt lat="43.85016" lon="12.4832283"><ele>523.5</ele><time>2026-04-11T13:58:25.929Z</time></trkpt><trkpt lat="43.8501867" lon="12.483115"><ele>523.6666666666666</ele><time>2026-04-11T13:58:26.929Z</time></trkpt><trkpt lat="43.8502083" lon="12.4829983"><ele>523.8333333333333</ele><time>2026-04-11T13:58:27.929Z</time></trkpt><trkpt lat="43.8502367" lon="12.4828883"><ele>524.0</ele><time>2026-04-11T13:58:28.93Z</time></trkpt><trkpt lat="43.85028" lon="12.4827833"><ele>525.8</ele><time>2026-04-11T13:58:29.929Z</time></trkpt><trkpt lat="43.8503383" lon="12.4826733"><ele>527.5999999999999</ele><time>2026-04-11T13:58:30.929Z</time></trkpt><trkpt lat="43.8503867" lon="12.4825417"><ele>529.4</ele><time>2026-04-11T13:58:31.929Z</time></trkpt><trkpt lat="43.85044" lon="12.4824133"><ele>531.1999999999999</ele><time>2026-04-11T13:58:32.929Z</time></trkpt><trkpt lat="43.8505" lon="12.4822933"><ele>533.0</ele><time>2026-04-11T13:58:33.93Z</time></trkpt><trkpt lat="43.8505317" lon="12.4821817"><ele>537.4</ele><time>2026-04-11T13:58:34.93Z</time></trkpt><trkpt lat="43.8505583" lon="12.48209"><ele>541.8</ele><time>2026-04-11T13:58:35.929Z</time></trkpt><trkpt lat="43.85056" lon="12.48195"><ele>546.2</ele><time>2026-04-11T13:58:37.93Z</time></trkpt><trkpt lat="43.8505033" lon="12.48184"><ele>550.6</ele><time>2026-04-11T13:58:39.93Z</time></trkpt><trkpt lat="43.8504" lon="12.4817583"><ele>555.0</ele><time>2026-04-11T13:58:41.929Z</time></trkpt><trkpt lat="43.8503383" lon="12.4816933"><ele>555.0</ele><time>2026-04-11T13:58:42.93Z</time></trkpt><trkpt lat="43.8502683" lon="12.481635"><ele>555.0</ele><time>2026-04-11T13:58:43.929Z</time></trkpt><trkpt lat="43.8501983" lon="12.4815767"><ele>555.0</ele><time>2026-04-11T13:58:44.929Z</time></trkpt><trkpt lat="43.85012" lon="12.4815167"><ele>555.0</ele><time>2026-04-11T13:58:45.929Z</time></trkpt><trkpt lat="43.8500617" lon="12.4814617"><ele>555.0</ele><time>2026-04-11T13:58:46.93Z</time></trkpt><trkpt lat="43.8500033" lon="12.4813083"><ele>555.0</ele><time>2026-04-11T13:58:48.93Z</time></trkpt><trkpt lat="43.849985" lon="12.4811967"><ele>555.2</ele><time>2026-04-11T13:58:49.93Z</time></trkpt><trkpt lat="43.84996" lon="12.4810833"><ele>555.4</ele><time>2026-04-11T13:58:50.93Z</time></trkpt><trkpt lat="43.849925" lon="12.48097"><ele>555.6</ele><time>2026-04-11T13:58:51.929Z</time></trkpt><trkpt lat="43.84986" lon="12.4808667"><ele>555.8</ele><time>2026-04-11T13:58:52.929Z</time></trkpt><trkpt lat="43.8497833" lon="12.4807767"><ele>556.0</ele><time>2026-04-11T13:58:53.929Z</time></trkpt><trkpt lat="43.8496967" lon="12.4807117"><ele>556.0</ele><time>2026-04-11T13:58:54.93Z</time></trkpt><trkpt lat="43.84961" lon="12.4806717"><ele>556.0</ele><time>2026-04-11T13:58:55.929Z</time></trkpt><trkpt lat="43.8495483" lon="12.4806283"><ele>556.0</ele><time>2026-04-11T13:58:56.93Z</time></trkpt><trkpt lat="43.849465" lon="12.4804983"><ele>556.0</ele><time>2026-04-11T13:58:58.93Z</time></trkpt><trkpt lat="43.8494133" lon="12.4804183"><ele>556.0</ele><time>2026-04-11T13:58:59.93Z</time></trkpt><trkpt lat="43.8493533" lon="12.4803467"><ele>556.0</ele><time>2026-04-11T13:59:00.93Z</time></trkpt><trkpt lat="43.849285" lon="12.4802817"><ele>553.8</ele><time>2026-04-11T13:59:01.929Z</time></trkpt><trkpt lat="43.8492117" lon="12.4802017"><ele>551.6</ele><time>2026-04-11T13:59:02.929Z</time></trkpt><trkpt lat="43.8491417" lon="12.480115"><ele>549.4</ele><time>2026-04-11T13:59:03.93Z</time></trkpt><trkpt lat="43.8490617" lon="12.48002"><ele>547.2</ele><time>2026-04-11T13:59:04.929Z</time></trkpt><trkpt lat="43.848975" lon="12.4799167"><ele>545.0</ele><time>2026-04-11T13:59:05.929Z</time></trkpt><trkpt lat="43.8488867" lon="12.4798267"><ele>545.0</ele><time>2026-04-11T13:59:06.93Z</time></trkpt><trkpt lat="43.84882" lon="12.4797317"><ele>545.0</ele><time>2026-04-11T13:59:07.93Z</time></trkpt><trkpt lat="43.8487583" lon="12.47964"><ele>545.0</ele><time>2026-04-11T13:59:08.93Z</time></trkpt><trkpt lat="43.848715" lon="12.479575"><ele>545.0</ele><time>2026-04-11T13:59:09.93Z</time></trkpt><trkpt lat="43.848675" lon="12.4794967"><ele>545.0</ele><time>2026-04-11T13:59:11.93Z</time></trkpt><trkpt lat="43.8486083" lon="12.47943"><ele>545.0</ele><time>2026-04-11T13:59:13.929Z</time></trkpt><trkpt lat="43.8484983" lon="12.4793217"><ele>543.4</ele><time>2026-04-11T13:59:15.93Z</time></trkpt><trkpt lat="43.848425" lon="12.4792533"><ele>541.8</ele><time>2026-04-11T13:59:16.929Z</time></trkpt><trkpt lat="43.8483517" lon="12.4791817"><ele>540.2</ele><time>2026-04-11T13:59:17.929Z</time></trkpt><trkpt lat="43.8482733" lon="12.479105"><ele>538.6</ele><time>2026-04-11T13:59:18.93Z</time></trkpt><trkpt lat="43.84821" lon="12.479"><ele>537.0</ele><time>2026-04-11T13:59:19.929Z</time></trkpt><trkpt lat="43.8481483" lon="12.4788917"><ele>537.0</ele><time>2026-04-11T13:59:20.93Z</time></trkpt><trkpt lat="43.8480733" lon="12.4787817"><ele>537.0</ele><time>2026-04-11T13:59:21.93Z</time></trkpt><trkpt lat="43.847985" lon="12.478685"><ele>537.0</ele><time>2026-04-11T13:59:22.929Z</time></trkpt><trkpt lat="43.8478983" lon="12.4785967"><ele>537.0</ele><time>2026-04-11T13:59:23.93Z</time></trkpt><trkpt lat="43.847825" lon="12.47852"><ele>537.0</ele><time>2026-04-11T13:59:24.93Z</time></trkpt><trkpt lat="43.84776" lon="12.4784417"><ele>536.5</ele><time>2026-04-11T13:59:25.929Z</time></trkpt><trkpt lat="43.84771" lon="12.47836"><ele>536.0</ele><time>2026-04-11T13:59:26.93Z</time></trkpt><trkpt lat="43.8476533" lon="12.478265"><ele>535.5</ele><time>2026-04-11T13:59:27.929Z</time></trkpt><trkpt lat="43.8476083" lon="12.4781767"><ele>535.0</ele><time>2026-04-11T13:59:28.93Z</time></trkpt><trkpt lat="43.8475667" lon="12.478095"><ele>534.5</ele><time>2026-04-11T13:59:29.93Z</time></trkpt><trkpt lat="43.8475233" lon="12.47802"><ele>534.0</ele><time>2026-04-11T13:59:30.93Z</time></trkpt><trkpt lat="43.8474933" lon="12.47794"><ele>531.8333333333334</ele><time>2026-04-11T13:59:31.929Z</time></trkpt><trkpt lat="43.84747" lon="12.4778317"><ele>529.6666666666666</ele><time>2026-04-11T13:59:33.93Z</time></trkpt><trkpt lat="43.847455" lon="12.4777467"><ele>527.5</ele><time>2026-04-11T13:59:37.93Z</time></trkpt><trkpt lat="43.8474083" lon="12.477665"><ele>525.3333333333333</ele><time>2026-04-11T13:59:39.929Z</time></trkpt><trkpt lat="43.8472967" lon="12.4775783"><ele>523.1666666666666</ele><time>2026-04-11T13:59:41.929Z</time></trkpt><trkpt lat="43.8472217" lon="12.4775583"><ele>521.0</ele><time>2026-04-11T13:59:42.929Z</time></trkpt><trkpt lat="43.8471333" lon="12.4775467"><ele>521.0</ele><time>2026-04-11T13:59:43.928Z</time></trkpt><trkpt lat="43.8470317" lon="12.477545"><ele>521.0</ele><time>2026-04-11T13:59:44.928Z</time></trkpt><trkpt lat="43.8469183" lon="12.477545"><ele>521.0</ele><time>2026-04-11T13:59:45.929Z</time></trkpt><trkpt lat="43.8468117" lon="12.4775317"><ele>521.0</ele><time>2026-04-11T13:59:46.928Z</time></trkpt><trkpt lat="43.846715" lon="12.4775183"><ele>521.0</ele><time>2026-04-11T13:59:47.929Z</time></trkpt><trkpt lat="43.8466233" lon="12.4775"><ele>520.3333333333333</ele><time>2026-04-11T13:59:48.928Z</time></trkpt><trkpt lat="43.8465483" lon="12.4774683"><ele>519.6666666666666</ele><time>2026-04-11T13:59:49.929Z</time></trkpt><trkpt lat="43.8464717" lon="12.477415"><ele>519.0</ele><time>2026-04-11T13:59:50.929Z</time></trkpt><trkpt lat="43.8463983" lon="12.4773467"><ele>518.3333333333334</ele><time>2026-04-11T13:59:51.928Z</time></trkpt><trkpt lat="43.8463367" lon="12.4772783"><ele>517.6666666666667</ele><time>2026-04-11T13:59:52.928Z</time></trkpt><trkpt lat="43.8462933" lon="12.477205"><ele>517.0</ele><time>2026-04-11T13:59:53.929Z</time></trkpt><trkpt lat="43.846265" lon="12.4771133"><ele>515.4</ele><time>2026-04-11T13:59:54.928Z</time></trkpt><trkpt lat="43.8462483" lon="12.4770083"><ele>513.8000000000001</ele><time>2026-04-11T13:59:55.929Z</time></trkpt><trkpt lat="43.84624" lon="12.476885"><ele>512.2</ele><time>2026-04-11T13:59:56.929Z</time></trkpt><trkpt lat="43.8462367" lon="12.4767433"><ele>510.6</ele><time>2026-04-11T13:59:57.928Z</time></trkpt><trkpt lat="43.8462367" lon="12.4766"><ele>509.0</ele><time>2026-04-11T13:59:58.929Z</time></trkpt><trkpt lat="43.84623" lon="12.4764717"><ele>508.99999999999994</ele><time>2026-04-11T13:59:59.928Z</time></trkpt><trkpt lat="43.8462217" lon="12.4763567"><ele>509.0</ele><time>2026-04-11T14:00:00.929Z</time></trkpt><trkpt lat="43.84619" lon="12.476245"><ele>509.0</ele><time>2026-04-11T14:00:01.928Z</time></trkpt><trkpt lat="43.8461533" lon="12.4761333"><ele>509.0</ele><time>2026-04-11T14:00:02.929Z</time></trkpt><trkpt lat="43.8461133" lon="12.4760283"><ele>508.99999999999994</ele><time>2026-04-11T14:00:03.928Z</time></trkpt><trkpt lat="43.846065" lon="12.47593"><ele>509.0</ele><time>2026-04-11T14:00:04.929Z</time></trkpt><trkpt lat="43.8460233" lon="12.4758567"><ele>508.4</ele><time>2026-04-11T14:00:05.928Z</time></trkpt><trkpt lat="43.8459467" lon="12.4757417"><ele>507.79999999999995</ele><time>2026-04-11T14:00:07.928Z</time></trkpt><trkpt lat="43.8458617" lon="12.4756483"><ele>507.20000000000005</ele><time>2026-04-11T14:00:09.928Z</time></trkpt><trkpt lat="43.8457733" lon="12.4755567"><ele>506.6</ele><time>2026-04-11T14:00:11.929Z</time></trkpt><trkpt lat="43.8457233" lon="12.4754883"><ele>506.0</ele><time>2026-04-11T14:00:12.928Z</time></trkpt><trkpt lat="43.845665" lon="12.4753617"><ele>504.8333333333333</ele><time>2026-04-11T14:00:14.928Z</time></trkpt><trkpt lat="43.845665" lon="12.47527"><ele>503.66666666666663</ele><time>2026-04-11T14:00:16.929Z</time></trkpt><trkpt lat="43.845765" lon="12.475195"><ele>502.5</ele><time>2026-04-11T14:00:19.929Z</time></trkpt><trkpt lat="43.845835" lon="12.4751533"><ele>501.33333333333337</ele><time>2026-04-11T14:00:20.929Z</time></trkpt><trkpt lat="43.8459183" lon="12.4751167"><ele>500.1666666666667</ele><time>2026-04-11T14:00:21.928Z</time></trkpt><trkpt lat="43.8460067" lon="12.47509"><ele>499.0</ele><time>2026-04-11T14:00:22.929Z</time></trkpt><trkpt lat="43.8461083" lon="12.4750583"><ele>497.4</ele><time>2026-04-11T14:00:23.928Z</time></trkpt><trkpt lat="43.846215" lon="12.4750233"><ele>495.79999999999995</ele><time>2026-04-11T14:00:24.929Z</time></trkpt><trkpt lat="43.8463183" lon="12.4749617"><ele>494.20000000000005</ele><time>2026-04-11T14:00:25.929Z</time></trkpt><trkpt lat="43.846415" lon="12.47491"><ele>492.6</ele><time>2026-04-11T14:00:26.929Z</time></trkpt><trkpt lat="43.8465" lon="12.474845"><ele>491.0</ele><time>2026-04-11T14:00:27.929Z</time></trkpt><trkpt lat="43.8465767" lon="12.4747683"><ele>491.0</ele><time>2026-04-11T14:00:28.928Z</time></trkpt><trkpt lat="43.8466417" lon="12.4746867"><ele>491.0</ele><time>2026-04-11T14:00:29.929Z</time></trkpt><trkpt lat="43.8466883" lon="12.4745917"><ele>491.0</ele><time>2026-04-11T14:00:30.928Z</time></trkpt><trkpt lat="43.84672" lon="12.4744767"><ele>491.0</ele><time>2026-04-11T14:00:31.929Z</time></trkpt><trkpt lat="43.84674" lon="12.4743467"><ele>491.0</ele><time>2026-04-11T14:00:32.928Z</time></trkpt><trkpt lat="43.8467333" lon="12.474195"><ele>491.5</ele><time>2026-04-11T14:00:33.929Z</time></trkpt><trkpt lat="43.8467183" lon="12.4740417"><ele>492.0</ele><time>2026-04-11T14:00:34.928Z</time></trkpt><trkpt lat="43.8466917" lon="12.473875"><ele>492.5</ele><time>2026-04-11T14:00:35.929Z</time></trkpt><trkpt lat="43.8466483" lon="12.4737083"><ele>493.0</ele><time>2026-04-11T14:00:36.928Z</time></trkpt><trkpt lat="43.8465817" lon="12.47355"><ele>490.75</ele><time>2026-04-11T14:00:37.928Z</time></trkpt><trkpt lat="43.8465017" lon="12.4734017"><ele>488.5</ele><time>2026-04-11T14:00:38.929Z</time></trkpt><trkpt lat="43.846425" lon="12.4732717"><ele>486.25</ele><time>2026-04-11T14:00:39.929Z</time></trkpt><trkpt lat="43.8463617" lon="12.4731317"><ele>484.0</ele><time>2026-04-11T14:00:40.929Z</time></trkpt><trkpt lat="43.846315" lon="12.4729717"><ele>480.25</ele><time>2026-04-11T14:00:41.929Z</time></trkpt><trkpt lat="43.8462733" lon="12.472805"><ele>476.5</ele><time>2026-04-11T14:00:42.929Z</time></trkpt><trkpt lat="43.8462483" lon="12.4726367"><ele>472.75</ele><time>2026-04-11T14:00:43.928Z</time></trkpt><trkpt lat="43.8462383" lon="12.4724767"><ele>469.0</ele><time>2026-04-11T14:00:44.929Z</time></trkpt><trkpt lat="43.8462083" lon="12.4723283"><ele>469.0</ele><time>2026-04-11T14:00:45.928Z</time></trkpt><trkpt lat="43.8461633" lon="12.47221"><ele>469.0</ele><time>2026-04-11T14:00:46.929Z</time></trkpt><trkpt lat="43.846095" lon="12.472125"><ele>469.0</ele><time>2026-04-11T14:00:47.929Z</time></trkpt><trkpt lat="43.846005" lon="12.47206"><ele>469.0</ele><time>2026-04-11T14:00:48.929Z</time></trkpt><trkpt lat="43.8458883" lon="12.472035"><ele>469.0</ele><time>2026-04-11T14:00:49.929Z</time></trkpt><trkpt lat="43.8457633" lon="12.4720133"><ele>469.5</ele><time>2026-04-11T14:00:50.929Z</time></trkpt><trkpt lat="43.84564" lon="12.4719567"><ele>470.0</ele><time>2026-04-11T14:00:51.929Z</time></trkpt><trkpt lat="43.8455167" lon="12.47187"><ele>470.5</ele><time>2026-04-11T14:00:52.929Z</time></trkpt><trkpt lat="43.8453867" lon="12.4717683"><ele>471.0</ele><time>2026-04-11T14:00:53.928Z</time></trkpt><trkpt lat="43.8452533" lon="12.4716583"><ele>471.0</ele><time>2026-04-11T14:00:54.929Z</time></trkpt><trkpt lat="43.84513" lon="12.4715517"><ele>471.0</ele><time>2026-04-11T14:00:55.929Z</time></trkpt><trkpt lat="43.84503" lon="12.4714433"><ele>471.0</ele><time>2026-04-11T14:00:56.929Z</time></trkpt><trkpt lat="43.8449383" lon="12.4713117"><ele>471.0</ele><time>2026-04-11T14:00:57.929Z</time></trkpt><trkpt lat="43.8448617" lon="12.4711683"><ele>468.6</ele><time>2026-04-11T14:00:58.929Z</time></trkpt><trkpt lat="43.8448133" lon="12.4710083"><ele>466.20000000000005</ele><time>2026-04-11T14:00:59.929Z</time></trkpt><trkpt lat="43.8447733" lon="12.4708883"><ele>463.79999999999995</ele><time>2026-04-11T14:01:00.928Z</time></trkpt><trkpt lat="43.84472" lon="12.4707983"><ele>461.4</ele><time>2026-04-11T14:01:01.929Z</time></trkpt><trkpt lat="43.8445967" lon="12.4707433"><ele>459.0</ele><time>2026-04-11T14:01:03.928Z</time></trkpt><trkpt lat="43.8445167" lon="12.470785"><ele>459.0</ele><time>2026-04-11T14:01:04.929Z</time></trkpt><trkpt lat="43.844425" lon="12.4708733"><ele>459.0</ele><time>2026-04-11T14:01:05.929Z</time></trkpt><trkpt lat="43.84433" lon="12.470985"><ele>459.0</ele><time>2026-04-11T14:01:06.929Z</time></trkpt><trkpt lat="43.8442167" lon="12.4710933"><ele>459.0</ele><time>2026-04-11T14:01:07.929Z</time></trkpt><trkpt lat="43.8440933" lon="12.47117"><ele>458.25</ele><time>2026-04-11T14:01:08.929Z</time></trkpt><trkpt lat="43.8439817" lon="12.4711833"><ele>457.5</ele><time>2026-04-11T14:01:09.929Z</time></trkpt><trkpt lat="43.8438783" lon="12.4711367"><ele>456.75</ele><time>2026-04-11T14:01:10.928Z</time></trkpt><trkpt lat="43.8437783" lon="12.4710467"><ele>456.0</ele><time>2026-04-11T14:01:11.929Z</time></trkpt><trkpt lat="43.8436733" lon="12.4709367"><ele>456.0</ele><time>2026-04-11T14:01:12.928Z</time></trkpt><trkpt lat="43.8435867" lon="12.4708067"><ele>456.0</ele><time>2026-04-11T14:01:13.928Z</time></trkpt><trkpt lat="43.843525" lon="12.4706467"><ele>456.0</ele><time>2026-04-11T14:01:14.929Z</time></trkpt><trkpt lat="43.8434683" lon="12.4704733"><ele>456.0</ele><time>2026-04-11T14:01:15.929Z</time></trkpt><trkpt lat="43.8434217" lon="12.4703083"><ele>452.8</ele><time>2026-04-11T14:01:16.929Z</time></trkpt><trkpt lat="43.8433817" lon="12.4701533"><ele>449.6</ele><time>2026-04-11T14:01:17.928Z</time></trkpt><trkpt lat="43.8433483" lon="12.4700117"><ele>446.4</ele><time>2026-04-11T14:01:18.929Z</time></trkpt><trkpt lat="43.8433133" lon="12.4698917"><ele>443.2</ele><time>2026-04-11T14:01:19.928Z</time></trkpt><trkpt lat="43.8432783" lon="12.4697983"><ele>440.0</ele><time>2026-04-11T14:01:20.929Z</time></trkpt><trkpt lat="43.84322" lon="12.46972"><ele>439.99999999999994</ele><time>2026-04-11T14:01:21.928Z</time></trkpt><trkpt lat="43.8431467" lon="12.4696583"><ele>440.0</ele><time>2026-04-11T14:01:22.929Z</time></trkpt><trkpt lat="43.8430783" lon="12.469585"><ele>440.0</ele><time>2026-04-11T14:01:23.928Z</time></trkpt><trkpt lat="43.8430117" lon="12.4695083"><ele>440.0</ele><time>2026-04-11T14:01:24.929Z</time></trkpt><trkpt lat="43.8429417" lon="12.4694317"><ele>439.99999999999994</ele><time>2026-04-11T14:01:25.928Z</time></trkpt><trkpt lat="43.8428667" lon="12.46935"><ele>440.0</ele><time>2026-04-11T14:01:26.929Z</time></trkpt><trkpt lat="43.8427917" lon="12.4692817"><ele>439.66666666666663</ele><time>2026-04-11T14:01:27.928Z</time></trkpt><trkpt lat="43.8427267" lon="12.4692183"><ele>439.3333333333333</ele><time>2026-04-11T14:01:28.928Z</time></trkpt><trkpt lat="43.8426683" lon="12.469145"><ele>439.0</ele><time>2026-04-11T14:01:29.928Z</time></trkpt><trkpt lat="43.84262" lon="12.4690633"><ele>438.66666666666663</ele><time>2026-04-11T14:01:30.928Z</time></trkpt><trkpt lat="43.842565" lon="12.4689933"><ele>438.3333333333333</ele><time>2026-04-11T14:01:31.928Z</time></trkpt><trkpt lat="43.8425017" lon="12.468945"><ele>438.0</ele><time>2026-04-11T14:01:32.929Z</time></trkpt><trkpt lat="43.84242" lon="12.4689217"><ele>437.8333333333333</ele><time>2026-04-11T14:01:33.929Z</time></trkpt><trkpt lat="43.842335" lon="12.46891"><ele>437.66666666666663</ele><time>2026-04-11T14:01:34.928Z</time></trkpt><trkpt lat="43.8422517" lon="12.468895"><ele>437.5</ele><time>2026-04-11T14:01:35.929Z</time></trkpt><trkpt lat="43.8421767" lon="12.4688633"><ele>437.3333333333333</ele><time>2026-04-11T14:01:36.928Z</time></trkpt><trkpt lat="43.84211" lon="12.4688033"><ele>437.16666666666663</ele><time>2026-04-11T14:01:37.929Z</time></trkpt><trkpt lat="43.84204" lon="12.46874"><ele>437.0</ele><time>2026-04-11T14:01:38.928Z</time></trkpt><trkpt lat="43.84197" lon="12.468675"><ele>437.0</ele><time>2026-04-11T14:01:39.929Z</time></trkpt><trkpt lat="43.8418933" lon="12.4686183"><ele>437.00000000000006</ele><time>2026-04-11T14:01:40.929Z</time></trkpt><trkpt lat="43.8418067" lon="12.4685567"><ele>437.00000000000006</ele><time>2026-04-11T14:01:41.929Z</time></trkpt><trkpt lat="43.841715" lon="12.4684983"><ele>437.0</ele><time>2026-04-11T14:01:42.929Z</time></trkpt><trkpt lat="43.8416283" lon="12.4684383"><ele>437.0</ele><time>2026-04-11T14:01:43.929Z</time></trkpt><trkpt lat="43.84155" lon="12.4683667"><ele>437.49999999999994</ele><time>2026-04-11T14:01:44.928Z</time></trkpt><trkpt lat="43.8414783" lon="12.4682867"><ele>438.0</ele><time>2026-04-11T14:01:45.928Z</time></trkpt><trkpt lat="43.8414083" lon="12.4682033"><ele>438.5</ele><time>2026-04-11T14:01:46.929Z</time></trkpt><trkpt lat="43.84134" lon="12.4681333"><ele>439.0</ele><time>2026-04-11T14:01:47.928Z</time></trkpt><trkpt lat="43.8412633" lon="12.4680683"><ele>439.49999999999994</ele><time>2026-04-11T14:01:48.929Z</time></trkpt><trkpt lat="43.8411983" lon="12.468015"><ele>440.0</ele><time>2026-04-11T14:01:49.929Z</time></trkpt><trkpt lat="43.8411233" lon="12.467965"><ele>439.66666666666663</ele><time>2026-04-11T14:01:50.928Z</time></trkpt><trkpt lat="43.8410533" lon="12.4679133"><ele>439.3333333333333</ele><time>2026-04-11T14:01:51.929Z</time></trkpt><trkpt lat="43.8409867" lon="12.4678483"><ele>439.0</ele><time>2026-04-11T14:01:52.929Z</time></trkpt><trkpt lat="43.8409217" lon="12.4677767"><ele>438.66666666666663</ele><time>2026-04-11T14:01:53.928Z</time></trkpt><trkpt lat="43.84085" lon="12.4677067"><ele>438.3333333333333</ele><time>2026-04-11T14:01:54.928Z</time></trkpt><trkpt lat="43.840775" lon="12.46763"><ele>438.0</ele><time>2026-04-11T14:01:55.928Z</time></trkpt><trkpt lat="43.8406967" lon="12.4675483"><ele>438.0</ele><time>2026-04-11T14:01:56.929Z</time></trkpt><trkpt lat="43.8406283" lon="12.4674617"><ele>437.99999999999994</ele><time>2026-04-11T14:01:57.928Z</time></trkpt><trkpt lat="43.8405517" lon="12.467365"><ele>437.99999999999994</ele><time>2026-04-11T14:01:58.928Z</time></trkpt><trkpt lat="43.8404767" lon="12.4672583"><ele>438.0</ele><time>2026-04-11T14:01:59.928Z</time></trkpt><trkpt lat="43.84043" lon="12.467135"><ele>438.0</ele><time>2026-04-11T14:02:00.929Z</time></trkpt><trkpt lat="43.8403933" lon="12.4670233"><ele>437.2</ele><time>2026-04-11T14:02:01.928Z</time></trkpt><trkpt lat="43.8403533" lon="12.4668933"><ele>436.4</ele><time>2026-04-11T14:02:02.929Z</time></trkpt><trkpt lat="43.8403117" lon="12.4667617"><ele>435.59999999999997</ele><time>2026-04-11T14:02:03.929Z</time></trkpt><trkpt lat="43.8402667" lon="12.4666317"><ele>434.79999999999995</ele><time>2026-04-11T14:02:04.929Z</time></trkpt><trkpt lat="43.840225" lon="12.4665017"><ele>434.0</ele><time>2026-04-11T14:02:05.929Z</time></trkpt><trkpt lat="43.84019" lon="12.4663667"><ele>433.79999999999995</ele><time>2026-04-11T14:02:06.928Z</time></trkpt><trkpt lat="43.8401533" lon="12.4662333"><ele>433.59999999999997</ele><time>2026-04-11T14:02:07.929Z</time></trkpt><trkpt lat="43.84012" lon="12.4661033"><ele>433.4</ele><time>2026-04-11T14:02:08.928Z</time></trkpt><trkpt lat="43.84009" lon="12.4659817"><ele>433.2</ele><time>2026-04-11T14:02:09.928Z</time></trkpt><trkpt lat="43.840075" lon="12.46587"><ele>433.0</ele><time>2026-04-11T14:02:10.929Z</time></trkpt><trkpt lat="43.8400633" lon="12.4657567"><ele>433.0</ele><time>2026-04-11T14:02:11.929Z</time></trkpt><trkpt lat="43.8400583" lon="12.46563"><ele>432.99999999999994</ele><time>2026-04-11T14:02:12.928Z</time></trkpt><trkpt lat="43.8400433" lon="12.465505"><ele>432.99999999999994</ele><time>2026-04-11T14:02:13.929Z</time></trkpt><trkpt lat="43.840015" lon="12.4653633"><ele>433.0</ele><time>2026-04-11T14:02:14.928Z</time></trkpt><trkpt lat="43.8399817" lon="12.4652267"><ele>433.0</ele><time>2026-04-11T14:02:15.928Z</time></trkpt><trkpt lat="43.839935" lon="12.4650933"><ele>433.0</ele><time>2026-04-11T14:02:16.928Z</time></trkpt><trkpt lat="43.83989" lon="12.4649683"><ele>432.99999999999994</ele><time>2026-04-11T14:02:17.929Z</time></trkpt><trkpt lat="43.8398483" lon="12.464845"><ele>432.99999999999994</ele><time>2026-04-11T14:02:18.929Z</time></trkpt><trkpt lat="43.8398167" lon="12.4647133"><ele>433.0</ele><time>2026-04-11T14:02:19.929Z</time></trkpt><trkpt lat="43.8397867" lon="12.4645783"><ele>433.0</ele><time>2026-04-11T14:02:20.928Z</time></trkpt><trkpt lat="43.8397567" lon="12.464445"><ele>433.0</ele><time>2026-04-11T14:02:21.929Z</time></trkpt><trkpt lat="43.8397283" lon="12.464305"><ele>432.99999999999994</ele><time>2026-04-11T14:02:22.929Z</time></trkpt><trkpt lat="43.839685" lon="12.4641583"><ele>432.99999999999994</ele><time>2026-04-11T14:02:23.929Z</time></trkpt><trkpt lat="43.839635" lon="12.46402"><ele>433.0</ele><time>2026-04-11T14:02:24.928Z</time></trkpt><trkpt lat="43.8395967" lon="12.463895"><ele>433.0</ele><time>2026-04-11T14:02:25.928Z</time></trkpt><trkpt lat="43.8395817" lon="12.4637833"><ele>433.0</ele><time>2026-04-11T14:02:26.929Z</time></trkpt><trkpt lat="43.8395767" lon="12.4636767"><ele>432.99999999999994</ele><time>2026-04-11T14:02:27.928Z</time></trkpt><trkpt lat="43.839575" lon="12.4635617"><ele>432.99999999999994</ele><time>2026-04-11T14:02:28.928Z</time></trkpt><trkpt lat="43.839585" lon="12.4634333"><ele>433.0</ele><time>2026-04-11T14:02:29.928Z</time></trkpt><trkpt lat="43.839595" lon="12.4632933"><ele>433.0</ele><time>2026-04-11T14:02:30.929Z</time></trkpt><trkpt lat="43.8395867" lon="12.4631433"><ele>433.0</ele><time>2026-04-11T14:02:31.929Z</time></trkpt><trkpt lat="43.8395583" lon="12.4629983"><ele>432.99999999999994</ele><time>2026-04-11T14:02:32.929Z</time></trkpt><trkpt lat="43.8395233" lon="12.4628567"><ele>432.99999999999994</ele><time>2026-04-11T14:02:33.929Z</time></trkpt><trkpt lat="43.839505" lon="12.4627283"><ele>433.0</ele><time>2026-04-11T14:02:34.928Z</time></trkpt><trkpt lat="43.839485" lon="12.4626283"><ele>433.0</ele><time>2026-04-11T14:02:35.928Z</time></trkpt><trkpt lat="43.83946" lon="12.4625433"><ele>433.00000000000006</ele><time>2026-04-11T14:02:36.928Z</time></trkpt><trkpt lat="43.8394233" lon="12.4624467"><ele>433.0</ele><time>2026-04-11T14:02:38.928Z</time></trkpt><trkpt lat="43.8393683" lon="12.4623633"><ele>433.0</ele><time>2026-04-11T14:02:40.929Z</time></trkpt><trkpt lat="43.8392867" lon="12.4622467"><ele>433.0</ele><time>2026-04-11T14:02:42.928Z</time></trkpt><trkpt lat="43.839235" lon="12.462165"><ele>433.00000000000006</ele><time>2026-04-11T14:02:43.929Z</time></trkpt><trkpt lat="43.839175" lon="12.4620817"><ele>433.0</ele><time>2026-04-11T14:02:44.929Z</time></trkpt><trkpt lat="43.839125" lon="12.4620067"><ele>431.59999999999997</ele><time>2026-04-11T14:02:45.929Z</time></trkpt><trkpt lat="43.8390633" lon="12.46188"><ele>430.19999999999993</ele><time>2026-04-11T14:02:47.929Z</time></trkpt><trkpt lat="43.8390233" lon="12.4617333"><ele>428.8</ele><time>2026-04-11T14:02:49.928Z</time></trkpt><trkpt lat="43.8390033" lon="12.4615783"><ele>427.4</ele><time>2026-04-11T14:02:51.929Z</time></trkpt><trkpt lat="43.8389917" lon="12.4614883"><ele>426.0</ele><time>2026-04-11T14:02:52.928Z</time></trkpt><trkpt lat="43.8389517" lon="12.4613417"><ele>424.20000000000005</ele><time>2026-04-11T14:02:54.928Z</time></trkpt><trkpt lat="43.8388717" lon="12.4612017"><ele>422.40000000000003</ele><time>2026-04-11T14:02:56.928Z</time></trkpt><trkpt lat="43.83882" lon="12.4610367"><ele>420.6</ele><time>2026-04-11T14:02:58.928Z</time></trkpt><trkpt lat="43.8387917" lon="12.46094"><ele>418.8</ele><time>2026-04-11T14:02:59.928Z</time></trkpt><trkpt lat="43.8387683" lon="12.4608467"><ele>417.0</ele><time>2026-04-11T14:03:00.929Z</time></trkpt><trkpt lat="43.8387483" lon="12.46075"><ele>417.0</ele><time>2026-04-11T14:03:01.928Z</time></trkpt><trkpt lat="43.83873" lon="12.4606483"><ele>417.0</ele><time>2026-04-11T14:03:02.928Z</time></trkpt><trkpt lat="43.838715" lon="12.4605383"><ele>417.0</ele><time>2026-04-11T14:03:03.929Z</time></trkpt><trkpt lat="43.8387117" lon="12.4604183"><ele>417.0</ele><time>2026-04-11T14:03:04.928Z</time></trkpt><trkpt lat="43.8387017" lon="12.460295"><ele>417.0</ele><time>2026-04-11T14:03:05.928Z</time></trkpt><trkpt lat="43.8386817" lon="12.46018"><ele>417.0</ele><time>2026-04-11T14:03:06.929Z</time></trkpt><trkpt lat="43.8386533" lon="12.46007"><ele>415.6666666666667</ele><time>2026-04-11T14:03:07.928Z</time></trkpt><trkpt lat="43.838625" lon="12.4599667"><ele>414.33333333333337</ele><time>2026-04-11T14:03:08.929Z</time></trkpt><trkpt lat="43.8386" lon="12.4598733"><ele>413.0</ele><time>2026-04-11T14:03:09.929Z</time></trkpt><trkpt lat="43.8385783" lon="12.4597433"><ele>411.6666666666667</ele><time>2026-04-11T14:03:11.928Z</time></trkpt><trkpt lat="43.83858" lon="12.459615"><ele>410.33333333333337</ele><time>2026-04-11T14:03:13.928Z</time></trkpt><trkpt lat="43.83858" lon="12.4594767"><ele>409.0</ele><time>2026-04-11T14:03:15.929Z</time></trkpt><trkpt lat="43.8385517" lon="12.4593383"><ele>408.79999999999995</ele><time>2026-04-11T14:03:17.929Z</time></trkpt><trkpt lat="43.8385133" lon="12.4591883"><ele>408.59999999999997</ele><time>2026-04-11T14:03:19.928Z</time></trkpt><trkpt lat="43.838455" lon="12.459045"><ele>408.4</ele><time>2026-04-11T14:03:21.928Z</time></trkpt><trkpt lat="43.8384133" lon="12.458915"><ele>408.2</ele><time>2026-04-11T14:03:23.929Z</time></trkpt><trkpt lat="43.8384" lon="12.4587833"><ele>408.0</ele><time>2026-04-11T14:03:25.929Z</time></trkpt><trkpt lat="43.838405" lon="12.4586283"><ele>407.3333333333333</ele><time>2026-04-11T14:03:27.929Z</time></trkpt><trkpt lat="43.8384017" lon="12.458525"><ele>406.66666666666663</ele><time>2026-04-11T14:03:28.928Z</time></trkpt><trkpt lat="43.8383933" lon="12.4584267"><ele>406.0</ele><time>2026-04-11T14:03:29.928Z</time></trkpt><trkpt lat="43.8383883" lon="12.4583367"><ele>405.3333333333333</ele><time>2026-04-11T14:03:30.928Z</time></trkpt><trkpt lat="43.838405" lon="12.458165"><ele>404.66666666666663</ele><time>2026-04-11T14:03:32.928Z</time></trkpt><trkpt lat="43.8384267" lon="12.4580667"><ele>404.0</ele><time>2026-04-11T14:03:33.929Z</time></trkpt><trkpt lat="43.8384433" lon="12.457975"><ele>402.2</ele><time>2026-04-11T14:03:34.929Z</time></trkpt><trkpt lat="43.83846" lon="12.4578833"><ele>400.4</ele><time>2026-04-11T14:03:35.929Z</time></trkpt><trkpt lat="43.83849" lon="12.457725"><ele>398.6</ele><time>2026-04-11T14:03:37.928Z</time></trkpt><trkpt lat="43.8385167" lon="12.4575467"><ele>396.8</ele><time>2026-04-11T14:03:39.929Z</time></trkpt><trkpt lat="43.8385383" lon="12.4574383"><ele>395.0</ele><time>2026-04-11T14:03:40.928Z</time></trkpt><trkpt lat="43.8385467" lon="12.4573167"><ele>393.99999999999994</ele><time>2026-04-11T14:03:41.929Z</time></trkpt><trkpt lat="43.8385517" lon="12.4571983"><ele>393.0</ele><time>2026-04-11T14:03:42.928Z</time></trkpt><trkpt lat="43.8385433" lon="12.4570817"><ele>392.0</ele><time>2026-04-11T14:03:43.928Z</time></trkpt><trkpt lat="43.8385283" lon="12.4569633"><ele>391.0</ele><time>2026-04-11T14:03:44.928Z</time></trkpt><trkpt lat="43.838505" lon="12.4568517"><ele>389.99999999999994</ele><time>2026-04-11T14:03:45.928Z</time></trkpt><trkpt lat="43.838485" lon="12.45675"><ele>389.0</ele><time>2026-04-11T14:03:46.928Z</time></trkpt><trkpt lat="43.8384667" lon="12.4566483"><ele>388.99999999999994</ele><time>2026-04-11T14:03:47.928Z</time></trkpt><trkpt lat="43.8384567" lon="12.4565467"><ele>389.0</ele><time>2026-04-11T14:03:48.929Z</time></trkpt><trkpt lat="43.8384333" lon="12.4564467"><ele>389.0</ele><time>2026-04-11T14:03:49.929Z</time></trkpt><trkpt lat="43.8383883" lon="12.4563433"><ele>389.0</ele><time>2026-04-11T14:03:50.928Z</time></trkpt><trkpt lat="43.8383383" lon="12.4562333"><ele>388.99999999999994</ele><time>2026-04-11T14:03:51.928Z</time></trkpt><trkpt lat="43.838285" lon="12.4561317"><ele>389.0</ele><time>2026-04-11T14:03:52.928Z</time></trkpt><trkpt lat="43.8382283" lon="12.4560367"><ele>388.0</ele><time>2026-04-11T14:03:53.929Z</time></trkpt><trkpt lat="43.8381817" lon="12.455935"><ele>387.0</ele><time>2026-04-11T14:03:54.929Z</time></trkpt><trkpt lat="43.8381367" lon="12.455825"><ele>386.0</ele><time>2026-04-11T14:03:55.929Z</time></trkpt><trkpt lat="43.8380883" lon="12.45571"><ele>385.0</ele><time>2026-04-11T14:03:56.929Z</time></trkpt><trkpt lat="43.8380367" lon="12.4555983"><ele>384.0</ele><time>2026-04-11T14:03:57.928Z</time></trkpt><trkpt lat="43.837995" lon="12.4554767"><ele>383.0</ele><time>2026-04-11T14:03:58.929Z</time></trkpt><trkpt lat="43.8379517" lon="12.45535"><ele>382.0</ele><time>2026-04-11T14:03:59.929Z</time></trkpt><trkpt lat="43.83791" lon="12.45522"><ele>381.0</ele><time>2026-04-11T14:04:00.928Z</time></trkpt><trkpt lat="43.8378783" lon="12.45508"><ele>380.0</ele><time>2026-04-11T14:04:01.929Z</time></trkpt><trkpt lat="43.8378383" lon="12.4549217"><ele>379.0</ele><time>2026-04-11T14:04:02.928Z</time></trkpt><trkpt lat="43.837785" lon="12.4547667"><ele>379.0</ele><time>2026-04-11T14:04:03.929Z</time></trkpt><trkpt lat="43.8377333" lon="12.4546367"><ele>379.0</ele><time>2026-04-11T14:04:04.929Z</time></trkpt><trkpt lat="43.837695" lon="12.45453"><ele>379.0</ele><time>2026-04-11T14:04:05.929Z</time></trkpt><trkpt lat="43.8376617" lon="12.45444"><ele>379.0</ele><time>2026-04-11T14:04:06.928Z</time></trkpt><trkpt lat="43.83763" lon="12.4543533"><ele>379.0</ele><time>2026-04-11T14:04:07.928Z</time></trkpt><trkpt lat="43.8376017" lon="12.4542733"><ele>379.0</ele><time>2026-04-11T14:04:08.929Z</time></trkpt><trkpt lat="43.83754" lon="12.4541083"><ele>381.66666666666663</ele><time>2026-04-11T14:04:10.928Z</time></trkpt><trkpt lat="43.8375" lon="12.4540133"><ele>384.3333333333333</ele><time>2026-04-11T14:04:11.928Z</time></trkpt><trkpt lat="43.8374517" lon="12.4539167"><ele>387.0</ele><time>2026-04-11T14:04:12.928Z</time></trkpt><trkpt lat="43.8374083" lon="12.4538283"><ele>389.66666666666663</ele><time>2026-04-11T14:04:13.929Z</time></trkpt><trkpt lat="43.8373583" lon="12.4537433"><ele>392.3333333333333</ele><time>2026-04-11T14:04:14.928Z</time></trkpt><trkpt lat="43.8373117" lon="12.45366"><ele>395.0</ele><time>2026-04-11T14:04:15.929Z</time></trkpt><trkpt lat="43.8372783" lon="12.4535667"><ele>395.2</ele><time>2026-04-11T14:04:16.929Z</time></trkpt><trkpt lat="43.8372383" lon="12.4534433"><ele>395.4</ele><time>2026-04-11T14:04:17.929Z</time></trkpt><trkpt lat="43.8371983" lon="12.4532983"><ele>395.6</ele><time>2026-04-11T14:04:18.928Z</time></trkpt><trkpt lat="43.83714" lon="12.4531483"><ele>395.8</ele><time>2026-04-11T14:04:19.928Z</time></trkpt><trkpt lat="43.8370817" lon="12.4530233"><ele>396.0</ele><time>2026-04-11T14:04:20.929Z</time></trkpt><trkpt lat="43.837035" lon="12.4529017"><ele>396.8333333333333</ele><time>2026-04-11T14:04:21.928Z</time></trkpt><trkpt lat="43.837005" lon="12.4528017"><ele>397.66666666666663</ele><time>2026-04-11T14:04:22.928Z</time></trkpt><trkpt lat="43.8369833" lon="12.4527183"><ele>398.5</ele><time>2026-04-11T14:04:23.929Z</time></trkpt><trkpt lat="43.8369767" lon="12.4526083"><ele>399.3333333333333</ele><time>2026-04-11T14:04:24.929Z</time></trkpt><trkpt lat="43.8369817" lon="12.45249"><ele>400.16666666666663</ele><time>2026-04-11T14:04:25.929Z</time></trkpt><trkpt lat="43.83702" lon="12.452335"><ele>401.0</ele><time>2026-04-11T14:04:26.929Z</time></trkpt><trkpt lat="43.8370667" lon="12.4521717"><ele>402.25</ele><time>2026-04-11T14:04:27.928Z</time></trkpt><trkpt lat="43.8370967" lon="12.4520067"><ele>403.5</ele><time>2026-04-11T14:04:28.929Z</time></trkpt><trkpt lat="43.8371233" lon="12.451845"><ele>404.75</ele><time>2026-04-11T14:04:29.928Z</time></trkpt><trkpt lat="43.83715" lon="12.4517017"><ele>406.0</ele><time>2026-04-11T14:04:30.929Z</time></trkpt><trkpt lat="43.83717" lon="12.451565"><ele>406.0</ele><time>2026-04-11T14:04:31.929Z</time></trkpt><trkpt lat="43.8371833" lon="12.4514467"><ele>406.0</ele><time>2026-04-11T14:04:32.928Z</time></trkpt><trkpt lat="43.8371783" lon="12.4513533"><ele>406.0</ele><time>2026-04-11T14:04:33.929Z</time></trkpt><trkpt lat="43.8371167" lon="12.4512567"><ele>406.0</ele><time>2026-04-11T14:04:35.929Z</time></trkpt><trkpt lat="43.83701" lon="12.4512217"><ele>406.0</ele><time>2026-04-11T14:04:37.929Z</time></trkpt><trkpt lat="43.8368967" lon="12.45115"><ele>407.50000000000006</ele><time>2026-04-11T14:04:39.929Z</time></trkpt><trkpt lat="43.8368433" lon="12.4510817"><ele>409.0</ele><time>2026-04-11T14:04:40.929Z</time></trkpt><trkpt lat="43.8367933" lon="12.4510133"><ele>410.5</ele><time>2026-04-11T14:04:41.928Z</time></trkpt><trkpt lat="43.8367433" lon="12.4509317"><ele>412.0</ele><time>2026-04-11T14:04:42.929Z</time></trkpt><trkpt lat="43.8366933" lon="12.4508433"><ele>413.50000000000006</ele><time>2026-04-11T14:04:43.928Z</time></trkpt><trkpt lat="43.8366517" lon="12.450745"><ele>415.0</ele><time>2026-04-11T14:04:44.929Z</time></trkpt><trkpt lat="43.8366183" lon="12.4506367"><ele>415.0</ele><time>2026-04-11T14:04:45.928Z</time></trkpt><trkpt lat="43.8365933" lon="12.4505117"><ele>415.0</ele><time>2026-04-11T14:04:46.928Z</time></trkpt><trkpt lat="43.8365733" lon="12.450385"><ele>415.0</ele><time>2026-04-11T14:04:47.928Z</time></trkpt><trkpt lat="43.83656" lon="12.4502517"><ele>415.0</ele><time>2026-04-11T14:04:48.928Z</time></trkpt><trkpt lat="43.83655" lon="12.450105"><ele>415.0</ele><time>2026-04-11T14:04:49.929Z</time></trkpt><trkpt lat="43.836535" lon="12.4499667"><ele>417.6</ele><time>2026-04-11T14:04:50.929Z</time></trkpt><trkpt lat="43.8365217" lon="12.4498083"><ele>420.2</ele><time>2026-04-11T14:04:51.929Z</time></trkpt><trkpt lat="43.8365083" lon="12.4496667"><ele>422.79999999999995</ele><time>2026-04-11T14:04:52.928Z</time></trkpt><trkpt lat="43.8364967" lon="12.4495283"><ele>425.4</ele><time>2026-04-11T14:04:53.929Z</time></trkpt><trkpt lat="43.836485" lon="12.4494033"><ele>428.0</ele><time>2026-04-11T14:04:54.928Z</time></trkpt><trkpt lat="43.8364583" lon="12.4492833"><ele>429.66666666666663</ele><time>2026-04-11T14:04:55.929Z</time></trkpt><trkpt lat="43.8364283" lon="12.44916"><ele>431.3333333333333</ele><time>2026-04-11T14:04:56.929Z</time></trkpt><trkpt lat="43.8363933" lon="12.44904"><ele>433.0</ele><time>2026-04-11T14:04:57.929Z</time></trkpt><trkpt lat="43.83637" lon="12.448935"><ele>434.66666666666663</ele><time>2026-04-11T14:04:58.929Z</time></trkpt><trkpt lat="43.8363517" lon="12.448845"><ele>436.3333333333333</ele><time>2026-04-11T14:04:59.929Z</time></trkpt><trkpt lat="43.8363433" lon="12.4487517"><ele>438.0</ele><time>2026-04-11T14:05:00.928Z</time></trkpt><trkpt lat="43.8363267" lon="12.4486433"><ele>438.5</ele><time>2026-04-11T14:05:01.929Z</time></trkpt><trkpt lat="43.8363183" lon="12.448535"><ele>439.0</ele><time>2026-04-11T14:05:02.929Z</time></trkpt><trkpt lat="43.8363033" lon="12.448425"><ele>439.5</ele><time>2026-04-11T14:05:03.929Z</time></trkpt><trkpt lat="43.83629" lon="12.4483133"><ele>440.0</ele><time>2026-04-11T14:05:04.929Z</time></trkpt><trkpt lat="43.8362867" lon="12.4482"><ele>440.5</ele><time>2026-04-11T14:05:05.929Z</time></trkpt><trkpt lat="43.8362767" lon="12.448095"><ele>441.0</ele><time>2026-04-11T14:05:06.928Z</time></trkpt><trkpt lat="43.8362783" lon="12.447985"><ele>441.3333333333333</ele><time>2026-04-11T14:05:07.929Z</time></trkpt><trkpt lat="43.8362867" lon="12.4478717"><ele>441.66666666666663</ele><time>2026-04-11T14:05:08.929Z</time></trkpt><trkpt lat="43.83629" lon="12.447755"><ele>442.0</ele><time>2026-04-11T14:05:09.929Z</time></trkpt><trkpt lat="43.8362967" lon="12.4476317"><ele>442.3333333333333</ele><time>2026-04-11T14:05:10.928Z</time></trkpt><trkpt lat="43.8362967" lon="12.4475217"><ele>442.66666666666663</ele><time>2026-04-11T14:05:11.929Z</time></trkpt><trkpt lat="43.8362883" lon="12.4474267"><ele>443.0</ele><time>2026-04-11T14:05:12.928Z</time></trkpt><trkpt lat="43.8362733" lon="12.447335"><ele>442.99999999999994</ele><time>2026-04-11T14:05:13.928Z</time></trkpt><trkpt lat="43.83625" lon="12.4472417"><ele>443.0</ele><time>2026-04-11T14:05:14.929Z</time></trkpt><trkpt lat="43.8362183" lon="12.4471367"><ele>443.0</ele><time>2026-04-11T14:05:15.928Z</time></trkpt><trkpt lat="43.83618" lon="12.4470383"><ele>443.0</ele><time>2026-04-11T14:05:16.929Z</time></trkpt><trkpt lat="43.83614" lon="12.4469283"><ele>442.99999999999994</ele><time>2026-04-11T14:05:17.929Z</time></trkpt><trkpt lat="43.8361" lon="12.4468283"><ele>443.0</ele><time>2026-04-11T14:05:18.928Z</time></trkpt><trkpt lat="43.83605" lon="12.44672"><ele>443.0</ele><time>2026-04-11T14:05:19.928Z</time></trkpt><trkpt lat="43.835995" lon="12.44661"><ele>442.99999999999994</ele><time>2026-04-11T14:05:20.928Z</time></trkpt><trkpt lat="43.8359467" lon="12.4464883"><ele>442.99999999999994</ele><time>2026-04-11T14:05:21.929Z</time></trkpt><trkpt lat="43.835905" lon="12.4463683"><ele>443.0</ele><time>2026-04-11T14:05:22.929Z</time></trkpt><trkpt lat="43.83589" lon="12.4462533"><ele>443.0</ele><time>2026-04-11T14:05:23.929Z</time></trkpt><trkpt lat="43.835895" lon="12.44614"><ele>443.66666666666663</ele><time>2026-04-11T14:05:24.929Z</time></trkpt><trkpt lat="43.8359183" lon="12.4460283"><ele>444.3333333333333</ele><time>2026-04-11T14:05:25.929Z</time></trkpt><trkpt lat="43.8359433" lon="12.44592"><ele>445.0</ele><time>2026-04-11T14:05:26.929Z</time></trkpt><trkpt lat="43.835965" lon="12.4458117"><ele>445.66666666666663</ele><time>2026-04-11T14:05:27.928Z</time></trkpt><trkpt lat="43.8359717" lon="12.4456967"><ele>446.3333333333333</ele><time>2026-04-11T14:05:28.928Z</time></trkpt><trkpt lat="43.8359633" lon="12.4455733"><ele>447.0</ele><time>2026-04-11T14:05:29.929Z</time></trkpt><trkpt lat="43.8359483" lon="12.4454433"><ele>447.6</ele><time>2026-04-11T14:05:30.929Z</time></trkpt><trkpt lat="43.83593" lon="12.44532"><ele>448.20000000000005</ele><time>2026-04-11T14:05:31.928Z</time></trkpt><trkpt lat="43.8358867" lon="12.44521"><ele>448.8</ele><time>2026-04-11T14:05:32.929Z</time></trkpt><trkpt lat="43.8358333" lon="12.445125"><ele>449.4</ele><time>2026-04-11T14:05:33.928Z</time></trkpt><trkpt lat="43.83577" lon="12.44503"><ele>450.0</ele><time>2026-04-11T14:05:34.929Z</time></trkpt><trkpt lat="43.8357033" lon="12.444935"><ele>450.0</ele><time>2026-04-11T14:05:35.928Z</time></trkpt><trkpt lat="43.835645" lon="12.4448183"><ele>450.0</ele><time>2026-04-11T14:05:36.928Z</time></trkpt><trkpt lat="43.83559" lon="12.4447033"><ele>450.0</ele><time>2026-04-11T14:05:37.928Z</time></trkpt><trkpt lat="43.8355417" lon="12.4445933"><ele>450.0</ele><time>2026-04-11T14:05:38.929Z</time></trkpt><trkpt lat="43.8354967" lon="12.44448"><ele>450.0</ele><time>2026-04-11T14:05:39.929Z</time></trkpt><trkpt lat="43.8354567" lon="12.44437"><ele>452.0</ele><time>2026-04-11T14:05:40.928Z</time></trkpt><trkpt lat="43.8354183" lon="12.4442483"><ele>454.0</ele><time>2026-04-11T14:05:41.929Z</time></trkpt><trkpt lat="43.835385" lon="12.4441267"><ele>456.0</ele><time>2026-04-11T14:05:42.929Z</time></trkpt><trkpt lat="43.8353633" lon="12.4440033"><ele>458.0</ele><time>2026-04-11T14:05:43.929Z</time></trkpt><trkpt lat="43.8353467" lon="12.44387"><ele>460.0</ele><time>2026-04-11T14:05:44.929Z</time></trkpt><trkpt lat="43.8353417" lon="12.44375"><ele>461.6</ele><time>2026-04-11T14:05:45.928Z</time></trkpt><trkpt lat="43.83535" lon="12.4436433"><ele>463.2</ele><time>2026-04-11T14:05:46.929Z</time></trkpt><trkpt lat="43.835365" lon="12.4435367"><ele>464.79999999999995</ele><time>2026-04-11T14:05:47.928Z</time></trkpt><trkpt lat="43.8353683" lon="12.4434167"><ele>466.4</ele><time>2026-04-11T14:05:48.928Z</time></trkpt><trkpt lat="43.8353533" lon="12.4432817"><ele>468.0</ele><time>2026-04-11T14:05:49.929Z</time></trkpt><trkpt lat="43.83532" lon="12.44313"><ele>469.4</ele><time>2026-04-11T14:05:50.928Z</time></trkpt><trkpt lat="43.8352867" lon="12.4429633"><ele>470.79999999999995</ele><time>2026-04-11T14:05:51.929Z</time></trkpt><trkpt lat="43.8352617" lon="12.4428133"><ele>472.2</ele><time>2026-04-11T14:05:52.928Z</time></trkpt><trkpt lat="43.8352667" lon="12.4427233"><ele>473.6</ele><time>2026-04-11T14:05:53.929Z</time></trkpt><trkpt lat="43.8352833" lon="12.4426117"><ele>475.0</ele><time>2026-04-11T14:05:55.929Z</time></trkpt><trkpt lat="43.83529" lon="12.442465"><ele>475.00000000000006</ele><time>2026-04-11T14:05:57.929Z</time></trkpt><trkpt lat="43.83528" lon="12.4423517"><ele>475.0</ele><time>2026-04-11T14:05:58.929Z</time></trkpt><trkpt lat="43.8352583" lon="12.44225"><ele>475.0</ele><time>2026-04-11T14:05:59.928Z</time></trkpt><trkpt lat="43.835215" lon="12.44215"><ele>475.0</ele><time>2026-04-11T14:06:00.929Z</time></trkpt><trkpt lat="43.8351667" lon="12.4420567"><ele>475.00000000000006</ele><time>2026-04-11T14:06:01.928Z</time></trkpt><trkpt lat="43.8351167" lon="12.44197"><ele>475.0</ele><time>2026-04-11T14:06:02.929Z</time></trkpt><trkpt lat="43.8350717" lon="12.4418167"><ele>477.50000000000006</ele><time>2026-04-11T14:06:04.929Z</time></trkpt><trkpt lat="43.8350517" lon="12.441725"><ele>480.0</ele><time>2026-04-11T14:06:05.928Z</time></trkpt><trkpt lat="43.8350117" lon="12.4416267"><ele>482.5</ele><time>2026-04-11T14:06:06.929Z</time></trkpt><trkpt lat="43.83495" lon="12.4415283"><ele>485.0</ele><time>2026-04-11T14:06:07.929Z</time></trkpt><trkpt lat="43.8348783" lon="12.44144"><ele>487.50000000000006</ele><time>2026-04-11T14:06:08.929Z</time></trkpt><trkpt lat="43.8348" lon="12.4413533"><ele>490.0</ele><time>2026-04-11T14:06:09.929Z</time></trkpt><trkpt lat="43.834725" lon="12.4412717"><ele>490.0</ele><time>2026-04-11T14:06:10.928Z</time></trkpt><trkpt lat="43.8346633" lon="12.441175"><ele>490.0</ele><time>2026-04-11T14:06:11.929Z</time></trkpt><trkpt lat="43.8346067" lon="12.4410683"><ele>490.0</ele><time>2026-04-11T14:06:12.928Z</time></trkpt><trkpt lat="43.834545" lon="12.4409733"><ele>490.0</ele><time>2026-04-11T14:06:13.928Z</time></trkpt><trkpt lat="43.8344817" lon="12.4408933"><ele>490.0</ele><time>2026-04-11T14:06:14.929Z</time></trkpt><trkpt lat="43.8344133" lon="12.44082"><ele>490.0</ele><time>2026-04-11T14:06:15.929Z</time></trkpt><trkpt lat="43.8343217" lon="12.4407417"><ele>490.0</ele><time>2026-04-11T14:06:16.928Z</time></trkpt><trkpt lat="43.83424" lon="12.4406633"><ele>490.0</ele><time>2026-04-11T14:06:17.928Z</time></trkpt><trkpt lat="43.8341567" lon="12.4405667"><ele>490.0</ele><time>2026-04-11T14:06:18.928Z</time></trkpt><trkpt lat="43.834065" lon="12.440455"><ele>490.0</ele><time>2026-04-11T14:06:19.928Z</time></trkpt><trkpt lat="43.8339833" lon="12.4403483"><ele>493.2</ele><time>2026-04-11T14:06:20.928Z</time></trkpt><trkpt lat="43.8339183" lon="12.44025"><ele>496.4</ele><time>2026-04-11T14:06:21.927Z</time></trkpt><trkpt lat="43.8338683" lon="12.44016"><ele>499.6</ele><time>2026-04-11T14:06:22.927Z</time></trkpt><trkpt lat="43.8338367" lon="12.44004"><ele>502.8</ele><time>2026-04-11T14:06:23.928Z</time></trkpt><trkpt lat="43.83381" lon="12.4399033"><ele>506.0</ele><time>2026-04-11T14:06:24.927Z</time></trkpt><trkpt lat="43.8337733" lon="12.4397567"><ele>508.8</ele><time>2026-04-11T14:06:25.928Z</time></trkpt><trkpt lat="43.8337267" lon="12.4396267"><ele>511.6</ele><time>2026-04-11T14:06:26.927Z</time></trkpt><trkpt lat="43.8336717" lon="12.4395083"><ele>514.4</ele><time>2026-04-11T14:06:27.927Z</time></trkpt><trkpt lat="43.8336133" lon="12.4393967"><ele>517.2</ele><time>2026-04-11T14:06:28.927Z</time></trkpt><trkpt lat="43.83358" lon="12.4392917"><ele>520.0</ele><time>2026-04-11T14:06:29.927Z</time></trkpt><trkpt lat="43.83358" lon="12.4392"><ele>520.0</ele><time>2026-04-11T14:06:30.928Z</time></trkpt><trkpt lat="43.833695" lon="12.4390833"><ele>520.0</ele><time>2026-04-11T14:06:32.927Z</time></trkpt><trkpt lat="43.83376" lon="12.4390033"><ele>520.0</ele><time>2026-04-11T14:06:33.927Z</time></trkpt><trkpt lat="43.8338117" lon="12.4389117"><ele>520.0</ele><time>2026-04-11T14:06:34.928Z</time></trkpt><trkpt lat="43.8338467" lon="12.43881"><ele>520.0</ele><time>2026-04-11T14:06:35.927Z</time></trkpt><trkpt lat="43.8338683" lon="12.4386967"><ele>521.0</ele><time>2026-04-11T14:06:36.928Z</time></trkpt><trkpt lat="43.8338817" lon="12.4385733"><ele>522.0</ele><time>2026-04-11T14:06:37.928Z</time></trkpt><trkpt lat="43.8338833" lon="12.43846"><ele>523.0</ele><time>2026-04-11T14:06:38.928Z</time></trkpt><trkpt lat="43.83386" lon="12.4383667"><ele>524.0</ele><time>2026-04-11T14:06:39.928Z</time></trkpt><trkpt lat="43.83382" lon="12.438285"><ele>525.0</ele><time>2026-04-11T14:06:40.928Z</time></trkpt><trkpt lat="43.83376" lon="12.4382033"><ele>526.0</ele><time>2026-04-11T14:06:41.928Z</time></trkpt><trkpt lat="43.8336917" lon="12.4381283"><ele>526.0</ele><time>2026-04-11T14:06:42.927Z</time></trkpt><trkpt lat="43.8336083" lon="12.4380417"><ele>526.0</ele><time>2026-04-11T14:06:43.927Z</time></trkpt><trkpt lat="43.833515" lon="12.43795"><ele>526.0</ele><time>2026-04-11T14:06:44.928Z</time></trkpt><trkpt lat="43.8334233" lon="12.4378567"><ele>526.0</ele><time>2026-04-11T14:06:45.928Z</time></trkpt><trkpt lat="43.8333567" lon="12.4377767"><ele>526.0</ele><time>2026-04-11T14:06:46.927Z</time></trkpt><trkpt lat="43.8332983" lon="12.437715"><ele>528.8333333333334</ele><time>2026-04-11T14:06:47.928Z</time></trkpt><trkpt lat="43.83324" lon="12.4376533"><ele>531.6666666666667</ele><time>2026-04-11T14:06:48.928Z</time></trkpt><trkpt lat="43.83319" lon="12.4375983"><ele>534.5</ele><time>2026-04-11T14:06:49.928Z</time></trkpt><trkpt lat="43.83309" lon="12.4375183"><ele>537.3333333333334</ele><time>2026-04-11T14:06:51.928Z</time></trkpt><trkpt lat="43.8330317" lon="12.4374733"><ele>540.1666666666666</ele><time>2026-04-11T14:06:52.927Z</time></trkpt><trkpt lat="43.8329733" lon="12.4374133"><ele>543.0</ele><time>2026-04-11T14:06:53.928Z</time></trkpt><trkpt lat="43.8329233" lon="12.43735"><ele>543.0</ele><time>2026-04-11T14:06:54.928Z</time></trkpt><trkpt lat="43.8328733" lon="12.4372783"><ele>543.0</ele><time>2026-04-11T14:06:55.928Z</time></trkpt><trkpt lat="43.83282" lon="12.4372"><ele>543.0</ele><time>2026-04-11T14:06:56.928Z</time></trkpt><trkpt lat="43.8327583" lon="12.4371233"><ele>543.0</ele><time>2026-04-11T14:06:57.928Z</time></trkpt><trkpt lat="43.8326917" lon="12.4370533"><ele>543.0</ele><time>2026-04-11T14:06:58.927Z</time></trkpt><trkpt lat="43.8326233" lon="12.4369867"><ele>543.0</ele><time>2026-04-11T14:06:59.927Z</time></trkpt><trkpt lat="43.832555" lon="12.4369317"><ele>545.3333333333334</ele><time>2026-04-11T14:07:00.928Z</time></trkpt><trkpt lat="43.8324933" lon="12.4368817"><ele>547.6666666666666</ele><time>2026-04-11T14:07:01.928Z</time></trkpt><trkpt lat="43.8324417" lon="12.4368283"><ele>550.0</ele><time>2026-04-11T14:07:02.928Z</time></trkpt><trkpt lat="43.8323933" lon="12.4367317"><ele>552.3333333333333</ele><time>2026-04-11T14:07:03.928Z</time></trkpt><trkpt lat="43.83235" lon="12.43661"><ele>554.6666666666666</ele><time>2026-04-11T14:07:04.927Z</time></trkpt><trkpt lat="43.8323033" lon="12.4364717"><ele>557.0</ele><time>2026-04-11T14:07:05.927Z</time></trkpt><trkpt lat="43.83226" lon="12.4363383"><ele>557.6</ele><time>2026-04-11T14:07:06.928Z</time></trkpt><trkpt lat="43.83222" lon="12.436215"><ele>558.2</ele><time>2026-04-11T14:07:07.928Z</time></trkpt><trkpt lat="43.8321933" lon="12.4360917"><ele>558.8</ele><time>2026-04-11T14:07:08.928Z</time></trkpt><trkpt lat="43.8321667" lon="12.4359517"><ele>559.4</ele><time>2026-04-11T14:07:09.928Z</time></trkpt><trkpt lat="43.8321433" lon="12.435795"><ele>560.0</ele><time>2026-04-11T14:07:10.927Z</time></trkpt><trkpt lat="43.8321167" lon="12.4356417"><ele>560.0</ele><time>2026-04-11T14:07:11.927Z</time></trkpt><trkpt lat="43.8320867" lon="12.4355083"><ele>560.0</ele><time>2026-04-11T14:07:12.928Z</time></trkpt><trkpt lat="43.8320583" lon="12.4353983"><ele>560.0</ele><time>2026-04-11T14:07:13.928Z</time></trkpt><trkpt lat="43.8320183" lon="12.4353233"><ele>560.0</ele><time>2026-04-11T14:07:14.927Z</time></trkpt><trkpt lat="43.8319617" lon="12.435255"><ele>560.0</ele><time>2026-04-11T14:07:15.928Z</time></trkpt><trkpt lat="43.8318833" lon="12.43519"><ele>560.0</ele><time>2026-04-11T14:07:16.927Z</time></trkpt><trkpt lat="43.831785" lon="12.4351267"><ele>560.75</ele><time>2026-04-11T14:07:17.928Z</time></trkpt><trkpt lat="43.8316717" lon="12.4350533"><ele>561.5</ele><time>2026-04-11T14:07:18.927Z</time></trkpt><trkpt lat="43.8315517" lon="12.4349867"><ele>562.25</ele><time>2026-04-11T14:07:19.928Z</time></trkpt><trkpt lat="43.8314317" lon="12.4349167"><ele>563.0</ele><time>2026-04-11T14:07:20.928Z</time></trkpt><trkpt lat="43.8313067" lon="12.4348333"><ele>563.0</ele><time>2026-04-11T14:07:21.928Z</time></trkpt><trkpt lat="43.8312017" lon="12.4347383"><ele>563.0</ele><time>2026-04-11T14:07:22.928Z</time></trkpt><trkpt lat="43.8311083" lon="12.43463"><ele>563.0</ele><time>2026-04-11T14:07:23.927Z</time></trkpt><trkpt lat="43.831025" lon="12.4345117"><ele>563.0</ele><time>2026-04-11T14:07:24.928Z</time></trkpt><trkpt lat="43.8309367" lon="12.434395"><ele>566.75</ele><time>2026-04-11T14:07:25.928Z</time></trkpt><trkpt lat="43.830845" lon="12.4342833"><ele>570.5</ele><time>2026-04-11T14:07:26.928Z</time></trkpt><trkpt lat="43.83075" lon="12.4341817"><ele>574.25</ele><time>2026-04-11T14:07:27.928Z</time></trkpt><trkpt lat="43.8306583" lon="12.43408"><ele>578.0</ele><time>2026-04-11T14:07:28.927Z</time></trkpt><trkpt lat="43.83057" lon="12.4339833"><ele>578.0</ele><time>2026-04-11T14:07:29.927Z</time></trkpt><trkpt lat="43.8305" lon="12.4339167"><ele>578.0</ele><time>2026-04-11T14:07:30.928Z</time></trkpt><trkpt lat="43.830415" lon="12.4338833"><ele>578.0</ele><time>2026-04-11T14:07:32.928Z</time></trkpt><trkpt lat="43.8303683" lon="12.4340183"><ele>578.0</ele><time>2026-04-11T14:07:54.927Z</time></trkpt><trkpt lat="43.8302933" lon="12.4341467"><ele>578.0</ele><time>2026-04-11T14:07:56.928Z</time></trkpt><trkpt lat="43.8301983" lon="12.4342083"><ele>579.4</ele><time>2026-04-11T14:07:58.927Z</time></trkpt><trkpt lat="43.8300917" lon="12.434205"><ele>580.8</ele><time>2026-04-11T14:08:00.928Z</time></trkpt><trkpt lat="43.8299867" lon="12.4340967"><ele>582.2</ele><time>2026-04-11T14:08:02.927Z</time></trkpt><trkpt lat="43.829935" lon="12.433995"><ele>583.6</ele><time>2026-04-11T14:08:03.928Z</time></trkpt><trkpt lat="43.8298883" lon="12.4338917"><ele>585.0</ele><time>2026-04-11T14:08:04.928Z</time></trkpt><trkpt lat="43.8298483" lon="12.4337617"><ele>584.6</ele><time>2026-04-11T14:08:06.928Z</time></trkpt><trkpt lat="43.829915" lon="12.4336867"><ele>584.2</ele><time>2026-04-11T14:08:09.927Z</time></trkpt><trkpt lat="43.830035" lon="12.4336433"><ele>583.8</ele><time>2026-04-11T14:08:11.927Z</time></trkpt><trkpt lat="43.830095" lon="12.433575"><ele>583.4</ele><time>2026-04-11T14:08:12.928Z</time></trkpt><trkpt lat="43.8301517" lon="12.43347"><ele>583.0</ele><time>2026-04-11T14:08:13.927Z</time></trkpt><trkpt lat="43.83019" lon="12.4333317"><ele>583.0</ele><time>2026-04-11T14:08:14.928Z</time></trkpt><trkpt lat="43.8301867" lon="12.4331633"><ele>583.0</ele><time>2026-04-11T14:08:15.927Z</time></trkpt><trkpt lat="43.83017" lon="12.433"><ele>583.0</ele><time>2026-04-11T14:08:16.928Z</time></trkpt><trkpt lat="43.830155" lon="12.43283"><ele>583.0</ele><time>2026-04-11T14:08:17.927Z</time></trkpt><trkpt lat="43.8301367" lon="12.4326617"><ele>585.75</ele><time>2026-04-11T14:08:18.928Z</time></trkpt><trkpt lat="43.8301233" lon="12.4325"><ele>588.5</ele><time>2026-04-11T14:08:19.927Z</time></trkpt><trkpt lat="43.8301117" lon="12.4323333"><ele>591.25</ele><time>2026-04-11T14:08:20.927Z</time></trkpt><trkpt lat="43.8301" lon="12.432165"><ele>594.0</ele><time>2026-04-11T14:08:21.928Z</time></trkpt><trkpt lat="43.8301" lon="12.432005"><ele>593.75</ele><time>2026-04-11T14:08:22.927Z</time></trkpt><trkpt lat="43.8301183" lon="12.4318467"><ele>593.5</ele><time>2026-04-11T14:08:23.928Z</time></trkpt><trkpt lat="43.830145" lon="12.4316733"><ele>593.25</ele><time>2026-04-11T14:08:24.927Z</time></trkpt><trkpt lat="43.8301817" lon="12.4315033"><ele>593.0</ele><time>2026-04-11T14:08:25.928Z</time></trkpt><trkpt lat="43.8302133" lon="12.4313283"><ele>593.75</ele><time>2026-04-11T14:08:26.927Z</time></trkpt><trkpt lat="43.83025" lon="12.4311367"><ele>594.5</ele><time>2026-04-11T14:08:27.928Z</time></trkpt><trkpt lat="43.8302833" lon="12.4309567"><ele>595.25</ele><time>2026-04-11T14:08:28.927Z</time></trkpt><trkpt lat="43.8303183" lon="12.4307667"><ele>596.0</ele><time>2026-04-11T14:08:29.928Z</time></trkpt><trkpt lat="43.83035" lon="12.430575"><ele>597.0</ele><time>2026-04-11T14:08:30.927Z</time></trkpt><trkpt lat="43.83037" lon="12.4303833"><ele>598.0</ele><time>2026-04-11T14:08:31.928Z</time></trkpt><trkpt lat="43.8303783" lon="12.4302017"><ele>599.0</ele><time>2026-04-11T14:08:32.928Z</time></trkpt><trkpt lat="43.8303633" lon="12.4300233"><ele>600.0</ele><time>2026-04-11T14:08:33.928Z</time></trkpt><trkpt lat="43.8303383" lon="12.42984"><ele>600.0</ele><time>2026-04-11T14:08:34.928Z</time></trkpt><trkpt lat="43.8303" lon="12.4296567"><ele>600.0</ele><time>2026-04-11T14:08:35.927Z</time></trkpt><trkpt lat="43.8302633" lon="12.4294667"><ele>600.0</ele><time>2026-04-11T14:08:36.928Z</time></trkpt><trkpt lat="43.8302367" lon="12.42928"><ele>600.0</ele><time>2026-04-11T14:08:37.928Z</time></trkpt><trkpt lat="43.8302217" lon="12.42911"><ele>600.5</ele><time>2026-04-11T14:08:38.927Z</time></trkpt><trkpt lat="43.830215" lon="12.4289633"><ele>601.0</ele><time>2026-04-11T14:08:39.927Z</time></trkpt><trkpt lat="43.8302183" lon="12.4288467"><ele>601.5</ele><time>2026-04-11T14:08:40.927Z</time></trkpt><trkpt lat="43.8302217" lon="12.4287567"><ele>602.0</ele><time>2026-04-11T14:08:41.928Z</time></trkpt><trkpt lat="43.8301967" lon="12.428655"><ele>602.5</ele><time>2026-04-11T14:08:43.928Z</time></trkpt><trkpt lat="43.8301" lon="12.428615"><ele>603.0</ele><time>2026-04-11T14:08:45.927Z</time></trkpt><trkpt lat="43.83004" lon="12.4285883"><ele>606.1666666666666</ele><time>2026-04-11T14:08:46.928Z</time></trkpt><trkpt lat="43.82993" lon="12.4285117"><ele>609.3333333333334</ele><time>2026-04-11T14:08:48.928Z</time></trkpt><trkpt lat="43.82987" lon="12.4284567"><ele>612.5</ele><time>2026-04-11T14:08:49.928Z</time></trkpt><trkpt lat="43.8298033" lon="12.42839"><ele>615.6666666666667</ele><time>2026-04-11T14:08:50.928Z</time></trkpt><trkpt lat="43.8297417" lon="12.4283167"><ele>618.8333333333334</ele><time>2026-04-11T14:08:51.927Z</time></trkpt><trkpt lat="43.8296733" lon="12.428245"><ele>622.0</ele><time>2026-04-11T14:08:52.928Z</time></trkpt><trkpt lat="43.829605" lon="12.4281817"><ele>622.0</ele><time>2026-04-11T14:08:53.928Z</time></trkpt><trkpt lat="43.8295417" lon="12.4281133"><ele>622.0</ele><time>2026-04-11T14:08:54.928Z</time></trkpt><trkpt lat="43.8294883" lon="12.4280383"><ele>622.0</ele><time>2026-04-11T14:08:55.928Z</time></trkpt><trkpt lat="43.8294417" lon="12.4279333"><ele>622.0</ele><time>2026-04-11T14:08:56.927Z</time></trkpt><trkpt lat="43.8293917" lon="12.4278117"><ele>622.0</ele><time>2026-04-11T14:08:57.927Z</time></trkpt><trkpt lat="43.8293467" lon="12.42769"><ele>622.0</ele><time>2026-04-11T14:08:58.928Z</time></trkpt><trkpt lat="43.8293033" lon="12.42756"><ele>623.2</ele><time>2026-04-11T14:08:59.928Z</time></trkpt><trkpt lat="43.8292667" lon="12.4274267"><ele>624.4000000000001</ele><time>2026-04-11T14:09:00.928Z</time></trkpt><trkpt lat="43.8292317" lon="12.427275"><ele>625.5999999999999</ele><time>2026-04-11T14:09:01.928Z</time></trkpt><trkpt lat="43.829195" lon="12.42712"><ele>626.8</ele><time>2026-04-11T14:09:02.928Z</time></trkpt><trkpt lat="43.82916" lon="12.4269917"><ele>628.0</ele><time>2026-04-11T14:09:03.928Z</time></trkpt><trkpt lat="43.8291267" lon="12.42687"><ele>630.8</ele><time>2026-04-11T14:09:04.927Z</time></trkpt><trkpt lat="43.829095" lon="12.4267367"><ele>633.5999999999999</ele><time>2026-04-11T14:09:05.928Z</time></trkpt><trkpt lat="43.8290633" lon="12.4266033"><ele>636.4000000000001</ele><time>2026-04-11T14:09:06.927Z</time></trkpt><trkpt lat="43.82902" lon="12.4264717"><ele>639.2</ele><time>2026-04-11T14:09:07.928Z</time></trkpt><trkpt lat="43.82898" lon="12.4263417"><ele>642.0</ele><time>2026-04-11T14:09:08.928Z</time></trkpt><trkpt lat="43.8289283" lon="12.4262333"><ele>645.5</ele><time>2026-04-11T14:09:09.928Z</time></trkpt><trkpt lat="43.828875" lon="12.4261333"><ele>649.0</ele><time>2026-04-11T14:09:10.927Z</time></trkpt><trkpt lat="43.828825" lon="12.4260467"><ele>652.5</ele><time>2026-04-11T14:09:11.928Z</time></trkpt><trkpt lat="43.8287817" lon="12.425965"><ele>656.0</ele><time>2026-04-11T14:09:12.927Z</time></trkpt><trkpt lat="43.8287433" lon="12.4258783"><ele>659.5</ele><time>2026-04-11T14:09:13.928Z</time></trkpt><trkpt lat="43.8286583" lon="12.425755"><ele>663.0</ele><time>2026-04-11T14:09:15.928Z</time></trkpt><trkpt lat="43.8286033" lon="12.4256883"><ele>663.0</ele><time>2026-04-11T14:09:16.927Z</time></trkpt><trkpt lat="43.828545" lon="12.425615"><ele>663.0</ele><time>2026-04-11T14:09:17.928Z</time></trkpt><trkpt lat="43.8284767" lon="12.4255433"><ele>663.0</ele><time>2026-04-11T14:09:18.928Z</time></trkpt><trkpt lat="43.8284033" lon="12.4254867"><ele>663.0</ele><time>2026-04-11T14:09:19.927Z</time></trkpt><trkpt lat="43.828315" lon="12.4254367"><ele>663.0</ele><time>2026-04-11T14:09:20.927Z</time></trkpt><trkpt lat="43.8282067" lon="12.4254033"><ele>663.0</ele><time>2026-04-11T14:09:21.928Z</time></trkpt><trkpt lat="43.8280917" lon="12.4253833"><ele>663.0</ele><time>2026-04-11T14:09:22.927Z</time></trkpt><trkpt lat="43.8279717" lon="12.4253733"><ele>663.0</ele><time>2026-04-11T14:09:23.928Z</time></trkpt><trkpt lat="43.827855" lon="12.4253917"><ele>663.0</ele><time>2026-04-11T14:09:24.928Z</time></trkpt><trkpt lat="43.8277483" lon="12.4254233"><ele>663.0</ele><time>2026-04-11T14:09:25.927Z</time></trkpt><trkpt lat="43.827655" lon="12.42546"><ele>663.0</ele><time>2026-04-11T14:09:26.927Z</time></trkpt><trkpt lat="43.8275817" lon="12.42546"><ele>663.0</ele><time>2026-04-11T14:09:27.927Z</time></trkpt><trkpt lat="43.8274917" lon="12.4254183"><ele>663.0</ele><time>2026-04-11T14:09:28.927Z</time></trkpt><trkpt lat="43.8273967" lon="12.42536"><ele>663.0</ele><time>2026-04-11T14:09:29.927Z</time></trkpt><trkpt lat="43.827295" lon="12.4253033"><ele>661.5</ele><time>2026-04-11T14:09:30.927Z</time></trkpt><trkpt lat="43.8271867" lon="12.4252267"><ele>660.0</ele><time>2026-04-11T14:09:31.927Z</time></trkpt><trkpt lat="43.827085" lon="12.4251433"><ele>658.5</ele><time>2026-04-11T14:09:32.928Z</time></trkpt><trkpt lat="43.8269833" lon="12.4250583"><ele>657.0</ele><time>2026-04-11T14:09:33.928Z</time></trkpt><trkpt lat="43.8268817" lon="12.4249633"><ele>654.25</ele><time>2026-04-11T14:09:34.928Z</time></trkpt><trkpt lat="43.8267717" lon="12.4248833"><ele>651.5</ele><time>2026-04-11T14:09:35.928Z</time></trkpt><trkpt lat="43.8266667" lon="12.4248283"><ele>648.75</ele><time>2026-04-11T14:09:36.928Z</time></trkpt><trkpt lat="43.8265533" lon="12.42479"><ele>646.0</ele><time>2026-04-11T14:09:37.928Z</time></trkpt><trkpt lat="43.8264317" lon="12.4247533"><ele>646.0</ele><time>2026-04-11T14:09:38.928Z</time></trkpt><trkpt lat="43.826305" lon="12.42474"><ele>646.0</ele><time>2026-04-11T14:09:39.927Z</time></trkpt><trkpt lat="43.82618" lon="12.4247417"><ele>646.0</ele><time>2026-04-11T14:09:40.927Z</time></trkpt><trkpt lat="43.8260617" lon="12.4247467"><ele>646.0</ele><time>2026-04-11T14:09:41.927Z</time></trkpt><trkpt lat="43.8259617" lon="12.42474"><ele>645.0</ele><time>2026-04-11T14:09:42.927Z</time></trkpt><trkpt lat="43.825885" lon="12.4246883"><ele>644.0</ele><time>2026-04-11T14:09:43.928Z</time></trkpt><trkpt lat="43.8258233" lon="12.4246067"><ele>643.0</ele><time>2026-04-11T14:09:44.928Z</time></trkpt><trkpt lat="43.8257833" lon="12.4245083"><ele>642.0</ele><time>2026-04-11T14:09:45.928Z</time></trkpt><trkpt lat="43.8257517" lon="12.4244"><ele>641.0</ele><time>2026-04-11T14:09:46.927Z</time></trkpt><trkpt lat="43.8257117" lon="12.4242717"><ele>640.0</ele><time>2026-04-11T14:09:47.928Z</time></trkpt><trkpt lat="43.8256817" lon="12.4241417"><ele>644.0</ele><time>2026-04-11T14:09:48.927Z</time></trkpt><trkpt lat="43.8256467" lon="12.4239983"><ele>648.0</ele><time>2026-04-11T14:09:49.928Z</time></trkpt><trkpt lat="43.8256133" lon="12.4238467"><ele>652.0</ele><time>2026-04-11T14:09:50.928Z</time></trkpt><trkpt lat="43.8255667" lon="12.423695"><ele>656.0</ele><time>2026-04-11T14:09:51.928Z</time></trkpt><trkpt lat="43.8255117" lon="12.4235617"><ele>655.5999999999999</ele><time>2026-04-11T14:09:52.928Z</time></trkpt><trkpt lat="43.8254383" lon="12.4234483"><ele>655.2</ele><time>2026-04-11T14:09:53.928Z</time></trkpt><trkpt lat="43.8253567" lon="12.42336"><ele>654.8</ele><time>2026-04-11T14:09:54.928Z</time></trkpt><trkpt lat="43.8252733" lon="12.4232667"><ele>654.4000000000001</ele><time>2026-04-11T14:09:55.927Z</time></trkpt><trkpt lat="43.8251817" lon="12.4231617"><ele>654.0</ele><time>2026-04-11T14:09:56.928Z</time></trkpt><trkpt lat="43.8250817" lon="12.4230567"><ele>657.0</ele><time>2026-04-11T14:09:57.927Z</time></trkpt><trkpt lat="43.8249767" lon="12.422955"><ele>660.0</ele><time>2026-04-11T14:09:58.928Z</time></trkpt><trkpt lat="43.824865" lon="12.4228667"><ele>663.0</ele><time>2026-04-11T14:09:59.928Z</time></trkpt><trkpt lat="43.8247617" lon="12.4228083"><ele>666.0</ele><time>2026-04-11T14:10:00.927Z</time></trkpt><trkpt lat="43.824645" lon="12.4227667"><ele>666.0</ele><time>2026-04-11T14:10:01.927Z</time></trkpt><trkpt lat="43.8245217" lon="12.4227333"><ele>666.0</ele><time>2026-04-11T14:10:02.927Z</time></trkpt><trkpt lat="43.824385" lon="12.422705"><ele>666.0</ele><time>2026-04-11T14:10:03.928Z</time></trkpt><trkpt lat="43.824245" lon="12.42267"><ele>666.0</ele><time>2026-04-11T14:10:04.928Z</time></trkpt><trkpt lat="43.8241017" lon="12.422625"><ele>664.25</ele><time>2026-04-11T14:10:05.928Z</time></trkpt><trkpt lat="43.8239517" lon="12.42257"><ele>662.5</ele><time>2026-04-11T14:10:06.927Z</time></trkpt><trkpt lat="43.8238283" lon="12.422545"><ele>660.75</ele><time>2026-04-11T14:10:07.927Z</time></trkpt><trkpt lat="43.823725" lon="12.4225267"><ele>659.0</ele><time>2026-04-11T14:10:08.928Z</time></trkpt><trkpt lat="43.8236383" lon="12.4224883"><ele>659.0</ele><time>2026-04-11T14:10:09.928Z</time></trkpt><trkpt lat="43.82358" lon="12.4223567"><ele>659.0</ele><time>2026-04-11T14:10:11.928Z</time></trkpt><trkpt lat="43.8235767" lon="12.4222533"><ele>659.0</ele><time>2026-04-11T14:10:12.927Z</time></trkpt><trkpt lat="43.8235883" lon="12.42212"><ele>659.0</ele><time>2026-04-11T14:10:13.928Z</time></trkpt><trkpt lat="43.8235967" lon="12.4219783"><ele>659.0</ele><time>2026-04-11T14:10:14.927Z</time></trkpt><trkpt lat="43.8236117" lon="12.42183"><ele>661.2</ele><time>2026-04-11T14:10:15.927Z</time></trkpt><trkpt lat="43.823635" lon="12.4216833"><ele>663.4000000000001</ele><time>2026-04-11T14:10:16.928Z</time></trkpt><trkpt lat="43.8236683" lon="12.4215483"><ele>665.6</ele><time>2026-04-11T14:10:17.927Z</time></trkpt><trkpt lat="43.8237233" lon="12.4214033"><ele>667.8</ele><time>2026-04-11T14:10:18.928Z</time></trkpt><trkpt lat="43.8237967" lon="12.421275"><ele>670.0</ele><time>2026-04-11T14:10:19.927Z</time></trkpt><trkpt lat="43.823875" lon="12.42113"><ele>672.25</ele><time>2026-04-11T14:10:20.927Z</time></trkpt><trkpt lat="43.8239483" lon="12.4209767"><ele>674.5</ele><time>2026-04-11T14:10:21.927Z</time></trkpt><trkpt lat="43.824025" lon="12.4208167"><ele>676.75</ele><time>2026-04-11T14:10:22.927Z</time></trkpt><trkpt lat="43.8240817" lon="12.4206467"><ele>679.0</ele><time>2026-04-11T14:10:23.927Z</time></trkpt><trkpt lat="43.8241283" lon="12.42049"><ele>678.0</ele><time>2026-04-11T14:10:24.927Z</time></trkpt><trkpt lat="43.8241683" lon="12.4203433"><ele>677.0</ele><time>2026-04-11T14:10:25.927Z</time></trkpt><trkpt lat="43.82421" lon="12.420175"><ele>676.0</ele><time>2026-04-11T14:10:26.928Z</time></trkpt><trkpt lat="43.8242533" lon="12.419995"><ele>675.0</ele><time>2026-04-11T14:10:27.928Z</time></trkpt><trkpt lat="43.824295" lon="12.419805"><ele>681.0</ele><time>2026-04-11T14:10:28.927Z</time></trkpt><trkpt lat="43.824345" lon="12.419615"><ele>687.0</ele><time>2026-04-11T14:10:29.927Z</time></trkpt><trkpt lat="43.8244117" lon="12.4194217"><ele>693.0</ele><time>2026-04-11T14:10:30.927Z</time></trkpt><trkpt lat="43.8244783" lon="12.4192117"><ele>693.0</ele><time>2026-04-11T14:10:31.928Z</time></trkpt><trkpt lat="43.8245367" lon="12.4190133"><ele>693.0</ele><time>2026-04-11T14:10:32.928Z</time></trkpt><trkpt lat="43.8245767" lon="12.4188283"><ele>693.0</ele><time>2026-04-11T14:10:33.928Z</time></trkpt><trkpt lat="43.8246117" lon="12.4186683"><ele>693.0</ele><time>2026-04-11T14:10:34.928Z</time></trkpt><trkpt lat="43.824625" lon="12.4185367"><ele>692.4</ele><time>2026-04-11T14:10:35.928Z</time></trkpt><trkpt lat="43.8246083" lon="12.4184083"><ele>691.8</ele><time>2026-04-11T14:10:36.927Z</time></trkpt><trkpt lat="43.82457" lon="12.4182633"><ele>691.2</ele><time>2026-04-11T14:10:37.928Z</time></trkpt><trkpt lat="43.8245233" lon="12.4181117"><ele>690.6</ele><time>2026-04-11T14:10:38.927Z</time></trkpt><trkpt lat="43.8244767" lon="12.4179583"><ele>690.0</ele><time>2026-04-11T14:10:39.928Z</time></trkpt><trkpt lat="43.82445" lon="12.4178267"><ele>690.0</ele><time>2026-04-11T14:10:40.928Z</time></trkpt><trkpt lat="43.8244633" lon="12.417675"><ele>690.0</ele><time>2026-04-11T14:10:41.928Z</time></trkpt><trkpt lat="43.8244733" lon="12.4175133"><ele>690.0</ele><time>2026-04-11T14:10:42.928Z</time></trkpt><trkpt lat="43.82448" lon="12.4173333"><ele>690.0</ele><time>2026-04-11T14:10:43.928Z</time></trkpt><trkpt lat="43.8244867" lon="12.417135"><ele>690.6666666666666</ele><time>2026-04-11T14:10:44.927Z</time></trkpt><trkpt lat="43.8244867" lon="12.4169133"><ele>691.3333333333333</ele><time>2026-04-11T14:10:45.927Z</time></trkpt><trkpt lat="43.82449" lon="12.416705"><ele>692.0</ele><time>2026-04-11T14:10:46.928Z</time></trkpt><trkpt lat="43.8244967" lon="12.41651"><ele>693.0</ele><time>2026-04-11T14:10:47.928Z</time></trkpt><trkpt lat="43.82451" lon="12.4163067"><ele>694.0</ele><time>2026-04-11T14:10:48.928Z</time></trkpt><trkpt lat="43.8245183" lon="12.416105"><ele>695.0</ele><time>2026-04-11T14:10:49.928Z</time></trkpt><trkpt lat="43.8245183" lon="12.4159"><ele>696.0</ele><time>2026-04-11T14:10:50.928Z</time></trkpt><trkpt lat="43.8245067" lon="12.4156967"><ele>696.0</ele><time>2026-04-11T14:10:51.927Z</time></trkpt><trkpt lat="43.8244983" lon="12.41554"><ele>696.0</ele><time>2026-04-11T14:10:52.927Z</time></trkpt><trkpt lat="43.8244517" lon="12.4154"><ele>696.0</ele><time>2026-04-11T14:10:53.928Z</time></trkpt><trkpt lat="43.8243967" lon="12.4153083"><ele>696.0</ele><time>2026-04-11T14:10:54.927Z</time></trkpt><trkpt lat="43.82434" lon="12.4152533"><ele>696.0</ele><time>2026-04-11T14:10:55.927Z</time></trkpt><trkpt lat="43.8242567" lon="12.4152167"><ele>693.5999999999999</ele><time>2026-04-11T14:10:56.927Z</time></trkpt><trkpt lat="43.8241567" lon="12.4152167"><ele>691.2</ele><time>2026-04-11T14:10:57.927Z</time></trkpt><trkpt lat="43.8240467" lon="12.4152367"><ele>688.8</ele><time>2026-04-11T14:10:58.927Z</time></trkpt><trkpt lat="43.8239317" lon="12.4152483"><ele>686.4000000000001</ele><time>2026-04-11T14:10:59.928Z</time></trkpt><trkpt lat="43.823825" lon="12.41524"><ele>684.0</ele><time>2026-04-11T14:11:00.928Z</time></trkpt><trkpt lat="43.8237267" lon="12.4152083"><ele>684.0</ele><time>2026-04-11T14:11:01.927Z</time></trkpt><trkpt lat="43.8236267" lon="12.4151533"><ele>684.0</ele><time>2026-04-11T14:11:02.927Z</time></trkpt><trkpt lat="43.8235183" lon="12.4150933"><ele>684.0</ele><time>2026-04-11T14:11:03.928Z</time></trkpt><trkpt lat="43.8234233" lon="12.4150283"><ele>684.0</ele><time>2026-04-11T14:11:04.927Z</time></trkpt><trkpt lat="43.8233433" lon="12.4149767"><ele>684.0</ele><time>2026-04-11T14:11:05.927Z</time></trkpt><trkpt lat="43.8232733" lon="12.4149267"><ele>681.0</ele><time>2026-04-11T14:11:06.927Z</time></trkpt><trkpt lat="43.8232283" lon="12.41486"><ele>678.0</ele><time>2026-04-11T14:11:07.928Z</time></trkpt><trkpt lat="43.8232133" lon="12.4147233"><ele>675.0</ele><time>2026-04-11T14:11:09.928Z</time></trkpt><trkpt lat="43.8232433" lon="12.4146367"><ele>672.0</ele><time>2026-04-11T14:11:10.927Z</time></trkpt><trkpt lat="43.8232917" lon="12.41452"><ele>669.0</ele><time>2026-04-11T14:11:11.928Z</time></trkpt><trkpt lat="43.8233583" lon="12.4143767"><ele>667.0</ele><time>2026-04-11T14:11:12.927Z</time></trkpt><trkpt lat="43.8234417" lon="12.4141967"><ele>665.0</ele><time>2026-04-11T14:11:13.927Z</time></trkpt><trkpt lat="43.8235233" lon="12.414"><ele>663.0</ele><time>2026-04-11T14:11:14.927Z</time></trkpt><trkpt lat="43.82361" lon="12.4138"><ele>668.0</ele><time>2026-04-11T14:11:15.927Z</time></trkpt><trkpt lat="43.8237033" lon="12.4135967"><ele>673.0</ele><time>2026-04-11T14:11:16.927Z</time></trkpt><trkpt lat="43.82378" lon="12.4133817"><ele>678.0</ele><time>2026-04-11T14:11:17.928Z</time></trkpt><trkpt lat="43.8238583" lon="12.41317"><ele>676.0</ele><time>2026-04-11T14:11:18.928Z</time></trkpt><trkpt lat="43.8239367" lon="12.4129533"><ele>674.0</ele><time>2026-04-11T14:11:19.927Z</time></trkpt><trkpt lat="43.8240133" lon="12.412745"><ele>672.0</ele><time>2026-04-11T14:11:20.927Z</time></trkpt><trkpt lat="43.8241017" lon="12.4125517"><ele>672.0</ele><time>2026-04-11T14:11:21.928Z</time></trkpt><trkpt lat="43.8241717" lon="12.4123517"><ele>672.0</ele><time>2026-04-11T14:11:22.927Z</time></trkpt><trkpt lat="43.82423" lon="12.4121567"><ele>672.0</ele><time>2026-04-11T14:11:23.927Z</time></trkpt><trkpt lat="43.8243133" lon="12.4119783"><ele>670.6</ele><time>2026-04-11T14:11:24.927Z</time></trkpt><trkpt lat="43.8243733" lon="12.4118233"><ele>669.2</ele><time>2026-04-11T14:11:25.928Z</time></trkpt><trkpt lat="43.824425" lon="12.4117033"><ele>667.8</ele><time>2026-04-11T14:11:26.928Z</time></trkpt><trkpt lat="43.8244417" lon="12.4115933"><ele>666.4</ele><time>2026-04-11T14:11:27.927Z</time></trkpt><trkpt lat="43.824445" lon="12.41149"><ele>665.0</ele><time>2026-04-11T14:11:28.928Z</time></trkpt><trkpt lat="43.8244333" lon="12.4113733"><ele>664.75</ele><time>2026-04-11T14:11:29.928Z</time></trkpt><trkpt lat="43.8244" lon="12.411245"><ele>664.5</ele><time>2026-04-11T14:11:30.928Z</time></trkpt><trkpt lat="43.8243417" lon="12.4110983"><ele>664.25</ele><time>2026-04-11T14:11:31.928Z</time></trkpt><trkpt lat="43.8242717" lon="12.4109267"><ele>664.0</ele><time>2026-04-11T14:11:32.927Z</time></trkpt><trkpt lat="43.824215" lon="12.4107167"><ele>664.0</ele><time>2026-04-11T14:11:33.928Z</time></trkpt><trkpt lat="43.82416" lon="12.4104917"><ele>664.0</ele><time>2026-04-11T14:11:34.927Z</time></trkpt><trkpt lat="43.8241067" lon="12.4102483"><ele>664.0</ele><time>2026-04-11T14:11:35.928Z</time></trkpt><trkpt lat="43.8240533" lon="12.410035"><ele>664.0</ele><time>2026-04-11T14:11:36.927Z</time></trkpt><trkpt lat="43.8239883" lon="12.4098083"><ele>664.0</ele><time>2026-04-11T14:11:37.928Z</time></trkpt><trkpt lat="43.82392" lon="12.4095983"><ele>664.0</ele><time>2026-04-11T14:11:38.928Z</time></trkpt><trkpt lat="43.823865" lon="12.4094033"><ele>663.75</ele><time>2026-04-11T14:11:39.927Z</time></trkpt><trkpt lat="43.8238167" lon="12.4092117"><ele>663.5</ele><time>2026-04-11T14:11:40.927Z</time></trkpt><trkpt lat="43.82379" lon="12.4090483"><ele>663.25</ele><time>2026-04-11T14:11:41.927Z</time></trkpt><trkpt lat="43.82375" lon="12.4088683"><ele>663.0</ele><time>2026-04-11T14:11:42.928Z</time></trkpt><trkpt lat="43.8237367" lon="12.4087133"><ele>663.0</ele><time>2026-04-11T14:11:43.927Z</time></trkpt><trkpt lat="43.82374" lon="12.4085717"><ele>663.0</ele><time>2026-04-11T14:11:44.928Z</time></trkpt><trkpt lat="43.82376" lon="12.40844"><ele>663.0</ele><time>2026-04-11T14:11:45.928Z</time></trkpt><trkpt lat="43.8238017" lon="12.40832"><ele>663.0</ele><time>2026-04-11T14:11:46.927Z</time></trkpt><trkpt lat="43.82385" lon="12.4082067"><ele>663.0</ele><time>2026-04-11T14:11:47.927Z</time></trkpt><trkpt lat="43.8239183" lon="12.408105"><ele>663.0</ele><time>2026-04-11T14:11:48.928Z</time></trkpt><trkpt lat="43.8239933" lon="12.408015"><ele>663.0</ele><time>2026-04-11T14:11:49.928Z</time></trkpt><trkpt lat="43.824055" lon="12.40793"><ele>663.0</ele><time>2026-04-11T14:11:50.927Z</time></trkpt><trkpt lat="43.8241067" lon="12.4078233"><ele>663.0</ele><time>2026-04-11T14:11:51.928Z</time></trkpt><trkpt lat="43.8241467" lon="12.4076967"><ele>663.0</ele><time>2026-04-11T14:11:52.927Z</time></trkpt><trkpt lat="43.8241717" lon="12.40759"><ele>662.8</ele><time>2026-04-11T14:11:53.927Z</time></trkpt><trkpt lat="43.8241867" lon="12.4075017"><ele>662.5999999999999</ele><time>2026-04-11T14:11:54.928Z</time></trkpt><trkpt lat="43.824265" lon="12.4074317"><ele>662.4000000000001</ele><time>2026-04-11T14:11:56.927Z</time></trkpt><trkpt lat="43.8243667" lon="12.4075233"><ele>662.2</ele><time>2026-04-11T14:11:58.928Z</time></trkpt><trkpt lat="43.8244333" lon="12.40761"><ele>662.0</ele><time>2026-04-11T14:11:59.928Z</time></trkpt><trkpt lat="43.8245017" lon="12.4077"><ele>658.0</ele><time>2026-04-11T14:12:00.928Z</time></trkpt><trkpt lat="43.8245733" lon="12.407775"><ele>654.0</ele><time>2026-04-11T14:12:01.928Z</time></trkpt><trkpt lat="43.8246417" lon="12.407825"><ele>650.0</ele><time>2026-04-11T14:12:02.928Z</time></trkpt><trkpt lat="43.8247067" lon="12.4078483"><ele>646.0</ele><time>2026-04-11T14:12:03.927Z</time></trkpt><trkpt lat="43.824815" lon="12.4077733"><ele>642.0</ele><time>2026-04-11T14:12:05.928Z</time></trkpt><trkpt lat="43.8248367" lon="12.40762"><ele>642.0</ele><time>2026-04-11T14:12:07.927Z</time></trkpt><trkpt lat="43.8248167" lon="12.4075167"><ele>642.0</ele><time>2026-04-11T14:12:08.928Z</time></trkpt><trkpt lat="43.8247817" lon="12.4073983"><ele>642.0</ele><time>2026-04-11T14:12:09.928Z</time></trkpt><trkpt lat="43.8247317" lon="12.407265"><ele>642.0</ele><time>2026-04-11T14:12:10.928Z</time></trkpt><trkpt lat="43.8246617" lon="12.407125"><ele>642.0</ele><time>2026-04-11T14:12:11.927Z</time></trkpt><trkpt lat="43.8245617" lon="12.4069933"><ele>643.0</ele><time>2026-04-11T14:12:12.928Z</time></trkpt><trkpt lat="43.824465" lon="12.4068717"><ele>644.0</ele><time>2026-04-11T14:12:13.928Z</time></trkpt><trkpt lat="43.8243783" lon="12.4067733"><ele>645.0</ele><time>2026-04-11T14:12:14.927Z</time></trkpt><trkpt lat="43.824305" lon="12.4066833"><ele>646.0</ele><time>2026-04-11T14:12:15.928Z</time></trkpt><trkpt lat="43.8242567" lon="12.40661"><ele>647.0</ele><time>2026-04-11T14:12:16.927Z</time></trkpt><trkpt lat="43.8241833" lon="12.406495"><ele>647.0</ele><time>2026-04-11T14:12:18.928Z</time></trkpt><trkpt lat="43.8241" lon="12.4063683"><ele>647.0</ele><time>2026-04-11T14:12:20.927Z</time></trkpt><trkpt lat="43.824055" lon="12.40629"><ele>647.0</ele><time>2026-04-11T14:12:21.928Z</time></trkpt><trkpt lat="43.8240033" lon="12.406215"><ele>647.0</ele><time>2026-04-11T14:12:22.928Z</time></trkpt><trkpt lat="43.8239583" lon="12.406145"><ele>647.0</ele><time>2026-04-11T14:12:23.928Z</time></trkpt><trkpt lat="43.8239117" lon="12.4060833"><ele>647.0</ele><time>2026-04-11T14:12:24.927Z</time></trkpt><trkpt lat="43.8238567" lon="12.4060133"><ele>643.6</ele><time>2026-04-11T14:12:25.927Z</time></trkpt><trkpt lat="43.8238033" lon="12.4059267"><ele>640.2</ele><time>2026-04-11T14:12:26.928Z</time></trkpt><trkpt lat="43.823745" lon="12.40583"><ele>636.8</ele><time>2026-04-11T14:12:27.928Z</time></trkpt><trkpt lat="43.8236817" lon="12.4057"><ele>633.4</ele><time>2026-04-11T14:12:28.927Z</time></trkpt><trkpt lat="43.823625" lon="12.4055267"><ele>630.0</ele><time>2026-04-11T14:12:29.928Z</time></trkpt><trkpt lat="43.8235767" lon="12.4053233"><ele>630.0</ele><time>2026-04-11T14:12:30.928Z</time></trkpt><trkpt lat="43.8235333" lon="12.4051017"><ele>630.0</ele><time>2026-04-11T14:12:31.927Z</time></trkpt><trkpt lat="43.8234933" lon="12.4048633"><ele>630.0</ele><time>2026-04-11T14:12:32.928Z</time></trkpt><trkpt lat="43.82345" lon="12.4046383"><ele>630.0</ele><time>2026-04-11T14:12:33.927Z</time></trkpt><trkpt lat="43.823405" lon="12.4044433"><ele>630.0</ele><time>2026-04-11T14:12:34.928Z</time></trkpt><trkpt lat="43.8233417" lon="12.4042783"><ele>630.0</ele><time>2026-04-11T14:12:35.928Z</time></trkpt><trkpt lat="43.8232583" lon="12.4041433"><ele>630.0</ele><time>2026-04-11T14:12:36.928Z</time></trkpt><trkpt lat="43.82316" lon="12.404"><ele>630.0</ele><time>2026-04-11T14:12:37.927Z</time></trkpt><trkpt lat="43.82305" lon="12.4038367"><ele>630.0</ele><time>2026-04-11T14:12:38.927Z</time></trkpt><trkpt lat="43.8229467" lon="12.4036733"><ele>630.0</ele><time>2026-04-11T14:12:39.928Z</time></trkpt><trkpt lat="43.8228583" lon="12.403505"><ele>630.6666666666666</ele><time>2026-04-11T14:12:40.928Z</time></trkpt><trkpt lat="43.8227833" lon="12.4033067"><ele>631.3333333333333</ele><time>2026-04-11T14:12:41.928Z</time></trkpt><trkpt lat="43.822705" lon="12.403095"><ele>632.0</ele><time>2026-04-11T14:12:42.928Z</time></trkpt><trkpt lat="43.8226383" lon="12.4028767"><ele>632.0</ele><time>2026-04-11T14:12:43.928Z</time></trkpt><trkpt lat="43.8225633" lon="12.4026567"><ele>632.0</ele><time>2026-04-11T14:12:44.927Z</time></trkpt><trkpt lat="43.8224967" lon="12.40242"><ele>632.0</ele><time>2026-04-11T14:12:45.927Z</time></trkpt><trkpt lat="43.8224333" lon="12.4022067"><ele>632.0</ele><time>2026-04-11T14:12:46.927Z</time></trkpt><trkpt lat="43.822375" lon="12.4019833"><ele>632.0</ele><time>2026-04-11T14:12:47.928Z</time></trkpt><trkpt lat="43.8223167" lon="12.4017683"><ele>632.0</ele><time>2026-04-11T14:12:48.927Z</time></trkpt><trkpt lat="43.8222667" lon="12.4015767"><ele>632.0</ele><time>2026-04-11T14:12:49.927Z</time></trkpt><trkpt lat="43.8222233" lon="12.4014067"><ele>632.0</ele><time>2026-04-11T14:12:50.928Z</time></trkpt><trkpt lat="43.8221817" lon="12.4012583"><ele>632.0</ele><time>2026-04-11T14:12:51.927Z</time></trkpt><trkpt lat="43.82215" lon="12.4011433"><ele>632.0</ele><time>2026-04-11T14:12:52.927Z</time></trkpt><trkpt lat="43.82212" lon="12.401045"><ele>632.0</ele><time>2026-04-11T14:12:53.928Z</time></trkpt><trkpt lat="43.8220717" lon="12.4009567"><ele>631.6666666666666</ele><time>2026-04-11T14:12:55.928Z</time></trkpt><trkpt lat="43.821985" lon="12.40101"><ele>631.3333333333333</ele><time>2026-04-11T14:12:58.928Z</time></trkpt><trkpt lat="43.8218783" lon="12.40107"><ele>631.0</ele><time>2026-04-11T14:13:00.928Z</time></trkpt><trkpt lat="43.8218167" lon="12.4010983"><ele>630.6666666666666</ele><time>2026-04-11T14:13:01.928Z</time></trkpt><trkpt lat="43.8217567" lon="12.4011367"><ele>630.3333333333334</ele><time>2026-04-11T14:13:02.927Z</time></trkpt><trkpt lat="43.8216917" lon="12.401185"><ele>630.0</ele><time>2026-04-11T14:13:03.928Z</time></trkpt><trkpt lat="43.82162" lon="12.4012467"><ele>630.0</ele><time>2026-04-11T14:13:04.927Z</time></trkpt><trkpt lat="43.8215517" lon="12.4013283"><ele>630.0</ele><time>2026-04-11T14:13:05.928Z</time></trkpt><trkpt lat="43.821485" lon="12.4014283"><ele>630.0</ele><time>2026-04-11T14:13:06.927Z</time></trkpt><trkpt lat="43.8214183" lon="12.4015317"><ele>630.0</ele><time>2026-04-11T14:13:07.928Z</time></trkpt><trkpt lat="43.821345" lon="12.4016367"><ele>630.0</ele><time>2026-04-11T14:13:08.928Z</time></trkpt><trkpt lat="43.8212667" lon="12.4017283"><ele>630.2</ele><time>2026-04-11T14:13:09.928Z</time></trkpt><trkpt lat="43.8211783" lon="12.401815"><ele>630.4</ele><time>2026-04-11T14:13:10.927Z</time></trkpt><trkpt lat="43.8210917" lon="12.401915"><ele>630.6</ele><time>2026-04-11T14:13:11.928Z</time></trkpt><trkpt lat="43.82102" lon="12.40201"><ele>630.8</ele><time>2026-04-11T14:13:12.928Z</time></trkpt><trkpt lat="43.8209567" lon="12.4021133"><ele>631.0</ele><time>2026-04-11T14:13:13.928Z</time></trkpt><trkpt lat="43.82091" lon="12.4022233"><ele>631.0</ele><time>2026-04-11T14:13:14.928Z</time></trkpt><trkpt lat="43.8208783" lon="12.4023617"><ele>631.0</ele><time>2026-04-11T14:13:15.927Z</time></trkpt><trkpt lat="43.82086" lon="12.402505"><ele>631.0</ele><time>2026-04-11T14:13:16.927Z</time></trkpt><trkpt lat="43.8208633" lon="12.4026617"><ele>631.0</ele><time>2026-04-11T14:13:17.928Z</time></trkpt><trkpt lat="43.8208683" lon="12.40281"><ele>631.0</ele><time>2026-04-11T14:13:18.928Z</time></trkpt><trkpt lat="43.820875" lon="12.4029633"><ele>630.75</ele><time>2026-04-11T14:13:19.927Z</time></trkpt><trkpt lat="43.8208917" lon="12.403125"><ele>630.5</ele><time>2026-04-11T14:13:20.928Z</time></trkpt><trkpt lat="43.820905" lon="12.4032967"><ele>630.25</ele><time>2026-04-11T14:13:21.927Z</time></trkpt><trkpt lat="43.820925" lon="12.40348"><ele>630.0</ele><time>2026-04-11T14:13:22.927Z</time></trkpt><trkpt lat="43.820955" lon="12.4036667"><ele>629.5</ele><time>2026-04-11T14:13:23.928Z</time></trkpt><trkpt lat="43.8209817" lon="12.403855"><ele>629.0</ele><time>2026-04-11T14:13:24.928Z</time></trkpt><trkpt lat="43.8210133" lon="12.4040367"><ele>628.5</ele><time>2026-04-11T14:13:25.928Z</time></trkpt><trkpt lat="43.821045" lon="12.4042333"><ele>628.0</ele><time>2026-04-11T14:13:26.927Z</time></trkpt><trkpt lat="43.8210667" lon="12.40439"><ele>632.0</ele><time>2026-04-11T14:13:27.926Z</time></trkpt><trkpt lat="43.821095" lon="12.4045467"><ele>636.0</ele><time>2026-04-11T14:13:28.927Z</time></trkpt><trkpt lat="43.8211233" lon="12.4047"><ele>640.0</ele><time>2026-04-11T14:13:29.927Z</time></trkpt><trkpt lat="43.8211483" lon="12.4048517"><ele>644.0</ele><time>2026-04-11T14:13:30.927Z</time></trkpt><trkpt lat="43.8211683" lon="12.4049867"><ele>648.0</ele><time>2026-04-11T14:13:31.927Z</time></trkpt><trkpt lat="43.8211833" lon="12.40512"><ele>647.8</ele><time>2026-04-11T14:13:32.927Z</time></trkpt><trkpt lat="43.8211867" lon="12.405245"><ele>647.5999999999999</ele><time>2026-04-11T14:13:33.927Z</time></trkpt><trkpt lat="43.8211717" lon="12.4053667"><ele>647.4000000000001</ele><time>2026-04-11T14:13:34.927Z</time></trkpt><trkpt lat="43.8211283" lon="12.405495"><ele>647.2</ele><time>2026-04-11T14:13:35.927Z</time></trkpt><trkpt lat="43.82107" lon="12.4056417"><ele>647.0</ele><time>2026-04-11T14:13:36.926Z</time></trkpt><trkpt lat="43.8210183" lon="12.4057967"><ele>641.4</ele><time>2026-04-11T14:13:37.927Z</time></trkpt><trkpt lat="43.82097" lon="12.4059333"><ele>635.8000000000001</ele><time>2026-04-11T14:13:38.926Z</time></trkpt><trkpt lat="43.82093" lon="12.4060667"><ele>630.2</ele><time>2026-04-11T14:13:39.927Z</time></trkpt><trkpt lat="43.8208983" lon="12.4062"><ele>624.6</ele><time>2026-04-11T14:13:40.927Z</time></trkpt><trkpt lat="43.820865" lon="12.40633"><ele>619.0</ele><time>2026-04-11T14:13:41.927Z</time></trkpt><trkpt lat="43.8208183" lon="12.406445"><ele>618.8</ele><time>2026-04-11T14:13:42.927Z</time></trkpt><trkpt lat="43.8207617" lon="12.4065533"><ele>618.5999999999999</ele><time>2026-04-11T14:13:43.926Z</time></trkpt><trkpt lat="43.820685" lon="12.40665"><ele>618.4</ele><time>2026-04-11T14:13:44.927Z</time></trkpt><trkpt lat="43.8205883" lon="12.4067267"><ele>618.1999999999999</ele><time>2026-04-11T14:13:45.926Z</time></trkpt><trkpt lat="43.820475" lon="12.4067967"><ele>618.0</ele><time>2026-04-11T14:13:46.927Z</time></trkpt><trkpt lat="43.82034" lon="12.4068483"><ele>618.0</ele><time>2026-04-11T14:13:47.926Z</time></trkpt><trkpt lat="43.8202083" lon="12.4068917"><ele>618.0</ele><time>2026-04-11T14:13:48.927Z</time></trkpt><trkpt lat="43.820085" lon="12.4069217"><ele>618.0</ele><time>2026-04-11T14:13:49.927Z</time></trkpt><trkpt lat="43.8199567" lon="12.4069517"><ele>618.0</ele><time>2026-04-11T14:13:50.927Z</time></trkpt><trkpt lat="43.8198333" lon="12.4069817"><ele>615.5</ele><time>2026-04-11T14:13:51.927Z</time></trkpt><trkpt lat="43.8197133" lon="12.4070317"><ele>613.0</ele><time>2026-04-11T14:13:52.926Z</time></trkpt><trkpt lat="43.8195917" lon="12.4070933"><ele>610.5</ele><time>2026-04-11T14:13:53.926Z</time></trkpt><trkpt lat="43.8194733" lon="12.4071633"><ele>608.0</ele><time>2026-04-11T14:13:54.927Z</time></trkpt><trkpt lat="43.8193433" lon="12.4072417"><ele>604.5</ele><time>2026-04-11T14:13:55.926Z</time></trkpt><trkpt lat="43.8192267" lon="12.4073417"><ele>601.0</ele><time>2026-04-11T14:13:56.926Z</time></trkpt><trkpt lat="43.8191033" lon="12.4074483"><ele>597.5</ele><time>2026-04-11T14:13:57.927Z</time></trkpt><trkpt lat="43.8189867" lon="12.407565"><ele>594.0</ele><time>2026-04-11T14:13:58.926Z</time></trkpt><trkpt lat="43.8188617" lon="12.407675"><ele>594.0</ele><time>2026-04-11T14:13:59.926Z</time></trkpt><trkpt lat="43.818725" lon="12.4077667"><ele>594.0</ele><time>2026-04-11T14:14:00.926Z</time></trkpt><trkpt lat="43.8185983" lon="12.4078583"><ele>594.0</ele><time>2026-04-11T14:14:01.927Z</time></trkpt><trkpt lat="43.8184817" lon="12.40794"><ele>594.0</ele><time>2026-04-11T14:14:02.927Z</time></trkpt><trkpt lat="43.818365" lon="12.4080067"><ele>593.6</ele><time>2026-04-11T14:14:03.927Z</time></trkpt><trkpt lat="43.8182583" lon="12.4080767"><ele>593.2</ele><time>2026-04-11T14:14:04.926Z</time></trkpt><trkpt lat="43.8181633" lon="12.408155"><ele>592.8000000000001</ele><time>2026-04-11T14:14:05.927Z</time></trkpt><trkpt lat="43.818085" lon="12.40825"><ele>592.4</ele><time>2026-04-11T14:14:06.927Z</time></trkpt><trkpt lat="43.8180067" lon="12.4083617"><ele>592.0</ele><time>2026-04-11T14:14:07.926Z</time></trkpt><trkpt lat="43.8179367" lon="12.4084983"><ele>592.0</ele><time>2026-04-11T14:14:08.927Z</time></trkpt><trkpt lat="43.8178733" lon="12.4086483"><ele>592.0</ele><time>2026-04-11T14:14:09.927Z</time></trkpt><trkpt lat="43.81781" lon="12.4087767"><ele>592.0</ele><time>2026-04-11T14:14:10.927Z</time></trkpt><trkpt lat="43.8177467" lon="12.4088883"><ele>592.0</ele><time>2026-04-11T14:14:11.927Z</time></trkpt><trkpt lat="43.8176883" lon="12.408965"><ele>592.0</ele><time>2026-04-11T14:14:12.927Z</time></trkpt><trkpt lat="43.8176167" lon="12.40902"><ele>590.3333333333334</ele><time>2026-04-11T14:14:13.926Z</time></trkpt><trkpt lat="43.8175433" lon="12.4090483"><ele>588.6666666666667</ele><time>2026-04-11T14:14:14.927Z</time></trkpt><trkpt lat="43.8174617" lon="12.4090617"><ele>587.0</ele><time>2026-04-11T14:14:15.927Z</time></trkpt><trkpt lat="43.8173867" lon="12.4090833"><ele>585.3333333333334</ele><time>2026-04-11T14:14:16.926Z</time></trkpt><trkpt lat="43.8173083" lon="12.4091033"><ele>583.6666666666666</ele><time>2026-04-11T14:14:17.926Z</time></trkpt><trkpt lat="43.817215" lon="12.4091183"><ele>582.0</ele><time>2026-04-11T14:14:18.926Z</time></trkpt><trkpt lat="43.8171217" lon="12.4091183"><ele>582.0</ele><time>2026-04-11T14:14:19.926Z</time></trkpt><trkpt lat="43.8170333" lon="12.4091117"><ele>582.0</ele><time>2026-04-11T14:14:20.927Z</time></trkpt><trkpt lat="43.8169483" lon="12.409105"><ele>582.0</ele><time>2026-04-11T14:14:21.927Z</time></trkpt><trkpt lat="43.8168683" lon="12.4091117"><ele>582.0</ele><time>2026-04-11T14:14:22.927Z</time></trkpt><trkpt lat="43.8167933" lon="12.4091383"><ele>582.0</ele><time>2026-04-11T14:14:23.927Z</time></trkpt><trkpt lat="43.8167117" lon="12.4091767"><ele>582.0</ele><time>2026-04-11T14:14:24.927Z</time></trkpt><trkpt lat="43.816625" lon="12.409225"><ele>580.3333333333334</ele><time>2026-04-11T14:14:25.926Z</time></trkpt><trkpt lat="43.816545" lon="12.4092783"><ele>578.6666666666666</ele><time>2026-04-11T14:14:26.926Z</time></trkpt><trkpt lat="43.81646" lon="12.40933"><ele>577.0</ele><time>2026-04-11T14:14:27.927Z</time></trkpt><trkpt lat="43.8163733" lon="12.4093633"><ele>575.3333333333333</ele><time>2026-04-11T14:14:28.926Z</time></trkpt><trkpt lat="43.816285" lon="12.4093817"><ele>573.6666666666666</ele><time>2026-04-11T14:14:29.927Z</time></trkpt><trkpt lat="43.8162133" lon="12.40938"><ele>572.0</ele><time>2026-04-11T14:14:30.927Z</time></trkpt><trkpt lat="43.8160983" lon="12.4093167"><ele>572.0</ele><time>2026-04-11T14:14:32.926Z</time></trkpt><trkpt lat="43.81602" lon="12.409205"><ele>572.0</ele><time>2026-04-11T14:14:34.926Z</time></trkpt><trkpt lat="43.8159767" lon="12.4091167"><ele>572.0</ele><time>2026-04-11T14:14:37.927Z</time></trkpt><trkpt lat="43.81602" lon="12.4092133"><ele>572.0</ele><time>2026-04-11T14:15:11.927Z</time></trkpt><trkpt lat="43.8160617" lon="12.40928"><ele>572.0</ele><time>2026-04-11T14:15:12.927Z</time></trkpt><trkpt lat="43.8161217" lon="12.4093333"><ele>572.0</ele><time>2026-04-11T14:15:13.926Z</time></trkpt><trkpt lat="43.8162" lon="12.4093683"><ele>572.0</ele><time>2026-04-11T14:15:14.927Z</time></trkpt><trkpt lat="43.81628" lon="12.4093867"><ele>572.0</ele><time>2026-04-11T14:15:15.927Z</time></trkpt><trkpt lat="43.8163667" lon="12.4093867"><ele>572.0</ele><time>2026-04-11T14:15:16.926Z</time></trkpt><trkpt lat="43.81645" lon="12.4093683"><ele>572.0</ele><time>2026-04-11T14:15:17.927Z</time></trkpt><trkpt lat="43.8165383" lon="12.40933"><ele>572.0</ele><time>2026-04-11T14:15:18.926Z</time></trkpt><trkpt lat="43.816625" lon="12.40928"><ele>572.0</ele><time>2026-04-11T14:15:19.926Z</time></trkpt><trkpt lat="43.8167083" lon="12.4092233"><ele>572.0</ele><time>2026-04-11T14:15:20.926Z</time></trkpt><trkpt lat="43.8168017" lon="12.4091933"><ele>572.0</ele><time>2026-04-11T14:15:21.927Z</time></trkpt><trkpt lat="43.8169" lon="12.4091633"><ele>572.0</ele><time>2026-04-11T14:15:22.927Z</time></trkpt><trkpt lat="43.817015" lon="12.4091267"><ele>572.0</ele><time>2026-04-11T14:15:23.927Z</time></trkpt><trkpt lat="43.817115" lon="12.40914"><ele>572.0</ele><time>2026-04-11T14:15:24.927Z</time></trkpt><trkpt lat="43.8172183" lon="12.40914"><ele>574.0</ele><time>2026-04-11T14:15:25.926Z</time></trkpt><trkpt lat="43.817325" lon="12.4091317"><ele>576.0</ele><time>2026-04-11T14:15:26.926Z</time></trkpt><trkpt lat="43.81743" lon="12.4091067"><ele>578.0</ele><time>2026-04-11T14:15:27.926Z</time></trkpt><trkpt lat="43.8175417" lon="12.4090783"><ele>580.0</ele><time>2026-04-11T14:15:28.927Z</time></trkpt><trkpt lat="43.81764" lon="12.40904"><ele>582.0</ele><time>2026-04-11T14:15:29.927Z</time></trkpt><trkpt lat="43.8177317" lon="12.4089667"><ele>584.0</ele><time>2026-04-11T14:15:30.926Z</time></trkpt><trkpt lat="43.8178083" lon="12.408865"><ele>586.0</ele><time>2026-04-11T14:15:31.927Z</time></trkpt><trkpt lat="43.81787" lon="12.4087417"><ele>588.0</ele><time>2026-04-11T14:15:32.927Z</time></trkpt><trkpt lat="43.8179283" lon="12.4086217"><ele>590.0</ele><time>2026-04-11T14:15:33.927Z</time></trkpt><trkpt lat="43.8179917" lon="12.408485"><ele>592.0</ele><time>2026-04-11T14:15:34.926Z</time></trkpt><trkpt lat="43.8180417" lon="12.4083417"><ele>592.0</ele><time>2026-04-11T14:15:35.926Z</time></trkpt><trkpt lat="43.81811" lon="12.4082183"><ele>592.0</ele><time>2026-04-11T14:15:36.926Z</time></trkpt><trkpt lat="43.8182" lon="12.40812"><ele>592.0</ele><time>2026-04-11T14:15:37.926Z</time></trkpt><trkpt lat="43.8183033" lon="12.4080283"><ele>592.0</ele><time>2026-04-11T14:15:38.927Z</time></trkpt><trkpt lat="43.8184067" lon="12.4079567"><ele>592.5</ele><time>2026-04-11T14:15:39.927Z</time></trkpt><trkpt lat="43.8185133" lon="12.40789"><ele>593.0</ele><time>2026-04-11T14:15:40.927Z</time></trkpt><trkpt lat="43.8186217" lon="12.40782"><ele>593.5</ele><time>2026-04-11T14:15:41.926Z</time></trkpt><trkpt lat="43.818735" lon="12.4077383"><ele>594.0</ele><time>2026-04-11T14:15:42.926Z</time></trkpt><trkpt lat="43.81885" lon="12.407665"><ele>594.0</ele><time>2026-04-11T14:15:43.927Z</time></trkpt><trkpt lat="43.8189633" lon="12.407585"><ele>594.0</ele><time>2026-04-11T14:15:44.926Z</time></trkpt><trkpt lat="43.8190767" lon="12.4074717"><ele>594.0</ele><time>2026-04-11T14:15:45.926Z</time></trkpt><trkpt lat="43.819185" lon="12.407375"><ele>594.0</ele><time>2026-04-11T14:15:46.927Z</time></trkpt><trkpt lat="43.8193033" lon="12.4072883"><ele>596.0</ele><time>2026-04-11T14:15:47.927Z</time></trkpt><trkpt lat="43.8194117" lon="12.4072183"><ele>598.0</ele><time>2026-04-11T14:15:48.926Z</time></trkpt><trkpt lat="43.8195283" lon="12.4071533"><ele>600.0</ele><time>2026-04-11T14:15:49.927Z</time></trkpt><trkpt lat="43.8196433" lon="12.4070883"><ele>602.0</ele><time>2026-04-11T14:15:50.927Z</time></trkpt><trkpt lat="43.8197583" lon="12.4070383"><ele>602.0</ele><time>2026-04-11T14:15:51.927Z</time></trkpt><trkpt lat="43.8198717" lon="12.4069967"><ele>602.0</ele><time>2026-04-11T14:15:52.926Z</time></trkpt><trkpt lat="43.8199733" lon="12.406955"><ele>602.0</ele><time>2026-04-11T14:15:53.926Z</time></trkpt><trkpt lat="43.820075" lon="12.4069183"><ele>602.0</ele><time>2026-04-11T14:15:54.926Z</time></trkpt><trkpt lat="43.8201833" lon="12.406895"><ele>602.0</ele><time>2026-04-11T14:15:55.926Z</time></trkpt><trkpt lat="43.8202933" lon="12.4068683"><ele>605.2</ele><time>2026-04-11T14:15:56.926Z</time></trkpt><trkpt lat="43.820395" lon="12.40683"><ele>608.4000000000001</ele><time>2026-04-11T14:15:57.927Z</time></trkpt><trkpt lat="43.82049" lon="12.4067833"><ele>611.5999999999999</ele><time>2026-04-11T14:15:58.927Z</time></trkpt><trkpt lat="43.8205883" lon="12.4067317"><ele>614.8</ele><time>2026-04-11T14:15:59.926Z</time></trkpt><trkpt lat="43.820685" lon="12.40667"><ele>618.0</ele><time>2026-04-11T14:16:00.927Z</time></trkpt><trkpt lat="43.8207717" lon="12.4065883"><ele>618.0</ele><time>2026-04-11T14:16:01.927Z</time></trkpt><trkpt lat="43.8208483" lon="12.4064867"><ele>618.0</ele><time>2026-04-11T14:16:02.926Z</time></trkpt><trkpt lat="43.8209033" lon="12.4063583"><ele>618.0</ele><time>2026-04-11T14:16:03.927Z</time></trkpt><trkpt lat="43.820945" lon="12.4062017"><ele>618.0</ele><time>2026-04-11T14:16:04.927Z</time></trkpt><trkpt lat="43.8209817" lon="12.4060467"><ele>625.25</ele><time>2026-04-11T14:16:05.927Z</time></trkpt><trkpt lat="43.8210183" lon="12.40589"><ele>632.5</ele><time>2026-04-11T14:16:06.926Z</time></trkpt><trkpt lat="43.8210633" lon="12.4057317"><ele>639.75</ele><time>2026-04-11T14:16:07.926Z</time></trkpt><trkpt lat="43.821115" lon="12.4055633"><ele>647.0</ele><time>2026-04-11T14:16:08.926Z</time></trkpt><trkpt lat="43.8211567" lon="12.4053967"><ele>648.0</ele><time>2026-04-11T14:16:09.926Z</time></trkpt><trkpt lat="43.8211917" lon="12.4052317"><ele>649.0</ele><time>2026-04-11T14:16:10.927Z</time></trkpt><trkpt lat="43.8212067" lon="12.4050667"><ele>650.0</ele><time>2026-04-11T14:16:11.926Z</time></trkpt><trkpt lat="43.8211967" lon="12.4049067"><ele>651.0</ele><time>2026-04-11T14:16:12.926Z</time></trkpt><trkpt lat="43.8211767" lon="12.404745"><ele>650.25</ele><time>2026-04-11T14:16:13.926Z</time></trkpt><trkpt lat="43.821145" lon="12.4045717"><ele>649.5</ele><time>2026-04-11T14:16:14.927Z</time></trkpt><trkpt lat="43.82111" lon="12.4044033"><ele>648.75</ele><time>2026-04-11T14:16:15.927Z</time></trkpt><trkpt lat="43.821075" lon="12.40422"><ele>648.0</ele><time>2026-04-11T14:16:16.927Z</time></trkpt><trkpt lat="43.8210567" lon="12.4040317"><ele>646.5</ele><time>2026-04-11T14:16:17.926Z</time></trkpt><trkpt lat="43.8210283" lon="12.40383"><ele>645.0</ele><time>2026-04-11T14:16:18.926Z</time></trkpt><trkpt lat="43.8210067" lon="12.4036283"><ele>643.5</ele><time>2026-04-11T14:16:19.927Z</time></trkpt><trkpt lat="43.8209767" lon="12.4034217"><ele>642.0</ele><time>2026-04-11T14:16:20.927Z</time></trkpt><trkpt lat="43.8209433" lon="12.4032183"><ele>639.25</ele><time>2026-04-11T14:16:21.927Z</time></trkpt><trkpt lat="43.8209317" lon="12.4030317"><ele>636.5</ele><time>2026-04-11T14:16:22.926Z</time></trkpt><trkpt lat="43.820925" lon="12.40286"><ele>633.75</ele><time>2026-04-11T14:16:23.927Z</time></trkpt><trkpt lat="43.8209217" lon="12.40269"><ele>631.0</ele><time>2026-04-11T14:16:24.927Z</time></trkpt><trkpt lat="43.82092" lon="12.402525"><ele>631.0</ele><time>2026-04-11T14:16:25.926Z</time></trkpt><trkpt lat="43.8209267" lon="12.4023883"><ele>631.0</ele><time>2026-04-11T14:16:26.926Z</time></trkpt><trkpt lat="43.8209483" lon="12.40227"><ele>631.0</ele><time>2026-04-11T14:16:27.927Z</time></trkpt><trkpt lat="43.8209783" lon="12.4021533"><ele>631.0</ele><time>2026-04-11T14:16:28.927Z</time></trkpt><trkpt lat="43.8210133" lon="12.40204"><ele>631.0</ele><time>2026-04-11T14:16:29.927Z</time></trkpt><trkpt lat="43.821065" lon="12.4019317"><ele>632.5</ele><time>2026-04-11T14:16:30.927Z</time></trkpt><trkpt lat="43.8211467" lon="12.401845"><ele>634.0</ele><time>2026-04-11T14:16:31.927Z</time></trkpt><trkpt lat="43.821235" lon="12.4017583"><ele>635.5</ele><time>2026-04-11T14:16:32.927Z</time></trkpt><trkpt lat="43.8213217" lon="12.40165"><ele>637.0</ele><time>2026-04-11T14:16:33.927Z</time></trkpt><trkpt lat="43.8214183" lon="12.40154"><ele>637.0</ele><time>2026-04-11T14:16:34.927Z</time></trkpt><trkpt lat="43.8215133" lon="12.4014117"><ele>637.0</ele><time>2026-04-11T14:16:35.926Z</time></trkpt><trkpt lat="43.8215933" lon="12.4013133"><ele>637.0</ele><time>2026-04-11T14:16:36.926Z</time></trkpt><trkpt lat="43.8216733" lon="12.4012367"><ele>637.0</ele><time>2026-04-11T14:16:37.927Z</time></trkpt><trkpt lat="43.8217483" lon="12.4011867"><ele>637.0</ele><time>2026-04-11T14:16:38.927Z</time></trkpt><trkpt lat="43.8218067" lon="12.4011533"><ele>635.3333333333334</ele><time>2026-04-11T14:16:39.927Z</time></trkpt><trkpt lat="43.821895" lon="12.4011133"><ele>633.6666666666667</ele><time>2026-04-11T14:16:41.926Z</time></trkpt><trkpt lat="43.82199" lon="12.4010817"><ele>632.0</ele><time>2026-04-11T14:16:43.926Z</time></trkpt><trkpt lat="43.8220683" lon="12.4010467"><ele>630.3333333333334</ele><time>2026-04-11T14:16:45.926Z</time></trkpt><trkpt lat="43.82213" lon="12.4010867"><ele>628.6666666666666</ele><time>2026-04-11T14:16:56.927Z</time></trkpt><trkpt lat="43.82216" lon="12.4011983"><ele>627.0</ele><time>2026-04-11T14:16:58.927Z</time></trkpt><trkpt lat="43.8221783" lon="12.4012833"><ele>627.8333333333334</ele><time>2026-04-11T14:16:59.926Z</time></trkpt><trkpt lat="43.8221983" lon="12.4013817"><ele>628.6666666666666</ele><time>2026-04-11T14:17:00.926Z</time></trkpt><trkpt lat="43.8222167" lon="12.4014767"><ele>629.5</ele><time>2026-04-11T14:17:01.927Z</time></trkpt><trkpt lat="43.82224" lon="12.4015917"><ele>630.3333333333333</ele><time>2026-04-11T14:17:02.926Z</time></trkpt><trkpt lat="43.8222633" lon="12.40172"><ele>631.1666666666666</ele><time>2026-04-11T14:17:03.927Z</time></trkpt><trkpt lat="43.8222983" lon="12.40187"><ele>632.0</ele><time>2026-04-11T14:17:04.927Z</time></trkpt><trkpt lat="43.8223333" lon="12.4020117"><ele>632.0</ele><time>2026-04-11T14:17:05.927Z</time></trkpt><trkpt lat="43.8223667" lon="12.40215"><ele>632.0</ele><time>2026-04-11T14:17:06.926Z</time></trkpt><trkpt lat="43.82241" lon="12.4023017"><ele>632.0</ele><time>2026-04-11T14:17:07.926Z</time></trkpt><trkpt lat="43.822455" lon="12.4024483"><ele>632.0</ele><time>2026-04-11T14:17:08.927Z</time></trkpt><trkpt lat="43.8224967" lon="12.4026017"><ele>632.0</ele><time>2026-04-11T14:17:09.927Z</time></trkpt><trkpt lat="43.8225467" lon="12.4027633"><ele>632.0</ele><time>2026-04-11T14:17:10.927Z</time></trkpt><trkpt lat="43.8226" lon="12.4029217"><ele>632.0</ele><time>2026-04-11T14:17:11.926Z</time></trkpt><trkpt lat="43.8226483" lon="12.4030667"><ele>632.0</ele><time>2026-04-11T14:17:12.927Z</time></trkpt><trkpt lat="43.822705" lon="12.4032133"><ele>630.0</ele><time>2026-04-11T14:17:13.927Z</time></trkpt><trkpt lat="43.8227633" lon="12.4033683"><ele>628.0</ele><time>2026-04-11T14:17:14.926Z</time></trkpt><trkpt lat="43.8228317" lon="12.4035283"><ele>626.0</ele><time>2026-04-11T14:17:15.927Z</time></trkpt><trkpt lat="43.8229017" lon="12.4036783"><ele>624.0</ele><time>2026-04-11T14:17:16.926Z</time></trkpt><trkpt lat="43.8229783" lon="12.40381"><ele>625.5</ele><time>2026-04-11T14:17:17.927Z</time></trkpt><trkpt lat="43.8230667" lon="12.4039467"><ele>627.0</ele><time>2026-04-11T14:17:18.926Z</time></trkpt><trkpt lat="43.8231667" lon="12.40408"><ele>628.5</ele><time>2026-04-11T14:17:19.926Z</time></trkpt><trkpt lat="43.8232667" lon="12.4042217"><ele>630.0</ele><time>2026-04-11T14:17:20.927Z</time></trkpt><trkpt lat="43.82335" lon="12.4043783"><ele>630.0</ele><time>2026-04-11T14:17:21.927Z</time></trkpt><trkpt lat="43.8234083" lon="12.404555"><ele>630.0</ele><time>2026-04-11T14:17:22.927Z</time></trkpt><trkpt lat="43.8234433" lon="12.4047267"><ele>630.0</ele><time>2026-04-11T14:17:23.926Z</time></trkpt><trkpt lat="43.8234767" lon="12.4049017"><ele>630.0</ele><time>2026-04-11T14:17:24.926Z</time></trkpt><trkpt lat="43.8235017" lon="12.4050783"><ele>630.0</ele><time>2026-04-11T14:17:25.927Z</time></trkpt><trkpt lat="43.8235333" lon="12.4052533"><ele>630.0</ele><time>2026-04-11T14:17:26.927Z</time></trkpt><trkpt lat="43.82357" lon="12.4054333"><ele>630.0</ele><time>2026-04-11T14:17:27.926Z</time></trkpt><trkpt lat="43.823625" lon="12.4056067"><ele>630.0</ele><time>2026-04-11T14:17:28.927Z</time></trkpt><trkpt lat="43.8237067" lon="12.4057717"><ele>630.0</ele><time>2026-04-11T14:17:29.927Z</time></trkpt><trkpt lat="43.8237917" lon="12.4059167"><ele>630.0</ele><time>2026-04-11T14:17:30.926Z</time></trkpt><trkpt lat="43.8238983" lon="12.4060433"><ele>630.0</ele><time>2026-04-11T14:17:31.927Z</time></trkpt><trkpt lat="43.8240067" lon="12.4061617"><ele>630.0</ele><time>2026-04-11T14:17:32.927Z</time></trkpt><trkpt lat="43.8241217" lon="12.4062783"><ele>631.0</ele><time>2026-04-11T14:17:33.927Z</time></trkpt><trkpt lat="43.82424" lon="12.4064033"><ele>632.0</ele><time>2026-04-11T14:17:34.927Z</time></trkpt><trkpt lat="43.8243667" lon="12.4065183"><ele>633.0</ele><time>2026-04-11T14:17:35.927Z</time></trkpt><trkpt lat="43.824505" lon="12.4066033"><ele>633.0</ele><time>2026-04-11T14:17:36.927Z</time></trkpt><trkpt lat="43.82466" lon="12.4066433"><ele>633.0</ele><time>2026-04-11T14:17:37.927Z</time></trkpt><trkpt lat="43.8248267" lon="12.4066733"><ele>633.0</ele><time>2026-04-11T14:17:38.926Z</time></trkpt><trkpt lat="43.8249967" lon="12.4066783"><ele>631.0</ele><time>2026-04-11T14:17:39.927Z</time></trkpt><trkpt lat="43.8251783" lon="12.406665"><ele>629.0</ele><time>2026-04-11T14:17:40.927Z</time></trkpt><trkpt lat="43.8253533" lon="12.4066317"><ele>627.0</ele><time>2026-04-11T14:17:41.926Z</time></trkpt><trkpt lat="43.825525" lon="12.4065967"><ele>627.0</ele><time>2026-04-11T14:17:42.926Z</time></trkpt><trkpt lat="43.82569" lon="12.406585"><ele>627.0</ele><time>2026-04-11T14:17:43.926Z</time></trkpt><trkpt lat="43.8258317" lon="12.4066017"><ele>627.0</ele><time>2026-04-11T14:17:44.926Z</time></trkpt><trkpt lat="43.8259717" lon="12.4066617"><ele>624.75</ele><time>2026-04-11T14:17:45.926Z</time></trkpt><trkpt lat="43.8260783" lon="12.4067367"><ele>622.5</ele><time>2026-04-11T14:17:46.926Z</time></trkpt><trkpt lat="43.8261767" lon="12.40685"><ele>620.25</ele><time>2026-04-11T14:17:47.927Z</time></trkpt><trkpt lat="43.8262683" lon="12.4069983"><ele>618.0</ele><time>2026-04-11T14:17:48.926Z</time></trkpt><trkpt lat="43.8263317" lon="12.4071683"><ele>618.0</ele><time>2026-04-11T14:17:49.927Z</time></trkpt><trkpt lat="43.8263983" lon="12.4073517"><ele>618.0</ele><time>2026-04-11T14:17:50.927Z</time></trkpt><trkpt lat="43.8264583" lon="12.4075317"><ele>618.0</ele><time>2026-04-11T14:17:51.926Z</time></trkpt><trkpt lat="43.8265267" lon="12.4077183"><ele>618.0</ele><time>2026-04-11T14:17:52.927Z</time></trkpt><trkpt lat="43.8265917" lon="12.40792"><ele>620.0</ele><time>2026-04-11T14:17:53.927Z</time></trkpt><trkpt lat="43.8266583" lon="12.4081233"><ele>622.0</ele><time>2026-04-11T14:17:54.927Z</time></trkpt><trkpt lat="43.8267217" lon="12.4083367"><ele>624.0</ele><time>2026-04-11T14:17:55.926Z</time></trkpt><trkpt lat="43.8267917" lon="12.40851"><ele>622.75</ele><time>2026-04-11T14:17:56.927Z</time></trkpt><trkpt lat="43.826875" lon="12.4086583"><ele>621.5</ele><time>2026-04-11T14:17:57.927Z</time></trkpt><trkpt lat="43.8269733" lon="12.4087683"><ele>620.25</ele><time>2026-04-11T14:17:58.926Z</time></trkpt><trkpt lat="43.827085" lon="12.4088133"><ele>619.0</ele><time>2026-04-11T14:17:59.927Z</time></trkpt><trkpt lat="43.8272183" lon="12.4088183"><ele>619.0</ele><time>2026-04-11T14:18:00.927Z</time></trkpt><trkpt lat="43.8273583" lon="12.40881"><ele>619.0</ele><time>2026-04-11T14:18:01.927Z</time></trkpt><trkpt lat="43.8275" lon="12.408805"><ele>619.0</ele><time>2026-04-11T14:18:02.927Z</time></trkpt><trkpt lat="43.82765" lon="12.4087933"><ele>619.0</ele><time>2026-04-11T14:18:03.927Z</time></trkpt><trkpt lat="43.8277967" lon="12.4087917"><ele>619.75</ele><time>2026-04-11T14:18:04.927Z</time></trkpt><trkpt lat="43.827945" lon="12.4088033"><ele>620.5</ele><time>2026-04-11T14:18:05.927Z</time></trkpt><trkpt lat="43.8280817" lon="12.4088133"><ele>621.25</ele><time>2026-04-11T14:18:06.926Z</time></trkpt><trkpt lat="43.8282183" lon="12.408835"><ele>622.0</ele><time>2026-04-11T14:18:07.927Z</time></trkpt><trkpt lat="43.8283483" lon="12.40889"><ele>619.25</ele><time>2026-04-11T14:18:08.927Z</time></trkpt><trkpt lat="43.82848" lon="12.408965"><ele>616.5</ele><time>2026-04-11T14:18:09.926Z</time></trkpt><trkpt lat="43.8285983" lon="12.4090783"><ele>613.75</ele><time>2026-04-11T14:18:10.926Z</time></trkpt><trkpt lat="43.828705" lon="12.40921"><ele>611.0</ele><time>2026-04-11T14:18:11.926Z</time></trkpt><trkpt lat="43.8288233" lon="12.4093233"><ele>611.0</ele><time>2026-04-11T14:18:12.926Z</time></trkpt><trkpt lat="43.8289367" lon="12.4094317"><ele>611.0</ele><time>2026-04-11T14:18:13.927Z</time></trkpt><trkpt lat="43.8290567" lon="12.4095083"><ele>611.0</ele><time>2026-04-11T14:18:14.927Z</time></trkpt><trkpt lat="43.8291883" lon="12.4095483"><ele>611.0</ele><time>2026-04-11T14:18:15.926Z</time></trkpt><trkpt lat="43.8293167" lon="12.4095783"><ele>609.5</ele><time>2026-04-11T14:18:16.927Z</time></trkpt><trkpt lat="43.82945" lon="12.4095733"><ele>608.0</ele><time>2026-04-11T14:18:17.927Z</time></trkpt><trkpt lat="43.829585" lon="12.4095783"><ele>606.5</ele><time>2026-04-11T14:18:18.926Z</time></trkpt><trkpt lat="43.829705" lon="12.4095917"><ele>605.0</ele><time>2026-04-11T14:18:19.926Z</time></trkpt><trkpt lat="43.8298317" lon="12.40961"><ele>605.0</ele><time>2026-04-11T14:18:20.927Z</time></trkpt><trkpt lat="43.82997" lon="12.40963"><ele>605.0</ele><time>2026-04-11T14:18:21.926Z</time></trkpt><trkpt lat="43.8300983" lon="12.4096667"><ele>605.0</ele><time>2026-04-11T14:18:22.927Z</time></trkpt><trkpt lat="43.83021" lon="12.4097167"><ele>605.0</ele><time>2026-04-11T14:18:23.927Z</time></trkpt><trkpt lat="43.8303" lon="12.4097867"><ele>604.0</ele><time>2026-04-11T14:18:24.927Z</time></trkpt><trkpt lat="43.8303733" lon="12.40989"><ele>603.0</ele><time>2026-04-11T14:18:25.927Z</time></trkpt><trkpt lat="43.8304183" lon="12.41"><ele>602.0</ele><time>2026-04-11T14:18:26.926Z</time></trkpt><trkpt lat="43.8304383" lon="12.4101267"><ele>601.0</ele><time>2026-04-11T14:18:27.927Z</time></trkpt><trkpt lat="43.830445" lon="12.4102683"><ele>600.0</ele><time>2026-04-11T14:18:28.926Z</time></trkpt><trkpt lat="43.83045" lon="12.41043"><ele>600.2</ele><time>2026-04-11T14:18:29.927Z</time></trkpt><trkpt lat="43.830455" lon="12.4105967"><ele>600.4</ele><time>2026-04-11T14:18:30.926Z</time></trkpt><trkpt lat="43.8304617" lon="12.41075"><ele>600.6</ele><time>2026-04-11T14:18:31.927Z</time></trkpt><trkpt lat="43.8304817" lon="12.4108967"><ele>600.8</ele><time>2026-04-11T14:18:32.926Z</time></trkpt><trkpt lat="43.8305067" lon="12.4110417"><ele>601.0</ele><time>2026-04-11T14:18:33.926Z</time></trkpt><trkpt lat="43.8305533" lon="12.4111667"><ele>601.0</ele><time>2026-04-11T14:18:34.927Z</time></trkpt><trkpt lat="43.8306033" lon="12.4112817"><ele>601.0</ele><time>2026-04-11T14:18:35.926Z</time></trkpt><trkpt lat="43.8306683" lon="12.4113883"><ele>601.0</ele><time>2026-04-11T14:18:36.926Z</time></trkpt><trkpt lat="43.830745" lon="12.4114933"><ele>601.0</ele><time>2026-04-11T14:18:37.927Z</time></trkpt><trkpt lat="43.8308283" lon="12.4115983"><ele>601.0</ele><time>2026-04-11T14:18:38.926Z</time></trkpt><trkpt lat="43.8309217" lon="12.4116933"><ele>600.2</ele><time>2026-04-11T14:18:39.927Z</time></trkpt><trkpt lat="43.8310133" lon="12.4117983"><ele>599.4000000000001</ele><time>2026-04-11T14:18:40.927Z</time></trkpt><trkpt lat="43.831105" lon="12.4118967"><ele>598.6</ele><time>2026-04-11T14:18:41.926Z</time></trkpt><trkpt lat="43.8311933" lon="12.41198"><ele>597.8000000000001</ele><time>2026-04-11T14:18:42.927Z</time></trkpt><trkpt lat="43.83128" lon="12.4120617"><ele>597.0</ele><time>2026-04-11T14:18:43.926Z</time></trkpt><trkpt lat="43.8313433" lon="12.4121383"><ele>598.2857142857143</ele><time>2026-04-11T14:18:44.927Z</time></trkpt><trkpt lat="43.83141" lon="12.4121933"><ele>599.5714285714286</ele><time>2026-04-11T14:18:45.927Z</time></trkpt><trkpt lat="43.831475" lon="12.4122417"><ele>600.8571428571429</ele><time>2026-04-11T14:18:46.926Z</time></trkpt><trkpt lat="43.83153" lon="12.4122933"><ele>602.1428571428571</ele><time>2026-04-11T14:18:47.927Z</time></trkpt><trkpt lat="43.831585" lon="12.41234"><ele>603.4285714285714</ele><time>2026-04-11T14:18:48.927Z</time></trkpt><trkpt lat="43.8316433" lon="12.4123867"><ele>604.7142857142858</ele><time>2026-04-11T14:18:49.926Z</time></trkpt><trkpt lat="43.83171" lon="12.4124333"><ele>606.0</ele><time>2026-04-11T14:18:50.926Z</time></trkpt><trkpt lat="43.8317883" lon="12.41248"><ele>603.1666666666666</ele><time>2026-04-11T14:18:51.927Z</time></trkpt><trkpt lat="43.8318617" lon="12.41253"><ele>600.3333333333334</ele><time>2026-04-11T14:18:52.927Z</time></trkpt><trkpt lat="43.8319367" lon="12.412585"><ele>597.5</ele><time>2026-04-11T14:18:53.926Z</time></trkpt><trkpt lat="43.8320117" lon="12.41264"><ele>594.6666666666667</ele><time>2026-04-11T14:18:54.927Z</time></trkpt><trkpt lat="43.8320867" lon="12.4127033"><ele>591.8333333333334</ele><time>2026-04-11T14:18:55.927Z</time></trkpt><trkpt lat="43.8321517" lon="12.4127717"><ele>589.0</ele><time>2026-04-11T14:18:56.927Z</time></trkpt><trkpt lat="43.8322117" lon="12.4128433"><ele>589.0</ele><time>2026-04-11T14:18:57.926Z</time></trkpt><trkpt lat="43.8322717" lon="12.4129067"><ele>589.0</ele><time>2026-04-11T14:18:58.927Z</time></trkpt><trkpt lat="43.8323317" lon="12.4129717"><ele>589.0</ele><time>2026-04-11T14:18:59.927Z</time></trkpt><trkpt lat="43.8323817" lon="12.4130483"><ele>589.0</ele><time>2026-04-11T14:19:00.926Z</time></trkpt><trkpt lat="43.832425" lon="12.4131233"><ele>589.0</ele><time>2026-04-11T14:19:01.927Z</time></trkpt><trkpt lat="43.8324917" lon="12.4132417"><ele>589.0</ele><time>2026-04-11T14:19:03.926Z</time></trkpt><trkpt lat="43.8325367" lon="12.4133283"><ele>591.2</ele><time>2026-04-11T14:19:05.927Z</time></trkpt><trkpt lat="43.8325017" lon="12.41347"><ele>593.4</ele><time>2026-04-11T14:19:14.926Z</time></trkpt><trkpt lat="43.8324417" lon="12.4135617"><ele>595.6</ele><time>2026-04-11T14:19:16.927Z</time></trkpt><trkpt lat="43.8324333" lon="12.41366"><ele>597.8</ele><time>2026-04-11T14:19:18.927Z</time></trkpt><trkpt lat="43.832475" lon="12.4137617"><ele>600.0</ele><time>2026-04-11T14:19:20.926Z</time></trkpt><trkpt lat="43.8325283" lon="12.4138783"><ele>599.9999999999999</ele><time>2026-04-11T14:19:22.926Z</time></trkpt><trkpt lat="43.8325583" lon="12.4139567"><ele>600.0</ele><time>2026-04-11T14:19:24.927Z</time></trkpt><trkpt lat="43.8325867" lon="12.414035"><ele>600.0</ele><time>2026-04-11T14:19:26.927Z</time></trkpt><trkpt lat="43.8326183" lon="12.4141233"><ele>600.0</ele><time>2026-04-11T14:19:28.926Z</time></trkpt><trkpt lat="43.8326833" lon="12.4141567"><ele>600.0</ele><time>2026-04-11T14:19:31.927Z</time></trkpt><trkpt lat="43.8326533" lon="12.4140517"><ele>599.9999999999999</ele><time>2026-04-11T14:19:35.926Z</time></trkpt><trkpt lat="43.8326133" lon="12.4139617"><ele>600.0</ele><time>2026-04-11T14:19:37.927Z</time></trkpt><trkpt lat="43.832565" lon="12.4138617"><ele>600.0</ele><time>2026-04-11T14:19:39.926Z</time></trkpt><trkpt lat="43.832525" lon="12.4137433"><ele>600.0</ele><time>2026-04-11T14:19:41.926Z</time></trkpt><trkpt lat="43.83248" lon="12.4136267"><ele>600.0</ele><time>2026-04-11T14:19:43.926Z</time></trkpt><trkpt lat="43.83247" lon="12.4135133"><ele>600.0</ele><time>2026-04-11T14:19:45.926Z</time></trkpt><trkpt lat="43.8325183" lon="12.4134483"><ele>600.0</ele><time>2026-04-11T14:19:47.927Z</time></trkpt><trkpt lat="43.8325833" lon="12.4134383"><ele>600.0</ele><time>2026-04-11T14:19:49.926Z</time></trkpt><trkpt lat="43.83267" lon="12.413485"><ele>596.8</ele><time>2026-04-11T14:19:51.926Z</time></trkpt><trkpt lat="43.8327833" lon="12.4135833"><ele>593.6</ele><time>2026-04-11T14:19:53.926Z</time></trkpt><trkpt lat="43.8328517" lon="12.41365"><ele>590.4</ele><time>2026-04-11T14:19:54.926Z</time></trkpt><trkpt lat="43.8329317" lon="12.41371"><ele>587.2</ele><time>2026-04-11T14:19:55.926Z</time></trkpt><trkpt lat="43.833025" lon="12.41377"><ele>584.0</ele><time>2026-04-11T14:19:56.927Z</time></trkpt><trkpt lat="43.8331233" lon="12.4138217"><ele>584.2</ele><time>2026-04-11T14:19:57.927Z</time></trkpt><trkpt lat="43.833225" lon="12.4138583"><ele>584.4</ele><time>2026-04-11T14:19:58.927Z</time></trkpt><trkpt lat="43.8333383" lon="12.4138867"><ele>584.6</ele><time>2026-04-11T14:19:59.926Z</time></trkpt><trkpt lat="43.83345" lon="12.4139017"><ele>584.8</ele><time>2026-04-11T14:20:00.927Z</time></trkpt><trkpt lat="43.8335617" lon="12.41392"><ele>585.0</ele><time>2026-04-11T14:20:01.927Z</time></trkpt><trkpt lat="43.8336583" lon="12.413945"><ele>585.0</ele><time>2026-04-11T14:20:02.927Z</time></trkpt><trkpt lat="43.8337483" lon="12.413965"><ele>585.0</ele><time>2026-04-11T14:20:03.926Z</time></trkpt><trkpt lat="43.8338483" lon="12.4139867"><ele>585.0</ele><time>2026-04-11T14:20:04.927Z</time></trkpt><trkpt lat="43.8339533" lon="12.4140117"><ele>585.0</ele><time>2026-04-11T14:20:05.926Z</time></trkpt><trkpt lat="43.8340567" lon="12.414055"><ele>585.0</ele><time>2026-04-11T14:20:06.927Z</time></trkpt><trkpt lat="43.83417" lon="12.4141267"><ele>585.0</ele><time>2026-04-11T14:20:07.926Z</time></trkpt><trkpt lat="43.834295" lon="12.4141967"><ele>585.0</ele><time>2026-04-11T14:20:08.926Z</time></trkpt><trkpt lat="43.8344167" lon="12.4142683"><ele>585.0</ele><time>2026-04-11T14:20:09.927Z</time></trkpt><trkpt lat="43.8345517" lon="12.4143483"><ele>585.0</ele><time>2026-04-11T14:20:10.926Z</time></trkpt><trkpt lat="43.8346867" lon="12.414425"><ele>585.25</ele><time>2026-04-11T14:20:11.926Z</time></trkpt><trkpt lat="43.8348183" lon="12.4145033"><ele>585.5</ele><time>2026-04-11T14:20:12.926Z</time></trkpt><trkpt lat="43.8349583" lon="12.414585"><ele>585.75</ele><time>2026-04-11T14:20:13.927Z</time></trkpt><trkpt lat="43.83509" lon="12.4146667"><ele>586.0</ele><time>2026-04-11T14:20:14.926Z</time></trkpt><trkpt lat="43.8352217" lon="12.4147483"><ele>581.25</ele><time>2026-04-11T14:20:15.926Z</time></trkpt><trkpt lat="43.8353417" lon="12.4148483"><ele>576.5</ele><time>2026-04-11T14:20:16.927Z</time></trkpt><trkpt lat="43.835475" lon="12.41496"><ele>571.75</ele><time>2026-04-11T14:20:17.927Z</time></trkpt><trkpt lat="43.8355983" lon="12.4150667"><ele>567.0</ele><time>2026-04-11T14:20:18.927Z</time></trkpt><trkpt lat="43.8357183" lon="12.4151817"><ele>567.0</ele><time>2026-04-11T14:20:19.927Z</time></trkpt><trkpt lat="43.8358317" lon="12.4152883"><ele>567.0</ele><time>2026-04-11T14:20:20.926Z</time></trkpt><trkpt lat="43.8359267" lon="12.4154183"><ele>567.0</ele><time>2026-04-11T14:20:21.927Z</time></trkpt><trkpt lat="43.8360017" lon="12.4155633"><ele>567.0</ele><time>2026-04-11T14:20:22.927Z</time></trkpt><trkpt lat="43.8360733" lon="12.41574"><ele>565.0</ele><time>2026-04-11T14:20:23.926Z</time></trkpt><trkpt lat="43.8361317" lon="12.4159067"><ele>563.0</ele><time>2026-04-11T14:20:24.927Z</time></trkpt><trkpt lat="43.83619" lon="12.4160417"><ele>561.0</ele><time>2026-04-11T14:20:25.926Z</time></trkpt><trkpt lat="43.836245" lon="12.4161683"><ele>559.0</ele><time>2026-04-11T14:20:26.927Z</time></trkpt><trkpt lat="43.8363133" lon="12.416285"><ele>560.0</ele><time>2026-04-11T14:20:27.927Z</time></trkpt><trkpt lat="43.836395" lon="12.4163983"><ele>561.0</ele><time>2026-04-11T14:20:28.927Z</time></trkpt><trkpt lat="43.8364867" lon="12.4165033"><ele>562.0</ele><time>2026-04-11T14:20:29.927Z</time></trkpt><trkpt lat="43.8365917" lon="12.4166133"><ele>563.0</ele><time>2026-04-11T14:20:30.926Z</time></trkpt><trkpt lat="43.8367" lon="12.4167317"><ele>560.0</ele><time>2026-04-11T14:20:31.926Z</time></trkpt><trkpt lat="43.8368133" lon="12.4168533"><ele>557.0</ele><time>2026-04-11T14:20:32.926Z</time></trkpt><trkpt lat="43.83693" lon="12.4169867"><ele>554.0</ele><time>2026-04-11T14:20:33.926Z</time></trkpt><trkpt lat="43.8370383" lon="12.41714"><ele>551.0</ele><time>2026-04-11T14:20:34.927Z</time></trkpt><trkpt lat="43.83715" lon="12.4172783"><ele>551.0</ele><time>2026-04-11T14:20:35.927Z</time></trkpt><trkpt lat="43.83725" lon="12.4174133"><ele>551.0</ele><time>2026-04-11T14:20:36.927Z</time></trkpt><trkpt lat="43.8373333" lon="12.417555"><ele>551.0</ele><time>2026-04-11T14:20:37.926Z</time></trkpt><trkpt lat="43.8373917" lon="12.4177083"><ele>551.0</ele><time>2026-04-11T14:20:38.926Z</time></trkpt><trkpt lat="43.837445" lon="12.417875"><ele>551.2</ele><time>2026-04-11T14:20:39.927Z</time></trkpt><trkpt lat="43.837495" lon="12.4180267"><ele>551.4000000000001</ele><time>2026-04-11T14:20:40.926Z</time></trkpt><trkpt lat="43.8375667" lon="12.418135"><ele>551.6</ele><time>2026-04-11T14:20:41.927Z</time></trkpt><trkpt lat="43.8376483" lon="12.4182167"><ele>551.8000000000001</ele><time>2026-04-11T14:20:42.926Z</time></trkpt><trkpt lat="43.8377433" lon="12.4182533"><ele>552.0</ele><time>2026-04-11T14:20:43.927Z</time></trkpt><trkpt lat="43.8378383" lon="12.4182533"><ele>549.6</ele><time>2026-04-11T14:20:44.926Z</time></trkpt><trkpt lat="43.83793" lon="12.4182117"><ele>547.2</ele><time>2026-04-11T14:20:45.927Z</time></trkpt><trkpt lat="43.838" lon="12.418135"><ele>544.8</ele><time>2026-04-11T14:20:46.927Z</time></trkpt><trkpt lat="43.8380483" lon="12.4180317"><ele>542.4</ele><time>2026-04-11T14:20:47.927Z</time></trkpt><trkpt lat="43.8380683" lon="12.4178883"><ele>540.0</ele><time>2026-04-11T14:20:48.927Z</time></trkpt><trkpt lat="43.8380817" lon="12.417745"><ele>539.25</ele><time>2026-04-11T14:20:49.927Z</time></trkpt><trkpt lat="43.8380717" lon="12.4175933"><ele>538.5</ele><time>2026-04-11T14:20:50.926Z</time></trkpt><trkpt lat="43.83806" lon="12.4174283"><ele>537.75</ele><time>2026-04-11T14:20:51.927Z</time></trkpt><trkpt lat="43.8380633" lon="12.4172567"><ele>537.0</ele><time>2026-04-11T14:20:52.926Z</time></trkpt><trkpt lat="43.83807" lon="12.4170867"><ele>537.0</ele><time>2026-04-11T14:20:53.926Z</time></trkpt><trkpt lat="43.8380883" lon="12.416925"><ele>537.0</ele><time>2026-04-11T14:20:54.926Z</time></trkpt><trkpt lat="43.8381067" lon="12.416755"><ele>537.0</ele><time>2026-04-11T14:20:55.926Z</time></trkpt><trkpt lat="43.8381367" lon="12.416585"><ele>537.0</ele><time>2026-04-11T14:20:56.926Z</time></trkpt><trkpt lat="43.8381717" lon="12.41641"><ele>536.5</ele><time>2026-04-11T14:20:57.926Z</time></trkpt><trkpt lat="43.8382083" lon="12.4162417"><ele>536.0</ele><time>2026-04-11T14:20:58.926Z</time></trkpt><trkpt lat="43.838235" lon="12.41608"><ele>535.5</ele><time>2026-04-11T14:20:59.926Z</time></trkpt><trkpt lat="43.83826" lon="12.4159333"><ele>535.0</ele><time>2026-04-11T14:21:00.926Z</time></trkpt><trkpt lat="43.8382833" lon="12.4157733"><ele>535.0</ele><time>2026-04-11T14:21:01.927Z</time></trkpt><trkpt lat="43.8382983" lon="12.4156333"><ele>535.0</ele><time>2026-04-11T14:21:02.926Z</time></trkpt><trkpt lat="43.838305" lon="12.415495"><ele>535.0</ele><time>2026-04-11T14:21:03.927Z</time></trkpt><trkpt lat="43.838305" lon="12.4153717"><ele>535.0</ele><time>2026-04-11T14:21:04.926Z</time></trkpt><trkpt lat="43.8383033" lon="12.4152467"><ele>535.0</ele><time>2026-04-11T14:21:05.927Z</time></trkpt><trkpt lat="43.8382917" lon="12.41511"><ele>534.6</ele><time>2026-04-11T14:21:06.927Z</time></trkpt><trkpt lat="43.8382817" lon="12.4149667"><ele>534.2</ele><time>2026-04-11T14:21:07.927Z</time></trkpt><trkpt lat="43.8382933" lon="12.4148183"><ele>533.8</ele><time>2026-04-11T14:21:08.927Z</time></trkpt><trkpt lat="43.8382833" lon="12.4146867"><ele>533.4</ele><time>2026-04-11T14:21:09.926Z</time></trkpt><trkpt lat="43.83827" lon="12.4145483"><ele>533.0</ele><time>2026-04-11T14:21:10.927Z</time></trkpt><trkpt lat="43.838255" lon="12.4144233"><ele>532.0</ele><time>2026-04-11T14:21:11.926Z</time></trkpt><trkpt lat="43.8382417" lon="12.4142917"><ele>531.0</ele><time>2026-04-11T14:21:12.926Z</time></trkpt><trkpt lat="43.83824" lon="12.4141633"><ele>530.0</ele><time>2026-04-11T14:21:13.927Z</time></trkpt><trkpt lat="43.838225" lon="12.4140283"><ele>529.0</ele><time>2026-04-11T14:21:14.927Z</time></trkpt><trkpt lat="43.838215" lon="12.4139067"><ele>528.0</ele><time>2026-04-11T14:21:15.926Z</time></trkpt><trkpt lat="43.8382217" lon="12.4137917"><ele>527.0</ele><time>2026-04-11T14:21:16.927Z</time></trkpt><trkpt lat="43.83825" lon="12.4137"><ele>526.0</ele><time>2026-04-11T14:21:17.927Z</time></trkpt><trkpt lat="43.8383067" lon="12.4136367"><ele>525.0</ele><time>2026-04-11T14:21:18.927Z</time></trkpt><trkpt lat="43.8383883" lon="12.4136417"><ele>524.0</ele><time>2026-04-11T14:21:19.927Z</time></trkpt><trkpt lat="43.8384733" lon="12.413685"><ele>523.0</ele><time>2026-04-11T14:21:20.926Z</time></trkpt><trkpt lat="43.838555" lon="12.4137467"><ele>522.0</ele><time>2026-04-11T14:21:21.927Z</time></trkpt><trkpt lat="43.838635" lon="12.4138033"><ele>521.5</ele><time>2026-04-11T14:21:22.927Z</time></trkpt><trkpt lat="43.8387183" lon="12.413855"><ele>521.0</ele><time>2026-04-11T14:21:23.927Z</time></trkpt><trkpt lat="43.8387867" lon="12.413895"><ele>520.5</ele><time>2026-04-11T14:21:24.927Z</time></trkpt><trkpt lat="43.838855" lon="12.4139233"><ele>520.0</ele><time>2026-04-11T14:21:25.927Z</time></trkpt><trkpt lat="43.8389783" lon="12.4139117"><ele>519.5</ele><time>2026-04-11T14:21:27.926Z</time></trkpt><trkpt lat="43.8390417" lon="12.4138617"><ele>519.0</ele><time>2026-04-11T14:21:28.927Z</time></trkpt><trkpt lat="43.839105" lon="12.4138"><ele>519.0</ele><time>2026-04-11T14:21:29.926Z</time></trkpt><trkpt lat="43.8391683" lon="12.413725"><ele>519.0</ele><time>2026-04-11T14:21:30.927Z</time></trkpt><trkpt lat="43.8392317" lon="12.4136533"><ele>519.0</ele><time>2026-04-11T14:21:31.926Z</time></trkpt><trkpt lat="43.8392967" lon="12.41359"><ele>519.0</ele><time>2026-04-11T14:21:32.926Z</time></trkpt><trkpt lat="43.8393667" lon="12.41353"><ele>519.0</ele><time>2026-04-11T14:21:33.926Z</time></trkpt><trkpt lat="43.8394267" lon="12.4134883"><ele>519.0</ele><time>2026-04-11T14:21:34.927Z</time></trkpt><trkpt lat="43.8394983" lon="12.41347"><ele>519.0</ele><time>2026-04-11T14:21:35.926Z</time></trkpt><trkpt lat="43.8395683" lon="12.4134533"><ele>519.0</ele><time>2026-04-11T14:21:36.927Z</time></trkpt><trkpt lat="43.8396933" lon="12.41347"><ele>519.0</ele><time>2026-04-11T14:21:38.926Z</time></trkpt><trkpt lat="43.8397617" lon="12.4134967"><ele>519.0</ele><time>2026-04-11T14:21:39.926Z</time></trkpt><trkpt lat="43.8398267" lon="12.41353"><ele>519.0</ele><time>2026-04-11T14:21:40.927Z</time></trkpt><trkpt lat="43.8398983" lon="12.4135417"><ele>519.0</ele><time>2026-04-11T14:21:41.926Z</time></trkpt><trkpt lat="43.8399683" lon="12.4135467"><ele>519.0</ele><time>2026-04-11T14:21:42.927Z</time></trkpt><trkpt lat="43.8400333" lon="12.41354"><ele>519.0</ele><time>2026-04-11T14:21:43.927Z</time></trkpt><trkpt lat="43.8400967" lon="12.4135183"><ele>519.0</ele><time>2026-04-11T14:21:44.927Z</time></trkpt><trkpt lat="43.8401617" lon="12.41349"><ele>519.0</ele><time>2026-04-11T14:21:45.926Z</time></trkpt><trkpt lat="43.840235" lon="12.41346"><ele>519.0</ele><time>2026-04-11T14:21:46.926Z</time></trkpt><trkpt lat="43.8403067" lon="12.41343"><ele>519.0</ele><time>2026-04-11T14:21:47.927Z</time></trkpt><trkpt lat="43.840375" lon="12.4133967"><ele>519.0</ele><time>2026-04-11T14:21:48.927Z</time></trkpt><trkpt lat="43.8404383" lon="12.41337"><ele>516.8</ele><time>2026-04-11T14:21:49.927Z</time></trkpt><trkpt lat="43.840545" lon="12.4133117"><ele>514.5999999999999</ele><time>2026-04-11T14:21:51.927Z</time></trkpt><trkpt lat="43.8406333" lon="12.41325"><ele>512.4</ele><time>2026-04-11T14:21:53.926Z</time></trkpt><trkpt lat="43.8406917" lon="12.4131933"><ele>510.2</ele><time>2026-04-11T14:21:56.925Z</time></trkpt><trkpt lat="43.8406183" lon="12.4130983"><ele>508.0</ele><time>2026-04-11T14:24:51.926Z</time></trkpt><trkpt lat="43.8406867" lon="12.4129717"><ele>508.00000000000006</ele><time>2026-04-11T14:31:33.925Z</time></trkpt><trkpt lat="43.8407417" lon="12.4129167"><ele>508.0</ele><time>2026-04-11T14:31:34.925Z</time></trkpt><trkpt lat="43.8407933" lon="12.41286"><ele>508.0</ele><time>2026-04-11T14:31:35.925Z</time></trkpt><trkpt lat="43.8408783" lon="12.4127533"><ele>508.0</ele><time>2026-04-11T14:31:37.925Z</time></trkpt><trkpt lat="43.8409483" lon="12.412665"><ele>508.00000000000006</ele><time>2026-04-11T14:31:39.925Z</time></trkpt><trkpt lat="43.841015" lon="12.4126683"><ele>508.0</ele><time>2026-04-11T14:31:41.925Z</time></trkpt><trkpt lat="43.84109" lon="12.412815"><ele>507.33333333333337</ele><time>2026-04-11T14:31:43.924Z</time></trkpt><trkpt lat="43.841125" lon="12.412905"><ele>506.6666666666667</ele><time>2026-04-11T14:31:44.924Z</time></trkpt><trkpt lat="43.841135" lon="12.4129933"><ele>506.0</ele><time>2026-04-11T14:31:45.925Z</time></trkpt><trkpt lat="43.8411167" lon="12.4130867"><ele>505.33333333333337</ele><time>2026-04-11T14:31:46.925Z</time></trkpt><trkpt lat="43.84107" lon="12.4131483"><ele>504.6666666666667</ele><time>2026-04-11T14:31:47.925Z</time></trkpt><trkpt lat="43.8409983" lon="12.4132117"><ele>504.0</ele><time>2026-04-11T14:31:48.924Z</time></trkpt><trkpt lat="43.8409117" lon="12.4132817"><ele>504.0</ele><time>2026-04-11T14:31:49.924Z</time></trkpt><trkpt lat="43.8408383" lon="12.4133383"><ele>504.0</ele><time>2026-04-11T14:31:50.924Z</time></trkpt><trkpt lat="43.8407683" lon="12.4134017"><ele>504.0</ele><time>2026-04-11T14:31:51.925Z</time></trkpt><trkpt lat="43.8407" lon="12.4134617"><ele>504.0</ele><time>2026-04-11T14:31:52.924Z</time></trkpt><trkpt lat="43.8406333" lon="12.413535"><ele>504.0</ele><time>2026-04-11T14:31:53.924Z</time></trkpt><trkpt lat="43.8405467" lon="12.4136033"><ele>504.0</ele><time>2026-04-11T14:31:54.925Z</time></trkpt><trkpt lat="43.8404667" lon="12.4136683"><ele>504.0</ele><time>2026-04-11T14:31:55.924Z</time></trkpt><trkpt lat="43.8404083" lon="12.4137233"><ele>504.0</ele><time>2026-04-11T14:31:56.925Z</time></trkpt><trkpt lat="43.8403583" lon="12.4138083"><ele>504.0</ele><time>2026-04-11T14:31:57.925Z</time></trkpt><trkpt lat="43.8403217" lon="12.41389"><ele>504.0</ele><time>2026-04-11T14:31:58.925Z</time></trkpt><trkpt lat="43.8403217" lon="12.4140567"><ele>504.0</ele><time>2026-04-11T14:32:00.925Z</time></trkpt><trkpt lat="43.8403533" lon="12.41414"><ele>504.0</ele><time>2026-04-11T14:32:01.924Z</time></trkpt><trkpt lat="43.8403967" lon="12.4142333"><ele>502.1666666666667</ele><time>2026-04-11T14:32:02.925Z</time></trkpt><trkpt lat="43.84046" lon="12.4142767"><ele>500.33333333333337</ele><time>2026-04-11T14:32:03.924Z</time></trkpt><trkpt lat="43.84053" lon="12.4142817"><ele>498.5</ele><time>2026-04-11T14:32:04.924Z</time></trkpt><trkpt lat="43.840615" lon="12.41427"><ele>496.6666666666667</ele><time>2026-04-11T14:32:05.925Z</time></trkpt><trkpt lat="43.840685" lon="12.4142367"><ele>494.83333333333337</ele><time>2026-04-11T14:32:06.925Z</time></trkpt><trkpt lat="43.8407667" lon="12.41419"><ele>493.0</ele><time>2026-04-11T14:32:07.924Z</time></trkpt><trkpt lat="43.8408383" lon="12.4141317"><ele>493.0</ele><time>2026-04-11T14:32:08.924Z</time></trkpt><trkpt lat="43.8409217" lon="12.4140717"><ele>492.99999999999994</ele><time>2026-04-11T14:32:09.924Z</time></trkpt><trkpt lat="43.8410033" lon="12.41399"><ele>492.99999999999994</ele><time>2026-04-11T14:32:10.924Z</time></trkpt><trkpt lat="43.8411" lon="12.4139133"><ele>493.0</ele><time>2026-04-11T14:32:11.924Z</time></trkpt><trkpt lat="43.8412017" lon="12.4138283"><ele>493.0</ele><time>2026-04-11T14:32:12.924Z</time></trkpt><trkpt lat="43.84131" lon="12.413745"><ele>491.25</ele><time>2026-04-11T14:32:13.925Z</time></trkpt><trkpt lat="43.8414217" lon="12.4136617"><ele>489.5</ele><time>2026-04-11T14:32:14.925Z</time></trkpt><trkpt lat="43.8415267" lon="12.4135883"><ele>487.75</ele><time>2026-04-11T14:32:15.925Z</time></trkpt><trkpt lat="43.8416333" lon="12.4135117"><ele>486.0</ele><time>2026-04-11T14:32:16.925Z</time></trkpt><trkpt lat="43.8417433" lon="12.4134317"><ele>482.6</ele><time>2026-04-11T14:32:17.924Z</time></trkpt><trkpt lat="43.8418433" lon="12.4133683"><ele>479.20000000000005</ele><time>2026-04-11T14:32:18.925Z</time></trkpt><trkpt lat="43.841935" lon="12.413295"><ele>475.79999999999995</ele><time>2026-04-11T14:32:19.925Z</time></trkpt><trkpt lat="43.84203" lon="12.4132217"><ele>472.4</ele><time>2026-04-11T14:32:20.924Z</time></trkpt><trkpt lat="43.8421167" lon="12.41314"><ele>469.0</ele><time>2026-04-11T14:32:21.924Z</time></trkpt><trkpt lat="43.8422" lon="12.41307"><ele>469.0</ele><time>2026-04-11T14:32:22.925Z</time></trkpt><trkpt lat="43.8422767" lon="12.413005"><ele>469.0</ele><time>2026-04-11T14:32:23.925Z</time></trkpt><trkpt lat="43.8423533" lon="12.4129467"><ele>469.0</ele><time>2026-04-11T14:32:24.925Z</time></trkpt><trkpt lat="43.8424433" lon="12.4128817"><ele>469.0</ele><time>2026-04-11T14:32:25.925Z</time></trkpt><trkpt lat="43.8425283" lon="12.4128083"><ele>469.0</ele><time>2026-04-11T14:32:26.925Z</time></trkpt><trkpt lat="43.8425883" lon="12.4127233"><ele>468.83333333333337</ele><time>2026-04-11T14:32:27.925Z</time></trkpt><trkpt lat="43.8426267" lon="12.412645"><ele>468.6666666666667</ele><time>2026-04-11T14:32:28.925Z</time></trkpt><trkpt lat="43.84264" lon="12.4125283"><ele>468.5</ele><time>2026-04-11T14:32:29.925Z</time></trkpt><trkpt lat="43.8426317" lon="12.41241"><ele>468.33333333333337</ele><time>2026-04-11T14:32:30.924Z</time></trkpt><trkpt lat="43.8426233" lon="12.412275"><ele>468.1666666666667</ele><time>2026-04-11T14:32:31.924Z</time></trkpt><trkpt lat="43.84261" lon="12.41213"><ele>468.0</ele><time>2026-04-11T14:32:32.925Z</time></trkpt><trkpt lat="43.84262" lon="12.4119817"><ele>469.79999999999995</ele><time>2026-04-11T14:32:33.925Z</time></trkpt><trkpt lat="43.8426467" lon="12.4118333"><ele>471.59999999999997</ele><time>2026-04-11T14:32:34.924Z</time></trkpt><trkpt lat="43.84267" lon="12.411685"><ele>473.40000000000003</ele><time>2026-04-11T14:32:35.925Z</time></trkpt><trkpt lat="43.842685" lon="12.411565"><ele>475.20000000000005</ele><time>2026-04-11T14:32:36.925Z</time></trkpt><trkpt lat="43.8426867" lon="12.4114667"><ele>477.0</ele><time>2026-04-11T14:32:37.924Z</time></trkpt><trkpt lat="43.84262" lon="12.4113033"><ele>477.0</ele><time>2026-04-11T14:32:39.925Z</time></trkpt><trkpt lat="43.8425533" lon="12.41123"><ele>477.0</ele><time>2026-04-11T14:32:40.925Z</time></trkpt><trkpt lat="43.8424767" lon="12.41117"><ele>477.0</ele><time>2026-04-11T14:32:41.925Z</time></trkpt><trkpt lat="43.8424" lon="12.4110817"><ele>477.0</ele><time>2026-04-11T14:32:42.924Z</time></trkpt><trkpt lat="43.8423467" lon="12.411"><ele>477.0</ele><time>2026-04-11T14:32:43.924Z</time></trkpt><trkpt lat="43.842365" lon="12.4108683"><ele>477.0</ele><time>2026-04-11T14:32:45.924Z</time></trkpt><trkpt lat="43.8424283" lon="12.4108717"><ele>477.0</ele><time>2026-04-11T14:32:46.925Z</time></trkpt><trkpt lat="43.84251" lon="12.4108833"><ele>477.0</ele><time>2026-04-11T14:32:47.925Z</time></trkpt><trkpt lat="43.842595" lon="12.4109"><ele>477.0</ele><time>2026-04-11T14:32:48.925Z</time></trkpt><trkpt lat="43.8426867" lon="12.4109167"><ele>477.0</ele><time>2026-04-11T14:32:49.925Z</time></trkpt><trkpt lat="43.8427783" lon="12.4109367"><ele>477.0</ele><time>2026-04-11T14:32:50.924Z</time></trkpt><trkpt lat="43.8428717" lon="12.4109617"><ele>477.0</ele><time>2026-04-11T14:32:51.925Z</time></trkpt><trkpt lat="43.8429633" lon="12.41099"><ele>480.40000000000003</ele><time>2026-04-11T14:32:52.925Z</time></trkpt><trkpt lat="43.84305" lon="12.4110233"><ele>483.80000000000007</ele><time>2026-04-11T14:32:53.925Z</time></trkpt><trkpt lat="43.8431383" lon="12.4110633"><ele>487.2</ele><time>2026-04-11T14:32:54.924Z</time></trkpt><trkpt lat="43.8432233" lon="12.4111167"><ele>490.6</ele><time>2026-04-11T14:32:55.925Z</time></trkpt><trkpt lat="43.843305" lon="12.4111917"><ele>494.0</ele><time>2026-04-11T14:32:56.925Z</time></trkpt><trkpt lat="43.8433683" lon="12.4113033"><ele>491.79999999999995</ele><time>2026-04-11T14:32:57.924Z</time></trkpt><trkpt lat="43.8434267" lon="12.4114183"><ele>489.59999999999997</ele><time>2026-04-11T14:32:58.925Z</time></trkpt><trkpt lat="43.84348" lon="12.4115433"><ele>487.4</ele><time>2026-04-11T14:32:59.924Z</time></trkpt><trkpt lat="43.8435217" lon="12.411675"><ele>485.2</ele><time>2026-04-11T14:33:00.925Z</time></trkpt><trkpt lat="43.84355" lon="12.4118067"><ele>483.0</ele><time>2026-04-11T14:33:01.925Z</time></trkpt><trkpt lat="43.8435567" lon="12.411965"><ele>485.79999999999995</ele><time>2026-04-11T14:33:02.924Z</time></trkpt><trkpt lat="43.8435617" lon="12.4121133"><ele>488.59999999999997</ele><time>2026-04-11T14:33:03.925Z</time></trkpt><trkpt lat="43.843575" lon="12.412255"><ele>491.40000000000003</ele><time>2026-04-11T14:33:04.925Z</time></trkpt><trkpt lat="43.8436017" lon="12.412395"><ele>494.20000000000005</ele><time>2026-04-11T14:33:05.925Z</time></trkpt><trkpt lat="43.8436367" lon="12.4125117"><ele>497.0</ele><time>2026-04-11T14:33:06.924Z</time></trkpt><trkpt lat="43.8436967" lon="12.4126117"><ele>497.0</ele><time>2026-04-11T14:33:07.925Z</time></trkpt><trkpt lat="43.84378" lon="12.4127167"><ele>497.0</ele><time>2026-04-11T14:33:08.925Z</time></trkpt><trkpt lat="43.8438783" lon="12.4127917"><ele>497.0</ele><time>2026-04-11T14:33:09.925Z</time></trkpt><trkpt lat="43.843985" lon="12.4128533"><ele>497.0</ele><time>2026-04-11T14:33:10.924Z</time></trkpt><trkpt lat="43.844095" lon="12.4129117"><ele>497.0</ele><time>2026-04-11T14:33:11.924Z</time></trkpt><trkpt lat="43.8442033" lon="12.4129633"><ele>497.0</ele><time>2026-04-11T14:33:12.925Z</time></trkpt><trkpt lat="43.8443183" lon="12.412995"><ele>497.0</ele><time>2026-04-11T14:33:13.925Z</time></trkpt><trkpt lat="43.844435" lon="12.41302"><ele>497.0</ele><time>2026-04-11T14:33:14.924Z</time></trkpt><trkpt lat="43.84455" lon="12.4130117"><ele>500.75</ele><time>2026-04-11T14:33:15.925Z</time></trkpt><trkpt lat="43.844665" lon="12.4129833"><ele>504.5</ele><time>2026-04-11T14:33:16.925Z</time></trkpt><trkpt lat="43.8447867" lon="12.4129617"><ele>508.25</ele><time>2026-04-11T14:33:17.925Z</time></trkpt><trkpt lat="43.8449117" lon="12.4129367"><ele>512.0</ele><time>2026-04-11T14:33:18.925Z</time></trkpt><trkpt lat="43.845035" lon="12.4129233"><ele>512.5</ele><time>2026-04-11T14:33:19.925Z</time></trkpt><trkpt lat="43.8451617" lon="12.412905"><ele>513.0</ele><time>2026-04-11T14:33:20.925Z</time></trkpt><trkpt lat="43.8452933" lon="12.4128717"><ele>513.5</ele><time>2026-04-11T14:33:21.924Z</time></trkpt><trkpt lat="43.8454267" lon="12.4128333"><ele>514.0</ele><time>2026-04-11T14:33:22.925Z</time></trkpt><trkpt lat="43.845565" lon="12.4128017"><ele>514.0</ele><time>2026-04-11T14:33:23.924Z</time></trkpt><trkpt lat="43.845705" lon="12.4127717"><ele>514.0</ele><time>2026-04-11T14:33:24.924Z</time></trkpt><trkpt lat="43.8458383" lon="12.412755"><ele>514.0</ele><time>2026-04-11T14:33:25.925Z</time></trkpt><trkpt lat="43.84596" lon="12.4127533"><ele>514.0</ele><time>2026-04-11T14:33:26.925Z</time></trkpt><trkpt lat="43.8460683" lon="12.4127533"><ele>513.5</ele><time>2026-04-11T14:33:27.925Z</time></trkpt><trkpt lat="43.8461767" lon="12.4127633"><ele>513.0</ele><time>2026-04-11T14:33:28.924Z</time></trkpt><trkpt lat="43.84626" lon="12.4127583"><ele>512.5</ele><time>2026-04-11T14:33:29.925Z</time></trkpt><trkpt lat="43.8463367" lon="12.4127333"><ele>512.0</ele><time>2026-04-11T14:33:30.925Z</time></trkpt><trkpt lat="43.846405" lon="12.4126817"><ele>511.50000000000006</ele><time>2026-04-11T14:33:31.925Z</time></trkpt><trkpt lat="43.8464683" lon="12.41262"><ele>511.0</ele><time>2026-04-11T14:33:32.925Z</time></trkpt><trkpt lat="43.8465083" lon="12.41251"><ele>511.0</ele><time>2026-04-11T14:33:33.925Z</time></trkpt><trkpt lat="43.8465167" lon="12.41236"><ele>511.0</ele><time>2026-04-11T14:33:34.924Z</time></trkpt><trkpt lat="43.8465033" lon="12.4121983"><ele>511.0</ele><time>2026-04-11T14:33:35.925Z</time></trkpt><trkpt lat="43.8464783" lon="12.4120683"><ele>511.0</ele><time>2026-04-11T14:33:36.925Z</time></trkpt><trkpt lat="43.84642" lon="12.4119567"><ele>511.0</ele><time>2026-04-11T14:33:37.925Z</time></trkpt><trkpt lat="43.8463383" lon="12.4118633"><ele>512.8</ele><time>2026-04-11T14:33:38.925Z</time></trkpt><trkpt lat="43.8462533" lon="12.4117833"><ele>514.6</ele><time>2026-04-11T14:33:39.924Z</time></trkpt><trkpt lat="43.84615" lon="12.4117217"><ele>516.4</ele><time>2026-04-11T14:33:40.924Z</time></trkpt><trkpt lat="43.8460483" lon="12.411675"><ele>518.2</ele><time>2026-04-11T14:33:41.925Z</time></trkpt><trkpt lat="43.8459433" lon="12.41163"><ele>520.0</ele><time>2026-04-11T14:33:42.924Z</time></trkpt><trkpt lat="43.8458433" lon="12.4115933"><ele>520.6</ele><time>2026-04-11T14:33:43.924Z</time></trkpt><trkpt lat="43.8457467" lon="12.4115567"><ele>521.2</ele><time>2026-04-11T14:33:44.924Z</time></trkpt><trkpt lat="43.845645" lon="12.4115183"><ele>521.8</ele><time>2026-04-11T14:33:45.924Z</time></trkpt><trkpt lat="43.8455383" lon="12.4114467"><ele>522.4</ele><time>2026-04-11T14:33:46.924Z</time></trkpt><trkpt lat="43.8454483" lon="12.4113783"><ele>523.0</ele><time>2026-04-11T14:33:47.924Z</time></trkpt><trkpt lat="43.8453517" lon="12.4113"><ele>523.8</ele><time>2026-04-11T14:33:48.924Z</time></trkpt><trkpt lat="43.8452617" lon="12.4112183"><ele>524.5999999999999</ele><time>2026-04-11T14:33:49.923Z</time></trkpt><trkpt lat="43.845175" lon="12.4111217"><ele>525.4000000000001</ele><time>2026-04-11T14:33:50.923Z</time></trkpt><trkpt lat="43.8450933" lon="12.4110233"><ele>526.2</ele><time>2026-04-11T14:33:51.924Z</time></trkpt><trkpt lat="43.845005" lon="12.4109233"><ele>527.0</ele><time>2026-04-11T14:33:52.924Z</time></trkpt><trkpt lat="43.844925" lon="12.41081"><ele>527.0</ele><time>2026-04-11T14:33:53.924Z</time></trkpt><trkpt lat="43.844855" lon="12.4107083"><ele>527.0</ele><time>2026-04-11T14:33:54.924Z</time></trkpt><trkpt lat="43.844795" lon="12.4106133"><ele>527.0</ele><time>2026-04-11T14:33:55.924Z</time></trkpt><trkpt lat="43.84476" lon="12.4105133"><ele>527.0</ele><time>2026-04-11T14:33:56.924Z</time></trkpt><trkpt lat="43.8447633" lon="12.41041"><ele>527.0</ele><time>2026-04-11T14:33:57.924Z</time></trkpt><trkpt lat="43.84479" lon="12.4103083"><ele>527.0</ele><time>2026-04-11T14:33:58.924Z</time></trkpt><trkpt lat="43.8448317" lon="12.4102167"><ele>528.1666666666666</ele><time>2026-04-11T14:33:59.923Z</time></trkpt><trkpt lat="43.84489" lon="12.4101483"><ele>529.3333333333333</ele><time>2026-04-11T14:34:00.924Z</time></trkpt><trkpt lat="43.8449683" lon="12.4101117"><ele>530.5</ele><time>2026-04-11T14:34:01.924Z</time></trkpt><trkpt lat="43.8450567" lon="12.4100817"><ele>531.6666666666666</ele><time>2026-04-11T14:34:02.924Z</time></trkpt><trkpt lat="43.845155" lon="12.41007"><ele>532.8333333333334</ele><time>2026-04-11T14:34:03.924Z</time></trkpt><trkpt lat="43.8452533" lon="12.4100417"><ele>534.0</ele><time>2026-04-11T14:34:04.924Z</time></trkpt><trkpt lat="43.84535" lon="12.4100183"><ele>534.8</ele><time>2026-04-11T14:34:05.923Z</time></trkpt><trkpt lat="43.8454583" lon="12.4100067"><ele>535.5999999999999</ele><time>2026-04-11T14:34:06.924Z</time></trkpt><trkpt lat="43.845565" lon="12.4100183"><ele>536.4</ele><time>2026-04-11T14:34:07.923Z</time></trkpt><trkpt lat="43.8456783" lon="12.4100183"><ele>537.1999999999999</ele><time>2026-04-11T14:34:08.923Z</time></trkpt><trkpt lat="43.8457883" lon="12.4100233"><ele>538.0</ele><time>2026-04-11T14:34:09.923Z</time></trkpt><trkpt lat="43.8459017" lon="12.4099917"><ele>537.4</ele><time>2026-04-11T14:34:10.924Z</time></trkpt><trkpt lat="43.8460033" lon="12.40994"><ele>536.8</ele><time>2026-04-11T14:34:11.924Z</time></trkpt><trkpt lat="43.8460817" lon="12.4098567"><ele>536.2</ele><time>2026-04-11T14:34:12.924Z</time></trkpt><trkpt lat="43.846155" lon="12.40976"><ele>535.6</ele><time>2026-04-11T14:34:13.923Z</time></trkpt><trkpt lat="43.8462317" lon="12.4096483"><ele>535.0</ele><time>2026-04-11T14:34:14.924Z</time></trkpt><trkpt lat="43.84631" lon="12.40953"><ele>538.0</ele><time>2026-04-11T14:34:15.924Z</time></trkpt><trkpt lat="43.8463933" lon="12.40941"><ele>541.0</ele><time>2026-04-11T14:34:16.924Z</time></trkpt><trkpt lat="43.8464767" lon="12.4092783"><ele>544.0</ele><time>2026-04-11T14:34:17.924Z</time></trkpt><trkpt lat="43.8465667" lon="12.40915"><ele>547.0</ele><time>2026-04-11T14:34:18.924Z</time></trkpt><trkpt lat="43.8466433" lon="12.409025"><ele>547.0</ele><time>2026-04-11T14:34:19.924Z</time></trkpt><trkpt lat="43.8467233" lon="12.4088867"><ele>547.0</ele><time>2026-04-11T14:34:20.923Z</time></trkpt><trkpt lat="43.8468" lon="12.40875"><ele>547.0</ele><time>2026-04-11T14:34:21.923Z</time></trkpt><trkpt lat="43.8468817" lon="12.4086233"><ele>547.0</ele><time>2026-04-11T14:34:22.924Z</time></trkpt><trkpt lat="43.8469617" lon="12.4084933"><ele>550.25</ele><time>2026-04-11T14:34:23.923Z</time></trkpt><trkpt lat="43.8470433" lon="12.40837"><ele>553.5</ele><time>2026-04-11T14:34:24.923Z</time></trkpt><trkpt lat="43.84714" lon="12.4082483"><ele>556.75</ele><time>2026-04-11T14:34:25.923Z</time></trkpt><trkpt lat="43.84725" lon="12.4081467"><ele>560.0</ele><time>2026-04-11T14:34:26.923Z</time></trkpt><trkpt lat="43.84736" lon="12.408095"><ele>560.0</ele><time>2026-04-11T14:34:27.924Z</time></trkpt><trkpt lat="43.8474783" lon="12.4080633"><ele>560.0</ele><time>2026-04-11T14:34:28.923Z</time></trkpt><trkpt lat="43.8476033" lon="12.4080317"><ele>560.0</ele><time>2026-04-11T14:34:29.924Z</time></trkpt><trkpt lat="43.84774" lon="12.4080033"><ele>560.0</ele><time>2026-04-11T14:34:30.923Z</time></trkpt><trkpt lat="43.8478717" lon="12.4079983"><ele>561.5</ele><time>2026-04-11T14:34:31.924Z</time></trkpt><trkpt lat="43.848005" lon="12.4080117"><ele>563.0</ele><time>2026-04-11T14:34:32.924Z</time></trkpt><trkpt lat="43.8481317" lon="12.4080367"><ele>564.5</ele><time>2026-04-11T14:34:33.924Z</time></trkpt><trkpt lat="43.848255" lon="12.4080833"><ele>566.0</ele><time>2026-04-11T14:34:34.924Z</time></trkpt><trkpt lat="43.8483667" lon="12.40815"><ele>565.8</ele><time>2026-04-11T14:34:35.923Z</time></trkpt><trkpt lat="43.8484783" lon="12.40822"><ele>565.6</ele><time>2026-04-11T14:34:36.924Z</time></trkpt><trkpt lat="43.8485733" lon="12.4082717"><ele>565.4</ele><time>2026-04-11T14:34:37.924Z</time></trkpt><trkpt lat="43.8486583" lon="12.4082867"><ele>565.2</ele><time>2026-04-11T14:34:38.924Z</time></trkpt><trkpt lat="43.8487333" lon="12.408265"><ele>565.0</ele><time>2026-04-11T14:34:39.924Z</time></trkpt><trkpt lat="43.8487817" lon="12.4082017"><ele>565.0</ele><time>2026-04-11T14:34:40.924Z</time></trkpt><trkpt lat="43.8488217" lon="12.4080883"><ele>565.0</ele><time>2026-04-11T14:34:41.923Z</time></trkpt><trkpt lat="43.8488617" lon="12.4079667"><ele>565.0</ele><time>2026-04-11T14:34:42.923Z</time></trkpt><trkpt lat="43.848915" lon="12.407845"><ele>565.0</ele><time>2026-04-11T14:34:43.923Z</time></trkpt><trkpt lat="43.84897" lon="12.4077167"><ele>565.0</ele><time>2026-04-11T14:34:44.923Z</time></trkpt><trkpt lat="43.8490283" lon="12.4075933"><ele>567.8</ele><time>2026-04-11T14:34:45.923Z</time></trkpt><trkpt lat="43.8490817" lon="12.4074733"><ele>570.6</ele><time>2026-04-11T14:34:46.924Z</time></trkpt><trkpt lat="43.84914" lon="12.4073633"><ele>573.4</ele><time>2026-04-11T14:34:47.924Z</time></trkpt><trkpt lat="43.8492083" lon="12.4072683"><ele>576.2</ele><time>2026-04-11T14:34:48.924Z</time></trkpt><trkpt lat="43.8492883" lon="12.4071967"><ele>579.0</ele><time>2026-04-11T14:34:49.924Z</time></trkpt><trkpt lat="43.8493717" lon="12.407135"><ele>581.4</ele><time>2026-04-11T14:34:50.924Z</time></trkpt><trkpt lat="43.8494583" lon="12.40708"><ele>583.8</ele><time>2026-04-11T14:34:51.923Z</time></trkpt><trkpt lat="43.8495483" lon="12.4070217"><ele>586.2</ele><time>2026-04-11T14:34:52.924Z</time></trkpt><trkpt lat="43.8496417" lon="12.40696"><ele>588.6</ele><time>2026-04-11T14:34:53.923Z</time></trkpt><trkpt lat="43.8497333" lon="12.4069"><ele>591.0</ele><time>2026-04-11T14:34:54.924Z</time></trkpt><trkpt lat="43.8498333" lon="12.4068467"><ele>591.0</ele><time>2026-04-11T14:34:55.924Z</time></trkpt><trkpt lat="43.8499333" lon="12.4067883"><ele>591.0</ele><time>2026-04-11T14:34:56.923Z</time></trkpt><trkpt lat="43.8500283" lon="12.40674"><ele>591.0</ele><time>2026-04-11T14:34:57.923Z</time></trkpt><trkpt lat="43.8501167" lon="12.4066767"><ele>591.0</ele><time>2026-04-11T14:34:58.924Z</time></trkpt><trkpt lat="43.8501917" lon="12.4066167"><ele>591.0</ele><time>2026-04-11T14:34:59.924Z</time></trkpt><trkpt lat="43.850265" lon="12.406535"><ele>591.0</ele><time>2026-04-11T14:35:00.924Z</time></trkpt><trkpt lat="43.8503367" lon="12.4064533"><ele>591.0</ele><time>2026-04-11T14:35:01.923Z</time></trkpt><trkpt lat="43.85042" lon="12.4063633"><ele>591.0</ele><time>2026-04-11T14:35:02.924Z</time></trkpt><trkpt lat="43.8505067" lon="12.406265"><ele>591.0</ele><time>2026-04-11T14:35:03.923Z</time></trkpt><trkpt lat="43.850595" lon="12.4061633"><ele>591.0</ele><time>2026-04-11T14:35:04.924Z</time></trkpt><trkpt lat="43.8506783" lon="12.4060533"><ele>591.0</ele><time>2026-04-11T14:35:05.924Z</time></trkpt><trkpt lat="43.85076" lon="12.405935"><ele>591.0</ele><time>2026-04-11T14:35:06.923Z</time></trkpt><trkpt lat="43.8508433" lon="12.405815"><ele>591.0</ele><time>2026-04-11T14:35:07.924Z</time></trkpt><trkpt lat="43.8509333" lon="12.40572"><ele>591.0</ele><time>2026-04-11T14:35:08.923Z</time></trkpt><trkpt lat="43.8510233" lon="12.4056383"><ele>592.0</ele><time>2026-04-11T14:35:09.924Z</time></trkpt><trkpt lat="43.8511117" lon="12.4055617"><ele>593.0</ele><time>2026-04-11T14:35:10.924Z</time></trkpt><trkpt lat="43.851205" lon="12.4054867"><ele>594.0</ele><time>2026-04-11T14:35:11.923Z</time></trkpt><trkpt lat="43.851295" lon="12.4054117"><ele>595.0</ele><time>2026-04-11T14:35:12.923Z</time></trkpt><trkpt lat="43.8513833" lon="12.4053367"><ele>596.0</ele><time>2026-04-11T14:35:13.924Z</time></trkpt><trkpt lat="43.8514683" lon="12.4052583"><ele>596.0</ele><time>2026-04-11T14:35:14.923Z</time></trkpt><trkpt lat="43.8515567" lon="12.4051767"><ele>596.0</ele><time>2026-04-11T14:35:15.924Z</time></trkpt><trkpt lat="43.8516467" lon="12.4050783"><ele>596.0</ele><time>2026-04-11T14:35:16.923Z</time></trkpt><trkpt lat="43.8517233" lon="12.404965"><ele>596.0</ele><time>2026-04-11T14:35:17.924Z</time></trkpt><trkpt lat="43.8518033" lon="12.4048733"><ele>596.0</ele><time>2026-04-11T14:35:18.924Z</time></trkpt><trkpt lat="43.8518817" lon="12.4047867"><ele>596.6</ele><time>2026-04-11T14:35:19.923Z</time></trkpt><trkpt lat="43.8519617" lon="12.4047017"><ele>597.2</ele><time>2026-04-11T14:35:20.924Z</time></trkpt><trkpt lat="43.8520483" lon="12.4046267"><ele>597.8</ele><time>2026-04-11T14:35:21.923Z</time></trkpt><trkpt lat="43.8521333" lon="12.404555"><ele>598.4</ele><time>2026-04-11T14:35:22.924Z</time></trkpt><trkpt lat="43.852225" lon="12.404485"><ele>599.0</ele><time>2026-04-11T14:35:23.923Z</time></trkpt><trkpt lat="43.8523167" lon="12.4044083"><ele>599.0</ele><time>2026-04-11T14:35:24.924Z</time></trkpt><trkpt lat="43.852405" lon="12.404335"><ele>599.0</ele><time>2026-04-11T14:35:25.924Z</time></trkpt><trkpt lat="43.8524967" lon="12.4042583"><ele>599.0</ele><time>2026-04-11T14:35:26.924Z</time></trkpt><trkpt lat="43.8525917" lon="12.404185"><ele>599.0</ele><time>2026-04-11T14:35:27.924Z</time></trkpt><trkpt lat="43.852685" lon="12.4041117"><ele>599.0</ele><time>2026-04-11T14:35:28.924Z</time></trkpt><trkpt lat="43.8527783" lon="12.4040283"><ele>597.5</ele><time>2026-04-11T14:35:29.923Z</time></trkpt><trkpt lat="43.8528733" lon="12.4039483"><ele>596.0</ele><time>2026-04-11T14:35:30.924Z</time></trkpt><trkpt lat="43.8529667" lon="12.4038467"><ele>594.5</ele><time>2026-04-11T14:35:31.923Z</time></trkpt><trkpt lat="43.8530517" lon="12.4037483"><ele>593.0</ele><time>2026-04-11T14:35:32.924Z</time></trkpt><trkpt lat="43.8531467" lon="12.4036467"><ele>593.0</ele><time>2026-04-11T14:35:33.923Z</time></trkpt><trkpt lat="43.85323" lon="12.403545"><ele>593.0</ele><time>2026-04-11T14:35:34.924Z</time></trkpt><trkpt lat="43.8533067" lon="12.4034283"><ele>593.0</ele><time>2026-04-11T14:35:35.924Z</time></trkpt><trkpt lat="43.8533767" lon="12.4032917"><ele>593.0</ele><time>2026-04-11T14:35:36.924Z</time></trkpt><trkpt lat="43.853435" lon="12.40316"><ele>593.0</ele><time>2026-04-11T14:35:37.924Z</time></trkpt><trkpt lat="43.8535017" lon="12.40303"><ele>593.0</ele><time>2026-04-11T14:35:38.924Z</time></trkpt><trkpt lat="43.8535683" lon="12.4028867"><ele>593.0</ele><time>2026-04-11T14:35:39.923Z</time></trkpt><trkpt lat="43.85363" lon="12.40275"><ele>593.0</ele><time>2026-04-11T14:35:40.924Z</time></trkpt><trkpt lat="43.85369" lon="12.4026067"><ele>593.0</ele><time>2026-04-11T14:35:41.923Z</time></trkpt><trkpt lat="43.85376" lon="12.402465"><ele>593.0</ele><time>2026-04-11T14:35:42.923Z</time></trkpt><trkpt lat="43.8538267" lon="12.4023167"><ele>593.0</ele><time>2026-04-11T14:35:43.924Z</time></trkpt><trkpt lat="43.8538967" lon="12.402175"><ele>593.0</ele><time>2026-04-11T14:35:44.924Z</time></trkpt><trkpt lat="43.853965" lon="12.4020233"><ele>595.5</ele><time>2026-04-11T14:35:45.924Z</time></trkpt><trkpt lat="43.8540433" lon="12.4018733"><ele>598.0</ele><time>2026-04-11T14:35:46.923Z</time></trkpt><trkpt lat="43.8541167" lon="12.40172"><ele>600.5</ele><time>2026-04-11T14:35:47.924Z</time></trkpt><trkpt lat="43.8541833" lon="12.4015667"><ele>603.0</ele><time>2026-04-11T14:35:48.923Z</time></trkpt><trkpt lat="43.8542417" lon="12.4014267"><ele>603.1999999999999</ele><time>2026-04-11T14:35:49.924Z</time></trkpt><trkpt lat="43.8542817" lon="12.401325"><ele>603.4</ele><time>2026-04-11T14:35:50.924Z</time></trkpt><trkpt lat="43.8543383" lon="12.401245"><ele>603.5999999999999</ele><time>2026-04-11T14:35:51.923Z</time></trkpt><trkpt lat="43.8544267" lon="12.4011617"><ele>603.8</ele><time>2026-04-11T14:35:53.923Z</time></trkpt><trkpt lat="43.8544917" lon="12.4012383"><ele>604.0</ele><time>2026-04-11T14:35:55.924Z</time></trkpt><trkpt lat="43.8545117" lon="12.40139"><ele>604.0</ele><time>2026-04-11T14:35:57.923Z</time></trkpt><trkpt lat="43.8545417" lon="12.4015633"><ele>604.0</ele><time>2026-04-11T14:35:59.924Z</time></trkpt><trkpt lat="43.8545817" lon="12.4016533"><ele>604.0</ele><time>2026-04-11T14:36:00.923Z</time></trkpt><trkpt lat="43.8546383" lon="12.401705"><ele>604.0</ele><time>2026-04-11T14:36:01.923Z</time></trkpt><trkpt lat="43.854705" lon="12.40171"><ele>604.0</ele><time>2026-04-11T14:36:02.924Z</time></trkpt><trkpt lat="43.8547783" lon="12.401685"><ele>604.0</ele><time>2026-04-11T14:36:03.924Z</time></trkpt><trkpt lat="43.85485" lon="12.4016483"><ele>604.0</ele><time>2026-04-11T14:36:04.924Z</time></trkpt><trkpt lat="43.8549267" lon="12.4015917"><ele>604.0</ele><time>2026-04-11T14:36:05.923Z</time></trkpt><trkpt lat="43.8550083" lon="12.401525"><ele>604.0</ele><time>2026-04-11T14:36:06.923Z</time></trkpt><trkpt lat="43.855085" lon="12.4014417"><ele>604.0</ele><time>2026-04-11T14:36:07.923Z</time></trkpt><trkpt lat="43.855165" lon="12.4013617"><ele>604.0</ele><time>2026-04-11T14:36:08.923Z</time></trkpt><trkpt lat="43.8552567" lon="12.4012883"><ele>606.4</ele><time>2026-04-11T14:36:09.923Z</time></trkpt><trkpt lat="43.8553533" lon="12.4012117"><ele>608.8</ele><time>2026-04-11T14:36:10.924Z</time></trkpt><trkpt lat="43.8554467" lon="12.401135"><ele>611.2</ele><time>2026-04-11T14:36:11.923Z</time></trkpt><trkpt lat="43.8555333" lon="12.40105"><ele>613.6</ele><time>2026-04-11T14:36:12.924Z</time></trkpt><trkpt lat="43.8556233" lon="12.4009717"><ele>616.0</ele><time>2026-04-11T14:36:13.923Z</time></trkpt><trkpt lat="43.85572" lon="12.4008883"><ele>616.0</ele><time>2026-04-11T14:36:14.923Z</time></trkpt><trkpt lat="43.855815" lon="12.4008"><ele>616.0</ele><time>2026-04-11T14:36:15.923Z</time></trkpt><trkpt lat="43.85591" lon="12.4007133"><ele>616.0</ele><time>2026-04-11T14:36:16.924Z</time></trkpt><trkpt lat="43.85601" lon="12.400635"><ele>616.0</ele><time>2026-04-11T14:36:17.924Z</time></trkpt><trkpt lat="43.85611" lon="12.4005567"><ele>618.5</ele><time>2026-04-11T14:36:18.923Z</time></trkpt><trkpt lat="43.8562083" lon="12.400475"><ele>621.0</ele><time>2026-04-11T14:36:19.924Z</time></trkpt><trkpt lat="43.8563117" lon="12.4003967"><ele>623.5</ele><time>2026-04-11T14:36:20.924Z</time></trkpt><trkpt lat="43.8564067" lon="12.4003083"><ele>626.0</ele><time>2026-04-11T14:36:21.924Z</time></trkpt><trkpt lat="43.8565033" lon="12.4002183"><ele>626.0</ele><time>2026-04-11T14:36:22.924Z</time></trkpt><trkpt lat="43.856595" lon="12.4001367"><ele>626.0</ele><time>2026-04-11T14:36:23.924Z</time></trkpt><trkpt lat="43.8566883" lon="12.4000567"><ele>626.0</ele><time>2026-04-11T14:36:24.924Z</time></trkpt><trkpt lat="43.856785" lon="12.3999833"><ele>626.0</ele><time>2026-04-11T14:36:25.924Z</time></trkpt><trkpt lat="43.8568833" lon="12.3999117"><ele>626.0</ele><time>2026-04-11T14:36:26.924Z</time></trkpt><trkpt lat="43.8569917" lon="12.3998367"><ele>628.5</ele><time>2026-04-11T14:36:27.924Z</time></trkpt><trkpt lat="43.8570967" lon="12.3997667"><ele>631.0</ele><time>2026-04-11T14:36:28.924Z</time></trkpt><trkpt lat="43.8572017" lon="12.3997017"><ele>633.5</ele><time>2026-04-11T14:36:29.924Z</time></trkpt><trkpt lat="43.8573067" lon="12.39964"><ele>636.0</ele><time>2026-04-11T14:36:30.924Z</time></trkpt><trkpt lat="43.85742" lon="12.3995883"><ele>637.5</ele><time>2026-04-11T14:36:31.923Z</time></trkpt><trkpt lat="43.8575267" lon="12.3995383"><ele>639.0</ele><time>2026-04-11T14:36:32.924Z</time></trkpt><trkpt lat="43.857635" lon="12.399485"><ele>640.5</ele><time>2026-04-11T14:36:33.924Z</time></trkpt><trkpt lat="43.8577483" lon="12.3994467"><ele>642.0</ele><time>2026-04-11T14:36:34.924Z</time></trkpt><trkpt lat="43.8578633" lon="12.3994333"><ele>644.2</ele><time>2026-04-11T14:36:35.924Z</time></trkpt><trkpt lat="43.857985" lon="12.3994283"><ele>646.4000000000001</ele><time>2026-04-11T14:36:36.923Z</time></trkpt><trkpt lat="43.8580967" lon="12.3994433"><ele>648.5999999999999</ele><time>2026-04-11T14:36:37.923Z</time></trkpt><trkpt lat="43.85819" lon="12.3994733"><ele>650.8</ele><time>2026-04-11T14:36:38.924Z</time></trkpt><trkpt lat="43.85827" lon="12.3994883"><ele>653.0</ele><time>2026-04-11T14:36:39.924Z</time></trkpt><trkpt lat="43.8583783" lon="12.3995233"><ele>652.3333333333333</ele><time>2026-04-11T14:36:41.924Z</time></trkpt><trkpt lat="43.8584533" lon="12.39956"><ele>651.6666666666666</ele><time>2026-04-11T14:36:43.924Z</time></trkpt><trkpt lat="43.8585433" lon="12.3996417"><ele>651.0</ele><time>2026-04-11T14:36:45.923Z</time></trkpt><trkpt lat="43.8586117" lon="12.3996717"><ele>650.3333333333334</ele><time>2026-04-11T14:36:46.923Z</time></trkpt><trkpt lat="43.8587" lon="12.39968"><ele>649.6666666666667</ele><time>2026-04-11T14:36:47.923Z</time></trkpt><trkpt lat="43.8587783" lon="12.39967"><ele>649.0</ele><time>2026-04-11T14:36:48.924Z</time></trkpt><trkpt lat="43.8588583" lon="12.3996383"><ele>649.0</ele><time>2026-04-11T14:36:49.923Z</time></trkpt><trkpt lat="43.858945" lon="12.399575"><ele>649.0</ele><time>2026-04-11T14:36:50.923Z</time></trkpt><trkpt lat="43.8590317" lon="12.3995"><ele>649.0</ele><time>2026-04-11T14:36:51.923Z</time></trkpt><trkpt lat="43.859115" lon="12.3994183"><ele>649.0</ele><time>2026-04-11T14:36:52.923Z</time></trkpt><trkpt lat="43.859205" lon="12.3993383"><ele>649.0</ele><time>2026-04-11T14:36:53.924Z</time></trkpt><trkpt lat="43.8593" lon="12.3992667"><ele>646.5</ele><time>2026-04-11T14:36:54.924Z</time></trkpt><trkpt lat="43.8594083" lon="12.3992033"><ele>644.0</ele><time>2026-04-11T14:36:55.924Z</time></trkpt><trkpt lat="43.8595283" lon="12.3991517"><ele>641.5</ele><time>2026-04-11T14:36:56.924Z</time></trkpt><trkpt lat="43.8596567" lon="12.3991133"><ele>639.0</ele><time>2026-04-11T14:36:57.923Z</time></trkpt><trkpt lat="43.859795" lon="12.39907"><ele>639.0</ele><time>2026-04-11T14:36:58.923Z</time></trkpt><trkpt lat="43.859925" lon="12.3990283"><ele>639.0</ele><time>2026-04-11T14:36:59.923Z</time></trkpt><trkpt lat="43.8600567" lon="12.39897"><ele>639.0</ele><time>2026-04-11T14:37:00.923Z</time></trkpt><trkpt lat="43.8601817" lon="12.39891"><ele>639.0</ele><time>2026-04-11T14:37:01.924Z</time></trkpt><trkpt lat="43.8603083" lon="12.3988667"><ele>639.6</ele><time>2026-04-11T14:37:02.924Z</time></trkpt><trkpt lat="43.86042" lon="12.3988217"><ele>640.2</ele><time>2026-04-11T14:37:03.924Z</time></trkpt><trkpt lat="43.86053" lon="12.39878"><ele>640.8000000000001</ele><time>2026-04-11T14:37:04.923Z</time></trkpt><trkpt lat="43.8606283" lon="12.3987433"><ele>641.4</ele><time>2026-04-11T14:37:05.924Z</time></trkpt><trkpt lat="43.8607217" lon="12.3987017"><ele>642.0</ele><time>2026-04-11T14:37:06.924Z</time></trkpt><trkpt lat="43.860805" lon="12.3986783"><ele>642.0</ele><time>2026-04-11T14:37:07.923Z</time></trkpt><trkpt lat="43.86088" lon="12.3986817"><ele>642.0</ele><time>2026-04-11T14:37:08.923Z</time></trkpt><trkpt lat="43.8609467" lon="12.3987183"><ele>642.0</ele><time>2026-04-11T14:37:09.924Z</time></trkpt><trkpt lat="43.86102" lon="12.3987683"><ele>642.0</ele><time>2026-04-11T14:37:10.924Z</time></trkpt><trkpt lat="43.8610983" lon="12.3988233"><ele>642.0</ele><time>2026-04-11T14:37:11.924Z</time></trkpt><trkpt lat="43.8611833" lon="12.3988633"><ele>642.0</ele><time>2026-04-11T14:37:12.924Z</time></trkpt><trkpt lat="43.861275" lon="12.398905"><ele>638.8000000000001</ele><time>2026-04-11T14:37:13.923Z</time></trkpt><trkpt lat="43.86137" lon="12.3989767"><ele>635.6</ele><time>2026-04-11T14:37:14.924Z</time></trkpt><trkpt lat="43.861465" lon="12.399035"><ele>632.4000000000001</ele><time>2026-04-11T14:37:15.923Z</time></trkpt><trkpt lat="43.8615567" lon="12.39909"><ele>629.2</ele><time>2026-04-11T14:37:16.923Z</time></trkpt><trkpt lat="43.8616483" lon="12.3991367"><ele>626.0</ele><time>2026-04-11T14:37:17.923Z</time></trkpt><trkpt lat="43.861735" lon="12.3991733"><ele>624.0</ele><time>2026-04-11T14:37:18.923Z</time></trkpt><trkpt lat="43.86183" lon="12.3992117"><ele>622.0</ele><time>2026-04-11T14:37:19.924Z</time></trkpt><trkpt lat="43.861925" lon="12.39924"><ele>620.0</ele><time>2026-04-11T14:37:20.924Z</time></trkpt><trkpt lat="43.8620233" lon="12.3992467"><ele>618.0</ele><time>2026-04-11T14:37:21.924Z</time></trkpt><trkpt lat="43.86212" lon="12.3992383"><ele>616.0</ele><time>2026-04-11T14:37:22.923Z</time></trkpt><trkpt lat="43.8622133" lon="12.39923"><ele>616.0</ele><time>2026-04-11T14:37:23.923Z</time></trkpt><trkpt lat="43.8623133" lon="12.3992167"><ele>616.0</ele><time>2026-04-11T14:37:24.923Z</time></trkpt><trkpt lat="43.8624133" lon="12.3992017"><ele>616.0</ele><time>2026-04-11T14:37:25.924Z</time></trkpt><trkpt lat="43.86252" lon="12.39919"><ele>616.0</ele><time>2026-04-11T14:37:26.923Z</time></trkpt><trkpt lat="43.8626283" lon="12.39918"><ele>616.0</ele><time>2026-04-11T14:37:27.924Z</time></trkpt><trkpt lat="43.8627417" lon="12.399185"><ele>613.2</ele><time>2026-04-11T14:37:28.923Z</time></trkpt><trkpt lat="43.8628517" lon="12.3991867"><ele>610.4000000000001</ele><time>2026-04-11T14:37:29.923Z</time></trkpt><trkpt lat="43.8629617" lon="12.3992017"><ele>607.6</ele><time>2026-04-11T14:37:30.923Z</time></trkpt><trkpt lat="43.8630733" lon="12.3992167"><ele>604.8000000000001</ele><time>2026-04-11T14:37:31.924Z</time></trkpt><trkpt lat="43.863185" lon="12.3992533"><ele>602.0</ele><time>2026-04-11T14:37:32.923Z</time></trkpt><trkpt lat="43.8632817" lon="12.39929"><ele>602.0</ele><time>2026-04-11T14:37:33.923Z</time></trkpt><trkpt lat="43.8633667" lon="12.39936"><ele>602.0</ele><time>2026-04-11T14:37:34.924Z</time></trkpt><trkpt lat="43.863455" lon="12.3994367"><ele>602.0</ele><time>2026-04-11T14:37:35.923Z</time></trkpt><trkpt lat="43.8635533" lon="12.3995267"><ele>602.0</ele><time>2026-04-11T14:37:36.924Z</time></trkpt><trkpt lat="43.863655" lon="12.399605"><ele>602.0</ele><time>2026-04-11T14:37:37.924Z</time></trkpt><trkpt lat="43.8637483" lon="12.3996783"><ele>599.0</ele><time>2026-04-11T14:37:38.924Z</time></trkpt><trkpt lat="43.86384" lon="12.3997433"><ele>596.0</ele><time>2026-04-11T14:37:39.923Z</time></trkpt><trkpt lat="43.8639283" lon="12.399805"><ele>593.0</ele><time>2026-04-11T14:37:40.924Z</time></trkpt><trkpt lat="43.8640133" lon="12.3998717"><ele>590.0</ele><time>2026-04-11T14:37:41.923Z</time></trkpt><trkpt lat="43.864115" lon="12.3999283"><ele>587.0</ele><time>2026-04-11T14:37:42.924Z</time></trkpt><trkpt lat="43.8642183" lon="12.399975"><ele>586.0</ele><time>2026-04-11T14:37:43.924Z</time></trkpt><trkpt lat="43.8643183" lon="12.4000067"><ele>585.0</ele><time>2026-04-11T14:37:44.923Z</time></trkpt><trkpt lat="43.86443" lon="12.4000217"><ele>584.0</ele><time>2026-04-11T14:37:45.924Z</time></trkpt><trkpt lat="43.86455" lon="12.40003"><ele>583.0</ele><time>2026-04-11T14:37:46.923Z</time></trkpt><trkpt lat="43.8646633" lon="12.4000167"><ele>582.0</ele><time>2026-04-11T14:37:47.923Z</time></trkpt><trkpt lat="43.86477" lon="12.3999883"><ele>582.0</ele><time>2026-04-11T14:37:48.924Z</time></trkpt><trkpt lat="43.8648717" lon="12.3999283"><ele>582.0</ele><time>2026-04-11T14:37:49.923Z</time></trkpt><trkpt lat="43.864965" lon="12.3998567"><ele>582.0</ele><time>2026-04-11T14:37:50.924Z</time></trkpt><trkpt lat="43.86505" lon="12.3998"><ele>582.0</ele><time>2026-04-11T14:37:51.924Z</time></trkpt><trkpt lat="43.8651233" lon="12.39978"><ele>582.0</ele><time>2026-04-11T14:37:52.923Z</time></trkpt><trkpt lat="43.8651983" lon="12.3998033"><ele>581.0</ele><time>2026-04-11T14:37:53.923Z</time></trkpt><trkpt lat="43.8652733" lon="12.3998633"><ele>580.0</ele><time>2026-04-11T14:37:54.924Z</time></trkpt><trkpt lat="43.865355" lon="12.3999517"><ele>579.0</ele><time>2026-04-11T14:37:55.924Z</time></trkpt><trkpt lat="43.8654417" lon="12.4000533"><ele>578.0</ele><time>2026-04-11T14:37:56.924Z</time></trkpt><trkpt lat="43.865535" lon="12.4001683"><ele>577.0</ele><time>2026-04-11T14:37:57.923Z</time></trkpt><trkpt lat="43.8656233" lon="12.4002617"><ele>577.0</ele><time>2026-04-11T14:37:58.924Z</time></trkpt><trkpt lat="43.8657167" lon="12.4003117"><ele>577.0</ele><time>2026-04-11T14:37:59.924Z</time></trkpt><trkpt lat="43.8658233" lon="12.4003417"><ele>577.0</ele><time>2026-04-11T14:38:00.924Z</time></trkpt><trkpt lat="43.865935" lon="12.4003667"><ele>577.0</ele><time>2026-04-11T14:38:01.923Z</time></trkpt><trkpt lat="43.866065" lon="12.4003817"><ele>574.0</ele><time>2026-04-11T14:38:02.923Z</time></trkpt><trkpt lat="43.8661933" lon="12.4003917"><ele>571.0</ele><time>2026-04-11T14:38:03.924Z</time></trkpt><trkpt lat="43.8663167" lon="12.400405"><ele>568.0</ele><time>2026-04-11T14:38:04.923Z</time></trkpt><trkpt lat="43.86644" lon="12.4004117"><ele>565.0</ele><time>2026-04-11T14:38:05.923Z</time></trkpt><trkpt lat="43.8665483" lon="12.4004083"><ele>565.0</ele><time>2026-04-11T14:38:06.924Z</time></trkpt><trkpt lat="43.8666367" lon="12.40039"><ele>565.0</ele><time>2026-04-11T14:38:07.923Z</time></trkpt><trkpt lat="43.8667533" lon="12.4003933"><ele>565.0</ele><time>2026-04-11T14:38:08.923Z</time></trkpt><trkpt lat="43.866875" lon="12.4003883"><ele>565.0</ele><time>2026-04-11T14:38:09.924Z</time></trkpt><trkpt lat="43.8669967" lon="12.40038"><ele>561.8</ele><time>2026-04-11T14:38:10.924Z</time></trkpt><trkpt lat="43.86712" lon="12.4003717"><ele>558.6</ele><time>2026-04-11T14:38:11.924Z</time></trkpt><trkpt lat="43.8672433" lon="12.4003767"><ele>555.4</ele><time>2026-04-11T14:38:12.924Z</time></trkpt><trkpt lat="43.8673533" lon="12.4003983"><ele>552.2</ele><time>2026-04-11T14:38:13.923Z</time></trkpt><trkpt lat="43.8674433" lon="12.4004217"><ele>549.0</ele><time>2026-04-11T14:38:14.924Z</time></trkpt><trkpt lat="43.8675" lon="12.4004733"><ele>549.5</ele><time>2026-04-11T14:38:15.924Z</time></trkpt><trkpt lat="43.86755" lon="12.400535"><ele>550.0</ele><time>2026-04-11T14:38:16.923Z</time></trkpt><trkpt lat="43.8675967" lon="12.40062"><ele>550.5</ele><time>2026-04-11T14:38:17.924Z</time></trkpt><trkpt lat="43.8676567" lon="12.400685"><ele>551.0</ele><time>2026-04-11T14:38:18.923Z</time></trkpt><trkpt lat="43.8677317" lon="12.40073"><ele>551.5</ele><time>2026-04-11T14:38:19.924Z</time></trkpt><trkpt lat="43.8678167" lon="12.4007567"><ele>552.0</ele><time>2026-04-11T14:38:20.924Z</time></trkpt><trkpt lat="43.8679133" lon="12.4007667"><ele>547.6</ele><time>2026-04-11T14:38:21.923Z</time></trkpt><trkpt lat="43.86801" lon="12.4007633"><ele>543.2</ele><time>2026-04-11T14:38:22.923Z</time></trkpt><trkpt lat="43.8681" lon="12.4007717"><ele>538.8</ele><time>2026-04-11T14:38:23.923Z</time></trkpt><trkpt lat="43.8682017" lon="12.4007883"><ele>534.4</ele><time>2026-04-11T14:38:24.924Z</time></trkpt><trkpt lat="43.8682967" lon="12.4008117"><ele>530.0</ele><time>2026-04-11T14:38:25.923Z</time></trkpt><trkpt lat="43.8684" lon="12.4008633"><ele>527.8</ele><time>2026-04-11T14:38:26.924Z</time></trkpt><trkpt lat="43.868495" lon="12.4009267"><ele>525.6</ele><time>2026-04-11T14:38:27.923Z</time></trkpt><trkpt lat="43.86858" lon="12.4009833"><ele>523.4</ele><time>2026-04-11T14:38:28.924Z</time></trkpt><trkpt lat="43.8686683" lon="12.4010217"><ele>521.2</ele><time>2026-04-11T14:38:29.924Z</time></trkpt><trkpt lat="43.8687567" lon="12.401035"><ele>519.0</ele><time>2026-04-11T14:38:30.923Z</time></trkpt><trkpt lat="43.8688517" lon="12.401025"><ele>519.0</ele><time>2026-04-11T14:38:31.924Z</time></trkpt><trkpt lat="43.86894" lon="12.401005"><ele>519.0</ele><time>2026-04-11T14:38:32.924Z</time></trkpt><trkpt lat="43.8690183" lon="12.4009883"><ele>519.0</ele><time>2026-04-11T14:38:33.924Z</time></trkpt><trkpt lat="43.8690983" lon="12.400985"><ele>519.0</ele><time>2026-04-11T14:38:34.923Z</time></trkpt><trkpt lat="43.8691817" lon="12.401005"><ele>519.0</ele><time>2026-04-11T14:38:35.924Z</time></trkpt><trkpt lat="43.8692717" lon="12.4010367"><ele>519.0</ele><time>2026-04-11T14:38:36.924Z</time></trkpt><trkpt lat="43.8693517" lon="12.4010817"><ele>517.1666666666666</ele><time>2026-04-11T14:38:37.923Z</time></trkpt><trkpt lat="43.869425" lon="12.4011317"><ele>515.3333333333334</ele><time>2026-04-11T14:38:38.924Z</time></trkpt><trkpt lat="43.8695017" lon="12.4011833"><ele>513.5</ele><time>2026-04-11T14:38:39.923Z</time></trkpt><trkpt lat="43.8695767" lon="12.40122"><ele>511.6666666666667</ele><time>2026-04-11T14:38:40.923Z</time></trkpt><trkpt lat="43.869655" lon="12.4012417"><ele>509.83333333333337</ele><time>2026-04-11T14:38:41.924Z</time></trkpt><trkpt lat="43.8697283" lon="12.4012467"><ele>508.0</ele><time>2026-04-11T14:38:42.924Z</time></trkpt><trkpt lat="43.8697917" lon="12.4012367"><ele>508.0</ele><time>2026-04-11T14:38:43.924Z</time></trkpt><trkpt lat="43.8698633" lon="12.4011867"><ele>507.99999999999994</ele><time>2026-04-11T14:38:44.924Z</time></trkpt><trkpt lat="43.869915" lon="12.401115"><ele>507.99999999999994</ele><time>2026-04-11T14:38:45.923Z</time></trkpt><trkpt lat="43.8699483" lon="12.4010017"><ele>508.0</ele><time>2026-04-11T14:38:46.923Z</time></trkpt><trkpt lat="43.8699717" lon="12.4008617"><ele>508.0</ele><time>2026-04-11T14:38:47.923Z</time></trkpt><trkpt lat="43.86998" lon="12.4007083"><ele>508.0</ele><time>2026-04-11T14:38:48.923Z</time></trkpt><trkpt lat="43.8699817" lon="12.4005633"><ele>507.99999999999994</ele><time>2026-04-11T14:38:49.923Z</time></trkpt><trkpt lat="43.86998" lon="12.4004167"><ele>507.99999999999994</ele><time>2026-04-11T14:38:50.923Z</time></trkpt><trkpt lat="43.8699883" lon="12.4002833"><ele>508.0</ele><time>2026-04-11T14:38:51.924Z</time></trkpt><trkpt lat="43.8699933" lon="12.4001517"><ele>508.0</ele><time>2026-04-11T14:38:52.924Z</time></trkpt><trkpt lat="43.8699817" lon="12.4000183"><ele>506.2</ele><time>2026-04-11T14:38:53.923Z</time></trkpt><trkpt lat="43.86996" lon="12.3999"><ele>504.4</ele><time>2026-04-11T14:38:54.924Z</time></trkpt><trkpt lat="43.8699417" lon="12.3997667"><ele>502.59999999999997</ele><time>2026-04-11T14:38:55.924Z</time></trkpt><trkpt lat="43.8699133" lon="12.39962"><ele>500.79999999999995</ele><time>2026-04-11T14:38:56.924Z</time></trkpt><trkpt lat="43.8698917" lon="12.3994683"><ele>499.0</ele><time>2026-04-11T14:38:57.923Z</time></trkpt><trkpt lat="43.8699017" lon="12.3993417"><ele>498.2</ele><time>2026-04-11T14:38:58.923Z</time></trkpt><trkpt lat="43.8699283" lon="12.39923"><ele>497.4</ele><time>2026-04-11T14:38:59.923Z</time></trkpt><trkpt lat="43.8699817" lon="12.399135"><ele>496.6</ele><time>2026-04-11T14:39:00.923Z</time></trkpt><trkpt lat="43.8700483" lon="12.39905"><ele>495.8</ele><time>2026-04-11T14:39:01.924Z</time></trkpt><trkpt lat="43.870125" lon="12.3989667"><ele>495.0</ele><time>2026-04-11T14:39:02.923Z</time></trkpt><trkpt lat="43.8702117" lon="12.3989083"><ele>493.6</ele><time>2026-04-11T14:39:03.924Z</time></trkpt><trkpt lat="43.87031" lon="12.3988617"><ele>492.2</ele><time>2026-04-11T14:39:04.924Z</time></trkpt><trkpt lat="43.8704067" lon="12.3988317"><ele>490.79999999999995</ele><time>2026-04-11T14:39:05.923Z</time></trkpt><trkpt lat="43.8705117" lon="12.3988"><ele>489.4</ele><time>2026-04-11T14:39:06.923Z</time></trkpt><trkpt lat="43.8706283" lon="12.39877"><ele>488.0</ele><time>2026-04-11T14:39:07.924Z</time></trkpt><trkpt lat="43.8707467" lon="12.3987417"><ele>488.0</ele><time>2026-04-11T14:39:08.924Z</time></trkpt><trkpt lat="43.87087" lon="12.398715"><ele>488.0</ele><time>2026-04-11T14:39:09.924Z</time></trkpt><trkpt lat="43.8709983" lon="12.39869"><ele>488.0</ele><time>2026-04-11T14:39:10.924Z</time></trkpt><trkpt lat="43.8711183" lon="12.3986617"><ele>488.0</ele><time>2026-04-11T14:39:11.923Z</time></trkpt><trkpt lat="43.8712317" lon="12.3986383"><ele>485.25</ele><time>2026-04-11T14:39:12.923Z</time></trkpt><trkpt lat="43.8713467" lon="12.39861"><ele>482.5</ele><time>2026-04-11T14:39:13.923Z</time></trkpt><trkpt lat="43.8714617" lon="12.398585"><ele>479.75</ele><time>2026-04-11T14:39:14.923Z</time></trkpt><trkpt lat="43.87158" lon="12.3985617"><ele>477.0</ele><time>2026-04-11T14:39:15.923Z</time></trkpt><trkpt lat="43.8717" lon="12.39854"><ele>473.75</ele><time>2026-04-11T14:39:16.924Z</time></trkpt><trkpt lat="43.8718217" lon="12.3985217"><ele>470.5</ele><time>2026-04-11T14:39:17.924Z</time></trkpt><trkpt lat="43.8719367" lon="12.398495"><ele>467.25</ele><time>2026-04-11T14:39:18.923Z</time></trkpt><trkpt lat="43.872055" lon="12.3984617"><ele>464.0</ele><time>2026-04-11T14:39:19.924Z</time></trkpt><trkpt lat="43.8721783" lon="12.3984383"><ele>464.0</ele><time>2026-04-11T14:39:20.923Z</time></trkpt><trkpt lat="43.872305" lon="12.3984133"><ele>464.0</ele><time>2026-04-11T14:39:21.923Z</time></trkpt><trkpt lat="43.8724333" lon="12.3983917"><ele>464.0</ele><time>2026-04-11T14:39:22.924Z</time></trkpt><trkpt lat="43.872565" lon="12.3983767"><ele>464.0</ele><time>2026-04-11T14:39:23.923Z</time></trkpt><trkpt lat="43.8726883" lon="12.3983667"><ele>461.75</ele><time>2026-04-11T14:39:24.923Z</time></trkpt><trkpt lat="43.8728133" lon="12.3983817"><ele>459.5</ele><time>2026-04-11T14:39:25.923Z</time></trkpt><trkpt lat="43.8729367" lon="12.3984167"><ele>457.25</ele><time>2026-04-11T14:39:26.923Z</time></trkpt><trkpt lat="43.8730567" lon="12.398465"><ele>455.0</ele><time>2026-04-11T14:39:27.924Z</time></trkpt><trkpt lat="43.87318" lon="12.3985183"><ele>455.0</ele><time>2026-04-11T14:39:28.923Z</time></trkpt><trkpt lat="43.8733017" lon="12.39856"><ele>455.0</ele><time>2026-04-11T14:39:29.923Z</time></trkpt><trkpt lat="43.8734317" lon="12.3986033"><ele>455.0</ele><time>2026-04-11T14:39:30.923Z</time></trkpt><trkpt lat="43.8735533" lon="12.3986467"><ele>455.0</ele><time>2026-04-11T14:39:31.924Z</time></trkpt><trkpt lat="43.8736683" lon="12.3986817"><ele>453.4</ele><time>2026-04-11T14:39:32.923Z</time></trkpt><trkpt lat="43.873775" lon="12.3987117"><ele>451.8</ele><time>2026-04-11T14:39:33.923Z</time></trkpt><trkpt lat="43.8738883" lon="12.3987217"><ele>450.20000000000005</ele><time>2026-04-11T14:39:34.924Z</time></trkpt><trkpt lat="43.87399" lon="12.398735"><ele>448.6</ele><time>2026-04-11T14:39:35.924Z</time></trkpt><trkpt lat="43.8740817" lon="12.3987383"><ele>447.0</ele><time>2026-04-11T14:39:36.924Z</time></trkpt><trkpt lat="43.8741783" lon="12.3987217"><ele>444.75</ele><time>2026-04-11T14:39:37.923Z</time></trkpt><trkpt lat="43.8742833" lon="12.3987217"><ele>442.5</ele><time>2026-04-11T14:39:38.923Z</time></trkpt><trkpt lat="43.87439" lon="12.398755"><ele>440.25</ele><time>2026-04-11T14:39:39.924Z</time></trkpt><trkpt lat="43.8745033" lon="12.39882"><ele>438.0</ele><time>2026-04-11T14:39:40.924Z</time></trkpt><trkpt lat="43.8746167" lon="12.39889"><ele>437.2</ele><time>2026-04-11T14:39:41.924Z</time></trkpt><trkpt lat="43.87472" lon="12.3989583"><ele>436.4</ele><time>2026-04-11T14:39:42.923Z</time></trkpt><trkpt lat="43.8748217" lon="12.3990317"><ele>435.59999999999997</ele><time>2026-04-11T14:39:43.923Z</time></trkpt><trkpt lat="43.874915" lon="12.399105"><ele>434.79999999999995</ele><time>2026-04-11T14:39:44.924Z</time></trkpt><trkpt lat="43.8749967" lon="12.399185"><ele>434.0</ele><time>2026-04-11T14:39:45.924Z</time></trkpt><trkpt lat="43.8750867" lon="12.3992717"><ele>432.75</ele><time>2026-04-11T14:39:46.923Z</time></trkpt><trkpt lat="43.8751917" lon="12.3993583"><ele>431.5</ele><time>2026-04-11T14:39:47.924Z</time></trkpt><trkpt lat="43.8752983" lon="12.399435"><ele>430.25</ele><time>2026-04-11T14:39:48.923Z</time></trkpt><trkpt lat="43.875405" lon="12.3995067"><ele>429.0</ele><time>2026-04-11T14:39:49.924Z</time></trkpt><trkpt lat="43.8755067" lon="12.3995817"><ele>429.0</ele><time>2026-04-11T14:39:50.924Z</time></trkpt><trkpt lat="43.875585" lon="12.3996533"><ele>429.0</ele><time>2026-04-11T14:39:51.923Z</time></trkpt><trkpt lat="43.87566" lon="12.3997033"><ele>429.0</ele><time>2026-04-11T14:39:52.924Z</time></trkpt><trkpt lat="43.8757467" lon="12.39973"><ele>429.0</ele><time>2026-04-11T14:39:53.924Z</time></trkpt><trkpt lat="43.8758333" lon="12.3997233"><ele>429.0</ele><time>2026-04-11T14:39:54.924Z</time></trkpt><trkpt lat="43.87594" lon="12.3997133"><ele>427.2</ele><time>2026-04-11T14:39:55.924Z</time></trkpt><trkpt lat="43.8760433" lon="12.3996967"><ele>425.4</ele><time>2026-04-11T14:39:56.924Z</time></trkpt><trkpt lat="43.8761567" lon="12.3996667"><ele>423.6</ele><time>2026-04-11T14:39:57.924Z</time></trkpt><trkpt lat="43.8762617" lon="12.399645"><ele>421.8</ele><time>2026-04-11T14:39:58.923Z</time></trkpt><trkpt lat="43.876365" lon="12.3996217"><ele>420.0</ele><time>2026-04-11T14:39:59.924Z</time></trkpt><trkpt lat="43.8764733" lon="12.3995983"><ele>420.0</ele><time>2026-04-11T14:40:00.924Z</time></trkpt><trkpt lat="43.876585" lon="12.399595"><ele>420.0</ele><time>2026-04-11T14:40:01.924Z</time></trkpt><trkpt lat="43.8766917" lon="12.3995983"><ele>420.0</ele><time>2026-04-11T14:40:02.924Z</time></trkpt><trkpt lat="43.8768033" lon="12.3996"><ele>420.0</ele><time>2026-04-11T14:40:03.923Z</time></trkpt><trkpt lat="43.87691" lon="12.3995917"><ele>420.0</ele><time>2026-04-11T14:40:04.923Z</time></trkpt><trkpt lat="43.8770033" lon="12.3995717"><ele>418.5</ele><time>2026-04-11T14:40:05.924Z</time></trkpt><trkpt lat="43.8770883" lon="12.399535"><ele>417.0</ele><time>2026-04-11T14:40:06.924Z</time></trkpt><trkpt lat="43.877165" lon="12.399495"><ele>415.5</ele><time>2026-04-11T14:40:07.923Z</time></trkpt><trkpt lat="43.8772467" lon="12.3994667"><ele>414.0</ele><time>2026-04-11T14:40:08.923Z</time></trkpt><trkpt lat="43.8773333" lon="12.3994783"><ele>412.5</ele><time>2026-04-11T14:40:09.923Z</time></trkpt><trkpt lat="43.87741" lon="12.3995267"><ele>411.0</ele><time>2026-04-11T14:40:10.924Z</time></trkpt><trkpt lat="43.877485" lon="12.3995817"><ele>411.0</ele><time>2026-04-11T14:40:11.923Z</time></trkpt><trkpt lat="43.87754" lon="12.39965"><ele>411.0</ele><time>2026-04-11T14:40:12.923Z</time></trkpt><trkpt lat="43.8775633" lon="12.399735"><ele>411.0</ele><time>2026-04-11T14:40:13.924Z</time></trkpt><trkpt lat="43.8775617" lon="12.3998417"><ele>411.0</ele><time>2026-04-11T14:40:14.924Z</time></trkpt><trkpt lat="43.8775417" lon="12.399955"><ele>411.0</ele><time>2026-04-11T14:40:15.923Z</time></trkpt><trkpt lat="43.877515" lon="12.4000667"><ele>411.0</ele><time>2026-04-11T14:40:16.924Z</time></trkpt><trkpt lat="43.8774833" lon="12.40017"><ele>409.1666666666667</ele><time>2026-04-11T14:40:17.924Z</time></trkpt><trkpt lat="43.8774583" lon="12.4002683"><ele>407.33333333333337</ele><time>2026-04-11T14:40:18.924Z</time></trkpt><trkpt lat="43.8774483" lon="12.4003717"><ele>405.5</ele><time>2026-04-11T14:40:19.923Z</time></trkpt><trkpt lat="43.8774583" lon="12.40047"><ele>403.6666666666667</ele><time>2026-04-11T14:40:20.924Z</time></trkpt><trkpt lat="43.8774883" lon="12.4005617"><ele>401.83333333333337</ele><time>2026-04-11T14:40:21.923Z</time></trkpt><trkpt lat="43.87754" lon="12.4006617"><ele>400.0</ele><time>2026-04-11T14:40:22.924Z</time></trkpt><trkpt lat="43.8776067" lon="12.400775"><ele>395.5</ele><time>2026-04-11T14:40:23.924Z</time></trkpt><trkpt lat="43.8776833" lon="12.4008917"><ele>391.0</ele><time>2026-04-11T14:40:24.924Z</time></trkpt><trkpt lat="43.8777633" lon="12.401025"><ele>386.5</ele><time>2026-04-11T14:40:25.923Z</time></trkpt><trkpt lat="43.8778467" lon="12.401165"><ele>382.0</ele><time>2026-04-11T14:40:26.923Z</time></trkpt><trkpt lat="43.8779367" lon="12.401305"><ele>381.75</ele><time>2026-04-11T14:40:27.923Z</time></trkpt><trkpt lat="43.8780333" lon="12.4014417"><ele>381.5</ele><time>2026-04-11T14:40:28.924Z</time></trkpt><trkpt lat="43.87812" lon="12.4015817"><ele>381.25</ele><time>2026-04-11T14:40:29.924Z</time></trkpt><trkpt lat="43.8782" lon="12.401705"><ele>381.0</ele><time>2026-04-11T14:40:30.924Z</time></trkpt><trkpt lat="43.8782733" lon="12.4017967"><ele>381.0</ele><time>2026-04-11T14:40:31.923Z</time></trkpt><trkpt lat="43.8783433" lon="12.4018433"><ele>381.0</ele><time>2026-04-11T14:40:32.924Z</time></trkpt><trkpt lat="43.8784283" lon="12.4018767"><ele>381.0</ele><time>2026-04-11T14:40:33.923Z</time></trkpt><trkpt lat="43.8785217" lon="12.4018967"><ele>381.0</ele><time>2026-04-11T14:40:34.924Z</time></trkpt><trkpt lat="43.87862" lon="12.4019083"><ele>381.0</ele><time>2026-04-11T14:40:35.923Z</time></trkpt><trkpt lat="43.8787133" lon="12.4019267"><ele>380.4</ele><time>2026-04-11T14:40:36.924Z</time></trkpt><trkpt lat="43.8788017" lon="12.4019717"><ele>379.8</ele><time>2026-04-11T14:40:37.924Z</time></trkpt><trkpt lat="43.8788867" lon="12.4020283"><ele>379.2</ele><time>2026-04-11T14:40:38.924Z</time></trkpt><trkpt lat="43.8789583" lon="12.4021167"><ele>378.59999999999997</ele><time>2026-04-11T14:40:39.923Z</time></trkpt><trkpt lat="43.87902" lon="12.40223"><ele>378.0</ele><time>2026-04-11T14:40:40.923Z</time></trkpt><trkpt lat="43.8790767" lon="12.4023517"><ele>381.25</ele><time>2026-04-11T14:40:41.923Z</time></trkpt><trkpt lat="43.8791367" lon="12.4024733"><ele>384.5</ele><time>2026-04-11T14:40:42.923Z</time></trkpt><trkpt lat="43.8792" lon="12.40261"><ele>387.75</ele><time>2026-04-11T14:40:43.923Z</time></trkpt><trkpt lat="43.879265" lon="12.4027467"><ele>391.0</ele><time>2026-04-11T14:40:44.924Z</time></trkpt><trkpt lat="43.8793283" lon="12.4028917"><ele>394.0</ele><time>2026-04-11T14:40:45.924Z</time></trkpt><trkpt lat="43.8793967" lon="12.40305"><ele>397.0</ele><time>2026-04-11T14:40:46.924Z</time></trkpt><trkpt lat="43.8794567" lon="12.4032067"><ele>400.0</ele><time>2026-04-11T14:40:47.923Z</time></trkpt><trkpt lat="43.8795117" lon="12.40336"><ele>403.0</ele><time>2026-04-11T14:40:48.923Z</time></trkpt><trkpt lat="43.8795683" lon="12.4035017"><ele>403.0</ele><time>2026-04-11T14:40:49.923Z</time></trkpt><trkpt lat="43.879625" lon="12.4036417"><ele>403.0</ele><time>2026-04-11T14:40:50.923Z</time></trkpt><trkpt lat="43.8796733" lon="12.40376"><ele>403.0</ele><time>2026-04-11T14:40:51.924Z</time></trkpt><trkpt lat="43.879725" lon="12.40386"><ele>403.0</ele><time>2026-04-11T14:40:52.924Z</time></trkpt><trkpt lat="43.879785" lon="12.403935"><ele>403.0</ele><time>2026-04-11T14:40:53.923Z</time></trkpt><trkpt lat="43.87987" lon="12.4039983"><ele>405.75</ele><time>2026-04-11T14:40:54.923Z</time></trkpt><trkpt lat="43.87997" lon="12.4040533"><ele>408.5</ele><time>2026-04-11T14:40:55.923Z</time></trkpt><trkpt lat="43.880075" lon="12.404105"><ele>411.25</ele><time>2026-04-11T14:40:56.923Z</time></trkpt><trkpt lat="43.8801867" lon="12.4041317"><ele>414.0</ele><time>2026-04-11T14:40:57.924Z</time></trkpt><trkpt lat="43.8803033" lon="12.4041483"><ele>414.0</ele><time>2026-04-11T14:40:58.924Z</time></trkpt><trkpt lat="43.8804133" lon="12.4041233"><ele>414.0</ele><time>2026-04-11T14:40:59.924Z</time></trkpt><trkpt lat="43.8805167" lon="12.40411"><ele>414.0</ele><time>2026-04-11T14:41:00.923Z</time></trkpt><trkpt lat="43.88061" lon="12.404115"><ele>414.0</ele><time>2026-04-11T14:41:01.923Z</time></trkpt><trkpt lat="43.880705" lon="12.4041233"><ele>414.0</ele><time>2026-04-11T14:41:02.923Z</time></trkpt><trkpt lat="43.8808033" lon="12.4041333"><ele>414.0</ele><time>2026-04-11T14:41:03.923Z</time></trkpt><trkpt lat="43.880905" lon="12.40414"><ele>414.0</ele><time>2026-04-11T14:41:04.924Z</time></trkpt><trkpt lat="43.8810167" lon="12.4041617"><ele>414.0</ele><time>2026-04-11T14:41:05.923Z</time></trkpt><trkpt lat="43.8811317" lon="12.4042083"><ele>414.0</ele><time>2026-04-11T14:41:06.923Z</time></trkpt><trkpt lat="43.8812333" lon="12.4042833"><ele>414.0</ele><time>2026-04-11T14:41:07.924Z</time></trkpt><trkpt lat="43.8813267" lon="12.404365"><ele>413.4</ele><time>2026-04-11T14:41:08.923Z</time></trkpt><trkpt lat="43.8814217" lon="12.40444"><ele>412.79999999999995</ele><time>2026-04-11T14:41:09.924Z</time></trkpt><trkpt lat="43.8815133" lon="12.404525"><ele>412.20000000000005</ele><time>2026-04-11T14:41:10.923Z</time></trkpt><trkpt lat="43.881605" lon="12.4046217"><ele>411.6</ele><time>2026-04-11T14:41:11.922Z</time></trkpt><trkpt lat="43.8817017" lon="12.40469"><ele>411.0</ele><time>2026-04-11T14:41:12.922Z</time></trkpt><trkpt lat="43.8817967" lon="12.404735"><ele>409.0</ele><time>2026-04-11T14:41:13.922Z</time></trkpt><trkpt lat="43.8818883" lon="12.40478"><ele>407.0</ele><time>2026-04-11T14:41:14.922Z</time></trkpt><trkpt lat="43.8819633" lon="12.4048383"><ele>405.0</ele><time>2026-04-11T14:41:15.923Z</time></trkpt><trkpt lat="43.8820283" lon="12.4048933"><ele>403.0</ele><time>2026-04-11T14:41:16.922Z</time></trkpt><trkpt lat="43.8820667" lon="12.4049733"><ele>401.0</ele><time>2026-04-11T14:41:17.923Z</time></trkpt><trkpt lat="43.8820917" lon="12.4050867"><ele>399.0</ele><time>2026-04-11T14:41:18.922Z</time></trkpt><trkpt lat="43.882105" lon="12.4052433"><ele>399.0</ele><time>2026-04-11T14:41:19.923Z</time></trkpt><trkpt lat="43.8821083" lon="12.40542"><ele>399.0</ele><time>2026-04-11T14:41:20.923Z</time></trkpt><trkpt lat="43.882105" lon="12.4055983"><ele>399.0</ele><time>2026-04-11T14:41:21.923Z</time></trkpt><trkpt lat="43.8821183" lon="12.4057583"><ele>399.0</ele><time>2026-04-11T14:41:22.922Z</time></trkpt><trkpt lat="43.8821433" lon="12.405895"><ele>398.25</ele><time>2026-04-11T14:41:23.923Z</time></trkpt><trkpt lat="43.8821833" lon="12.40604"><ele>397.5</ele><time>2026-04-11T14:41:24.923Z</time></trkpt><trkpt lat="43.8822467" lon="12.4061567"><ele>396.75</ele><time>2026-04-11T14:41:25.923Z</time></trkpt><trkpt lat="43.882335" lon="12.4062733"><ele>396.0</ele><time>2026-04-11T14:41:26.923Z</time></trkpt><trkpt lat="43.882425" lon="12.4064017"><ele>395.75</ele><time>2026-04-11T14:41:27.923Z</time></trkpt><trkpt lat="43.882515" lon="12.406525"><ele>395.5</ele><time>2026-04-11T14:41:28.923Z</time></trkpt><trkpt lat="43.8826067" lon="12.4066433"><ele>395.25</ele><time>2026-04-11T14:41:29.922Z</time></trkpt><trkpt lat="43.88271" lon="12.4067533"><ele>395.0</ele><time>2026-04-11T14:41:30.923Z</time></trkpt><trkpt lat="43.8828033" lon="12.4068483"><ele>393.8</ele><time>2026-04-11T14:41:31.923Z</time></trkpt><trkpt lat="43.88288" lon="12.4069283"><ele>392.6</ele><time>2026-04-11T14:41:32.922Z</time></trkpt><trkpt lat="43.8829367" lon="12.4070083"><ele>391.4</ele><time>2026-04-11T14:41:33.923Z</time></trkpt><trkpt lat="43.882985" lon="12.4071567"><ele>390.2</ele><time>2026-04-11T14:41:35.922Z</time></trkpt><trkpt lat="43.8829217" lon="12.407305"><ele>389.0</ele><time>2026-04-11T14:41:37.922Z</time></trkpt><trkpt lat="43.8828767" lon="12.407395"><ele>388.99999999999994</ele><time>2026-04-11T14:41:38.923Z</time></trkpt><trkpt lat="43.882835" lon="12.4075"><ele>389.0</ele><time>2026-04-11T14:41:39.923Z</time></trkpt><trkpt lat="43.882805" lon="12.40761"><ele>389.0</ele><time>2026-04-11T14:41:40.922Z</time></trkpt><trkpt lat="43.8827933" lon="12.407715"><ele>389.0</ele><time>2026-04-11T14:41:41.923Z</time></trkpt><trkpt lat="43.8827917" lon="12.4078083"><ele>388.99999999999994</ele><time>2026-04-11T14:41:42.923Z</time></trkpt><trkpt lat="43.8828017" lon="12.4079083"><ele>389.0</ele><time>2026-04-11T14:41:43.922Z</time></trkpt><trkpt lat="43.8828117" lon="12.4080233"><ele>391.4</ele><time>2026-04-11T14:41:44.923Z</time></trkpt><trkpt lat="43.8828" lon="12.40814"><ele>393.79999999999995</ele><time>2026-04-11T14:41:45.922Z</time></trkpt><trkpt lat="43.882775" lon="12.4082533"><ele>396.20000000000005</ele><time>2026-04-11T14:41:46.923Z</time></trkpt><trkpt lat="43.882725" lon="12.4083533"><ele>398.6</ele><time>2026-04-11T14:41:47.922Z</time></trkpt><trkpt lat="43.8826417" lon="12.40844"><ele>401.0</ele><time>2026-04-11T14:41:48.923Z</time></trkpt><trkpt lat="43.88255" lon="12.4085117"><ele>401.16666666666663</ele><time>2026-04-11T14:41:49.922Z</time></trkpt><trkpt lat="43.8824667" lon="12.4085833"><ele>401.3333333333333</ele><time>2026-04-11T14:41:50.923Z</time></trkpt><trkpt lat="43.8824017" lon="12.40866"><ele>401.5</ele><time>2026-04-11T14:41:51.923Z</time></trkpt><trkpt lat="43.88237" lon="12.4087533"><ele>401.66666666666663</ele><time>2026-04-11T14:41:52.922Z</time></trkpt><trkpt lat="43.88244" lon="12.4088783"><ele>401.8333333333333</ele><time>2026-04-11T14:41:54.923Z</time></trkpt><trkpt lat="43.8825067" lon="12.4089"><ele>402.0</ele><time>2026-04-11T14:41:55.923Z</time></trkpt><trkpt lat="43.8825967" lon="12.4089017"><ele>405.25</ele><time>2026-04-11T14:41:56.922Z</time></trkpt><trkpt lat="43.882705" lon="12.408905"><ele>408.5</ele><time>2026-04-11T14:41:57.922Z</time></trkpt><trkpt lat="43.8828183" lon="12.4089117"><ele>411.75</ele><time>2026-04-11T14:41:58.923Z</time></trkpt><trkpt lat="43.8829367" lon="12.4089233"><ele>415.0</ele><time>2026-04-11T14:41:59.923Z</time></trkpt><trkpt lat="43.8830683" lon="12.4089417"><ele>415.0</ele><time>2026-04-11T14:42:00.923Z</time></trkpt><trkpt lat="43.883215" lon="12.4089683"><ele>415.0</ele><time>2026-04-11T14:42:01.922Z</time></trkpt><trkpt lat="43.883365" lon="12.4089967"><ele>415.0</ele><time>2026-04-11T14:42:02.922Z</time></trkpt><trkpt lat="43.8835117" lon="12.4090417"><ele>417.0</ele><time>2026-04-11T14:42:03.922Z</time></trkpt><trkpt lat="43.8836633" lon="12.4091083"><ele>419.0</ele><time>2026-04-11T14:42:04.922Z</time></trkpt><trkpt lat="43.8838083" lon="12.4091867"><ele>421.0</ele><time>2026-04-11T14:42:05.922Z</time></trkpt><trkpt lat="43.8839517" lon="12.4092533"><ele>421.0</ele><time>2026-04-11T14:42:06.923Z</time></trkpt><trkpt lat="43.8840717" lon="12.4093167"><ele>421.0</ele><time>2026-04-11T14:42:07.922Z</time></trkpt><trkpt lat="43.8841917" lon="12.40937"><ele>421.0</ele><time>2026-04-11T14:42:08.922Z</time></trkpt><trkpt lat="43.8843083" lon="12.4094267"><ele>421.0</ele><time>2026-04-11T14:42:09.923Z</time></trkpt><trkpt lat="43.8844183" lon="12.4094783"><ele>420.8</ele><time>2026-04-11T14:42:10.923Z</time></trkpt><trkpt lat="43.8845267" lon="12.4095333"><ele>420.6</ele><time>2026-04-11T14:42:11.923Z</time></trkpt><trkpt lat="43.8846267" lon="12.409595"><ele>420.4</ele><time>2026-04-11T14:42:12.923Z</time></trkpt><trkpt lat="43.8847033" lon="12.4096933"><ele>420.2</ele><time>2026-04-11T14:42:13.923Z</time></trkpt><trkpt lat="43.8847533" lon="12.4098133"><ele>420.0</ele><time>2026-04-11T14:42:14.923Z</time></trkpt><trkpt lat="43.8847733" lon="12.409955"><ele>422.4</ele><time>2026-04-11T14:42:15.923Z</time></trkpt><trkpt lat="43.8847617" lon="12.4101"><ele>424.8</ele><time>2026-04-11T14:42:16.923Z</time></trkpt><trkpt lat="43.8847317" lon="12.4102433"><ele>427.20000000000005</ele><time>2026-04-11T14:42:17.923Z</time></trkpt><trkpt lat="43.8846867" lon="12.4103783"><ele>429.6</ele><time>2026-04-11T14:42:18.922Z</time></trkpt><trkpt lat="43.8846383" lon="12.410525"><ele>432.0</ele><time>2026-04-11T14:42:19.923Z</time></trkpt><trkpt lat="43.88462" lon="12.4106633"><ele>433.75</ele><time>2026-04-11T14:42:20.922Z</time></trkpt><trkpt lat="43.884635" lon="12.410805"><ele>435.5</ele><time>2026-04-11T14:42:21.923Z</time></trkpt><trkpt lat="43.88468" lon="12.4109517"><ele>437.25</ele><time>2026-04-11T14:42:22.923Z</time></trkpt><trkpt lat="43.8847417" lon="12.4111067"><ele>439.0</ele><time>2026-04-11T14:42:23.923Z</time></trkpt><trkpt lat="43.8848" lon="12.4112733"><ele>441.5</ele><time>2026-04-11T14:42:24.923Z</time></trkpt><trkpt lat="43.8848467" lon="12.4114483"><ele>444.0</ele><time>2026-04-11T14:42:25.923Z</time></trkpt><trkpt lat="43.8848867" lon="12.4116033"><ele>446.5</ele><time>2026-04-11T14:42:26.923Z</time></trkpt><trkpt lat="43.8849417" lon="12.41174"><ele>449.0</ele><time>2026-04-11T14:42:27.923Z</time></trkpt><trkpt lat="43.8850117" lon="12.4118683"><ele>449.25</ele><time>2026-04-11T14:42:28.922Z</time></trkpt><trkpt lat="43.885105" lon="12.411995"><ele>449.5</ele><time>2026-04-11T14:42:29.922Z</time></trkpt><trkpt lat="43.8851967" lon="12.4121417"><ele>449.75</ele><time>2026-04-11T14:42:30.922Z</time></trkpt><trkpt lat="43.8852933" lon="12.412295"><ele>450.0</ele><time>2026-04-11T14:42:31.923Z</time></trkpt><trkpt lat="43.8853883" lon="12.4124333"><ele>450.0</ele><time>2026-04-11T14:42:32.922Z</time></trkpt><trkpt lat="43.8854683" lon="12.412555"><ele>450.0</ele><time>2026-04-11T14:42:33.923Z</time></trkpt><trkpt lat="43.8855317" lon="12.4126683"><ele>450.0</ele><time>2026-04-11T14:42:34.922Z</time></trkpt><trkpt lat="43.8855867" lon="12.412775"><ele>450.0</ele><time>2026-04-11T14:42:35.922Z</time></trkpt><trkpt lat="43.8856383" lon="12.41288"><ele>450.0</ele><time>2026-04-11T14:42:36.923Z</time></trkpt><trkpt lat="43.8856983" lon="12.4129917"><ele>449.75</ele><time>2026-04-11T14:42:37.923Z</time></trkpt><trkpt lat="43.88578" lon="12.41311"><ele>449.5</ele><time>2026-04-11T14:42:38.923Z</time></trkpt><trkpt lat="43.8858833" lon="12.4132283"><ele>449.25</ele><time>2026-04-11T14:42:39.922Z</time></trkpt><trkpt lat="43.886015" lon="12.41333"><ele>449.0</ele><time>2026-04-11T14:42:40.923Z</time></trkpt><trkpt lat="43.8861533" lon="12.41344"><ele>449.0</ele><time>2026-04-11T14:42:41.923Z</time></trkpt><trkpt lat="43.886285" lon="12.41356"><ele>449.0</ele><time>2026-04-11T14:42:42.923Z</time></trkpt><trkpt lat="43.886415" lon="12.4136833"><ele>449.0</ele><time>2026-04-11T14:42:43.923Z</time></trkpt><trkpt lat="43.8865283" lon="12.4138167"><ele>452.0</ele><time>2026-04-11T14:42:44.922Z</time></trkpt><trkpt lat="43.8866467" lon="12.4139533"><ele>455.0</ele><time>2026-04-11T14:42:45.923Z</time></trkpt><trkpt lat="43.88676" lon="12.4140883"><ele>458.0</ele><time>2026-04-11T14:42:46.923Z</time></trkpt><trkpt lat="43.8868833" lon="12.4142067"><ele>458.0</ele><time>2026-04-11T14:42:47.922Z</time></trkpt><trkpt lat="43.8869967" lon="12.4143183"><ele>458.0</ele><time>2026-04-11T14:42:48.922Z</time></trkpt><trkpt lat="43.8871067" lon="12.414435"><ele>458.0</ele><time>2026-04-11T14:42:49.923Z</time></trkpt><trkpt lat="43.8872033" lon="12.4145467"><ele>458.0</ele><time>2026-04-11T14:42:50.923Z</time></trkpt><trkpt lat="43.8872867" lon="12.4146617"><ele>460.0</ele><time>2026-04-11T14:42:51.923Z</time></trkpt><trkpt lat="43.8873883" lon="12.4147367"><ele>462.0</ele><time>2026-04-11T14:42:52.923Z</time></trkpt><trkpt lat="43.88751" lon="12.4147917"><ele>464.0</ele><time>2026-04-11T14:42:53.922Z</time></trkpt><trkpt lat="43.8876217" lon="12.4148317"><ele>466.0</ele><time>2026-04-11T14:42:54.922Z</time></trkpt><trkpt lat="43.8877367" lon="12.4148833"><ele>467.0</ele><time>2026-04-11T14:42:55.923Z</time></trkpt><trkpt lat="43.887825" lon="12.414975"><ele>468.0</ele><time>2026-04-11T14:42:56.923Z</time></trkpt><trkpt lat="43.8878917" lon="12.4151033"><ele>469.0</ele><time>2026-04-11T14:42:57.923Z</time></trkpt><trkpt lat="43.8879483" lon="12.4152117"><ele>470.0</ele><time>2026-04-11T14:42:58.922Z</time></trkpt><trkpt lat="43.8880183" lon="12.4152883"><ele>471.0</ele><time>2026-04-11T14:42:59.922Z</time></trkpt><trkpt lat="43.8880983" lon="12.4153333"><ele>471.0</ele><time>2026-04-11T14:43:00.922Z</time></trkpt><trkpt lat="43.8882" lon="12.4153283"><ele>471.0</ele><time>2026-04-11T14:43:01.923Z</time></trkpt><trkpt lat="43.88831" lon="12.415275"><ele>471.0</ele><time>2026-04-11T14:43:02.922Z</time></trkpt><trkpt lat="43.8884383" lon="12.415195"><ele>471.0</ele><time>2026-04-11T14:43:03.922Z</time></trkpt><trkpt lat="43.8885817" lon="12.4151183"><ele>473.75</ele><time>2026-04-11T14:43:04.923Z</time></trkpt><trkpt lat="43.88873" lon="12.4150617"><ele>476.5</ele><time>2026-04-11T14:43:05.923Z</time></trkpt><trkpt lat="43.888875" lon="12.4150233"><ele>479.25</ele><time>2026-04-11T14:43:06.923Z</time></trkpt><trkpt lat="43.8889983" lon="12.4149583"><ele>482.0</ele><time>2026-04-11T14:43:07.923Z</time></trkpt><trkpt lat="43.8891117" lon="12.41486"><ele>482.0</ele><time>2026-04-11T14:43:08.923Z</time></trkpt><trkpt lat="43.8892083" lon="12.4147317"><ele>482.0</ele><time>2026-04-11T14:43:09.923Z</time></trkpt><trkpt lat="43.8892883" lon="12.4145733"><ele>482.0</ele><time>2026-04-11T14:43:10.922Z</time></trkpt><trkpt lat="43.8893533" lon="12.4143983"><ele>482.0</ele><time>2026-04-11T14:43:11.923Z</time></trkpt><trkpt lat="43.8894117" lon="12.4142083"><ele>482.0</ele><time>2026-04-11T14:43:12.923Z</time></trkpt><trkpt lat="43.8894833" lon="12.4140483"><ele>482.00000000000006</ele><time>2026-04-11T14:43:13.922Z</time></trkpt><trkpt lat="43.8895267" lon="12.4138817"><ele>482.00000000000006</ele><time>2026-04-11T14:43:14.923Z</time></trkpt><trkpt lat="43.88955" lon="12.4137483"><ele>482.0</ele><time>2026-04-11T14:43:15.923Z</time></trkpt><trkpt lat="43.889575" lon="12.413645"><ele>482.0</ele><time>2026-04-11T14:43:16.923Z</time></trkpt><trkpt lat="43.88961" lon="12.413545"><ele>482.0</ele><time>2026-04-11T14:43:17.922Z</time></trkpt><trkpt lat="43.8896617" lon="12.4134383"><ele>482.00000000000006</ele><time>2026-04-11T14:43:18.922Z</time></trkpt><trkpt lat="43.8897067" lon="12.4133567"><ele>482.00000000000006</ele><time>2026-04-11T14:43:19.922Z</time></trkpt><trkpt lat="43.8897683" lon="12.4132767"><ele>482.0</ele><time>2026-04-11T14:43:20.922Z</time></trkpt><trkpt lat="43.8898583" lon="12.4131967"><ele>482.0</ele><time>2026-04-11T14:43:21.923Z</time></trkpt><trkpt lat="43.8899667" lon="12.4131167"><ele>482.0</ele><time>2026-04-11T14:43:22.923Z</time></trkpt><trkpt lat="43.890075" lon="12.4130217"><ele>482.0</ele><time>2026-04-11T14:43:23.923Z</time></trkpt><trkpt lat="43.890195" lon="12.41292"><ele>482.0</ele><time>2026-04-11T14:43:24.923Z</time></trkpt><trkpt lat="43.89032" lon="12.4128083"><ele>482.0</ele><time>2026-04-11T14:43:25.922Z</time></trkpt><trkpt lat="43.8904417" lon="12.412695"><ele>484.5</ele><time>2026-04-11T14:43:26.922Z</time></trkpt><trkpt lat="43.8905617" lon="12.4125867"><ele>487.0</ele><time>2026-04-11T14:43:27.922Z</time></trkpt><trkpt lat="43.8906717" lon="12.4124883"><ele>489.5</ele><time>2026-04-11T14:43:28.922Z</time></trkpt><trkpt lat="43.89076" lon="12.412425"><ele>492.0</ele><time>2026-04-11T14:43:29.923Z</time></trkpt><trkpt lat="43.8908433" lon="12.4123933"><ele>492.0</ele><time>2026-04-11T14:43:30.923Z</time></trkpt><trkpt lat="43.89092" lon="12.4124017"><ele>492.00000000000006</ele><time>2026-04-11T14:43:31.923Z</time></trkpt><trkpt lat="43.8909967" lon="12.4124483"><ele>492.00000000000006</ele><time>2026-04-11T14:43:32.923Z</time></trkpt><trkpt lat="43.8910817" lon="12.4124983"><ele>492.0</ele><time>2026-04-11T14:43:33.923Z</time></trkpt><trkpt lat="43.8911717" lon="12.4125683"><ele>492.0</ele><time>2026-04-11T14:43:34.923Z</time></trkpt><trkpt lat="43.89126" lon="12.4126567"><ele>494.0</ele><time>2026-04-11T14:43:35.923Z</time></trkpt><trkpt lat="43.8913467" lon="12.4127483"><ele>496.00000000000006</ele><time>2026-04-11T14:43:36.923Z</time></trkpt><trkpt lat="43.8914283" lon="12.41285"><ele>498.00000000000006</ele><time>2026-04-11T14:43:37.923Z</time></trkpt><trkpt lat="43.8915033" lon="12.4129633"><ele>500.0</ele><time>2026-04-11T14:43:38.923Z</time></trkpt><trkpt lat="43.8915633" lon="12.4130767"><ele>502.0</ele><time>2026-04-11T14:43:39.923Z</time></trkpt><trkpt lat="43.8916167" lon="12.4131933"><ele>502.40000000000003</ele><time>2026-04-11T14:43:40.923Z</time></trkpt><trkpt lat="43.89165" lon="12.4133267"><ele>502.80000000000007</ele><time>2026-04-11T14:43:41.922Z</time></trkpt><trkpt lat="43.8916617" lon="12.413465"><ele>503.2</ele><time>2026-04-11T14:43:42.923Z</time></trkpt><trkpt lat="43.89167" lon="12.4136133"><ele>503.6</ele><time>2026-04-11T14:43:43.923Z</time></trkpt><trkpt lat="43.8916967" lon="12.4137317"><ele>504.0</ele><time>2026-04-11T14:43:44.923Z</time></trkpt><trkpt lat="43.8917617" lon="12.4138033"><ele>503.0</ele><time>2026-04-11T14:43:45.922Z</time></trkpt><trkpt lat="43.8918517" lon="12.4138217"><ele>502.0</ele><time>2026-04-11T14:43:46.922Z</time></trkpt><trkpt lat="43.8919467" lon="12.4138117"><ele>501.0</ele><time>2026-04-11T14:43:47.923Z</time></trkpt><trkpt lat="43.8920433" lon="12.4137883"><ele>500.0</ele><time>2026-04-11T14:43:48.923Z</time></trkpt><trkpt lat="43.8921483" lon="12.4137733"><ele>499.0</ele><time>2026-04-11T14:43:49.923Z</time></trkpt><trkpt lat="43.89225" lon="12.413775"><ele>499.0</ele><time>2026-04-11T14:43:50.923Z</time></trkpt><trkpt lat="43.8923533" lon="12.4137933"><ele>499.0</ele><time>2026-04-11T14:43:51.923Z</time></trkpt><trkpt lat="43.8924533" lon="12.413845"><ele>499.0</ele><time>2026-04-11T14:43:52.922Z</time></trkpt><trkpt lat="43.8925283" lon="12.4139433"><ele>499.0</ele><time>2026-04-11T14:43:53.923Z</time></trkpt><trkpt lat="43.8926017" lon="12.4140583"><ele>499.0</ele><time>2026-04-11T14:43:54.923Z</time></trkpt><trkpt lat="43.89268" lon="12.414185"><ele>499.75</ele><time>2026-04-11T14:43:55.922Z</time></trkpt><trkpt lat="43.8927683" lon="12.414305"><ele>500.5</ele><time>2026-04-11T14:43:56.923Z</time></trkpt><trkpt lat="43.8928633" lon="12.4144283"><ele>501.25</ele><time>2026-04-11T14:43:57.923Z</time></trkpt><trkpt lat="43.89296" lon="12.4145583"><ele>502.0</ele><time>2026-04-11T14:43:58.922Z</time></trkpt><trkpt lat="43.8930583" lon="12.4147"><ele>502.25</ele><time>2026-04-11T14:43:59.923Z</time></trkpt><trkpt lat="43.893155" lon="12.414845"><ele>502.5</ele><time>2026-04-11T14:44:00.922Z</time></trkpt><trkpt lat="43.8932533" lon="12.41499"><ele>502.75</ele><time>2026-04-11T14:44:01.922Z</time></trkpt><trkpt lat="43.8933533" lon="12.4151317"><ele>503.0</ele><time>2026-04-11T14:44:02.923Z</time></trkpt><trkpt lat="43.8934617" lon="12.415275"><ele>503.0</ele><time>2026-04-11T14:44:03.923Z</time></trkpt><trkpt lat="43.8935717" lon="12.4154017"><ele>503.0</ele><time>2026-04-11T14:44:04.922Z</time></trkpt><trkpt lat="43.8936817" lon="12.4155133"><ele>503.0</ele><time>2026-04-11T14:44:05.923Z</time></trkpt><trkpt lat="43.8937883" lon="12.4156383"><ele>503.0</ele><time>2026-04-11T14:44:06.923Z</time></trkpt><trkpt lat="43.8938917" lon="12.4157667"><ele>503.0</ele><time>2026-04-11T14:44:07.922Z</time></trkpt><trkpt lat="43.8939867" lon="12.4159017"><ele>503.0</ele><time>2026-04-11T14:44:08.922Z</time></trkpt><trkpt lat="43.894075" lon="12.4160433"><ele>503.0</ele><time>2026-04-11T14:44:09.922Z</time></trkpt><trkpt lat="43.8941683" lon="12.4161783"><ele>503.0</ele><time>2026-04-11T14:44:10.923Z</time></trkpt><trkpt lat="43.8942733" lon="12.4163033"><ele>505.5</ele><time>2026-04-11T14:44:11.923Z</time></trkpt><trkpt lat="43.8943733" lon="12.4164433"><ele>508.0</ele><time>2026-04-11T14:44:12.922Z</time></trkpt><trkpt lat="43.8944617" lon="12.4165867"><ele>510.5</ele><time>2026-04-11T14:44:13.923Z</time></trkpt><trkpt lat="43.8945583" lon="12.41672"><ele>513.0</ele><time>2026-04-11T14:44:14.922Z</time></trkpt><trkpt lat="43.89466" lon="12.4168483"><ele>513.0</ele><time>2026-04-11T14:44:15.922Z</time></trkpt><trkpt lat="43.8947767" lon="12.4169683"><ele>513.0</ele><time>2026-04-11T14:44:16.922Z</time></trkpt><trkpt lat="43.8949033" lon="12.4170667"><ele>513.0</ele><time>2026-04-11T14:44:17.922Z</time></trkpt><trkpt lat="43.8950233" lon="12.4171617"><ele>513.0</ele><time>2026-04-11T14:44:18.923Z</time></trkpt><trkpt lat="43.895155" lon="12.417245"><ele>515.75</ele><time>2026-04-11T14:44:19.923Z</time></trkpt><trkpt lat="43.895295" lon="12.4172967"><ele>518.5</ele><time>2026-04-11T14:44:20.922Z</time></trkpt><trkpt lat="43.8954417" lon="12.417335"><ele>521.25</ele><time>2026-04-11T14:44:21.922Z</time></trkpt><trkpt lat="43.895595" lon="12.4173567"><ele>524.0</ele><time>2026-04-11T14:44:22.922Z</time></trkpt><trkpt lat="43.8957333" lon="12.4173433"><ele>524.0</ele><time>2026-04-11T14:44:23.923Z</time></trkpt><trkpt lat="43.89586" lon="12.4173167"><ele>524.0</ele><time>2026-04-11T14:44:24.922Z</time></trkpt><trkpt lat="43.8959667" lon="12.417305"><ele>524.0</ele><time>2026-04-11T14:44:25.923Z</time></trkpt><trkpt lat="43.8960567" lon="12.4173217"><ele>524.0</ele><time>2026-04-11T14:44:26.922Z</time></trkpt><trkpt lat="43.8961467" lon="12.41738"><ele>524.0</ele><time>2026-04-11T14:44:27.923Z</time></trkpt><trkpt lat="43.89623" lon="12.4174867"><ele>524.5</ele><time>2026-04-11T14:44:28.923Z</time></trkpt><trkpt lat="43.89628" lon="12.41763"><ele>525.0</ele><time>2026-04-11T14:44:29.923Z</time></trkpt><trkpt lat="43.8963067" lon="12.4178017"><ele>525.5</ele><time>2026-04-11T14:44:30.923Z</time></trkpt><trkpt lat="43.89633" lon="12.4179783"><ele>526.0</ele><time>2026-04-11T14:44:31.923Z</time></trkpt><trkpt lat="43.8963717" lon="12.4181317"><ele>526.0</ele><time>2026-04-11T14:44:32.922Z</time></trkpt><trkpt lat="43.8964483" lon="12.4182467"><ele>526.0</ele><time>2026-04-11T14:44:33.923Z</time></trkpt><trkpt lat="43.8965567" lon="12.4183267"><ele>526.0</ele><time>2026-04-11T14:44:34.923Z</time></trkpt><trkpt lat="43.8966733" lon="12.41836"><ele>526.0</ele><time>2026-04-11T14:44:35.922Z</time></trkpt><trkpt lat="43.8967967" lon="12.4183683"><ele>525.25</ele><time>2026-04-11T14:44:36.923Z</time></trkpt><trkpt lat="43.896925" lon="12.41835"><ele>524.5</ele><time>2026-04-11T14:44:37.922Z</time></trkpt><trkpt lat="43.89706" lon="12.4182917"><ele>523.75</ele><time>2026-04-11T14:44:38.923Z</time></trkpt><trkpt lat="43.8972" lon="12.4182083"><ele>523.0</ele><time>2026-04-11T14:44:39.922Z</time></trkpt><trkpt lat="43.8973383" lon="12.4181267"><ele>523.0</ele><time>2026-04-11T14:44:40.922Z</time></trkpt><trkpt lat="43.89749" lon="12.4180367"><ele>523.0</ele><time>2026-04-11T14:44:41.923Z</time></trkpt><trkpt lat="43.89764" lon="12.4179467"><ele>523.0</ele><time>2026-04-11T14:44:42.922Z</time></trkpt><trkpt lat="43.8977917" lon="12.4178617"><ele>521.25</ele><time>2026-04-11T14:44:43.923Z</time></trkpt><trkpt lat="43.8979167" lon="12.417795"><ele>519.5</ele><time>2026-04-11T14:44:44.923Z</time></trkpt><trkpt lat="43.8980383" lon="12.4177433"><ele>517.75</ele><time>2026-04-11T14:44:45.922Z</time></trkpt><trkpt lat="43.8981533" lon="12.4177017"><ele>516.0</ele><time>2026-04-11T14:44:46.922Z</time></trkpt><trkpt lat="43.8982717" lon="12.41765"><ele>516.0</ele><time>2026-04-11T14:44:47.923Z</time></trkpt><trkpt lat="43.89839" lon="12.41758"><ele>516.0</ele><time>2026-04-11T14:44:48.923Z</time></trkpt><trkpt lat="43.8985183" lon="12.4174867"><ele>516.0</ele><time>2026-04-11T14:44:49.922Z</time></trkpt><trkpt lat="43.898635" lon="12.4173467"><ele>516.0</ele><time>2026-04-11T14:44:50.922Z</time></trkpt><trkpt lat="43.8987433" lon="12.41719"><ele>514.25</ele><time>2026-04-11T14:44:51.922Z</time></trkpt><trkpt lat="43.8988467" lon="12.41705"><ele>512.5</ele><time>2026-04-11T14:44:52.922Z</time></trkpt><trkpt lat="43.8989517" lon="12.4169267"><ele>510.75</ele><time>2026-04-11T14:44:53.922Z</time></trkpt><trkpt lat="43.899065" lon="12.4168267"><ele>509.0</ele><time>2026-04-11T14:44:54.922Z</time></trkpt><trkpt lat="43.899175" lon="12.41673"><ele>509.0</ele><time>2026-04-11T14:44:55.922Z</time></trkpt><trkpt lat="43.8992967" lon="12.4166317"><ele>509.0</ele><time>2026-04-11T14:44:56.923Z</time></trkpt><trkpt lat="43.8994317" lon="12.41653"><ele>509.0</ele><time>2026-04-11T14:44:57.923Z</time></trkpt><trkpt lat="43.8995567" lon="12.4163917"><ele>507.66666666666663</ele><time>2026-04-11T14:44:58.922Z</time></trkpt><trkpt lat="43.89966" lon="12.416225"><ele>506.33333333333337</ele><time>2026-04-11T14:44:59.922Z</time></trkpt><trkpt lat="43.8997483" lon="12.4160267"><ele>505.0</ele><time>2026-04-11T14:45:00.923Z</time></trkpt><trkpt lat="43.8998317" lon="12.4158183"><ele>505.0</ele><time>2026-04-11T14:45:01.923Z</time></trkpt><trkpt lat="43.899895" lon="12.4156233"><ele>505.0</ele><time>2026-04-11T14:45:02.923Z</time></trkpt><trkpt lat="43.899925" lon="12.41541"><ele>505.0</ele><time>2026-04-11T14:45:03.923Z</time></trkpt><trkpt lat="43.8999317" lon="12.4152083"><ele>503.33333333333337</ele><time>2026-04-11T14:45:04.923Z</time></trkpt><trkpt lat="43.899905" lon="12.4149933"><ele>501.66666666666663</ele><time>2026-04-11T14:45:05.923Z</time></trkpt><trkpt lat="43.8998717" lon="12.4147883"><ele>500.0</ele><time>2026-04-11T14:45:06.923Z</time></trkpt><trkpt lat="43.899835" lon="12.4145867"><ele>499.0</ele><time>2026-04-11T14:45:07.922Z</time></trkpt><trkpt lat="43.899815" lon="12.41441"><ele>498.0</ele><time>2026-04-11T14:45:08.923Z</time></trkpt><trkpt lat="43.8998117" lon="12.41426"><ele>497.0</ele><time>2026-04-11T14:45:09.923Z</time></trkpt><trkpt lat="43.89983" lon="12.4141333"><ele>496.0</ele><time>2026-04-11T14:45:10.922Z</time></trkpt><trkpt lat="43.89987" lon="12.4140267"><ele>495.0</ele><time>2026-04-11T14:45:11.923Z</time></trkpt><trkpt lat="43.8999517" lon="12.4139517"><ele>495.0</ele><time>2026-04-11T14:45:12.923Z</time></trkpt><trkpt lat="43.9000583" lon="12.413895"><ele>495.0</ele><time>2026-04-11T14:45:13.922Z</time></trkpt><trkpt lat="43.9001617" lon="12.413825"><ele>495.0</ele><time>2026-04-11T14:45:14.923Z</time></trkpt><trkpt lat="43.9002617" lon="12.413745"><ele>495.0</ele><time>2026-04-11T14:45:15.923Z</time></trkpt><trkpt lat="43.9003433" lon="12.41366"><ele>495.0</ele><time>2026-04-11T14:45:16.923Z</time></trkpt><trkpt lat="43.9004017" lon="12.4135767"><ele>494.4</ele><time>2026-04-11T14:45:17.922Z</time></trkpt><trkpt lat="43.9004767" lon="12.4135017"><ele>493.8</ele><time>2026-04-11T14:45:19.922Z</time></trkpt><trkpt lat="43.900585" lon="12.41356"><ele>493.20000000000005</ele><time>2026-04-11T14:45:57.922Z</time></trkpt><trkpt lat="43.9007" lon="12.4136483"><ele>492.6</ele><time>2026-04-11T14:45:59.922Z</time></trkpt><trkpt lat="43.9007633" lon="12.4136967"><ele>492.0</ele><time>2026-04-11T14:46:00.922Z</time></trkpt><trkpt lat="43.9008317" lon="12.4137467"><ele>492.0</ele><time>2026-04-11T14:46:01.923Z</time></trkpt><trkpt lat="43.90091" lon="12.413795"><ele>492.00000000000006</ele><time>2026-04-11T14:46:02.923Z</time></trkpt><trkpt lat="43.9009967" lon="12.413855"><ele>492.00000000000006</ele><time>2026-04-11T14:46:03.922Z</time></trkpt><trkpt lat="43.9010883" lon="12.4139183"><ele>492.0</ele><time>2026-04-11T14:46:04.923Z</time></trkpt><trkpt lat="43.901175" lon="12.4139883"><ele>492.0</ele><time>2026-04-11T14:46:05.923Z</time></trkpt><trkpt lat="43.9012733" lon="12.41406"><ele>490.5</ele><time>2026-04-11T14:46:06.922Z</time></trkpt><trkpt lat="43.9013733" lon="12.4141417"><ele>489.0</ele><time>2026-04-11T14:46:07.923Z</time></trkpt><trkpt lat="43.901475" lon="12.4142083"><ele>487.5</ele><time>2026-04-11T14:46:08.922Z</time></trkpt><trkpt lat="43.9015767" lon="12.4142817"><ele>486.0</ele><time>2026-04-11T14:46:09.923Z</time></trkpt><trkpt lat="43.90167" lon="12.4143533"><ele>484.4</ele><time>2026-04-11T14:46:10.923Z</time></trkpt><trkpt lat="43.901765" lon="12.414425"><ele>482.8</ele><time>2026-04-11T14:46:11.923Z</time></trkpt><trkpt lat="43.9018583" lon="12.41449"><ele>481.19999999999993</ele><time>2026-04-11T14:46:12.922Z</time></trkpt><trkpt lat="43.9019533" lon="12.4145517"><ele>479.59999999999997</ele><time>2026-04-11T14:46:13.923Z</time></trkpt><trkpt lat="43.902045" lon="12.4146217"><ele>478.0</ele><time>2026-04-11T14:46:14.922Z</time></trkpt><trkpt lat="43.9021433" lon="12.414685"><ele>478.0</ele><time>2026-04-11T14:46:15.922Z</time></trkpt><trkpt lat="43.9022433" lon="12.41476"><ele>478.0</ele><time>2026-04-11T14:46:16.923Z</time></trkpt><trkpt lat="43.9023467" lon="12.414835"><ele>478.0</ele><time>2026-04-11T14:46:17.922Z</time></trkpt><trkpt lat="43.90245" lon="12.4149217"><ele>478.0</ele><time>2026-04-11T14:46:18.922Z</time></trkpt><trkpt lat="43.9025533" lon="12.4150067"><ele>475.79999999999995</ele><time>2026-04-11T14:46:19.923Z</time></trkpt><trkpt lat="43.9026483" lon="12.4150917"><ele>473.59999999999997</ele><time>2026-04-11T14:46:20.922Z</time></trkpt><trkpt lat="43.9027317" lon="12.4151833"><ele>471.40000000000003</ele><time>2026-04-11T14:46:21.923Z</time></trkpt><trkpt lat="43.9028033" lon="12.415285"><ele>469.20000000000005</ele><time>2026-04-11T14:46:22.923Z</time></trkpt><trkpt lat="43.90285" lon="12.4153883"><ele>467.0</ele><time>2026-04-11T14:46:23.923Z</time></trkpt><trkpt lat="43.9028817" lon="12.4154917"><ele>466.99999999999994</ele><time>2026-04-11T14:46:24.922Z</time></trkpt><trkpt lat="43.9028983" lon="12.41559"><ele>467.0</ele><time>2026-04-11T14:46:25.923Z</time></trkpt><trkpt lat="43.9029017" lon="12.41568"><ele>467.0</ele><time>2026-04-11T14:46:26.922Z</time></trkpt><trkpt lat="43.9029233" lon="12.4157983"><ele>467.0</ele><time>2026-04-11T14:46:28.923Z</time></trkpt><trkpt lat="43.902985" lon="12.4157167"><ele>466.99999999999994</ele><time>2026-04-11T14:46:31.922Z</time></trkpt><trkpt lat="43.9030333" lon="12.415545"><ele>467.0</ele><time>2026-04-11T14:46:33.923Z</time></trkpt><trkpt lat="43.9030783" lon="12.415445"><ele>467.0</ele><time>2026-04-11T14:46:34.923Z</time></trkpt><trkpt lat="43.90313" lon="12.4153433"><ele>467.00000000000006</ele><time>2026-04-11T14:46:35.922Z</time></trkpt><trkpt lat="43.9031917" lon="12.415235"><ele>467.00000000000006</ele><time>2026-04-11T14:46:36.923Z</time></trkpt><trkpt lat="43.903255" lon="12.4151217"><ele>467.0</ele><time>2026-04-11T14:46:37.923Z</time></trkpt><trkpt lat="43.9033167" lon="12.415"><ele>467.0</ele><time>2026-04-11T14:46:38.922Z</time></trkpt><trkpt lat="43.9033783" lon="12.4148817"><ele>465.0</ele><time>2026-04-11T14:46:39.922Z</time></trkpt><trkpt lat="43.9034467" lon="12.4147717"><ele>463.00000000000006</ele><time>2026-04-11T14:46:40.922Z</time></trkpt><trkpt lat="43.9035083" lon="12.4146667"><ele>461.00000000000006</ele><time>2026-04-11T14:46:41.922Z</time></trkpt><trkpt lat="43.903575" lon="12.41456"><ele>459.0</ele><time>2026-04-11T14:46:42.923Z</time></trkpt><trkpt lat="43.9036433" lon="12.41445"><ele>457.0</ele><time>2026-04-11T14:46:43.923Z</time></trkpt><trkpt lat="43.903715" lon="12.4143333"><ele>457.0</ele><time>2026-04-11T14:46:44.922Z</time></trkpt><trkpt lat="43.9037917" lon="12.4142183"><ele>457.00000000000006</ele><time>2026-04-11T14:46:45.922Z</time></trkpt><trkpt lat="43.9038617" lon="12.4140983"><ele>457.00000000000006</ele><time>2026-04-11T14:46:46.922Z</time></trkpt><trkpt lat="43.9039317" lon="12.4139833"><ele>457.0</ele><time>2026-04-11T14:46:47.923Z</time></trkpt><trkpt lat="43.903995" lon="12.4138883"><ele>457.0</ele><time>2026-04-11T14:46:48.922Z</time></trkpt><trkpt lat="43.904045" lon="12.4138117"><ele>457.83333333333337</ele><time>2026-04-11T14:46:49.923Z</time></trkpt><trkpt lat="43.9040983" lon="12.4137517"><ele>458.6666666666667</ele><time>2026-04-11T14:46:50.922Z</time></trkpt><trkpt lat="43.9041467" lon="12.4136817"><ele>459.5</ele><time>2026-04-11T14:46:51.923Z</time></trkpt><trkpt lat="43.904205" lon="12.41361"><ele>460.33333333333337</ele><time>2026-04-11T14:46:52.923Z</time></trkpt><trkpt lat="43.90427" lon="12.4135433"><ele>461.1666666666667</ele><time>2026-04-11T14:46:53.923Z</time></trkpt><trkpt lat="43.904345" lon="12.4134817"><ele>462.0</ele><time>2026-04-11T14:46:54.923Z</time></trkpt><trkpt lat="43.904415" lon="12.4134083"><ele>459.6666666666667</ele><time>2026-04-11T14:46:55.922Z</time></trkpt><trkpt lat="43.9044933" lon="12.4133417"><ele>457.33333333333337</ele><time>2026-04-11T14:46:56.922Z</time></trkpt><trkpt lat="43.9045683" lon="12.4132617"><ele>455.0</ele><time>2026-04-11T14:46:57.923Z</time></trkpt><trkpt lat="43.9046367" lon="12.41319"><ele>452.6666666666667</ele><time>2026-04-11T14:46:58.922Z</time></trkpt><trkpt lat="43.9046983" lon="12.413115"><ele>450.33333333333337</ele><time>2026-04-11T14:46:59.923Z</time></trkpt><trkpt lat="43.90475" lon="12.4130517"><ele>448.0</ele><time>2026-04-11T14:47:00.923Z</time></trkpt><trkpt lat="43.9048017" lon="12.4129883"><ele>447.79999999999995</ele><time>2026-04-11T14:47:01.923Z</time></trkpt><trkpt lat="43.9048867" lon="12.412875"><ele>447.59999999999997</ele><time>2026-04-11T14:47:03.923Z</time></trkpt><trkpt lat="43.90496" lon="12.4127983"><ele>447.40000000000003</ele><time>2026-04-11T14:47:05.923Z</time></trkpt><trkpt lat="43.9050217" lon="12.4127617"><ele>447.20000000000005</ele><time>2026-04-11T14:47:22.923Z</time></trkpt><trkpt lat="43.9051367" lon="12.412855"><ele>447.0</ele><time>2026-04-11T14:47:24.923Z</time></trkpt><trkpt lat="43.9052167" lon="12.41293"><ele>444.6</ele><time>2026-04-11T14:47:25.922Z</time></trkpt><trkpt lat="43.9053" lon="12.4130083"><ele>442.20000000000005</ele><time>2026-04-11T14:47:26.923Z</time></trkpt><trkpt lat="43.9053867" lon="12.41309"><ele>439.8</ele><time>2026-04-11T14:47:27.923Z</time></trkpt><trkpt lat="43.9054717" lon="12.413165"><ele>437.4</ele><time>2026-04-11T14:47:28.922Z</time></trkpt><trkpt lat="43.9055467" lon="12.4132333"><ele>435.0</ele><time>2026-04-11T14:47:29.922Z</time></trkpt><trkpt lat="43.9056183" lon="12.4132967"><ele>435.00000000000006</ele><time>2026-04-11T14:47:30.923Z</time></trkpt><trkpt lat="43.90569" lon="12.4133567"><ele>435.0</ele><time>2026-04-11T14:47:31.922Z</time></trkpt><trkpt lat="43.9057483" lon="12.413425"><ele>435.0</ele><time>2026-04-11T14:47:32.923Z</time></trkpt><trkpt lat="43.90581" lon="12.4134833"><ele>435.0</ele><time>2026-04-11T14:47:33.922Z</time></trkpt><trkpt lat="43.9058783" lon="12.4135167"><ele>435.0</ele><time>2026-04-11T14:47:34.923Z</time></trkpt><trkpt lat="43.9059433" lon="12.413515"><ele>435.00000000000006</ele><time>2026-04-11T14:47:35.923Z</time></trkpt><trkpt lat="43.9060033" lon="12.4134817"><ele>435.0</ele><time>2026-04-11T14:47:36.923Z</time></trkpt><trkpt lat="43.90606" lon="12.4134183"><ele>432.4</ele><time>2026-04-11T14:47:37.922Z</time></trkpt><trkpt lat="43.90612" lon="12.4133267"><ele>429.8</ele><time>2026-04-11T14:47:38.923Z</time></trkpt><trkpt lat="43.9061833" lon="12.4132183"><ele>427.20000000000005</ele><time>2026-04-11T14:47:39.923Z</time></trkpt><trkpt lat="43.90626" lon="12.4131083"><ele>424.6</ele><time>2026-04-11T14:47:40.922Z</time></trkpt><trkpt lat="43.9063417" lon="12.412985"><ele>422.0</ele><time>2026-04-11T14:47:41.922Z</time></trkpt><trkpt lat="43.9064333" lon="12.4128567"><ele>422.0</ele><time>2026-04-11T14:47:42.922Z</time></trkpt><trkpt lat="43.9065367" lon="12.4127083"><ele>422.0</ele><time>2026-04-11T14:47:43.922Z</time></trkpt><trkpt lat="43.9066383" lon="12.4125783"><ele>422.0</ele><time>2026-04-11T14:47:44.923Z</time></trkpt><trkpt lat="43.9067583" lon="12.41245"><ele>422.0</ele><time>2026-04-11T14:47:45.923Z</time></trkpt><trkpt lat="43.9068717" lon="12.412325"><ele>422.5</ele><time>2026-04-11T14:47:46.922Z</time></trkpt><trkpt lat="43.9069817" lon="12.4121883"><ele>423.0</ele><time>2026-04-11T14:47:47.923Z</time></trkpt><trkpt lat="43.90708" lon="12.4120617"><ele>423.5</ele><time>2026-04-11T14:47:48.922Z</time></trkpt><trkpt lat="43.9071733" lon="12.4119483"><ele>424.0</ele><time>2026-04-11T14:47:49.922Z</time></trkpt><trkpt lat="43.90725" lon="12.4118517"><ele>424.00000000000006</ele><time>2026-04-11T14:47:50.922Z</time></trkpt><trkpt lat="43.90733" lon="12.4117817"><ele>424.0</ele><time>2026-04-11T14:47:51.923Z</time></trkpt><trkpt lat="43.9073983" lon="12.4117367"><ele>424.0</ele><time>2026-04-11T14:47:52.922Z</time></trkpt><trkpt lat="43.9074733" lon="12.411705"><ele>424.0</ele><time>2026-04-11T14:47:53.923Z</time></trkpt><trkpt lat="43.90756" lon="12.4117217"><ele>424.00000000000006</ele><time>2026-04-11T14:47:54.921Z</time></trkpt><trkpt lat="43.9076583" lon="12.4117533"><ele>424.0</ele><time>2026-04-11T14:47:55.922Z</time></trkpt><trkpt lat="43.9077567" lon="12.41182"><ele>423.6</ele><time>2026-04-11T14:47:56.921Z</time></trkpt><trkpt lat="43.9078567" lon="12.41189"><ele>423.2</ele><time>2026-04-11T14:47:57.922Z</time></trkpt><trkpt lat="43.9079567" lon="12.4119567"><ele>422.8</ele><time>2026-04-11T14:47:58.922Z</time></trkpt><trkpt lat="43.9080583" lon="12.41202"><ele>422.40000000000003</ele><time>2026-04-11T14:47:59.921Z</time></trkpt><trkpt lat="43.9081633" lon="12.4120783"><ele>422.0</ele><time>2026-04-11T14:48:00.922Z</time></trkpt><trkpt lat="43.9082767" lon="12.4121367"><ele>421.0</ele><time>2026-04-11T14:48:01.922Z</time></trkpt><trkpt lat="43.9083883" lon="12.4121967"><ele>420.0</ele><time>2026-04-11T14:48:02.922Z</time></trkpt><trkpt lat="43.9085" lon="12.4122533"><ele>419.0</ele><time>2026-04-11T14:48:03.921Z</time></trkpt><trkpt lat="43.9086117" lon="12.4122983"><ele>418.0</ele><time>2026-04-11T14:48:04.922Z</time></trkpt><trkpt lat="43.9087233" lon="12.41233"><ele>418.0</ele><time>2026-04-11T14:48:05.921Z</time></trkpt><trkpt lat="43.90883" lon="12.4123617"><ele>418.0</ele><time>2026-04-11T14:48:06.922Z</time></trkpt><trkpt lat="43.9089317" lon="12.4123917"><ele>418.0</ele><time>2026-04-11T14:48:07.922Z</time></trkpt><trkpt lat="43.9090383" lon="12.4124317"><ele>418.0</ele><time>2026-04-11T14:48:08.921Z</time></trkpt><trkpt lat="43.9091333" lon="12.4125017"><ele>418.0</ele><time>2026-04-11T14:48:09.922Z</time></trkpt><trkpt lat="43.9092167" lon="12.4126017"><ele>418.2</ele><time>2026-04-11T14:48:10.921Z</time></trkpt><trkpt lat="43.9092967" lon="12.4127117"><ele>418.4</ele><time>2026-04-11T14:48:11.922Z</time></trkpt><trkpt lat="43.909375" lon="12.412825"><ele>418.59999999999997</ele><time>2026-04-11T14:48:12.922Z</time></trkpt><trkpt lat="43.909455" lon="12.4129267"><ele>418.79999999999995</ele><time>2026-04-11T14:48:13.922Z</time></trkpt><trkpt lat="43.90955" lon="12.4130117"><ele>419.0</ele><time>2026-04-11T14:48:14.922Z</time></trkpt><trkpt lat="43.9096417" lon="12.4130583"><ele>417.0</ele><time>2026-04-11T14:48:15.921Z</time></trkpt><trkpt lat="43.9097333" lon="12.41307"><ele>415.0</ele><time>2026-04-11T14:48:16.922Z</time></trkpt><trkpt lat="43.9098183" lon="12.4130667"><ele>413.0</ele><time>2026-04-11T14:48:17.922Z</time></trkpt><trkpt lat="43.9099117" lon="12.4130633"><ele>411.0</ele><time>2026-04-11T14:48:18.922Z</time></trkpt><trkpt lat="43.9100117" lon="12.41303"><ele>409.0</ele><time>2026-04-11T14:48:19.922Z</time></trkpt><trkpt lat="43.9101267" lon="12.4129683"><ele>408.0</ele><time>2026-04-11T14:48:20.922Z</time></trkpt><trkpt lat="43.9102483" lon="12.412895"><ele>407.0</ele><time>2026-04-11T14:48:21.922Z</time></trkpt><trkpt lat="43.9103717" lon="12.4127867"><ele>406.0</ele><time>2026-04-11T14:48:22.921Z</time></trkpt><trkpt lat="43.9104867" lon="12.4126867"><ele>405.0</ele><time>2026-04-11T14:48:23.922Z</time></trkpt><trkpt lat="43.9106067" lon="12.4125783"><ele>405.0</ele><time>2026-04-11T14:48:24.922Z</time></trkpt><trkpt lat="43.9107317" lon="12.4124833"><ele>405.0</ele><time>2026-04-11T14:48:25.922Z</time></trkpt><trkpt lat="43.91084" lon="12.4124"><ele>405.0</ele><time>2026-04-11T14:48:26.922Z</time></trkpt><trkpt lat="43.91095" lon="12.4123033"><ele>405.0</ele><time>2026-04-11T14:48:27.922Z</time></trkpt><trkpt lat="43.9110583" lon="12.4122483"><ele>404.8</ele><time>2026-04-11T14:48:28.921Z</time></trkpt><trkpt lat="43.9111633" lon="12.4122167"><ele>404.6</ele><time>2026-04-11T14:48:29.922Z</time></trkpt><trkpt lat="43.9112717" lon="12.412205"><ele>404.4</ele><time>2026-04-11T14:48:30.922Z</time></trkpt><trkpt lat="43.9113883" lon="12.4122017"><ele>404.2</ele><time>2026-04-11T14:48:31.921Z</time></trkpt><trkpt lat="43.911505" lon="12.412205"><ele>404.0</ele><time>2026-04-11T14:48:32.921Z</time></trkpt><trkpt lat="43.9116117" lon="12.4122233"><ele>404.0</ele><time>2026-04-11T14:48:33.922Z</time></trkpt><trkpt lat="43.91173" lon="12.41222"><ele>404.0</ele><time>2026-04-11T14:48:34.921Z</time></trkpt><trkpt lat="43.9118483" lon="12.412205"><ele>404.0</ele><time>2026-04-11T14:48:35.921Z</time></trkpt><trkpt lat="43.91196" lon="12.4121667"><ele>404.0</ele><time>2026-04-11T14:48:36.922Z</time></trkpt><trkpt lat="43.9120683" lon="12.4121017"><ele>405.2</ele><time>2026-04-11T14:48:37.922Z</time></trkpt><trkpt lat="43.912165" lon="12.41201"><ele>406.4</ele><time>2026-04-11T14:48:38.922Z</time></trkpt><trkpt lat="43.9122533" lon="12.4119183"><ele>407.6</ele><time>2026-04-11T14:48:39.922Z</time></trkpt><trkpt lat="43.9123417" lon="12.4118233"><ele>408.8</ele><time>2026-04-11T14:48:40.922Z</time></trkpt><trkpt lat="43.9124283" lon="12.4117533"><ele>410.0</ele><time>2026-04-11T14:48:41.922Z</time></trkpt><trkpt lat="43.912515" lon="12.411685"><ele>407.99999999999994</ele><time>2026-04-11T14:48:42.921Z</time></trkpt><trkpt lat="43.9125933" lon="12.4116033"><ele>406.0</ele><time>2026-04-11T14:48:43.922Z</time></trkpt><trkpt lat="43.9126783" lon="12.4115167"><ele>404.0</ele><time>2026-04-11T14:48:44.921Z</time></trkpt><trkpt lat="43.912745" lon="12.411425"><ele>402.0</ele><time>2026-04-11T14:48:45.922Z</time></trkpt><trkpt lat="43.9127917" lon="12.4113417"><ele>399.99999999999994</ele><time>2026-04-11T14:48:46.921Z</time></trkpt><trkpt lat="43.9128267" lon="12.4112683"><ele>398.0</ele><time>2026-04-11T14:48:47.921Z</time></trkpt><trkpt lat="43.91288" lon="12.411195"><ele>397.8333333333333</ele><time>2026-04-11T14:48:49.921Z</time></trkpt><trkpt lat="43.9128867" lon="12.4110783"><ele>397.66666666666663</ele><time>2026-04-11T14:49:01.922Z</time></trkpt><trkpt lat="43.91288" lon="12.4109817"><ele>397.5</ele><time>2026-04-11T14:49:03.922Z</time></trkpt><trkpt lat="43.9128667" lon="12.410865"><ele>397.33333333333337</ele><time>2026-04-11T14:49:07.922Z</time></trkpt><trkpt lat="43.9128717" lon="12.41099"><ele>397.1666666666667</ele><time>2026-04-11T14:49:36.921Z</time></trkpt><trkpt lat="43.91288" lon="12.4111133"><ele>397.0</ele><time>2026-04-11T14:49:39.922Z</time></trkpt><trkpt lat="43.9128933" lon="12.4112067"><ele>397.20000000000005</ele><time>2026-04-11T14:49:42.922Z</time></trkpt><trkpt lat="43.9129317" lon="12.4113483"><ele>397.4</ele><time>2026-04-11T14:49:53.922Z</time></trkpt><trkpt lat="43.9129633" lon="12.4114383"><ele>397.6</ele><time>2026-04-11T14:49:54.921Z</time></trkpt><trkpt lat="43.9130083" lon="12.41155"><ele>397.79999999999995</ele><time>2026-04-11T14:49:55.921Z</time></trkpt><trkpt lat="43.9130533" lon="12.41168"><ele>398.0</ele><time>2026-04-11T14:49:56.922Z</time></trkpt><trkpt lat="43.91309" lon="12.41181"><ele>397.99999999999994</ele><time>2026-04-11T14:49:57.921Z</time></trkpt><trkpt lat="43.9131283" lon="12.4119317"><ele>398.0</ele><time>2026-04-11T14:49:58.921Z</time></trkpt><trkpt lat="43.9131633" lon="12.4120483"><ele>398.0</ele><time>2026-04-11T14:49:59.922Z</time></trkpt><trkpt lat="43.9131983" lon="12.4121483"><ele>398.0</ele><time>2026-04-11T14:50:00.922Z</time></trkpt><trkpt lat="43.9132367" lon="12.4122517"><ele>397.99999999999994</ele><time>2026-04-11T14:50:01.922Z</time></trkpt><trkpt lat="43.91328" lon="12.412355"><ele>398.0</ele><time>2026-04-11T14:50:02.922Z</time></trkpt><trkpt lat="43.9133233" lon="12.4124717"><ele>397.0</ele><time>2026-04-11T14:50:03.922Z</time></trkpt><trkpt lat="43.9133733" lon="12.4125833"><ele>396.0</ele><time>2026-04-11T14:50:04.922Z</time></trkpt><trkpt lat="43.9134083" lon="12.4127183"><ele>395.0</ele><time>2026-04-11T14:50:05.921Z</time></trkpt><trkpt lat="43.9134467" lon="12.412845"><ele>394.0</ele><time>2026-04-11T14:50:06.921Z</time></trkpt><trkpt lat="43.9134783" lon="12.4129617"><ele>393.0</ele><time>2026-04-11T14:50:07.922Z</time></trkpt><trkpt lat="43.9135" lon="12.4130767"><ele>390.4</ele><time>2026-04-11T14:50:08.922Z</time></trkpt><trkpt lat="43.9135083" lon="12.4131933"><ele>387.79999999999995</ele><time>2026-04-11T14:50:09.922Z</time></trkpt><trkpt lat="43.9135033" lon="12.4133117"><ele>385.2</ele><time>2026-04-11T14:50:10.921Z</time></trkpt><trkpt lat="43.9134883" lon="12.4134367"><ele>382.6</ele><time>2026-04-11T14:50:11.922Z</time></trkpt><trkpt lat="43.9134717" lon="12.4135733"><ele>380.0</ele><time>2026-04-11T14:50:12.921Z</time></trkpt><trkpt lat="43.913455" lon="12.41372"><ele>378.8</ele><time>2026-04-11T14:50:13.922Z</time></trkpt><trkpt lat="43.9134383" lon="12.413865"><ele>377.6</ele><time>2026-04-11T14:50:14.921Z</time></trkpt><trkpt lat="43.913425" lon="12.4140067"><ele>376.4</ele><time>2026-04-11T14:50:15.921Z</time></trkpt><trkpt lat="43.91341" lon="12.4141317"><ele>375.2</ele><time>2026-04-11T14:50:16.921Z</time></trkpt><trkpt lat="43.91341" lon="12.4142517"><ele>374.0</ele><time>2026-04-11T14:50:17.922Z</time></trkpt><trkpt lat="43.9134133" lon="12.4143567"><ele>374.0</ele><time>2026-04-11T14:50:18.922Z</time></trkpt><trkpt lat="43.9134333" lon="12.41445"><ele>374.0</ele><time>2026-04-11T14:50:19.921Z</time></trkpt><trkpt lat="43.91349" lon="12.4145717"><ele>374.0</ele><time>2026-04-11T14:50:21.922Z</time></trkpt><trkpt lat="43.913545" lon="12.414615"><ele>374.0</ele><time>2026-04-11T14:50:22.922Z</time></trkpt><trkpt lat="43.9136133" lon="12.4146617"><ele>374.0</ele><time>2026-04-11T14:50:23.922Z</time></trkpt><trkpt lat="43.9136883" lon="12.41471"><ele>374.0</ele><time>2026-04-11T14:50:24.921Z</time></trkpt><trkpt lat="43.9137633" lon="12.41474"><ele>374.0</ele><time>2026-04-11T14:50:25.922Z</time></trkpt><trkpt lat="43.9138333" lon="12.4147383"><ele>374.0</ele><time>2026-04-11T14:50:26.922Z</time></trkpt><trkpt lat="43.9139033" lon="12.4147117"><ele>374.0</ele><time>2026-04-11T14:50:27.922Z</time></trkpt><trkpt lat="43.9139767" lon="12.4146767"><ele>374.0</ele><time>2026-04-11T14:50:28.922Z</time></trkpt><trkpt lat="43.914055" lon="12.4146267"><ele>374.0</ele><time>2026-04-11T14:50:29.922Z</time></trkpt><trkpt lat="43.9141433" lon="12.4145883"><ele>374.0</ele><time>2026-04-11T14:50:30.922Z</time></trkpt><trkpt lat="43.91424" lon="12.4145583"><ele>371.0</ele><time>2026-04-11T14:50:31.922Z</time></trkpt><trkpt lat="43.914335" lon="12.414535"><ele>368.0</ele><time>2026-04-11T14:50:32.922Z</time></trkpt><trkpt lat="43.9144317" lon="12.4144967"><ele>365.0</ele><time>2026-04-11T14:50:33.921Z</time></trkpt><trkpt lat="43.9145283" lon="12.4144517"><ele>362.0</ele><time>2026-04-11T14:50:34.921Z</time></trkpt><trkpt lat="43.9146183" lon="12.4144183"><ele>359.0</ele><time>2026-04-11T14:50:35.922Z</time></trkpt><trkpt lat="43.9147017" lon="12.414405"><ele>359.0</ele><time>2026-04-11T14:50:36.922Z</time></trkpt><trkpt lat="43.9147983" lon="12.4144017"><ele>359.0</ele><time>2026-04-11T14:50:37.922Z</time></trkpt><trkpt lat="43.9148833" lon="12.41443"><ele>359.0</ele><time>2026-04-11T14:50:38.922Z</time></trkpt><trkpt lat="43.9149667" lon="12.414485"><ele>359.0</ele><time>2026-04-11T14:50:39.921Z</time></trkpt><trkpt lat="43.9150483" lon="12.414545"><ele>359.0</ele><time>2026-04-11T14:50:40.922Z</time></trkpt><trkpt lat="43.91512" lon="12.4146133"><ele>356.0</ele><time>2026-04-11T14:50:41.921Z</time></trkpt><trkpt lat="43.9151933" lon="12.41467"><ele>353.0</ele><time>2026-04-11T14:50:42.922Z</time></trkpt><trkpt lat="43.9152583" lon="12.41473"><ele>350.0</ele><time>2026-04-11T14:50:43.922Z</time></trkpt><trkpt lat="43.9153183" lon="12.414785"><ele>347.0</ele><time>2026-04-11T14:50:44.922Z</time></trkpt><trkpt lat="43.9153733" lon="12.4148417"><ele>344.0</ele><time>2026-04-11T14:50:45.922Z</time></trkpt><trkpt lat="43.9154233" lon="12.4149083"><ele>341.0</ele><time>2026-04-11T14:50:46.921Z</time></trkpt><trkpt lat="43.9154733" lon="12.4149667"><ele>338.0</ele><time>2026-04-11T14:50:47.922Z</time></trkpt><trkpt lat="43.9155483" lon="12.4150633"><ele>338.0</ele><time>2026-04-11T14:50:49.922Z</time></trkpt><trkpt lat="43.9156067" lon="12.415105"><ele>338.0</ele><time>2026-04-11T14:50:52.922Z</time></trkpt><trkpt lat="43.9156717" lon="12.4151167"><ele>338.0</ele><time>2026-04-11T14:51:03.922Z</time></trkpt><trkpt lat="43.9157383" lon="12.4151767"><ele>338.0</ele><time>2026-04-11T14:51:06.922Z</time></trkpt><trkpt lat="43.9157983" lon="12.4152283"><ele>338.0</ele><time>2026-04-11T14:51:10.921Z</time></trkpt><trkpt lat="43.9158733" lon="12.41523"><ele>338.0</ele><time>2026-04-11T14:51:14.921Z</time></trkpt><trkpt lat="43.91594" lon="12.4152433"><ele>338.0</ele><time>2026-04-11T14:51:19.921Z</time></trkpt><trkpt lat="43.9160033" lon="12.41526"><ele>334.1666666666667</ele><time>2026-04-11T14:51:25.921Z</time></trkpt><trkpt lat="43.9160667" lon="12.4152833"><ele>330.33333333333337</ele><time>2026-04-11T14:51:29.921Z</time></trkpt><trkpt lat="43.9161367" lon="12.4153067"><ele>326.5</ele><time>2026-04-11T14:51:34.921Z</time></trkpt><trkpt lat="43.91621" lon="12.4153467"><ele>322.6666666666667</ele><time>2026-04-11T14:51:39.921Z</time></trkpt><trkpt lat="43.9162767" lon="12.4153817"><ele>318.8333333333333</ele><time>2026-04-11T14:51:44.921Z</time></trkpt><trkpt lat="43.916365" lon="12.4154133"><ele>315.0</ele><time>2026-04-11T14:51:48.921Z</time></trkpt><trkpt lat="43.916435" lon="12.4154417"><ele>315.0</ele><time>2026-04-11T14:51:57.922Z</time></trkpt><trkpt lat="43.9165167" lon="12.41546"><ele>315.0</ele><time>2026-04-11T14:52:02.922Z</time></trkpt><trkpt lat="43.9165917" lon="12.415495"><ele>315.0</ele><time>2026-04-11T14:52:05.922Z</time></trkpt><trkpt lat="43.9166583" lon="12.415515"><ele>315.0</ele><time>2026-04-11T14:52:21.921Z</time></trkpt><trkpt lat="43.9167183" lon="12.4155567"><ele>315.0</ele><time>2026-04-11T14:52:23.921Z</time></trkpt><trkpt lat="43.9167917" lon="12.4155533"><ele>315.0</ele><time>2026-04-11T14:52:27.922Z</time></trkpt><trkpt lat="43.91686" lon="12.4155717"><ele>315.0</ele><time>2026-04-11T14:52:32.922Z</time></trkpt><trkpt lat="43.9169267" lon="12.4155883"><ele>312.0</ele><time>2026-04-11T14:52:35.922Z</time></trkpt><trkpt lat="43.9169833" lon="12.4156433"><ele>309.0</ele><time>2026-04-11T14:52:39.921Z</time></trkpt><trkpt lat="43.9171333" lon="12.4157083"><ele>306.0</ele><time>2026-04-11T14:53:14.921Z</time></trkpt><trkpt lat="43.9172217" lon="12.4157267"><ele>303.0</ele><time>2026-04-11T14:53:21.921Z</time></trkpt><trkpt lat="43.91729" lon="12.41578"><ele>300.0</ele><time>2026-04-11T14:53:50.92Z</time></trkpt><trkpt lat="43.9173483" lon="12.4158667"><ele>300.0</ele><time>2026-04-11T14:53:57.92Z</time></trkpt><trkpt lat="43.917395" lon="12.41593"><ele>300.0</ele><time>2026-04-11T14:54:02.92Z</time></trkpt><trkpt lat="43.9174733" lon="12.4159983"><ele>300.0</ele><time>2026-04-11T14:54:11.92Z</time></trkpt><trkpt lat="43.91753" lon="12.4160433"><ele>300.0</ele><time>2026-04-11T14:54:15.921Z</time></trkpt><trkpt lat="43.9175683" lon="12.416115"><ele>300.0</ele><time>2026-04-11T14:54:19.921Z</time></trkpt><trkpt lat="43.91761" lon="12.41622"><ele>300.0</ele><time>2026-04-11T14:54:26.921Z</time></trkpt><trkpt lat="43.9176783" lon="12.4162867"><ele>296.57142857142856</ele><time>2026-04-11T14:54:31.921Z</time></trkpt><trkpt lat="43.91774" lon="12.4163167"><ele>293.1428571428571</ele><time>2026-04-11T14:54:35.921Z</time></trkpt><trkpt lat="43.9178067" lon="12.41633"><ele>289.7142857142857</ele><time>2026-04-11T14:54:38.921Z</time></trkpt><trkpt lat="43.9178733" lon="12.4163167"><ele>286.2857142857143</ele><time>2026-04-11T14:54:41.92Z</time></trkpt><trkpt lat="43.9179317" lon="12.4162783"><ele>282.8571428571429</ele><time>2026-04-11T14:54:46.921Z</time></trkpt><trkpt lat="43.918005" lon="12.4162633"><ele>279.42857142857144</ele><time>2026-04-11T14:54:54.92Z</time></trkpt><trkpt lat="43.91809" lon="12.4161967"><ele>276.0</ele><time>2026-04-11T14:55:02.921Z</time></trkpt><trkpt lat="43.9181417" lon="12.416135"><ele>276.0</ele><time>2026-04-11T14:56:18.921Z</time></trkpt><trkpt lat="43.918195" lon="12.4160767"><ele>276.0</ele><time>2026-04-11T14:56:21.921Z</time></trkpt><trkpt lat="43.918245" lon="12.416"><ele>276.0</ele><time>2026-04-11T14:56:25.921Z</time></trkpt><trkpt lat="43.9183067" lon="12.4159783"><ele>276.0</ele><time>2026-04-11T14:56:30.921Z</time></trkpt><trkpt lat="43.9183733" lon="12.415975"><ele>276.0</ele><time>2026-04-11T14:56:35.92Z</time></trkpt><trkpt lat="43.9184733" lon="12.41588"><ele>276.0</ele><time>2026-04-11T14:56:54.92Z</time></trkpt><trkpt lat="43.9185417" lon="12.4158617"><ele>272.5</ele><time>2026-04-11T14:57:01.921Z</time></trkpt><trkpt lat="43.91864" lon="12.4159017"><ele>269.0</ele><time>2026-04-11T14:57:07.921Z</time></trkpt><trkpt lat="43.9186933" lon="12.415955"><ele>265.5</ele><time>2026-04-11T14:57:10.92Z</time></trkpt><trkpt lat="43.91879" lon="12.415945"><ele>262.0</ele><time>2026-04-11T14:57:26.921Z</time></trkpt><trkpt lat="43.9188517" lon="12.4159967"><ele>258.5</ele><time>2026-04-11T14:57:30.92Z</time></trkpt><trkpt lat="43.9188917" lon="12.4160717"><ele>255.0</ele><time>2026-04-11T14:57:33.92Z</time></trkpt><trkpt lat="43.9190033" lon="12.41614"><ele>255.0</ele><time>2026-04-11T14:57:46.921Z</time></trkpt><trkpt lat="43.9191033" lon="12.416215"><ele>255.0</ele><time>2026-04-11T14:57:58.921Z</time></trkpt><trkpt lat="43.91917" lon="12.416305"><ele>255.0</ele><time>2026-04-11T14:58:07.92Z</time></trkpt><trkpt lat="43.9192333" lon="12.4163667"><ele>255.0</ele><time>2026-04-11T14:58:11.919Z</time></trkpt><trkpt lat="43.9192917" lon="12.416425"><ele>255.0</ele><time>2026-04-11T14:58:16.92Z</time></trkpt><trkpt lat="43.9193583" lon="12.4164067"><ele>255.0</ele><time>2026-04-11T14:58:21.92Z</time></trkpt><trkpt lat="43.9194167" lon="12.4163533"><ele>252.33333333333334</ele><time>2026-04-11T14:58:29.919Z</time></trkpt><trkpt lat="43.919485" lon="12.4163283"><ele>249.66666666666669</ele><time>2026-04-11T14:58:39.92Z</time></trkpt><trkpt lat="43.919575" lon="12.4163183"><ele>247.0</ele><time>2026-04-11T14:58:48.92Z</time></trkpt><trkpt lat="43.9196417" lon="12.4163883"><ele>244.33333333333334</ele><time>2026-04-11T14:58:51.919Z</time></trkpt><trkpt lat="43.9197083" lon="12.4164317"><ele>241.66666666666669</ele><time>2026-04-11T14:58:53.92Z</time></trkpt><trkpt lat="43.9197817" lon="12.4164317"><ele>239.0</ele><time>2026-04-11T14:58:56.92Z</time></trkpt><trkpt lat="43.9198617" lon="12.4163833"><ele>238.66666666666669</ele><time>2026-04-11T14:59:00.92Z</time></trkpt><trkpt lat="43.9199417" lon="12.4163317"><ele>238.33333333333334</ele><time>2026-04-11T14:59:03.919Z</time></trkpt><trkpt lat="43.9200283" lon="12.4163217"><ele>238.0</ele><time>2026-04-11T14:59:06.92Z</time></trkpt><trkpt lat="43.9201033" lon="12.416335"><ele>237.66666666666669</ele><time>2026-04-11T14:59:09.919Z</time></trkpt><trkpt lat="43.9201583" lon="12.4163783"><ele>237.33333333333334</ele><time>2026-04-11T14:59:14.92Z</time></trkpt><trkpt lat="43.9202317" lon="12.4164"><ele>237.0</ele><time>2026-04-11T14:59:17.919Z</time></trkpt><trkpt lat="43.9203" lon="12.4164367"><ele>236.5</ele><time>2026-04-11T14:59:20.919Z</time></trkpt><trkpt lat="43.9203567" lon="12.4165133"><ele>236.0</ele><time>2026-04-11T14:59:23.92Z</time></trkpt><trkpt lat="43.92043" lon="12.4165083"><ele>235.5</ele><time>2026-04-11T14:59:28.919Z</time></trkpt><trkpt lat="43.9204917" lon="12.41647"><ele>235.0</ele><time>2026-04-11T14:59:30.92Z</time></trkpt><trkpt lat="43.9205667" lon="12.4164017"><ele>234.5</ele><time>2026-04-11T14:59:33.92Z</time></trkpt><trkpt lat="43.920645" lon="12.4163333"><ele>234.0</ele><time>2026-04-11T14:59:36.92Z</time></trkpt><trkpt lat="43.9207267" lon="12.4163067"><ele>234.0</ele><time>2026-04-11T14:59:39.92Z</time></trkpt><trkpt lat="43.9207967" lon="12.41632"><ele>234.0</ele><time>2026-04-11T14:59:42.92Z</time></trkpt><trkpt lat="43.92088" lon="12.4163417"><ele>234.0</ele><time>2026-04-11T14:59:45.919Z</time></trkpt><trkpt lat="43.9209333" lon="12.4163933"><ele>234.0</ele><time>2026-04-11T14:59:47.919Z</time></trkpt><trkpt lat="43.9210117" lon="12.4164633"><ele>234.0</ele><time>2026-04-11T14:59:56.919Z</time></trkpt><trkpt lat="43.9210767" lon="12.4165167"><ele>234.0</ele><time>2026-04-11T15:00:02.919Z</time></trkpt><trkpt lat="43.9211617" lon="12.41659"><ele>233.66666666666666</ele><time>2026-04-11T15:00:19.92Z</time></trkpt><trkpt lat="43.9212383" lon="12.4166567"><ele>233.33333333333331</ele><time>2026-04-11T15:00:23.92Z</time></trkpt><trkpt lat="43.9212967" lon="12.4167083"><ele>233.0</ele><time>2026-04-11T15:00:25.919Z</time></trkpt><trkpt lat="43.9213717" lon="12.41676"><ele>232.66666666666666</ele><time>2026-04-11T15:00:28.919Z</time></trkpt><trkpt lat="43.9214317" lon="12.4168167"><ele>232.33333333333331</ele><time>2026-04-11T15:00:30.92Z</time></trkpt><trkpt lat="43.9214883" lon="12.41688"><ele>232.0</ele><time>2026-04-11T15:00:32.92Z</time></trkpt><trkpt lat="43.9215517" lon="12.4169383"><ele>231.99999999999997</ele><time>2026-04-11T15:00:34.92Z</time></trkpt><trkpt lat="43.921615" lon="12.4170133"><ele>232.0</ele><time>2026-04-11T15:00:37.92Z</time></trkpt><trkpt lat="43.921665" lon="12.4170683"><ele>232.0</ele><time>2026-04-11T15:00:39.92Z</time></trkpt><trkpt lat="43.9217383" lon="12.417145"><ele>232.0</ele><time>2026-04-11T15:00:41.92Z</time></trkpt><trkpt lat="43.9218167" lon="12.4172067"><ele>231.99999999999997</ele><time>2026-04-11T15:00:43.92Z</time></trkpt><trkpt lat="43.9218783" lon="12.4172633"><ele>232.0</ele><time>2026-04-11T15:00:45.92Z</time></trkpt><trkpt lat="43.9219583" lon="12.4173133"><ele>230.8</ele><time>2026-04-11T15:00:47.919Z</time></trkpt><trkpt lat="43.922035" lon="12.41739"><ele>229.6</ele><time>2026-04-11T15:00:49.919Z</time></trkpt><trkpt lat="43.9221033" lon="12.417465"><ele>228.40000000000003</ele><time>2026-04-11T15:00:51.92Z</time></trkpt><trkpt lat="43.9221933" lon="12.4175217"><ele>227.20000000000002</ele><time>2026-04-11T15:00:53.919Z</time></trkpt><trkpt lat="43.9222783" lon="12.417535"><ele>226.0</ele><time>2026-04-11T15:00:55.92Z</time></trkpt><trkpt lat="43.9223717" lon="12.4175183"><ele>225.99999999999997</ele><time>2026-04-11T15:00:57.92Z</time></trkpt><trkpt lat="43.922475" lon="12.41748"><ele>226.0</ele><time>2026-04-11T15:00:59.919Z</time></trkpt><trkpt lat="43.9225683" lon="12.4174383"><ele>226.0</ele><time>2026-04-11T15:01:01.919Z</time></trkpt><trkpt lat="43.922645" lon="12.4174317"><ele>226.0</ele><time>2026-04-11T15:01:03.92Z</time></trkpt><trkpt lat="43.9227217" lon="12.4174883"><ele>225.99999999999997</ele><time>2026-04-11T15:04:16.919Z</time></trkpt><trkpt lat="43.9227567" lon="12.4175767"><ele>226.0</ele><time>2026-04-11T15:04:18.918Z</time></trkpt><trkpt lat="43.922845" lon="12.4176567"><ele>226.16666666666666</ele><time>2026-04-11T15:04:20.919Z</time></trkpt><trkpt lat="43.9229533" lon="12.417715"><ele>226.33333333333331</ele><time>2026-04-11T15:04:22.918Z</time></trkpt><trkpt lat="43.9230517" lon="12.4177667"><ele>226.5</ele><time>2026-04-11T15:04:24.918Z</time></trkpt><trkpt lat="43.923115" lon="12.4178"><ele>226.66666666666669</ele><time>2026-04-11T15:04:25.919Z</time></trkpt><trkpt lat="43.92318" lon="12.4178467"><ele>226.83333333333334</ele><time>2026-04-11T15:04:26.918Z</time></trkpt><trkpt lat="43.9232567" lon="12.417895"><ele>227.0</ele><time>2026-04-11T15:04:27.918Z</time></trkpt><trkpt lat="43.9233517" lon="12.4179333"><ele>224.50000000000003</ele><time>2026-04-11T15:04:28.919Z</time></trkpt><trkpt lat="43.923445" lon="12.4179833"><ele>222.0</ele><time>2026-04-11T15:04:29.918Z</time></trkpt><trkpt lat="43.9235317" lon="12.4180233"><ele>219.5</ele><time>2026-04-11T15:04:30.919Z</time></trkpt><trkpt lat="43.9236133" lon="12.4180433"><ele>217.0</ele><time>2026-04-11T15:04:31.919Z</time></trkpt><trkpt lat="43.9236917" lon="12.4180467"><ele>214.50000000000003</ele><time>2026-04-11T15:04:32.919Z</time></trkpt><trkpt lat="43.9237617" lon="12.41803"><ele>212.0</ele><time>2026-04-11T15:04:33.919Z</time></trkpt><trkpt lat="43.923885" lon="12.4180117"><ele>211.50000000000003</ele><time>2026-04-11T15:04:35.919Z</time></trkpt><trkpt lat="43.9239417" lon="12.4181167"><ele>211.0</ele><time>2026-04-11T15:04:37.919Z</time></trkpt><trkpt lat="43.923925" lon="12.41821"><ele>210.5</ele><time>2026-04-11T15:04:38.919Z</time></trkpt><trkpt lat="43.9238917" lon="12.4183033"><ele>210.0</ele><time>2026-04-11T15:04:39.919Z</time></trkpt><trkpt lat="43.9238417" lon="12.41841"><ele>209.50000000000003</ele><time>2026-04-11T15:04:40.919Z</time></trkpt><trkpt lat="43.923795" lon="12.4185283"><ele>209.0</ele><time>2026-04-11T15:04:41.918Z</time></trkpt><trkpt lat="43.9237583" lon="12.41866"><ele>209.0</ele><time>2026-04-11T15:04:42.918Z</time></trkpt><trkpt lat="43.9237317" lon="12.4188117"><ele>209.0</ele><time>2026-04-11T15:04:43.919Z</time></trkpt><trkpt lat="43.9237133" lon="12.4189667"><ele>209.0</ele><time>2026-04-11T15:04:44.919Z</time></trkpt><trkpt lat="43.9236883" lon="12.4191167"><ele>209.0</ele><time>2026-04-11T15:04:45.918Z</time></trkpt><trkpt lat="43.9236617" lon="12.4192683"><ele>209.0</ele><time>2026-04-11T15:04:46.919Z</time></trkpt><trkpt lat="43.92363" lon="12.4194267"><ele>209.0</ele><time>2026-04-11T15:04:47.918Z</time></trkpt><trkpt lat="43.9236033" lon="12.41959"><ele>209.0</ele><time>2026-04-11T15:04:48.918Z</time></trkpt><trkpt lat="43.9235767" lon="12.4197367"><ele>209.0</ele><time>2026-04-11T15:04:49.918Z</time></trkpt><trkpt lat="43.9235583" lon="12.4198817"><ele>209.0</ele><time>2026-04-11T15:04:50.919Z</time></trkpt><trkpt lat="43.92355" lon="12.4200533"><ele>209.0</ele><time>2026-04-11T15:04:51.919Z</time></trkpt><trkpt lat="43.92356" lon="12.420235"><ele>209.0</ele><time>2026-04-11T15:04:52.918Z</time></trkpt><trkpt lat="43.923585" lon="12.4204167"><ele>209.0</ele><time>2026-04-11T15:04:53.919Z</time></trkpt><trkpt lat="43.9236217" lon="12.4205917"><ele>209.0</ele><time>2026-04-11T15:04:54.918Z</time></trkpt><trkpt lat="43.923655" lon="12.4207867"><ele>209.25</ele><time>2026-04-11T15:04:55.918Z</time></trkpt><trkpt lat="43.9237017" lon="12.4209767"><ele>209.5</ele><time>2026-04-11T15:04:56.919Z</time></trkpt><trkpt lat="43.9237483" lon="12.4211633"><ele>209.75</ele><time>2026-04-11T15:04:57.919Z</time></trkpt><trkpt lat="43.9237933" lon="12.421335"><ele>210.0</ele><time>2026-04-11T15:04:58.919Z</time></trkpt><trkpt lat="43.92384" lon="12.4214967"><ele>210.8</ele><time>2026-04-11T15:04:59.919Z</time></trkpt><trkpt lat="43.9238717" lon="12.42165"><ele>211.6</ele><time>2026-04-11T15:05:00.919Z</time></trkpt><trkpt lat="43.923905" lon="12.421795"><ele>212.39999999999998</ele><time>2026-04-11T15:05:01.919Z</time></trkpt><trkpt lat="43.9239233" lon="12.42194"><ele>213.2</ele><time>2026-04-11T15:05:02.919Z</time></trkpt><trkpt lat="43.92395" lon="12.4220717"><ele>214.0</ele><time>2026-04-11T15:05:03.919Z</time></trkpt><trkpt lat="43.9239733" lon="12.422185"><ele>213.99999999999997</ele><time>2026-04-11T15:05:04.919Z</time></trkpt><trkpt lat="43.9239967" lon="12.4222817"><ele>214.0</ele><time>2026-04-11T15:05:05.918Z</time></trkpt><trkpt lat="43.9240267" lon="12.422425"><ele>214.0</ele><time>2026-04-11T15:05:07.919Z</time></trkpt><trkpt lat="43.9240633" lon="12.4225333"><ele>214.0</ele><time>2026-04-11T15:05:09.919Z</time></trkpt><trkpt lat="43.92413" lon="12.42258"><ele>213.99999999999997</ele><time>2026-04-11T15:05:11.919Z</time></trkpt><trkpt lat="43.9241983" lon="12.4225817"><ele>214.0</ele><time>2026-04-11T15:05:12.919Z</time></trkpt><trkpt lat="43.92428" lon="12.4225733"><ele>214.79999999999998</ele><time>2026-04-11T15:05:13.919Z</time></trkpt><trkpt lat="43.92437" lon="12.4225433"><ele>215.59999999999997</ele><time>2026-04-11T15:05:14.919Z</time></trkpt><trkpt lat="43.92447" lon="12.422495"><ele>216.4</ele><time>2026-04-11T15:05:15.918Z</time></trkpt><trkpt lat="43.92458" lon="12.4224383"><ele>217.2</ele><time>2026-04-11T15:05:16.918Z</time></trkpt><trkpt lat="43.9246767" lon="12.422385"><ele>218.0</ele><time>2026-04-11T15:05:17.919Z</time></trkpt><trkpt lat="43.9247667" lon="12.4223067"><ele>218.0</ele><time>2026-04-11T15:05:18.918Z</time></trkpt><trkpt lat="43.9248517" lon="12.42222"><ele>218.0</ele><time>2026-04-11T15:05:19.919Z</time></trkpt><trkpt lat="43.924915" lon="12.42211"><ele>218.0</ele><time>2026-04-11T15:05:20.919Z</time></trkpt><trkpt lat="43.924965" lon="12.4219917"><ele>218.0</ele><time>2026-04-11T15:05:21.919Z</time></trkpt><trkpt lat="43.92499" lon="12.4218783"><ele>218.0</ele><time>2026-04-11T15:05:22.918Z</time></trkpt><trkpt lat="43.9250117" lon="12.4217917"><ele>217.8</ele><time>2026-04-11T15:05:23.919Z</time></trkpt><trkpt lat="43.9250283" lon="12.4216567"><ele>217.60000000000002</ele><time>2026-04-11T15:05:25.918Z</time></trkpt><trkpt lat="43.92504" lon="12.4215533"><ele>217.39999999999998</ele><time>2026-04-11T15:05:48.917Z</time></trkpt><trkpt lat="43.925075" lon="12.421385"><ele>217.2</ele><time>2026-04-11T15:05:50.918Z</time></trkpt><trkpt lat="43.92511" lon="12.4212867"><ele>217.0</ele><time>2026-04-11T15:05:51.918Z</time></trkpt><trkpt lat="43.925155" lon="12.421185"><ele>218.0</ele><time>2026-04-11T15:05:52.918Z</time></trkpt><trkpt lat="43.9252033" lon="12.421065"><ele>219.0</ele><time>2026-04-11T15:05:53.918Z</time></trkpt><trkpt lat="43.92526" lon="12.4209333"><ele>220.0</ele><time>2026-04-11T15:05:54.918Z</time></trkpt><trkpt lat="43.9253233" lon="12.42079"><ele>221.0</ele><time>2026-04-11T15:05:55.917Z</time></trkpt><trkpt lat="43.925375" lon="12.42064"><ele>221.0</ele><time>2026-04-11T15:05:56.917Z</time></trkpt><trkpt lat="43.9254117" lon="12.4204683"><ele>221.0</ele><time>2026-04-11T15:05:57.917Z</time></trkpt><trkpt lat="43.92542" lon="12.4202817"><ele>221.0</ele><time>2026-04-11T15:05:58.918Z</time></trkpt><trkpt lat="43.9254133" lon="12.4201017"><ele>221.0</ele><time>2026-04-11T15:05:59.918Z</time></trkpt><trkpt lat="43.925385" lon="12.4199017"><ele>221.0</ele><time>2026-04-11T15:06:00.917Z</time></trkpt><trkpt lat="43.9253283" lon="12.4197183"><ele>221.0</ele><time>2026-04-11T15:06:01.918Z</time></trkpt><trkpt lat="43.925275" lon="12.419535"><ele>221.0</ele><time>2026-04-11T15:06:02.918Z</time></trkpt><trkpt lat="43.9252267" lon="12.4193583"><ele>221.0</ele><time>2026-04-11T15:06:03.917Z</time></trkpt><trkpt lat="43.9251867" lon="12.419185"><ele>221.20000000000002</ele><time>2026-04-11T15:06:04.917Z</time></trkpt><trkpt lat="43.9251583" lon="12.4190233"><ele>221.40000000000003</ele><time>2026-04-11T15:06:05.918Z</time></trkpt><trkpt lat="43.9251517" lon="12.4188683"><ele>221.6</ele><time>2026-04-11T15:06:06.917Z</time></trkpt><trkpt lat="43.9251817" lon="12.418735"><ele>221.8</ele><time>2026-04-11T15:06:07.918Z</time></trkpt><trkpt lat="43.9252383" lon="12.41862"><ele>222.0</ele><time>2026-04-11T15:06:08.917Z</time></trkpt><trkpt lat="43.9253117" lon="12.418505"><ele>220.0</ele><time>2026-04-11T15:06:09.918Z</time></trkpt><trkpt lat="43.9254033" lon="12.4183883"><ele>218.0</ele><time>2026-04-11T15:06:10.918Z</time></trkpt><trkpt lat="43.9255" lon="12.4182717"><ele>216.0</ele><time>2026-04-11T15:06:11.918Z</time></trkpt><trkpt lat="43.9256017" lon="12.4181567"><ele>214.0</ele><time>2026-04-11T15:06:12.918Z</time></trkpt><trkpt lat="43.9257067" lon="12.418035"><ele>213.25</ele><time>2026-04-11T15:06:13.918Z</time></trkpt><trkpt lat="43.925815" lon="12.417905"><ele>212.5</ele><time>2026-04-11T15:06:14.918Z</time></trkpt><trkpt lat="43.9259217" lon="12.4177633"><ele>211.75</ele><time>2026-04-11T15:06:15.918Z</time></trkpt><trkpt lat="43.92603" lon="12.4176317"><ele>211.0</ele><time>2026-04-11T15:06:16.917Z</time></trkpt><trkpt lat="43.9261417" lon="12.4175"><ele>211.0</ele><time>2026-04-11T15:06:17.918Z</time></trkpt><trkpt lat="43.9262483" lon="12.4173733"><ele>211.0</ele><time>2026-04-11T15:06:18.917Z</time></trkpt><trkpt lat="43.9263617" lon="12.4172533"><ele>211.0</ele><time>2026-04-11T15:06:19.918Z</time></trkpt><trkpt lat="43.9265017" lon="12.4171433"><ele>211.0</ele><time>2026-04-11T15:06:20.917Z</time></trkpt><trkpt lat="43.9266483" lon="12.4170683"><ele>207.66666666666666</ele><time>2026-04-11T15:06:21.918Z</time></trkpt><trkpt lat="43.9267983" lon="12.4170117"><ele>204.33333333333331</ele><time>2026-04-11T15:06:22.917Z</time></trkpt><trkpt lat="43.926955" lon="12.41699"><ele>201.0</ele><time>2026-04-11T15:06:23.917Z</time></trkpt><trkpt lat="43.9271183" lon="12.4169567"><ele>201.0</ele><time>2026-04-11T15:06:24.917Z</time></trkpt><trkpt lat="43.92728" lon="12.4169467"><ele>201.0</ele><time>2026-04-11T15:06:25.917Z</time></trkpt><trkpt lat="43.9274367" lon="12.416925"><ele>201.0</ele><time>2026-04-11T15:06:26.917Z</time></trkpt><trkpt lat="43.9275933" lon="12.41691"><ele>200.66666666666669</ele><time>2026-04-11T15:06:27.917Z</time></trkpt><trkpt lat="43.927755" lon="12.4169"><ele>200.33333333333334</ele><time>2026-04-11T15:06:28.918Z</time></trkpt><trkpt lat="43.9279183" lon="12.41689"><ele>200.0</ele><time>2026-04-11T15:06:29.918Z</time></trkpt><trkpt lat="43.9280767" lon="12.4168717"><ele>200.0</ele><time>2026-04-11T15:06:30.918Z</time></trkpt><trkpt lat="43.928235" lon="12.41684"><ele>200.0</ele><time>2026-04-11T15:06:31.918Z</time></trkpt><trkpt lat="43.92839" lon="12.41682"><ele>200.0</ele><time>2026-04-11T15:06:32.917Z</time></trkpt><trkpt lat="43.9285467" lon="12.4167933"><ele>200.33333333333334</ele><time>2026-04-11T15:06:33.917Z</time></trkpt><trkpt lat="43.9287083" lon="12.416785"><ele>200.66666666666669</ele><time>2026-04-11T15:06:34.917Z</time></trkpt><trkpt lat="43.9288733" lon="12.4167767"><ele>201.0</ele><time>2026-04-11T15:06:35.917Z</time></trkpt><trkpt lat="43.929035" lon="12.4167717"><ele>201.0</ele><time>2026-04-11T15:06:36.918Z</time></trkpt><trkpt lat="43.9291933" lon="12.416755"><ele>201.0</ele><time>2026-04-11T15:06:37.918Z</time></trkpt><trkpt lat="43.9293533" lon="12.4167333"><ele>201.0</ele><time>2026-04-11T15:06:38.917Z</time></trkpt><trkpt lat="43.9295133" lon="12.416715"><ele>200.66666666666669</ele><time>2026-04-11T15:06:39.917Z</time></trkpt><trkpt lat="43.92968" lon="12.4167017"><ele>200.33333333333334</ele><time>2026-04-11T15:06:40.917Z</time></trkpt><trkpt lat="43.92984" lon="12.4166783"><ele>200.0</ele><time>2026-04-11T15:06:41.917Z</time></trkpt><trkpt lat="43.9299933" lon="12.4166583"><ele>200.33333333333334</ele><time>2026-04-11T15:06:42.918Z</time></trkpt><trkpt lat="43.9301533" lon="12.416635"><ele>200.66666666666669</ele><time>2026-04-11T15:06:43.917Z</time></trkpt><trkpt lat="43.930315" lon="12.4166017"><ele>201.0</ele><time>2026-04-11T15:06:44.918Z</time></trkpt><trkpt lat="43.9304733" lon="12.416585"><ele>201.0</ele><time>2026-04-11T15:06:45.918Z</time></trkpt><trkpt lat="43.9306317" lon="12.4165583"><ele>201.0</ele><time>2026-04-11T15:06:46.918Z</time></trkpt><trkpt lat="43.9307867" lon="12.41653"><ele>201.0</ele><time>2026-04-11T15:06:47.917Z</time></trkpt><trkpt lat="43.9309267" lon="12.4164967"><ele>201.0</ele><time>2026-04-11T15:06:48.918Z</time></trkpt><trkpt lat="43.9310517" lon="12.41646"><ele>201.0</ele><time>2026-04-11T15:06:49.917Z</time></trkpt><trkpt lat="43.9311717" lon="12.41643"><ele>201.0</ele><time>2026-04-11T15:06:50.918Z</time></trkpt><trkpt lat="43.9312867" lon="12.416395"><ele>201.0</ele><time>2026-04-11T15:06:51.917Z</time></trkpt><trkpt lat="43.931395" lon="12.4163567"><ele>199.4</ele><time>2026-04-11T15:06:52.918Z</time></trkpt><trkpt lat="43.9314967" lon="12.4163183"><ele>197.8</ele><time>2026-04-11T15:06:53.918Z</time></trkpt><trkpt lat="43.9316033" lon="12.4162817"><ele>196.20000000000002</ele><time>2026-04-11T15:06:54.918Z</time></trkpt><trkpt lat="43.93171" lon="12.4162367"><ele>194.60000000000002</ele><time>2026-04-11T15:06:55.917Z</time></trkpt><trkpt lat="43.931825" lon="12.4162"><ele>193.0</ele><time>2026-04-11T15:06:56.918Z</time></trkpt><trkpt lat="43.9319483" lon="12.416155"><ele>193.0</ele><time>2026-04-11T15:06:57.917Z</time></trkpt><trkpt lat="43.9320783" lon="12.4161183"><ele>193.0</ele><time>2026-04-11T15:06:58.917Z</time></trkpt><trkpt lat="43.9322017" lon="12.4160883"><ele>193.0</ele><time>2026-04-11T15:06:59.918Z</time></trkpt><trkpt lat="43.93232" lon="12.4160333"><ele>193.0</ele><time>2026-04-11T15:07:00.917Z</time></trkpt><trkpt lat="43.93244" lon="12.4159817"><ele>192.75</ele><time>2026-04-11T15:07:01.917Z</time></trkpt><trkpt lat="43.9325633" lon="12.4159167"><ele>192.5</ele><time>2026-04-11T15:07:02.918Z</time></trkpt><trkpt lat="43.9326967" lon="12.4158567"><ele>192.25</ele><time>2026-04-11T15:07:03.918Z</time></trkpt><trkpt lat="43.932825" lon="12.4157783"><ele>192.0</ele><time>2026-04-11T15:07:04.917Z</time></trkpt><trkpt lat="43.9329517" lon="12.4157083"><ele>192.0</ele><time>2026-04-11T15:07:05.918Z</time></trkpt><trkpt lat="43.9330867" lon="12.41564"><ele>192.0</ele><time>2026-04-11T15:07:06.918Z</time></trkpt><trkpt lat="43.9332283" lon="12.41558"><ele>192.0</ele><time>2026-04-11T15:07:07.917Z</time></trkpt><trkpt lat="43.9333783" lon="12.41552"><ele>192.0</ele><time>2026-04-11T15:07:08.918Z</time></trkpt><trkpt lat="43.9335283" lon="12.4154533"><ele>192.33333333333331</ele><time>2026-04-11T15:07:09.918Z</time></trkpt><trkpt lat="43.9336667" lon="12.41537"><ele>192.66666666666666</ele><time>2026-04-11T15:07:10.917Z</time></trkpt><trkpt lat="43.9338017" lon="12.4152833"><ele>193.0</ele><time>2026-04-11T15:07:11.917Z</time></trkpt><trkpt lat="43.933945" lon="12.4152017"><ele>193.0</ele><time>2026-04-11T15:07:12.918Z</time></trkpt><trkpt lat="43.9340917" lon="12.4151283"><ele>193.0</ele><time>2026-04-11T15:07:13.917Z</time></trkpt><trkpt lat="43.9342367" lon="12.4150533"><ele>193.0</ele><time>2026-04-11T15:07:14.917Z</time></trkpt><trkpt lat="43.93439" lon="12.41498"><ele>193.33333333333331</ele><time>2026-04-11T15:07:15.917Z</time></trkpt><trkpt lat="43.9345333" lon="12.4149017"><ele>193.66666666666669</ele><time>2026-04-11T15:07:16.918Z</time></trkpt><trkpt lat="43.934675" lon="12.4148317"><ele>194.0</ele><time>2026-04-11T15:07:17.918Z</time></trkpt><trkpt lat="43.93482" lon="12.414755"><ele>194.0</ele><time>2026-04-11T15:07:18.917Z</time></trkpt><trkpt lat="43.9349633" lon="12.4146833"><ele>194.0</ele><time>2026-04-11T15:07:19.917Z</time></trkpt><trkpt lat="43.9351017" lon="12.4146083"><ele>194.0</ele><time>2026-04-11T15:07:20.918Z</time></trkpt><trkpt lat="43.9352467" lon="12.4145267"><ele>194.0</ele><time>2026-04-11T15:07:21.918Z</time></trkpt><trkpt lat="43.93539" lon="12.4144617"><ele>194.0</ele><time>2026-04-11T15:07:22.917Z</time></trkpt><trkpt lat="43.93554" lon="12.41439"><ele>194.0</ele><time>2026-04-11T15:07:23.918Z</time></trkpt><trkpt lat="43.93568" lon="12.4142983"><ele>194.0</ele><time>2026-04-11T15:07:24.918Z</time></trkpt><trkpt lat="43.9358167" lon="12.4142167"><ele>194.0</ele><time>2026-04-11T15:07:25.918Z</time></trkpt><trkpt lat="43.935965" lon="12.4141517"><ele>194.0</ele><time>2026-04-11T15:07:26.917Z</time></trkpt><trkpt lat="43.9361117" lon="12.414065"><ele>195.0</ele><time>2026-04-11T15:07:27.918Z</time></trkpt><trkpt lat="43.9362583" lon="12.4140017"><ele>196.0</ele><time>2026-04-11T15:07:28.917Z</time></trkpt><trkpt lat="43.9364083" lon="12.4139517"><ele>197.0</ele><time>2026-04-11T15:07:29.918Z</time></trkpt><trkpt lat="43.9365667" lon="12.4139417"><ele>197.0</ele><time>2026-04-11T15:07:30.918Z</time></trkpt><trkpt lat="43.9367167" lon="12.413955"><ele>197.0</ele><time>2026-04-11T15:07:31.918Z</time></trkpt><trkpt lat="43.936875" lon="12.4139833"><ele>197.0</ele><time>2026-04-11T15:07:32.917Z</time></trkpt><trkpt lat="43.93704" lon="12.4140267"><ele>196.33333333333334</ele><time>2026-04-11T15:07:33.917Z</time></trkpt><trkpt lat="43.937195" lon="12.4140783"><ele>195.66666666666669</ele><time>2026-04-11T15:07:34.917Z</time></trkpt><trkpt lat="43.93735" lon="12.4141083"><ele>195.0</ele><time>2026-04-11T15:07:35.917Z</time></trkpt><trkpt lat="43.9374917" lon="12.4141317"><ele>194.25</ele><time>2026-04-11T15:07:36.918Z</time></trkpt><trkpt lat="43.9376267" lon="12.41413"><ele>193.5</ele><time>2026-04-11T15:07:37.918Z</time></trkpt><trkpt lat="43.9377533" lon="12.4140983"><ele>192.75</ele><time>2026-04-11T15:07:38.918Z</time></trkpt><trkpt lat="43.9378717" lon="12.4140133"><ele>192.0</ele><time>2026-04-11T15:07:39.918Z</time></trkpt><trkpt lat="43.9379833" lon="12.4138983"><ele>190.0</ele><time>2026-04-11T15:07:40.917Z</time></trkpt><trkpt lat="43.938075" lon="12.413745"><ele>188.0</ele><time>2026-04-11T15:07:41.917Z</time></trkpt><trkpt lat="43.9381633" lon="12.4135683"><ele>186.0</ele><time>2026-04-11T15:07:42.918Z</time></trkpt><trkpt lat="43.9382533" lon="12.413395"><ele>186.0</ele><time>2026-04-11T15:07:43.918Z</time></trkpt><trkpt lat="43.9383483" lon="12.4132217"><ele>186.0</ele><time>2026-04-11T15:07:44.918Z</time></trkpt><trkpt lat="43.9384617" lon="12.413055"><ele>186.0</ele><time>2026-04-11T15:07:45.918Z</time></trkpt><trkpt lat="43.9385817" lon="12.412885"><ele>183.33333333333334</ele><time>2026-04-11T15:07:46.918Z</time></trkpt><trkpt lat="43.9386833" lon="12.4127"><ele>180.66666666666669</ele><time>2026-04-11T15:07:47.917Z</time></trkpt><trkpt lat="43.93876" lon="12.412485"><ele>178.0</ele><time>2026-04-11T15:07:48.917Z</time></trkpt><trkpt lat="43.9388217" lon="12.412255"><ele>176.66666666666669</ele><time>2026-04-11T15:07:49.918Z</time></trkpt><trkpt lat="43.9388683" lon="12.41201"><ele>175.33333333333334</ele><time>2026-04-11T15:07:50.918Z</time></trkpt><trkpt lat="43.9389183" lon="12.4117783"><ele>174.0</ele><time>2026-04-11T15:07:51.917Z</time></trkpt><trkpt lat="43.9389867" lon="12.4115467"><ele>174.33333333333334</ele><time>2026-04-11T15:07:52.917Z</time></trkpt><trkpt lat="43.939045" lon="12.4113067"><ele>174.66666666666669</ele><time>2026-04-11T15:07:53.918Z</time></trkpt><trkpt lat="43.9391333" lon="12.4110867"><ele>175.0</ele><time>2026-04-11T15:07:54.918Z</time></trkpt><trkpt lat="43.9392383" lon="12.4108867"><ele>175.0</ele><time>2026-04-11T15:07:55.917Z</time></trkpt><trkpt lat="43.9393617" lon="12.4107183"><ele>175.0</ele><time>2026-04-11T15:07:56.918Z</time></trkpt><trkpt lat="43.9394817" lon="12.4105467"><ele>175.0</ele><time>2026-04-11T15:07:57.918Z</time></trkpt><trkpt lat="43.9395983" lon="12.4103683"><ele>174.0</ele><time>2026-04-11T15:07:58.917Z</time></trkpt><trkpt lat="43.9397133" lon="12.4101667"><ele>173.0</ele><time>2026-04-11T15:07:59.917Z</time></trkpt><trkpt lat="43.9398283" lon="12.4099767"><ele>172.0</ele><time>2026-04-11T15:08:00.917Z</time></trkpt><trkpt lat="43.9399383" lon="12.4097917"><ele>171.66666666666669</ele><time>2026-04-11T15:08:01.917Z</time></trkpt><trkpt lat="43.9400483" lon="12.409595"><ele>171.33333333333334</ele><time>2026-04-11T15:08:02.917Z</time></trkpt><trkpt lat="43.9401633" lon="12.409415"><ele>171.0</ele><time>2026-04-11T15:08:03.917Z</time></trkpt><trkpt lat="43.9402767" lon="12.409235"><ele>171.0</ele><time>2026-04-11T15:08:04.918Z</time></trkpt><trkpt lat="43.9403833" lon="12.4090483"><ele>171.0</ele><time>2026-04-11T15:08:05.917Z</time></trkpt><trkpt lat="43.9405033" lon="12.4088633"><ele>171.0</ele><time>2026-04-11T15:08:06.917Z</time></trkpt><trkpt lat="43.9406183" lon="12.40869"><ele>172.0</ele><time>2026-04-11T15:08:07.918Z</time></trkpt><trkpt lat="43.9407283" lon="12.408485"><ele>173.0</ele><time>2026-04-11T15:08:08.918Z</time></trkpt><trkpt lat="43.94084" lon="12.4082983"><ele>174.0</ele><time>2026-04-11T15:08:09.918Z</time></trkpt><trkpt lat="43.9409567" lon="12.4080967"><ele>171.66666666666666</ele><time>2026-04-11T15:08:10.917Z</time></trkpt><trkpt lat="43.941075" lon="12.4079133"><ele>169.33333333333331</ele><time>2026-04-11T15:08:11.917Z</time></trkpt><trkpt lat="43.94119" lon="12.4077333"><ele>167.0</ele><time>2026-04-11T15:08:12.917Z</time></trkpt><trkpt lat="43.9413017" lon="12.40755"><ele>167.0</ele><time>2026-04-11T15:08:13.917Z</time></trkpt><trkpt lat="43.941405" lon="12.4073667"><ele>167.0</ele><time>2026-04-11T15:08:14.918Z</time></trkpt><trkpt lat="43.9415167" lon="12.4072117"><ele>167.0</ele><time>2026-04-11T15:08:15.918Z</time></trkpt><trkpt lat="43.94165" lon="12.4070783"><ele>165.66666666666666</ele><time>2026-04-11T15:08:16.918Z</time></trkpt><trkpt lat="43.9418033" lon="12.40696"><ele>164.33333333333334</ele><time>2026-04-11T15:08:17.918Z</time></trkpt><trkpt lat="43.94196" lon="12.40684"><ele>163.0</ele><time>2026-04-11T15:08:18.918Z</time></trkpt><trkpt lat="43.9421217" lon="12.4067483"><ele>163.0</ele><time>2026-04-11T15:08:19.917Z</time></trkpt><trkpt lat="43.9422683" lon="12.4066383"><ele>163.0</ele><time>2026-04-11T15:08:20.918Z</time></trkpt><trkpt lat="43.9424217" lon="12.4065267"><ele>163.0</ele><time>2026-04-11T15:08:21.918Z</time></trkpt><trkpt lat="43.9425767" lon="12.4064117"><ele>161.33333333333334</ele><time>2026-04-11T15:08:22.917Z</time></trkpt><trkpt lat="43.942745" lon="12.4063"><ele>159.66666666666666</ele><time>2026-04-11T15:08:23.917Z</time></trkpt><trkpt lat="43.9428983" lon="12.40618"><ele>158.0</ele><time>2026-04-11T15:08:24.917Z</time></trkpt><trkpt lat="43.9430433" lon="12.4060517"><ele>158.0</ele><time>2026-04-11T15:08:25.917Z</time></trkpt><trkpt lat="43.9431867" lon="12.40597"><ele>158.0</ele><time>2026-04-11T15:08:26.918Z</time></trkpt><trkpt lat="43.9433233" lon="12.405865"><ele>158.0</ele><time>2026-04-11T15:08:27.918Z</time></trkpt><trkpt lat="43.9434833" lon="12.4057883"><ele>158.0</ele><time>2026-04-11T15:08:28.917Z</time></trkpt><trkpt lat="43.9436533" lon="12.4057333"><ele>158.0</ele><time>2026-04-11T15:08:29.918Z</time></trkpt><trkpt lat="43.9438233" lon="12.405705"><ele>158.0</ele><time>2026-04-11T15:08:30.917Z</time></trkpt><trkpt lat="43.944" lon="12.4056933"><ele>158.0</ele><time>2026-04-11T15:08:31.918Z</time></trkpt><trkpt lat="43.94418" lon="12.4056833"><ele>158.0</ele><time>2026-04-11T15:08:32.917Z</time></trkpt><trkpt lat="43.944355" lon="12.4056683"><ele>158.0</ele><time>2026-04-11T15:08:33.917Z</time></trkpt><trkpt lat="43.94454" lon="12.4056583"><ele>157.33333333333331</ele><time>2026-04-11T15:08:34.918Z</time></trkpt><trkpt lat="43.9447167" lon="12.4056617"><ele>156.66666666666666</ele><time>2026-04-11T15:08:35.917Z</time></trkpt><trkpt lat="43.944895" lon="12.405655"><ele>156.0</ele><time>2026-04-11T15:08:36.918Z</time></trkpt><trkpt lat="43.94507" lon="12.4056483"><ele>155.66666666666666</ele><time>2026-04-11T15:08:37.917Z</time></trkpt><trkpt lat="43.94525" lon="12.4056467"><ele>155.33333333333331</ele><time>2026-04-11T15:08:38.917Z</time></trkpt><trkpt lat="43.9454283" lon="12.4056433"><ele>155.0</ele><time>2026-04-11T15:08:39.917Z</time></trkpt><trkpt lat="43.9456033" lon="12.4056217"><ele>155.0</ele><time>2026-04-11T15:08:40.917Z</time></trkpt><trkpt lat="43.9457783" lon="12.405615"><ele>155.0</ele><time>2026-04-11T15:08:41.917Z</time></trkpt><trkpt lat="43.94596" lon="12.4056017"><ele>155.0</ele><time>2026-04-11T15:08:42.917Z</time></trkpt><trkpt lat="43.94613" lon="12.4056117"><ele>154.33333333333331</ele><time>2026-04-11T15:08:43.918Z</time></trkpt><trkpt lat="43.9463033" lon="12.4056067"><ele>153.66666666666666</ele><time>2026-04-11T15:08:44.917Z</time></trkpt><trkpt lat="43.9464817" lon="12.405595"><ele>153.0</ele><time>2026-04-11T15:08:45.918Z</time></trkpt><trkpt lat="43.9466533" lon="12.4055883"><ele>152.0</ele><time>2026-04-11T15:08:46.918Z</time></trkpt><trkpt lat="43.946815" lon="12.4055817"><ele>151.0</ele><time>2026-04-11T15:08:47.918Z</time></trkpt><trkpt lat="43.9469767" lon="12.4055783"><ele>150.0</ele><time>2026-04-11T15:08:48.918Z</time></trkpt><trkpt lat="43.9471283" lon="12.4055683"><ele>150.0</ele><time>2026-04-11T15:08:49.918Z</time></trkpt><trkpt lat="43.94728" lon="12.405565"><ele>150.0</ele><time>2026-04-11T15:08:50.918Z</time></trkpt><trkpt lat="43.9474283" lon="12.4055717"><ele>150.0</ele><time>2026-04-11T15:08:51.917Z</time></trkpt><trkpt lat="43.9475767" lon="12.4055583"><ele>150.0</ele><time>2026-04-11T15:08:52.918Z</time></trkpt><trkpt lat="43.9477233" lon="12.40555"><ele>150.33333333333334</ele><time>2026-04-11T15:08:53.918Z</time></trkpt><trkpt lat="43.94788" lon="12.4055367"><ele>150.66666666666669</ele><time>2026-04-11T15:08:54.917Z</time></trkpt><trkpt lat="43.9480333" lon="12.4055117"><ele>151.0</ele><time>2026-04-11T15:08:55.917Z</time></trkpt><trkpt lat="43.94818" lon="12.4054733"><ele>149.66666666666669</ele><time>2026-04-11T15:08:56.918Z</time></trkpt><trkpt lat="43.9483283" lon="12.4054217"><ele>148.33333333333334</ele><time>2026-04-11T15:08:57.917Z</time></trkpt><trkpt lat="43.9484783" lon="12.40535"><ele>147.0</ele><time>2026-04-11T15:08:58.917Z</time></trkpt><trkpt lat="43.9486283" lon="12.405265"><ele>147.0</ele><time>2026-04-11T15:08:59.918Z</time></trkpt><trkpt lat="43.94878" lon="12.4051833"><ele>147.0</ele><time>2026-04-11T15:09:00.918Z</time></trkpt><trkpt lat="43.94894" lon="12.4051067"><ele>147.0</ele><time>2026-04-11T15:09:01.918Z</time></trkpt><trkpt lat="43.9491033" lon="12.405025"><ele>146.66666666666666</ele><time>2026-04-11T15:09:02.918Z</time></trkpt><trkpt lat="43.9492667" lon="12.4049467"><ele>146.33333333333331</ele><time>2026-04-11T15:09:03.917Z</time></trkpt><trkpt lat="43.9494333" lon="12.404865"><ele>146.0</ele><time>2026-04-11T15:09:04.918Z</time></trkpt><trkpt lat="43.9496" lon="12.4047983"><ele>146.0</ele><time>2026-04-11T15:09:05.918Z</time></trkpt><trkpt lat="43.9497617" lon="12.404725"><ele>146.0</ele><time>2026-04-11T15:09:06.918Z</time></trkpt><trkpt lat="43.9499117" lon="12.4046383"><ele>146.0</ele><time>2026-04-11T15:09:07.917Z</time></trkpt><trkpt lat="43.9500683" lon="12.40456"><ele>144.66666666666666</ele><time>2026-04-11T15:09:08.918Z</time></trkpt><trkpt lat="43.9502267" lon="12.4045117"><ele>143.33333333333334</ele><time>2026-04-11T15:09:09.917Z</time></trkpt><trkpt lat="43.9503983" lon="12.4044733"><ele>142.0</ele><time>2026-04-11T15:09:10.917Z</time></trkpt><trkpt lat="43.9505683" lon="12.4044367"><ele>142.0</ele><time>2026-04-11T15:09:11.917Z</time></trkpt><trkpt lat="43.9507417" lon="12.4043983"><ele>142.0</ele><time>2026-04-11T15:09:12.917Z</time></trkpt><trkpt lat="43.9509167" lon="12.4043683"><ele>142.0</ele><time>2026-04-11T15:09:13.918Z</time></trkpt><trkpt lat="43.9510917" lon="12.4043267"><ele>142.0</ele><time>2026-04-11T15:09:14.917Z</time></trkpt><trkpt lat="43.9512567" lon="12.4042933"><ele>142.0</ele><time>2026-04-11T15:09:15.917Z</time></trkpt><trkpt lat="43.95143" lon="12.4042583"><ele>142.0</ele><time>2026-04-11T15:09:16.918Z</time></trkpt><trkpt lat="43.9515933" lon="12.4042267"><ele>141.5</ele><time>2026-04-11T15:09:17.918Z</time></trkpt><trkpt lat="43.95175" lon="12.4041967"><ele>141.0</ele><time>2026-04-11T15:09:18.918Z</time></trkpt><trkpt lat="43.9518833" lon="12.4041767"><ele>140.5</ele><time>2026-04-11T15:09:19.918Z</time></trkpt><trkpt lat="43.95201" lon="12.4041583"><ele>140.0</ele><time>2026-04-11T15:09:20.917Z</time></trkpt><trkpt lat="43.952135" lon="12.404135"><ele>140.0</ele><time>2026-04-11T15:09:21.917Z</time></trkpt><trkpt lat="43.952245" lon="12.40413"><ele>140.0</ele><time>2026-04-11T15:09:22.918Z</time></trkpt><trkpt lat="43.9523533" lon="12.40416"><ele>140.0</ele><time>2026-04-11T15:09:23.917Z</time></trkpt><trkpt lat="43.9524367" lon="12.4041883"><ele>140.0</ele><time>2026-04-11T15:09:24.918Z</time></trkpt><trkpt lat="43.9525" lon="12.404255"><ele>140.0</ele><time>2026-04-11T15:09:25.918Z</time></trkpt><trkpt lat="43.9525367" lon="12.4043617"><ele>139.8</ele><time>2026-04-11T15:09:26.917Z</time></trkpt><trkpt lat="43.952545" lon="12.4045117"><ele>139.6</ele><time>2026-04-11T15:09:27.918Z</time></trkpt><trkpt lat="43.9525317" lon="12.4046733"><ele>139.4</ele><time>2026-04-11T15:09:28.918Z</time></trkpt><trkpt lat="43.9525117" lon="12.40483"><ele>139.2</ele><time>2026-04-11T15:09:29.918Z</time></trkpt><trkpt lat="43.9524967" lon="12.4049767"><ele>139.0</ele><time>2026-04-11T15:09:30.917Z</time></trkpt><trkpt lat="43.95248" lon="12.4051217"><ele>139.5</ele><time>2026-04-11T15:09:31.918Z</time></trkpt><trkpt lat="43.9524683" lon="12.40526"><ele>140.0</ele><time>2026-04-11T15:09:32.917Z</time></trkpt><trkpt lat="43.95245" lon="12.40537"><ele>140.5</ele><time>2026-04-11T15:09:33.918Z</time></trkpt><trkpt lat="43.9524367" lon="12.405465"><ele>141.0</ele><time>2026-04-11T15:09:34.916Z</time></trkpt><trkpt lat="43.95243" lon="12.4056117"><ele>141.5</ele><time>2026-04-11T15:09:36.917Z</time></trkpt><trkpt lat="43.9524233" lon="12.40573"><ele>142.0</ele><time>2026-04-11T15:09:39.916Z</time></trkpt><trkpt lat="43.9524633" lon="12.4058033"><ele>142.4</ele><time>2026-04-11T15:09:41.916Z</time></trkpt><trkpt lat="43.9525717" lon="12.4058133"><ele>142.79999999999998</ele><time>2026-04-11T15:09:43.917Z</time></trkpt><trkpt lat="43.952645" lon="12.4057883"><ele>143.2</ele><time>2026-04-11T15:09:44.917Z</time></trkpt><trkpt lat="43.95273" lon="12.40576"><ele>143.6</ele><time>2026-04-11T15:09:45.916Z</time></trkpt><trkpt lat="43.9528233" lon="12.4057283"><ele>144.0</ele><time>2026-04-11T15:09:46.916Z</time></trkpt><trkpt lat="43.9529233" lon="12.40569"><ele>144.0</ele><time>2026-04-11T15:09:47.916Z</time></trkpt><trkpt lat="43.9530283" lon="12.4056567"><ele>144.0</ele><time>2026-04-11T15:09:48.916Z</time></trkpt><trkpt lat="43.953135" lon="12.4056367"><ele>144.0</ele><time>2026-04-11T15:09:49.916Z</time></trkpt><trkpt lat="43.9532467" lon="12.4056133"><ele>144.0</ele><time>2026-04-11T15:09:50.917Z</time></trkpt><trkpt lat="43.953355" lon="12.4055867"><ele>144.0</ele><time>2026-04-11T15:09:51.916Z</time></trkpt><trkpt lat="43.953465" lon="12.4055567"><ele>143.4</ele><time>2026-04-11T15:09:52.917Z</time></trkpt><trkpt lat="43.9535633" lon="12.4055383"><ele>142.8</ele><time>2026-04-11T15:09:53.917Z</time></trkpt><trkpt lat="43.9536567" lon="12.4055217"><ele>142.2</ele><time>2026-04-11T15:09:54.916Z</time></trkpt><trkpt lat="43.9537517" lon="12.4054983"><ele>141.6</ele><time>2026-04-11T15:09:55.916Z</time></trkpt><trkpt lat="43.9538483" lon="12.40548"><ele>141.0</ele><time>2026-04-11T15:09:56.916Z</time></trkpt><trkpt lat="43.9539383" lon="12.4054683"><ele>140.8</ele><time>2026-04-11T15:09:57.916Z</time></trkpt><trkpt lat="43.9540333" lon="12.4054567"><ele>140.6</ele><time>2026-04-11T15:09:58.916Z</time></trkpt><trkpt lat="43.9541317" lon="12.4054467"><ele>140.4</ele><time>2026-04-11T15:09:59.916Z</time></trkpt><trkpt lat="43.95423" lon="12.4054283"><ele>140.2</ele><time>2026-04-11T15:10:00.917Z</time></trkpt><trkpt lat="43.9543333" lon="12.4053967"><ele>140.0</ele><time>2026-04-11T15:10:01.916Z</time></trkpt><trkpt lat="43.9544317" lon="12.4053617"><ele>139.83333333333331</ele><time>2026-04-11T15:10:02.916Z</time></trkpt><trkpt lat="43.9545083" lon="12.4053383"><ele>139.66666666666666</ele><time>2026-04-11T15:10:03.916Z</time></trkpt><trkpt lat="43.9545717" lon="12.40532"><ele>139.5</ele><time>2026-04-11T15:10:04.917Z</time></trkpt><trkpt lat="43.954625" lon="12.4053783"><ele>139.33333333333334</ele><time>2026-04-11T15:10:06.917Z</time></trkpt><trkpt lat="43.9545817" lon="12.4055117"><ele>139.16666666666669</ele><time>2026-04-11T15:10:08.917Z</time></trkpt><trkpt lat="43.95455" lon="12.4056167"><ele>139.0</ele><time>2026-04-11T15:10:09.916Z</time></trkpt><trkpt lat="43.954515" lon="12.4057317"><ele>139.0</ele><time>2026-04-11T15:10:10.916Z</time></trkpt><trkpt lat="43.9544733" lon="12.4058617"><ele>139.0</ele><time>2026-04-11T15:10:11.916Z</time></trkpt><trkpt lat="43.9544433" lon="12.406005"><ele>139.0</ele><time>2026-04-11T15:10:12.917Z</time></trkpt><trkpt lat="43.9544017" lon="12.406165"><ele>139.0</ele><time>2026-04-11T15:10:13.916Z</time></trkpt><trkpt lat="43.9543567" lon="12.4063083"><ele>139.0</ele><time>2026-04-11T15:10:14.917Z</time></trkpt><trkpt lat="43.95431" lon="12.4064583"><ele>139.0</ele><time>2026-04-11T15:10:15.916Z</time></trkpt><trkpt lat="43.954255" lon="12.4066183"><ele>139.0</ele><time>2026-04-11T15:10:16.917Z</time></trkpt><trkpt lat="43.9541883" lon="12.4067817"><ele>139.0</ele><time>2026-04-11T15:10:17.917Z</time></trkpt><trkpt lat="43.9541133" lon="12.40695"><ele>139.0</ele><time>2026-04-11T15:10:18.917Z</time></trkpt><trkpt lat="43.9540317" lon="12.407105"><ele>140.0</ele><time>2026-04-11T15:10:19.917Z</time></trkpt><trkpt lat="43.9539433" lon="12.40726"><ele>141.0</ele><time>2026-04-11T15:10:20.917Z</time></trkpt><trkpt lat="43.9538533" lon="12.4074033"><ele>142.0</ele><time>2026-04-11T15:10:21.917Z</time></trkpt><trkpt lat="43.9537633" lon="12.407555"><ele>143.0</ele><time>2026-04-11T15:10:22.916Z</time></trkpt><trkpt lat="43.9536783" lon="12.4077117"><ele>143.0</ele><time>2026-04-11T15:10:23.917Z</time></trkpt><trkpt lat="43.9536183" lon="12.4078817"><ele>143.0</ele><time>2026-04-11T15:10:24.916Z</time></trkpt><trkpt lat="43.9535767" lon="12.40806"><ele>143.0</ele><time>2026-04-11T15:10:25.917Z</time></trkpt><trkpt lat="43.9535317" lon="12.4082483"><ele>143.0</ele><time>2026-04-11T15:10:26.917Z</time></trkpt><trkpt lat="43.9534783" lon="12.408435"><ele>144.75</ele><time>2026-04-11T15:10:27.917Z</time></trkpt><trkpt lat="43.953445" lon="12.4086183"><ele>146.5</ele><time>2026-04-11T15:10:28.916Z</time></trkpt><trkpt lat="43.9534217" lon="12.4088133"><ele>148.25</ele><time>2026-04-11T15:10:29.916Z</time></trkpt><trkpt lat="43.9533983" lon="12.409"><ele>150.0</ele><time>2026-04-11T15:10:30.916Z</time></trkpt><trkpt lat="43.9533783" lon="12.4091733"><ele>149.6</ele><time>2026-04-11T15:10:31.917Z</time></trkpt><trkpt lat="43.9533617" lon="12.4093183"><ele>149.2</ele><time>2026-04-11T15:10:32.917Z</time></trkpt><trkpt lat="43.9533433" lon="12.4094567"><ele>148.8</ele><time>2026-04-11T15:10:33.917Z</time></trkpt><trkpt lat="43.9533367" lon="12.4095683"><ele>148.4</ele><time>2026-04-11T15:10:34.916Z</time></trkpt><trkpt lat="43.95333" lon="12.4096833"><ele>148.0</ele><time>2026-04-11T15:10:35.917Z</time></trkpt><trkpt lat="43.9533217" lon="12.4097967"><ele>148.0</ele><time>2026-04-11T15:10:36.917Z</time></trkpt><trkpt lat="43.9533067" lon="12.40992"><ele>148.0</ele><time>2026-04-11T15:10:37.917Z</time></trkpt><trkpt lat="43.953275" lon="12.4100483"><ele>148.0</ele><time>2026-04-11T15:10:38.916Z</time></trkpt><trkpt lat="43.953255" lon="12.4101583"><ele>148.0</ele><time>2026-04-11T15:10:39.917Z</time></trkpt><trkpt lat="43.9532033" lon="12.4102933"><ele>148.0</ele><time>2026-04-11T15:10:40.916Z</time></trkpt><trkpt lat="43.9531383" lon="12.410435"><ele>149.25</ele><time>2026-04-11T15:10:41.917Z</time></trkpt><trkpt lat="43.9530683" lon="12.410575"><ele>150.5</ele><time>2026-04-11T15:10:42.917Z</time></trkpt><trkpt lat="43.9530083" lon="12.4107233"><ele>151.75</ele><time>2026-04-11T15:10:43.917Z</time></trkpt><trkpt lat="43.95294" lon="12.41087"><ele>153.0</ele><time>2026-04-11T15:10:44.916Z</time></trkpt><trkpt lat="43.95286" lon="12.4110133"><ele>153.0</ele><time>2026-04-11T15:10:45.917Z</time></trkpt><trkpt lat="43.9527833" lon="12.4111483"><ele>153.0</ele><time>2026-04-11T15:10:46.917Z</time></trkpt><trkpt lat="43.9526933" lon="12.4112883"><ele>153.0</ele><time>2026-04-11T15:10:47.916Z</time></trkpt><trkpt lat="43.9526133" lon="12.4114033"><ele>153.0</ele><time>2026-04-11T15:10:48.916Z</time></trkpt><trkpt lat="43.9525367" lon="12.41152"><ele>152.6</ele><time>2026-04-11T15:10:49.916Z</time></trkpt><trkpt lat="43.9524867" lon="12.4116233"><ele>152.20000000000002</ele><time>2026-04-11T15:10:50.917Z</time></trkpt><trkpt lat="43.9524817" lon="12.4117467"><ele>151.8</ele><time>2026-04-11T15:10:51.917Z</time></trkpt><trkpt lat="43.95251" lon="12.4118867"><ele>151.4</ele><time>2026-04-11T15:10:52.916Z</time></trkpt><trkpt lat="43.95255" lon="12.4120317"><ele>151.0</ele><time>2026-04-11T15:10:53.916Z</time></trkpt><trkpt lat="43.9526" lon="12.4121883"><ele>153.75</ele><time>2026-04-11T15:10:54.916Z</time></trkpt><trkpt lat="43.9526583" lon="12.4123317"><ele>156.5</ele><time>2026-04-11T15:10:55.916Z</time></trkpt><trkpt lat="43.9527167" lon="12.41249"><ele>159.25</ele><time>2026-04-11T15:10:56.917Z</time></trkpt><trkpt lat="43.95276" lon="12.4126383"><ele>162.0</ele><time>2026-04-11T15:10:57.916Z</time></trkpt><trkpt lat="43.952785" lon="12.4127917"><ele>162.0</ele><time>2026-04-11T15:10:58.917Z</time></trkpt><trkpt lat="43.9527967" lon="12.4129517"><ele>162.0</ele><time>2026-04-11T15:10:59.916Z</time></trkpt><trkpt lat="43.952795" lon="12.4131267"><ele>162.0</ele><time>2026-04-11T15:11:00.917Z</time></trkpt><trkpt lat="43.9527883" lon="12.4133067"><ele>162.0</ele><time>2026-04-11T15:11:01.917Z</time></trkpt><trkpt lat="43.9527767" lon="12.413475"><ele>162.2</ele><time>2026-04-11T15:11:02.917Z</time></trkpt><trkpt lat="43.9527733" lon="12.4136483"><ele>162.39999999999998</ele><time>2026-04-11T15:11:03.917Z</time></trkpt><trkpt lat="43.9527767" lon="12.4138117"><ele>162.60000000000002</ele><time>2026-04-11T15:11:04.917Z</time></trkpt><trkpt lat="43.9527983" lon="12.413945"><ele>162.8</ele><time>2026-04-11T15:11:05.917Z</time></trkpt><trkpt lat="43.9528383" lon="12.4140483"><ele>163.0</ele><time>2026-04-11T15:11:06.916Z</time></trkpt><trkpt lat="43.9529" lon="12.4141117"><ele>162.4</ele><time>2026-04-11T15:11:07.916Z</time></trkpt><trkpt lat="43.9529933" lon="12.4141383"><ele>161.8</ele><time>2026-04-11T15:11:08.916Z</time></trkpt><trkpt lat="43.9530917" lon="12.4141667"><ele>161.2</ele><time>2026-04-11T15:11:09.917Z</time></trkpt><trkpt lat="43.9531717" lon="12.4142133"><ele>160.6</ele><time>2026-04-11T15:11:10.917Z</time></trkpt><trkpt lat="43.9532333" lon="12.4142617"><ele>160.0</ele><time>2026-04-11T15:11:11.917Z</time></trkpt><trkpt lat="43.9532733" lon="12.414405"><ele>160.0</ele><time>2026-04-11T15:11:13.917Z</time></trkpt><trkpt lat="43.953235" lon="12.414615"><ele>160.0</ele><time>2026-04-11T15:11:15.916Z</time></trkpt><trkpt lat="43.9531983" lon="12.4147567"><ele>160.0</ele><time>2026-04-11T15:11:16.917Z</time></trkpt><trkpt lat="43.953175" lon="12.41492"><ele>160.0</ele><time>2026-04-11T15:11:17.916Z</time></trkpt><trkpt lat="43.95317" lon="12.415085"><ele>160.4</ele><time>2026-04-11T15:11:18.917Z</time></trkpt><trkpt lat="43.95317" lon="12.4152517"><ele>160.8</ele><time>2026-04-11T15:11:19.917Z</time></trkpt><trkpt lat="43.95317" lon="12.4154033"><ele>161.2</ele><time>2026-04-11T15:11:20.916Z</time></trkpt><trkpt lat="43.9531867" lon="12.41555"><ele>161.6</ele><time>2026-04-11T15:11:21.916Z</time></trkpt><trkpt lat="43.95322" lon="12.4156933"><ele>162.0</ele><time>2026-04-11T15:11:22.916Z</time></trkpt><trkpt lat="43.95325" lon="12.4158433"><ele>163.0</ele><time>2026-04-11T15:11:23.916Z</time></trkpt><trkpt lat="43.9532583" lon="12.4159733"><ele>164.0</ele><time>2026-04-11T15:11:24.916Z</time></trkpt><trkpt lat="43.9532467" lon="12.4160883"><ele>165.0</ele><time>2026-04-11T15:11:25.917Z</time></trkpt><trkpt lat="43.9532067" lon="12.416175"><ele>166.0</ele><time>2026-04-11T15:11:26.916Z</time></trkpt><trkpt lat="43.9531433" lon="12.4162433"><ele>167.0</ele><time>2026-04-11T15:11:27.917Z</time></trkpt><trkpt lat="43.9530733" lon="12.4163067"><ele>168.0</ele><time>2026-04-11T15:11:28.916Z</time></trkpt><trkpt lat="43.953015" lon="12.4163817"><ele>169.4</ele><time>2026-04-11T15:11:29.917Z</time></trkpt><trkpt lat="43.9529633" lon="12.4164867"><ele>170.8</ele><time>2026-04-11T15:11:30.917Z</time></trkpt><trkpt lat="43.9529217" lon="12.4166133"><ele>172.2</ele><time>2026-04-11T15:11:31.917Z</time></trkpt><trkpt lat="43.9528783" lon="12.4167467"><ele>173.6</ele><time>2026-04-11T15:11:32.916Z</time></trkpt><trkpt lat="43.95283" lon="12.4168983"><ele>175.0</ele><time>2026-04-11T15:11:33.916Z</time></trkpt><trkpt lat="43.9527733" lon="12.4170633"><ele>175.25</ele><time>2026-04-11T15:11:34.917Z</time></trkpt><trkpt lat="43.952705" lon="12.417235"><ele>175.5</ele><time>2026-04-11T15:11:35.917Z</time></trkpt><trkpt lat="43.952635" lon="12.4173933"><ele>175.75</ele><time>2026-04-11T15:11:36.917Z</time></trkpt><trkpt lat="43.95256" lon="12.417555"><ele>176.0</ele><time>2026-04-11T15:11:37.917Z</time></trkpt><trkpt lat="43.95249" lon="12.41772"><ele>176.0</ele><time>2026-04-11T15:11:38.917Z</time></trkpt><trkpt lat="43.95242" lon="12.4178883"><ele>176.0</ele><time>2026-04-11T15:11:39.917Z</time></trkpt><trkpt lat="43.952345" lon="12.4180583"><ele>176.0</ele><time>2026-04-11T15:11:40.917Z</time></trkpt><trkpt lat="43.952275" lon="12.4182383"><ele>176.0</ele><time>2026-04-11T15:11:41.917Z</time></trkpt><trkpt lat="43.9522133" lon="12.4184367"><ele>177.33333333333331</ele><time>2026-04-11T15:11:42.917Z</time></trkpt><trkpt lat="43.9521467" lon="12.4186417"><ele>178.66666666666666</ele><time>2026-04-11T15:11:43.917Z</time></trkpt><trkpt lat="43.9520817" lon="12.4188617"><ele>180.0</ele><time>2026-04-11T15:11:44.917Z</time></trkpt><trkpt lat="43.9520217" lon="12.419075"><ele>181.33333333333334</ele><time>2026-04-11T15:11:45.917Z</time></trkpt><trkpt lat="43.9519717" lon="12.4192867"><ele>182.66666666666669</ele><time>2026-04-11T15:11:46.917Z</time></trkpt><trkpt lat="43.9519117" lon="12.4194833"><ele>184.0</ele><time>2026-04-11T15:11:47.917Z</time></trkpt><trkpt lat="43.9518467" lon="12.4196717"><ele>184.0</ele><time>2026-04-11T15:11:48.917Z</time></trkpt><trkpt lat="43.95177" lon="12.4198217"><ele>184.0</ele><time>2026-04-11T15:11:49.916Z</time></trkpt><trkpt lat="43.95169" lon="12.41994"><ele>184.0</ele><time>2026-04-11T15:11:50.916Z</time></trkpt><trkpt lat="43.9516" lon="12.4200367"><ele>184.0</ele><time>2026-04-11T15:11:51.916Z</time></trkpt><trkpt lat="43.9515067" lon="12.4201383"><ele>184.0</ele><time>2026-04-11T15:11:52.917Z</time></trkpt><trkpt lat="43.9514283" lon="12.4202517"><ele>184.0</ele><time>2026-04-11T15:11:53.917Z</time></trkpt><trkpt lat="43.951365" lon="12.4203833"><ele>184.0</ele><time>2026-04-11T15:11:54.917Z</time></trkpt><trkpt lat="43.9513117" lon="12.420545"><ele>184.0</ele><time>2026-04-11T15:11:55.916Z</time></trkpt><trkpt lat="43.95128" lon="12.42073"><ele>185.5</ele><time>2026-04-11T15:11:56.917Z</time></trkpt><trkpt lat="43.951265" lon="12.4209283"><ele>187.0</ele><time>2026-04-11T15:11:57.917Z</time></trkpt><trkpt lat="43.9512583" lon="12.4211183"><ele>188.5</ele><time>2026-04-11T15:11:58.916Z</time></trkpt><trkpt lat="43.9512767" lon="12.4213117"><ele>190.0</ele><time>2026-04-11T15:11:59.916Z</time></trkpt><trkpt lat="43.9513133" lon="12.4214983"><ele>190.75</ele><time>2026-04-11T15:12:00.916Z</time></trkpt><trkpt lat="43.951355" lon="12.4216883"><ele>191.5</ele><time>2026-04-11T15:12:01.917Z</time></trkpt><trkpt lat="43.9514" lon="12.4218867"><ele>192.25</ele><time>2026-04-11T15:12:02.917Z</time></trkpt><trkpt lat="43.9514167" lon="12.4220817"><ele>193.0</ele><time>2026-04-11T15:12:03.916Z</time></trkpt><trkpt lat="43.9514833" lon="12.4222567"><ele>194.5</ele><time>2026-04-11T15:12:04.917Z</time></trkpt><trkpt lat="43.951565" lon="12.4224067"><ele>196.0</ele><time>2026-04-11T15:12:05.917Z</time></trkpt><trkpt lat="43.9516617" lon="12.4225267"><ele>197.5</ele><time>2026-04-11T15:12:06.917Z</time></trkpt><trkpt lat="43.9517617" lon="12.42263"><ele>199.0</ele><time>2026-04-11T15:12:07.916Z</time></trkpt><trkpt lat="43.9518817" lon="12.4227083"><ele>201.5</ele><time>2026-04-11T15:12:08.917Z</time></trkpt><trkpt lat="43.952005" lon="12.4227817"><ele>204.0</ele><time>2026-04-11T15:12:09.916Z</time></trkpt><trkpt lat="43.9521233" lon="12.42284"><ele>206.5</ele><time>2026-04-11T15:12:10.916Z</time></trkpt><trkpt lat="43.95224" lon="12.4228767"><ele>209.0</ele><time>2026-04-11T15:12:11.917Z</time></trkpt><trkpt lat="43.952355" lon="12.4228967"><ele>209.0</ele><time>2026-04-11T15:12:12.916Z</time></trkpt><trkpt lat="43.9524717" lon="12.422885"><ele>209.0</ele><time>2026-04-11T15:12:13.916Z</time></trkpt><trkpt lat="43.952595" lon="12.42288"><ele>209.0</ele><time>2026-04-11T15:12:14.917Z</time></trkpt><trkpt lat="43.952695" lon="12.4229033"><ele>209.0</ele><time>2026-04-11T15:12:15.916Z</time></trkpt><trkpt lat="43.95278" lon="12.4229633"><ele>209.0</ele><time>2026-04-11T15:12:16.917Z</time></trkpt><trkpt lat="43.9528633" lon="12.4230483"><ele>211.39999999999998</ele><time>2026-04-11T15:12:17.917Z</time></trkpt><trkpt lat="43.9529483" lon="12.42314"><ele>213.8</ele><time>2026-04-11T15:12:18.917Z</time></trkpt><trkpt lat="43.9530417" lon="12.42323"><ele>216.20000000000002</ele><time>2026-04-11T15:12:19.917Z</time></trkpt><trkpt lat="43.9531317" lon="12.4233233"><ele>218.60000000000002</ele><time>2026-04-11T15:12:20.917Z</time></trkpt><trkpt lat="43.953205" lon="12.42343"><ele>221.0</ele><time>2026-04-11T15:12:21.917Z</time></trkpt><trkpt lat="43.9532583" lon="12.4235367"><ele>221.0</ele><time>2026-04-11T15:12:22.916Z</time></trkpt><trkpt lat="43.9532833" lon="12.423655"><ele>221.00000000000003</ele><time>2026-04-11T15:12:23.916Z</time></trkpt><trkpt lat="43.9532883" lon="12.423775"><ele>221.00000000000003</ele><time>2026-04-11T15:12:24.916Z</time></trkpt><trkpt lat="43.9532883" lon="12.4239033"><ele>221.0</ele><time>2026-04-11T15:12:25.917Z</time></trkpt><trkpt lat="43.95327" lon="12.42403"><ele>221.0</ele><time>2026-04-11T15:12:26.916Z</time></trkpt><trkpt lat="43.953235" lon="12.4241483"><ele>221.33333333333334</ele><time>2026-04-11T15:12:27.917Z</time></trkpt><trkpt lat="43.953195" lon="12.4242383"><ele>221.66666666666669</ele><time>2026-04-11T15:12:28.917Z</time></trkpt><trkpt lat="43.9531383" lon="12.4243117"><ele>222.0</ele><time>2026-04-11T15:12:29.916Z</time></trkpt><trkpt lat="43.9530617" lon="12.4243517"><ele>222.33333333333331</ele><time>2026-04-11T15:12:30.917Z</time></trkpt><trkpt lat="43.9529733" lon="12.4243933"><ele>222.66666666666666</ele><time>2026-04-11T15:12:31.916Z</time></trkpt><trkpt lat="43.95287" lon="12.42443"><ele>223.0</ele><time>2026-04-11T15:12:32.917Z</time></trkpt><trkpt lat="43.95277" lon="12.4244783"><ele>223.0</ele><time>2026-04-11T15:12:33.916Z</time></trkpt><trkpt lat="43.95267" lon="12.42453"><ele>223.0</ele><time>2026-04-11T15:12:34.917Z</time></trkpt><trkpt lat="43.9525767" lon="12.4245867"><ele>223.0</ele><time>2026-04-11T15:12:35.916Z</time></trkpt><trkpt lat="43.9524883" lon="12.4246683"><ele>223.0</ele><time>2026-04-11T15:12:36.916Z</time></trkpt><trkpt lat="43.952405" lon="12.42477"><ele>223.0</ele><time>2026-04-11T15:12:37.917Z</time></trkpt><trkpt lat="43.9523417" lon="12.42489"><ele>224.5</ele><time>2026-04-11T15:12:38.917Z</time></trkpt><trkpt lat="43.9522983" lon="12.4250233"><ele>226.0</ele><time>2026-04-11T15:12:39.916Z</time></trkpt><trkpt lat="43.952265" lon="12.4251767"><ele>227.5</ele><time>2026-04-11T15:12:40.916Z</time></trkpt><trkpt lat="43.9522383" lon="12.4253333"><ele>229.0</ele><time>2026-04-11T15:12:41.917Z</time></trkpt><trkpt lat="43.9522267" lon="12.4254917"><ele>231.5</ele><time>2026-04-11T15:12:42.917Z</time></trkpt><trkpt lat="43.95222" lon="12.4256583"><ele>234.0</ele><time>2026-04-11T15:12:43.916Z</time></trkpt><trkpt lat="43.9522117" lon="12.4258383"><ele>236.5</ele><time>2026-04-11T15:12:44.916Z</time></trkpt><trkpt lat="43.9522033" lon="12.42602"><ele>239.0</ele><time>2026-04-11T15:12:45.917Z</time></trkpt><trkpt lat="43.95219" lon="12.4262017"><ele>241.33333333333334</ele><time>2026-04-11T15:12:46.917Z</time></trkpt><trkpt lat="43.9521717" lon="12.4263517"><ele>243.66666666666669</ele><time>2026-04-11T15:12:47.917Z</time></trkpt><trkpt lat="43.9521567" lon="12.426485"><ele>246.0</ele><time>2026-04-11T15:12:48.916Z</time></trkpt><trkpt lat="43.9521333" lon="12.4265967"><ele>248.33333333333331</ele><time>2026-04-11T15:12:49.916Z</time></trkpt><trkpt lat="43.952115" lon="12.4267017"><ele>250.66666666666666</ele><time>2026-04-11T15:12:50.917Z</time></trkpt><trkpt lat="43.9520967" lon="12.42679"><ele>253.0</ele><time>2026-04-11T15:12:51.916Z</time></trkpt><trkpt lat="43.9520717" lon="12.4269217"><ele>253.0</ele><time>2026-04-11T15:12:53.917Z</time></trkpt><trkpt lat="43.95214" lon="12.4270033"><ele>253.0</ele><time>2026-04-11T15:12:56.917Z</time></trkpt><trkpt lat="43.9522383" lon="12.4270467"><ele>253.0</ele><time>2026-04-11T15:12:58.917Z</time></trkpt><trkpt lat="43.9523483" lon="12.427075"><ele>253.0</ele><time>2026-04-11T15:13:00.916Z</time></trkpt><trkpt lat="43.952415" lon="12.42718"><ele>253.0</ele><time>2026-04-11T15:13:02.916Z</time></trkpt><trkpt lat="43.9524433" lon="12.42727"><ele>254.16666666666666</ele><time>2026-04-11T15:13:03.917Z</time></trkpt><trkpt lat="43.9524833" lon="12.427365"><ele>255.33333333333331</ele><time>2026-04-11T15:13:04.917Z</time></trkpt><trkpt lat="43.95253" lon="12.4274517"><ele>256.5</ele><time>2026-04-11T15:13:05.917Z</time></trkpt><trkpt lat="43.952585" lon="12.427535"><ele>257.6666666666667</ele><time>2026-04-11T15:13:06.916Z</time></trkpt><trkpt lat="43.9526467" lon="12.427615"><ele>258.83333333333337</ele><time>2026-04-11T15:13:07.916Z</time></trkpt><trkpt lat="43.9527083" lon="12.4276983"><ele>260.0</ele><time>2026-04-11T15:13:08.916Z</time></trkpt><trkpt lat="43.9527633" lon="12.4277867"><ele>261.5</ele><time>2026-04-11T15:13:09.917Z</time></trkpt><trkpt lat="43.9528217" lon="12.4278767"><ele>263.0</ele><time>2026-04-11T15:13:10.917Z</time></trkpt><trkpt lat="43.95288" lon="12.4279533"><ele>264.5</ele><time>2026-04-11T15:13:11.917Z</time></trkpt><trkpt lat="43.9529333" lon="12.42804"><ele>266.0</ele><time>2026-04-11T15:13:12.916Z</time></trkpt><trkpt lat="43.9529883" lon="12.4281267"><ele>267.5</ele><time>2026-04-11T15:13:13.917Z</time></trkpt><trkpt lat="43.9530433" lon="12.4282033"><ele>269.0</ele><time>2026-04-11T15:13:14.917Z</time></trkpt><trkpt lat="43.9530967" lon="12.428285"><ele>270.2</ele><time>2026-04-11T15:13:15.916Z</time></trkpt><trkpt lat="43.9531583" lon="12.428365"><ele>271.4</ele><time>2026-04-11T15:13:16.916Z</time></trkpt><trkpt lat="43.9532133" lon="12.4284617"><ele>272.6</ele><time>2026-04-11T15:13:17.916Z</time></trkpt><trkpt lat="43.9532783" lon="12.428555"><ele>273.8</ele><time>2026-04-11T15:13:18.917Z</time></trkpt><trkpt lat="43.9533433" lon="12.42866"><ele>275.0</ele><time>2026-04-11T15:13:19.917Z</time></trkpt><trkpt lat="43.953415" lon="12.428765"><ele>278.6</ele><time>2026-04-11T15:13:20.917Z</time></trkpt><trkpt lat="43.95348" lon="12.4288667"><ele>282.2</ele><time>2026-04-11T15:13:21.917Z</time></trkpt><trkpt lat="43.95356" lon="12.4289633"><ele>285.8</ele><time>2026-04-11T15:13:22.917Z</time></trkpt><trkpt lat="43.95364" lon="12.4290533"><ele>289.4</ele><time>2026-04-11T15:13:23.916Z</time></trkpt><trkpt lat="43.95372" lon="12.429145"><ele>293.0</ele><time>2026-04-11T15:13:24.917Z</time></trkpt><trkpt lat="43.9537933" lon="12.42925"><ele>293.0</ele><time>2026-04-11T15:13:25.917Z</time></trkpt><trkpt lat="43.9538733" lon="12.42934"><ele>293.0</ele><time>2026-04-11T15:13:26.917Z</time></trkpt><trkpt lat="43.95395" lon="12.429445"><ele>293.0</ele><time>2026-04-11T15:13:27.917Z</time></trkpt><trkpt lat="43.95403" lon="12.4295567"><ele>293.0</ele><time>2026-04-11T15:13:28.917Z</time></trkpt><trkpt lat="43.9541217" lon="12.4296617"><ele>293.0</ele><time>2026-04-11T15:13:29.917Z</time></trkpt><trkpt lat="43.9542083" lon="12.42978"><ele>297.0</ele><time>2026-04-11T15:13:30.917Z</time></trkpt><trkpt lat="43.9542983" lon="12.4298967"><ele>301.0</ele><time>2026-04-11T15:13:31.916Z</time></trkpt><trkpt lat="43.95438" lon="12.430005"><ele>305.0</ele><time>2026-04-11T15:13:32.917Z</time></trkpt><trkpt lat="43.9544517" lon="12.430095"><ele>309.0</ele><time>2026-04-11T15:13:33.917Z</time></trkpt><trkpt lat="43.954515" lon="12.43017"><ele>313.0</ele><time>2026-04-11T15:13:34.917Z</time></trkpt><trkpt lat="43.9546133" lon="12.4302467"><ele>313.0</ele><time>2026-04-11T15:13:36.916Z</time></trkpt><trkpt lat="43.9546983" lon="12.43021"><ele>313.0</ele><time>2026-04-11T15:13:38.917Z</time></trkpt><trkpt lat="43.9548017" lon="12.430095"><ele>313.0</ele><time>2026-04-11T15:13:40.917Z</time></trkpt><trkpt lat="43.9548783" lon="12.43001"><ele>313.0</ele><time>2026-04-11T15:13:41.917Z</time></trkpt><trkpt lat="43.9549633" lon="12.4299167"><ele>313.0</ele><time>2026-04-11T15:13:42.916Z</time></trkpt><trkpt lat="43.95504" lon="12.4298217"><ele>313.16666666666663</ele><time>2026-04-11T15:13:43.916Z</time></trkpt><trkpt lat="43.9551133" lon="12.4297333"><ele>313.3333333333333</ele><time>2026-04-11T15:13:44.917Z</time></trkpt><trkpt lat="43.9551867" lon="12.4296533"><ele>313.5</ele><time>2026-04-11T15:13:45.916Z</time></trkpt><trkpt lat="43.9552517" lon="12.429595"><ele>313.6666666666667</ele><time>2026-04-11T15:13:46.916Z</time></trkpt><trkpt lat="43.9553217" lon="12.429535"><ele>313.83333333333337</ele><time>2026-04-11T15:13:47.916Z</time></trkpt><trkpt lat="43.955395" lon="12.4294817"><ele>314.0</ele><time>2026-04-11T15:13:48.916Z</time></trkpt><trkpt lat="43.9554717" lon="12.4294283"><ele>314.0</ele><time>2026-04-11T15:13:49.917Z</time></trkpt><trkpt lat="43.9555567" lon="12.4294083"><ele>314.0</ele><time>2026-04-11T15:13:50.916Z</time></trkpt><trkpt lat="43.955625" lon="12.4293733"><ele>314.0</ele><time>2026-04-11T15:13:51.916Z</time></trkpt><trkpt lat="43.955685" lon="12.4293217"><ele>314.0</ele><time>2026-04-11T15:13:52.916Z</time></trkpt><trkpt lat="43.955765" lon="12.4292833"><ele>314.0</ele><time>2026-04-11T15:13:53.917Z</time></trkpt><trkpt lat="43.9558417" lon="12.4292867"><ele>314.0</ele><time>2026-04-11T15:13:54.916Z</time></trkpt><trkpt lat="43.95595" lon="12.4293633"><ele>315.0</ele><time>2026-04-11T15:13:56.916Z</time></trkpt><trkpt lat="43.9559867" lon="12.4294517"><ele>316.0</ele><time>2026-04-11T15:13:57.916Z</time></trkpt><trkpt lat="43.9560217" lon="12.4295567"><ele>317.0</ele><time>2026-04-11T15:13:58.917Z</time></trkpt><trkpt lat="43.9560533" lon="12.4296583"><ele>318.0</ele><time>2026-04-11T15:13:59.916Z</time></trkpt><trkpt lat="43.9560917" lon="12.4297633"><ele>319.0</ele><time>2026-04-11T15:14:00.917Z</time></trkpt><trkpt lat="43.9561383" lon="12.429875"><ele>320.0</ele><time>2026-04-11T15:14:01.917Z</time></trkpt><trkpt lat="43.9561783" lon="12.4299767"><ele>322.6666666666667</ele><time>2026-04-11T15:14:02.917Z</time></trkpt><trkpt lat="43.9562133" lon="12.4300883"><ele>325.33333333333337</ele><time>2026-04-11T15:14:03.916Z</time></trkpt><trkpt lat="43.95626" lon="12.4301883"><ele>328.0</ele><time>2026-04-11T15:14:04.917Z</time></trkpt><trkpt lat="43.9563117" lon="12.4302717"><ele>330.6666666666667</ele><time>2026-04-11T15:14:05.916Z</time></trkpt><trkpt lat="43.9563833" lon="12.4303317"><ele>333.3333333333333</ele><time>2026-04-11T15:14:06.917Z</time></trkpt><trkpt lat="43.95647" lon="12.4303733"><ele>336.0</ele><time>2026-04-11T15:14:07.917Z</time></trkpt><trkpt lat="43.95656" lon="12.4304133"><ele>336.0</ele><time>2026-04-11T15:14:08.916Z</time></trkpt><trkpt lat="43.9566533" lon="12.4304283"><ele>336.0</ele><time>2026-04-11T15:14:09.917Z</time></trkpt><trkpt lat="43.9567583" lon="12.4304267"><ele>336.0</ele><time>2026-04-11T15:14:10.917Z</time></trkpt><trkpt lat="43.9568683" lon="12.4304167"><ele>336.0</ele><time>2026-04-11T15:14:11.917Z</time></trkpt><trkpt lat="43.95698" lon="12.4304167"><ele>336.0</ele><time>2026-04-11T15:14:12.917Z</time></trkpt><trkpt lat="43.95708" lon="12.430425"><ele>337.8333333333333</ele><time>2026-04-11T15:14:13.917Z</time></trkpt><trkpt lat="43.95717" lon="12.4304433"><ele>339.6666666666667</ele><time>2026-04-11T15:14:14.916Z</time></trkpt><trkpt lat="43.9572533" lon="12.4304817"><ele>341.5</ele><time>2026-04-11T15:14:15.917Z</time></trkpt><trkpt lat="43.95733" lon="12.4305367"><ele>343.33333333333337</ele><time>2026-04-11T15:14:16.917Z</time></trkpt><trkpt lat="43.9574033" lon="12.4306"><ele>345.1666666666667</ele><time>2026-04-11T15:14:17.917Z</time></trkpt><trkpt lat="43.9574683" lon="12.4306667"><ele>347.0</ele><time>2026-04-11T15:14:18.917Z</time></trkpt><trkpt lat="43.957515" lon="12.4307467"><ele>351.40000000000003</ele><time>2026-04-11T15:14:19.916Z</time></trkpt><trkpt lat="43.9575467" lon="12.43091"><ele>355.8</ele><time>2026-04-11T15:14:21.917Z</time></trkpt><trkpt lat="43.9575717" lon="12.431085"><ele>360.2</ele><time>2026-04-11T15:14:23.917Z</time></trkpt><trkpt lat="43.9575917" lon="12.4312117"><ele>364.6</ele><time>2026-04-11T15:14:24.917Z</time></trkpt><trkpt lat="43.95761" lon="12.4313483"><ele>369.0</ele><time>2026-04-11T15:14:25.916Z</time></trkpt><trkpt lat="43.9576333" lon="12.4314967"><ele>369.8333333333333</ele><time>2026-04-11T15:14:26.916Z</time></trkpt><trkpt lat="43.957675" lon="12.4316583"><ele>370.6666666666667</ele><time>2026-04-11T15:14:27.917Z</time></trkpt><trkpt lat="43.95773" lon="12.4317717"><ele>371.5</ele><time>2026-04-11T15:14:28.916Z</time></trkpt><trkpt lat="43.957805" lon="12.4318383"><ele>372.33333333333337</ele><time>2026-04-11T15:14:29.917Z</time></trkpt><trkpt lat="43.9578717" lon="12.43186"><ele>373.1666666666667</ele><time>2026-04-11T15:14:30.917Z</time></trkpt><trkpt lat="43.9579367" lon="12.4318433"><ele>374.0</ele><time>2026-04-11T15:14:31.916Z</time></trkpt><trkpt lat="43.957995" lon="12.4317517"><ele>374.0</ele><time>2026-04-11T15:14:32.916Z</time></trkpt><trkpt lat="43.9580483" lon="12.4316383"><ele>374.0</ele><time>2026-04-11T15:14:33.917Z</time></trkpt><trkpt lat="43.9581" lon="12.4315017"><ele>374.0</ele><time>2026-04-11T15:14:34.917Z</time></trkpt><trkpt lat="43.958145" lon="12.4313617"><ele>374.0</ele><time>2026-04-11T15:14:35.916Z</time></trkpt><trkpt lat="43.9582083" lon="12.4312183"><ele>374.0</ele><time>2026-04-11T15:14:36.916Z</time></trkpt><trkpt lat="43.9582783" lon="12.431085"><ele>373.1666666666667</ele><time>2026-04-11T15:14:37.916Z</time></trkpt><trkpt lat="43.9583367" lon="12.4309783"><ele>372.33333333333337</ele><time>2026-04-11T15:14:38.916Z</time></trkpt><trkpt lat="43.9584033" lon="12.4309067"><ele>371.5</ele><time>2026-04-11T15:14:39.916Z</time></trkpt><trkpt lat="43.9584783" lon="12.43089"><ele>370.6666666666667</ele><time>2026-04-11T15:14:40.916Z</time></trkpt><trkpt lat="43.9585583" lon="12.4309017"><ele>369.8333333333333</ele><time>2026-04-11T15:14:41.915Z</time></trkpt><trkpt lat="43.958635" lon="12.43097"><ele>369.0</ele><time>2026-04-11T15:14:42.915Z</time></trkpt><trkpt lat="43.9587083" lon="12.43105"><ele>368.6666666666667</ele><time>2026-04-11T15:14:43.915Z</time></trkpt><trkpt lat="43.95876" lon="12.43117"><ele>368.3333333333333</ele><time>2026-04-11T15:14:44.916Z</time></trkpt><trkpt lat="43.9587733" lon="12.4313"><ele>368.0</ele><time>2026-04-11T15:14:45.915Z</time></trkpt><trkpt lat="43.95875" lon="12.4313967"><ele>367.66666666666663</ele><time>2026-04-11T15:14:46.916Z</time></trkpt><trkpt lat="43.9586967" lon="12.4314867"><ele>367.3333333333333</ele><time>2026-04-11T15:14:47.915Z</time></trkpt><trkpt lat="43.9586333" lon="12.4315783"><ele>367.0</ele><time>2026-04-11T15:14:48.915Z</time></trkpt><trkpt lat="43.9585683" lon="12.4316683"><ele>368.0</ele><time>2026-04-11T15:14:49.915Z</time></trkpt><trkpt lat="43.9584933" lon="12.43177"><ele>369.0</ele><time>2026-04-11T15:14:50.916Z</time></trkpt><trkpt lat="43.958425" lon="12.431875"><ele>370.0</ele><time>2026-04-11T15:14:51.915Z</time></trkpt><trkpt lat="43.9583483" lon="12.43198"><ele>371.0</ele><time>2026-04-11T15:14:52.915Z</time></trkpt><trkpt lat="43.95827" lon="12.4320933"><ele>372.0</ele><time>2026-04-11T15:14:53.915Z</time></trkpt><trkpt lat="43.958195" lon="12.432205"><ele>374.0</ele><time>2026-04-11T15:14:54.915Z</time></trkpt><trkpt lat="43.958135" lon="12.432325"><ele>376.0</ele><time>2026-04-11T15:14:55.916Z</time></trkpt><trkpt lat="43.9580967" lon="12.432475"><ele>378.0</ele><time>2026-04-11T15:14:56.915Z</time></trkpt><trkpt lat="43.9580817" lon="12.4326467"><ele>380.0</ele><time>2026-04-11T15:14:57.916Z</time></trkpt><trkpt lat="43.9580867" lon="12.4328283"><ele>382.0</ele><time>2026-04-11T15:14:58.915Z</time></trkpt><trkpt lat="43.9580933" lon="12.4330217"><ele>384.0</ele><time>2026-04-11T15:14:59.915Z</time></trkpt><trkpt lat="43.9580883" lon="12.4332133"><ele>386.0</ele><time>2026-04-11T15:15:00.916Z</time></trkpt><trkpt lat="43.958075" lon="12.4334067"><ele>388.0</ele><time>2026-04-11T15:15:01.916Z</time></trkpt><trkpt lat="43.9580633" lon="12.4335967"><ele>388.0</ele><time>2026-04-11T15:15:02.916Z</time></trkpt><trkpt lat="43.958035" lon="12.433795"><ele>388.0</ele><time>2026-04-11T15:15:03.915Z</time></trkpt><trkpt lat="43.9579983" lon="12.4339817"><ele>388.0</ele><time>2026-04-11T15:15:04.915Z</time></trkpt><trkpt lat="43.9579483" lon="12.4341233"><ele>388.0</ele><time>2026-04-11T15:15:05.916Z</time></trkpt><trkpt lat="43.9578683" lon="12.434245"><ele>390.25</ele><time>2026-04-11T15:15:06.915Z</time></trkpt><trkpt lat="43.9577683" lon="12.434355"><ele>392.5</ele><time>2026-04-11T15:15:07.916Z</time></trkpt><trkpt lat="43.9576567" lon="12.4344617"><ele>394.75</ele><time>2026-04-11T15:15:08.916Z</time></trkpt><trkpt lat="43.9575517" lon="12.4345933"><ele>397.0</ele><time>2026-04-11T15:15:09.916Z</time></trkpt><trkpt lat="43.9574533" lon="12.4347483"><ele>397.0</ele><time>2026-04-11T15:15:10.916Z</time></trkpt><trkpt lat="43.9573583" lon="12.43492"><ele>397.0</ele><time>2026-04-11T15:15:11.915Z</time></trkpt><trkpt lat="43.9572583" lon="12.4350867"><ele>397.0</ele><time>2026-04-11T15:15:12.915Z</time></trkpt><trkpt lat="43.9571633" lon="12.435235"><ele>397.0</ele><time>2026-04-11T15:15:13.915Z</time></trkpt><trkpt lat="43.9570467" lon="12.4353683"><ele>397.0</ele><time>2026-04-11T15:15:14.916Z</time></trkpt><trkpt lat="43.9569133" lon="12.435465"><ele>397.0</ele><time>2026-04-11T15:15:15.915Z</time></trkpt><trkpt lat="43.9567833" lon="12.435535"><ele>397.0</ele><time>2026-04-11T15:15:16.915Z</time></trkpt><trkpt lat="43.9566617" lon="12.4356017"><ele>397.0</ele><time>2026-04-11T15:15:17.916Z</time></trkpt><trkpt lat="43.9565433" lon="12.4356683"><ele>397.0</ele><time>2026-04-11T15:15:18.915Z</time></trkpt><trkpt lat="43.956435" lon="12.43576"><ele>397.0</ele><time>2026-04-11T15:15:19.916Z</time></trkpt><trkpt lat="43.95633" lon="12.4358783"><ele>397.0</ele><time>2026-04-11T15:15:20.916Z</time></trkpt><trkpt lat="43.95623" lon="12.436"><ele>397.0</ele><time>2026-04-11T15:15:21.916Z</time></trkpt><trkpt lat="43.9561517" lon="12.4361217"><ele>397.0</ele><time>2026-04-11T15:15:22.916Z</time></trkpt><trkpt lat="43.9560833" lon="12.43625"><ele>397.0</ele><time>2026-04-11T15:15:23.916Z</time></trkpt><trkpt lat="43.9560417" lon="12.436395"><ele>397.0</ele><time>2026-04-11T15:15:24.916Z</time></trkpt><trkpt lat="43.9560267" lon="12.4365633"><ele>397.0</ele><time>2026-04-11T15:15:25.915Z</time></trkpt><trkpt lat="43.95604" lon="12.4367367"><ele>397.0</ele><time>2026-04-11T15:15:26.916Z</time></trkpt><trkpt lat="43.9560717" lon="12.4369167"><ele>397.0</ele><time>2026-04-11T15:15:27.915Z</time></trkpt><trkpt lat="43.9561233" lon="12.4371133"><ele>397.0</ele><time>2026-04-11T15:15:28.916Z</time></trkpt><trkpt lat="43.9561917" lon="12.4372967"><ele>397.0</ele><time>2026-04-11T15:15:29.916Z</time></trkpt><trkpt lat="43.9562533" lon="12.43747"><ele>397.0</ele><time>2026-04-11T15:15:30.915Z</time></trkpt><trkpt lat="43.956295" lon="12.4376533"><ele>397.0</ele><time>2026-04-11T15:15:31.916Z</time></trkpt><trkpt lat="43.9563367" lon="12.4378167"><ele>397.0</ele><time>2026-04-11T15:15:32.915Z</time></trkpt><trkpt lat="43.9563667" lon="12.4379617"><ele>396.20000000000005</ele><time>2026-04-11T15:15:33.915Z</time></trkpt><trkpt lat="43.9563933" lon="12.4381117"><ele>395.4</ele><time>2026-04-11T15:15:34.915Z</time></trkpt><trkpt lat="43.95641" lon="12.4382533"><ele>394.6</ele><time>2026-04-11T15:15:35.915Z</time></trkpt><trkpt lat="43.9564133" lon="12.4383767"><ele>393.79999999999995</ele><time>2026-04-11T15:15:36.916Z</time></trkpt><trkpt lat="43.95642" lon="12.4385"><ele>393.0</ele><time>2026-04-11T15:15:37.915Z</time></trkpt><trkpt lat="43.95642" lon="12.4386117"><ele>393.0</ele><time>2026-04-11T15:15:38.916Z</time></trkpt><trkpt lat="43.956415" lon="12.4387233"><ele>393.0</ele><time>2026-04-11T15:15:39.916Z</time></trkpt><trkpt lat="43.956395" lon="12.4388367"><ele>393.0</ele><time>2026-04-11T15:15:40.915Z</time></trkpt><trkpt lat="43.9563683" lon="12.4389417"><ele>393.0</ele><time>2026-04-11T15:15:41.916Z</time></trkpt><trkpt lat="43.956335" lon="12.4390333"><ele>393.0</ele><time>2026-04-11T15:15:42.916Z</time></trkpt><trkpt lat="43.9562867" lon="12.4391183"><ele>393.0</ele><time>2026-04-11T15:15:43.916Z</time></trkpt><trkpt lat="43.95624" lon="12.4391883"><ele>391.79999999999995</ele><time>2026-04-11T15:15:44.916Z</time></trkpt><trkpt lat="43.9561733" lon="12.4392417"><ele>390.6</ele><time>2026-04-11T15:15:45.915Z</time></trkpt><trkpt lat="43.9560983" lon="12.4392917"><ele>389.4</ele><time>2026-04-11T15:15:46.916Z</time></trkpt><trkpt lat="43.9560017" lon="12.4393433"><ele>388.20000000000005</ele><time>2026-04-11T15:15:47.916Z</time></trkpt><trkpt lat="43.9558983" lon="12.439395"><ele>387.0</ele><time>2026-04-11T15:15:48.916Z</time></trkpt><trkpt lat="43.95579" lon="12.4394617"><ele>386.75</ele><time>2026-04-11T15:15:49.915Z</time></trkpt><trkpt lat="43.9556783" lon="12.4395317"><ele>386.5</ele><time>2026-04-11T15:15:50.915Z</time></trkpt><trkpt lat="43.9555633" lon="12.4395967"><ele>386.25</ele><time>2026-04-11T15:15:51.916Z</time></trkpt><trkpt lat="43.9554417" lon="12.4396667"><ele>386.0</ele><time>2026-04-11T15:15:52.916Z</time></trkpt><trkpt lat="43.955315" lon="12.4397317"><ele>386.25</ele><time>2026-04-11T15:15:53.916Z</time></trkpt><trkpt lat="43.9551933" lon="12.4398017"><ele>386.5</ele><time>2026-04-11T15:15:54.916Z</time></trkpt><trkpt lat="43.9550683" lon="12.4398583"><ele>386.75</ele><time>2026-04-11T15:15:55.915Z</time></trkpt><trkpt lat="43.9549567" lon="12.43993"><ele>387.0</ele><time>2026-04-11T15:15:56.916Z</time></trkpt><trkpt lat="43.9548467" lon="12.43999"><ele>387.0</ele><time>2026-04-11T15:15:57.915Z</time></trkpt><trkpt lat="43.9547567" lon="12.4400317"><ele>387.0</ele><time>2026-04-11T15:15:58.916Z</time></trkpt><trkpt lat="43.954685" lon="12.440065"><ele>387.0</ele><time>2026-04-11T15:15:59.916Z</time></trkpt><trkpt lat="43.95463" lon="12.4401083"><ele>387.0</ele><time>2026-04-11T15:16:00.915Z</time></trkpt><trkpt lat="43.9546517" lon="12.4402483"><ele>387.0</ele><time>2026-04-11T15:16:02.915Z</time></trkpt><trkpt lat="43.9546817" lon="12.4403317"><ele>387.0</ele><time>2026-04-11T15:16:03.916Z</time></trkpt><trkpt lat="43.9547067" lon="12.4404217"><ele>387.3333333333333</ele><time>2026-04-11T15:16:04.915Z</time></trkpt><trkpt lat="43.9547267" lon="12.4405283"><ele>387.66666666666663</ele><time>2026-04-11T15:16:05.915Z</time></trkpt><trkpt lat="43.95474" lon="12.4406517"><ele>388.0</ele><time>2026-04-11T15:16:06.916Z</time></trkpt><trkpt lat="43.9547583" lon="12.4407717"><ele>388.3333333333333</ele><time>2026-04-11T15:16:07.916Z</time></trkpt><trkpt lat="43.9547767" lon="12.44088"><ele>388.66666666666663</ele><time>2026-04-11T15:16:08.916Z</time></trkpt><trkpt lat="43.9548033" lon="12.4409833"><ele>389.0</ele><time>2026-04-11T15:16:09.915Z</time></trkpt><trkpt lat="43.9548333" lon="12.441095"><ele>389.0</ele><time>2026-04-11T15:16:10.915Z</time></trkpt><trkpt lat="43.9548933" lon="12.441195"><ele>389.0</ele><time>2026-04-11T15:16:11.916Z</time></trkpt><trkpt lat="43.9549733" lon="12.4412917"><ele>389.0</ele><time>2026-04-11T15:16:12.916Z</time></trkpt><trkpt lat="43.9550567" lon="12.441405"><ele>389.0</ele><time>2026-04-11T15:16:13.916Z</time></trkpt><trkpt lat="43.9551517" lon="12.44152"><ele>389.0</ele><time>2026-04-11T15:16:14.916Z</time></trkpt><trkpt lat="43.9552533" lon="12.44164"><ele>384.75</ele><time>2026-04-11T15:16:15.915Z</time></trkpt><trkpt lat="43.9553483" lon="12.4417767"><ele>380.5</ele><time>2026-04-11T15:16:16.915Z</time></trkpt><trkpt lat="43.9554417" lon="12.4419233"><ele>376.25</ele><time>2026-04-11T15:16:17.915Z</time></trkpt><trkpt lat="43.9555333" lon="12.4420633"><ele>372.0</ele><time>2026-04-11T15:16:18.915Z</time></trkpt><trkpt lat="43.9556233" lon="12.4421933"><ele>372.0</ele><time>2026-04-11T15:16:19.915Z</time></trkpt><trkpt lat="43.9557" lon="12.4423167"><ele>372.0</ele><time>2026-04-11T15:16:20.916Z</time></trkpt><trkpt lat="43.9557767" lon="12.4424367"><ele>372.0</ele><time>2026-04-11T15:16:21.915Z</time></trkpt><trkpt lat="43.955855" lon="12.442545"><ele>372.0</ele><time>2026-04-11T15:16:22.916Z</time></trkpt><trkpt lat="43.9559233" lon="12.442655"><ele>372.0</ele><time>2026-04-11T15:16:23.916Z</time></trkpt><trkpt lat="43.9559817" lon="12.4427633"><ele>367.40000000000003</ele><time>2026-04-11T15:16:24.915Z</time></trkpt><trkpt lat="43.9560133" lon="12.44289"><ele>362.8</ele><time>2026-04-11T15:16:25.915Z</time></trkpt><trkpt lat="43.9560217" lon="12.4430317"><ele>358.2</ele><time>2026-04-11T15:16:26.916Z</time></trkpt><trkpt lat="43.9560267" lon="12.443185"><ele>353.6</ele><time>2026-04-11T15:16:27.915Z</time></trkpt><trkpt lat="43.9560317" lon="12.4433567"><ele>349.0</ele><time>2026-04-11T15:16:28.915Z</time></trkpt><trkpt lat="43.9560433" lon="12.443535"><ele>348.75</ele><time>2026-04-11T15:16:29.915Z</time></trkpt><trkpt lat="43.956055" lon="12.4437283"><ele>348.5</ele><time>2026-04-11T15:16:30.916Z</time></trkpt><trkpt lat="43.9560633" lon="12.4439217"><ele>348.25</ele><time>2026-04-11T15:16:31.916Z</time></trkpt><trkpt lat="43.956075" lon="12.4440933"><ele>348.0</ele><time>2026-04-11T15:16:32.915Z</time></trkpt><trkpt lat="43.9560967" lon="12.4442583"><ele>348.0</ele><time>2026-04-11T15:16:33.916Z</time></trkpt><trkpt lat="43.956135" lon="12.4444"><ele>348.0</ele><time>2026-04-11T15:16:34.916Z</time></trkpt><trkpt lat="43.9562117" lon="12.4445083"><ele>348.0</ele><time>2026-04-11T15:16:35.916Z</time></trkpt><trkpt lat="43.95631" lon="12.4445783"><ele>348.0</ele><time>2026-04-11T15:16:36.916Z</time></trkpt><trkpt lat="43.9564283" lon="12.444615"><ele>347.2</ele><time>2026-04-11T15:16:37.915Z</time></trkpt><trkpt lat="43.9565533" lon="12.4446467"><ele>346.4</ele><time>2026-04-11T15:16:38.916Z</time></trkpt><trkpt lat="43.9566667" lon="12.4446767"><ele>345.59999999999997</ele><time>2026-04-11T15:16:39.915Z</time></trkpt><trkpt lat="43.956755" lon="12.4447183"><ele>344.79999999999995</ele><time>2026-04-11T15:16:40.915Z</time></trkpt><trkpt lat="43.9568283" lon="12.44479"><ele>344.0</ele><time>2026-04-11T15:16:41.916Z</time></trkpt><trkpt lat="43.9568783" lon="12.44491"><ele>339.6</ele><time>2026-04-11T15:16:42.915Z</time></trkpt><trkpt lat="43.956925" lon="12.4450567"><ele>335.2</ele><time>2026-04-11T15:16:43.916Z</time></trkpt><trkpt lat="43.95696" lon="12.4452117"><ele>330.8</ele><time>2026-04-11T15:16:44.916Z</time></trkpt><trkpt lat="43.9569833" lon="12.4453617"><ele>326.40000000000003</ele><time>2026-04-11T15:16:45.915Z</time></trkpt><trkpt lat="43.957005" lon="12.4454917"><ele>322.0</ele><time>2026-04-11T15:16:46.915Z</time></trkpt><trkpt lat="43.9570217" lon="12.4456217"><ele>322.0</ele><time>2026-04-11T15:16:47.916Z</time></trkpt><trkpt lat="43.9570483" lon="12.44574"><ele>322.0</ele><time>2026-04-11T15:16:48.916Z</time></trkpt><trkpt lat="43.957085" lon="12.4458517"><ele>322.0</ele><time>2026-04-11T15:16:49.916Z</time></trkpt><trkpt lat="43.9571217" lon="12.4459617"><ele>322.0</ele><time>2026-04-11T15:16:50.916Z</time></trkpt><trkpt lat="43.9571633" lon="12.4460767"><ele>322.0</ele><time>2026-04-11T15:16:51.915Z</time></trkpt><trkpt lat="43.9572167" lon="12.44618"><ele>322.0</ele><time>2026-04-11T15:16:52.915Z</time></trkpt><trkpt lat="43.9572833" lon="12.4462933"><ele>321.8</ele><time>2026-04-11T15:16:53.915Z</time></trkpt><trkpt lat="43.9573483" lon="12.4464017"><ele>321.6</ele><time>2026-04-11T15:16:54.915Z</time></trkpt><trkpt lat="43.9574067" lon="12.4465"><ele>321.40000000000003</ele><time>2026-04-11T15:16:55.916Z</time></trkpt><trkpt lat="43.957475" lon="12.4465917"><ele>321.20000000000005</ele><time>2026-04-11T15:16:56.915Z</time></trkpt><trkpt lat="43.9575483" lon="12.446685"><ele>321.0</ele><time>2026-04-11T15:16:57.916Z</time></trkpt><trkpt lat="43.95762" lon="12.4467833"><ele>318.6666666666667</ele><time>2026-04-11T15:16:58.915Z</time></trkpt><trkpt lat="43.9576967" lon="12.446875"><ele>316.3333333333333</ele><time>2026-04-11T15:16:59.916Z</time></trkpt><trkpt lat="43.95777" lon="12.446965"><ele>314.0</ele><time>2026-04-11T15:17:00.915Z</time></trkpt><trkpt lat="43.9578417" lon="12.4470433"><ele>311.66666666666663</ele><time>2026-04-11T15:17:01.916Z</time></trkpt><trkpt lat="43.9579017" lon="12.447115"><ele>309.3333333333333</ele><time>2026-04-11T15:17:02.915Z</time></trkpt><trkpt lat="43.95795" lon="12.4471933"><ele>307.0</ele><time>2026-04-11T15:17:03.915Z</time></trkpt><trkpt lat="43.9579883" lon="12.44727"><ele>306.16666666666663</ele><time>2026-04-11T15:17:04.916Z</time></trkpt><trkpt lat="43.958015" lon="12.4473567"><ele>305.3333333333333</ele><time>2026-04-11T15:17:05.915Z</time></trkpt><trkpt lat="43.9580233" lon="12.44747"><ele>304.5</ele><time>2026-04-11T15:17:06.915Z</time></trkpt><trkpt lat="43.9580333" lon="12.4475883"><ele>303.6666666666667</ele><time>2026-04-11T15:17:07.916Z</time></trkpt><trkpt lat="43.9580533" lon="12.4476933"><ele>302.83333333333337</ele><time>2026-04-11T15:17:08.916Z</time></trkpt><trkpt lat="43.95808" lon="12.4477867"><ele>302.0</ele><time>2026-04-11T15:17:09.915Z</time></trkpt><trkpt lat="43.9581083" lon="12.4478733"><ele>301.1666666666667</ele><time>2026-04-11T15:17:10.916Z</time></trkpt><trkpt lat="43.95813" lon="12.44797"><ele>300.33333333333337</ele><time>2026-04-11T15:17:11.916Z</time></trkpt><trkpt lat="43.958145" lon="12.4480817"><ele>299.5</ele><time>2026-04-11T15:17:12.916Z</time></trkpt><trkpt lat="43.9581633" lon="12.448195"><ele>298.6666666666667</ele><time>2026-04-11T15:17:13.916Z</time></trkpt><trkpt lat="43.958175" lon="12.4482983"><ele>297.8333333333333</ele><time>2026-04-11T15:17:14.916Z</time></trkpt><trkpt lat="43.9581933" lon="12.4483883"><ele>297.0</ele><time>2026-04-11T15:17:15.916Z</time></trkpt><trkpt lat="43.9582483" lon="12.44851"><ele>297.0</ele><time>2026-04-11T15:17:17.915Z</time></trkpt><trkpt lat="43.958325" lon="12.4485883"><ele>297.0</ele><time>2026-04-11T15:17:19.916Z</time></trkpt><trkpt lat="43.9584033" lon="12.4486233"><ele>297.0</ele><time>2026-04-11T15:17:21.915Z</time></trkpt><trkpt lat="43.9585" lon="12.4486417"><ele>297.0</ele><time>2026-04-11T15:17:23.915Z</time></trkpt><trkpt lat="43.9585883" lon="12.4486433"><ele>297.0</ele><time>2026-04-11T15:17:25.916Z</time></trkpt><trkpt lat="43.9586933" lon="12.44865"><ele>293.0</ele><time>2026-04-11T15:17:27.916Z</time></trkpt><trkpt lat="43.9588033" lon="12.4486817"><ele>289.0</ele><time>2026-04-11T15:17:29.916Z</time></trkpt><trkpt lat="43.958905" lon="12.448715"><ele>285.0</ele><time>2026-04-11T15:17:31.916Z</time></trkpt><trkpt lat="43.95901" lon="12.4487467"><ele>281.0</ele><time>2026-04-11T15:17:33.916Z</time></trkpt><trkpt lat="43.9590717" lon="12.4487667"><ele>277.0</ele><time>2026-04-11T15:17:34.915Z</time></trkpt><trkpt lat="43.959185" lon="12.4488083"><ele>273.16666666666663</ele><time>2026-04-11T15:17:36.916Z</time></trkpt><trkpt lat="43.9592983" lon="12.448845"><ele>269.3333333333333</ele><time>2026-04-11T15:17:38.915Z</time></trkpt><trkpt lat="43.9593617" lon="12.448865"><ele>265.5</ele><time>2026-04-11T15:17:39.916Z</time></trkpt><trkpt lat="43.9594233" lon="12.4488917"><ele>261.6666666666667</ele><time>2026-04-11T15:17:40.915Z</time></trkpt><trkpt lat="43.9595167" lon="12.4489633"><ele>257.83333333333337</ele><time>2026-04-11T15:17:42.916Z</time></trkpt><trkpt lat="43.9595483" lon="12.4490767"><ele>254.0</ele><time>2026-04-11T15:17:44.915Z</time></trkpt><trkpt lat="43.959525" lon="12.449195"><ele>254.00000000000003</ele><time>2026-04-11T15:17:46.916Z</time></trkpt><trkpt lat="43.959485" lon="12.4493633"><ele>254.0</ele><time>2026-04-11T15:17:48.915Z</time></trkpt><trkpt lat="43.9594567" lon="12.4494617"><ele>254.0</ele><time>2026-04-11T15:17:49.916Z</time></trkpt><trkpt lat="43.95943" lon="12.4495533"><ele>254.0</ele><time>2026-04-11T15:17:50.915Z</time></trkpt><trkpt lat="43.9594" lon="12.449655"><ele>254.00000000000003</ele><time>2026-04-11T15:17:51.915Z</time></trkpt><trkpt lat="43.9593733" lon="12.4497433"><ele>254.0</ele><time>2026-04-11T15:17:52.916Z</time></trkpt><trkpt lat="43.9593283" lon="12.4498967"><ele>252.6</ele><time>2026-04-11T15:17:54.915Z</time></trkpt><trkpt lat="43.959315" lon="12.4500567"><ele>251.2</ele><time>2026-04-11T15:17:56.915Z</time></trkpt><trkpt lat="43.95932" lon="12.4502217"><ele>249.79999999999998</ele><time>2026-04-11T15:17:58.915Z</time></trkpt><trkpt lat="43.959325" lon="12.45031"><ele>248.39999999999998</ele><time>2026-04-11T15:17:59.915Z</time></trkpt><trkpt lat="43.959325" lon="12.4504017"><ele>247.0</ele><time>2026-04-11T15:18:00.916Z</time></trkpt><trkpt lat="43.95932" lon="12.450555"><ele>247.6</ele><time>2026-04-11T15:18:02.915Z</time></trkpt><trkpt lat="43.9593" lon="12.450695"><ele>248.2</ele><time>2026-04-11T15:18:04.916Z</time></trkpt><trkpt lat="43.9592667" lon="12.4508533"><ele>248.8</ele><time>2026-04-11T15:18:06.916Z</time></trkpt><trkpt lat="43.9592" lon="12.450965"><ele>249.4</ele><time>2026-04-11T15:18:08.916Z</time></trkpt><trkpt lat="43.95914" lon="12.4509967"><ele>250.0</ele><time>2026-04-11T15:18:09.916Z</time></trkpt><trkpt lat="43.9590767" lon="12.4510233"><ele>250.0</ele><time>2026-04-11T15:18:10.915Z</time></trkpt><trkpt lat="43.9589567" lon="12.4510633"><ele>250.0</ele><time>2026-04-11T15:18:12.916Z</time></trkpt><trkpt lat="43.9588883" lon="12.45109"><ele>250.0</ele><time>2026-04-11T15:18:13.915Z</time></trkpt><trkpt lat="43.958815" lon="12.45115"><ele>250.0</ele><time>2026-04-11T15:18:14.915Z</time></trkpt><trkpt lat="43.95874" lon="12.4512533"><ele>250.0</ele><time>2026-04-11T15:18:15.916Z</time></trkpt><trkpt lat="43.95865" lon="12.4513917"><ele>247.25</ele><time>2026-04-11T15:18:16.916Z</time></trkpt><trkpt lat="43.9585617" lon="12.4515417"><ele>244.5</ele><time>2026-04-11T15:18:17.915Z</time></trkpt><trkpt lat="43.958475" lon="12.45167"><ele>241.75</ele><time>2026-04-11T15:18:18.916Z</time></trkpt><trkpt lat="43.9583917" lon="12.4517883"><ele>239.0</ele><time>2026-04-11T15:18:19.915Z</time></trkpt><trkpt lat="43.9583167" lon="12.451885"><ele>238.50000000000003</ele><time>2026-04-11T15:18:20.916Z</time></trkpt><trkpt lat="43.9582483" lon="12.4519717"><ele>238.0</ele><time>2026-04-11T15:18:21.915Z</time></trkpt><trkpt lat="43.9581833" lon="12.4520567"><ele>237.5</ele><time>2026-04-11T15:18:22.915Z</time></trkpt><trkpt lat="43.9581317" lon="12.4521383"><ele>237.0</ele><time>2026-04-11T15:18:23.915Z</time></trkpt><trkpt lat="43.9580967" lon="12.4522167"><ele>236.50000000000003</ele><time>2026-04-11T15:18:24.916Z</time></trkpt><trkpt lat="43.958075" lon="12.4523667"><ele>236.0</ele><time>2026-04-11T15:18:26.915Z</time></trkpt><trkpt lat="43.9581317" lon="12.45253"><ele>233.60000000000002</ele><time>2026-04-11T15:18:28.916Z</time></trkpt><trkpt lat="43.95818" lon="12.452635"><ele>231.20000000000002</ele><time>2026-04-11T15:18:29.915Z</time></trkpt><trkpt lat="43.9582317" lon="12.4527633"><ele>228.79999999999998</ele><time>2026-04-11T15:18:30.915Z</time></trkpt><trkpt lat="43.9583083" lon="12.45289"><ele>226.39999999999998</ele><time>2026-04-11T15:18:31.916Z</time></trkpt><trkpt lat="43.9583883" lon="12.4530133"><ele>224.0</ele><time>2026-04-11T15:18:32.916Z</time></trkpt><trkpt lat="43.958475" lon="12.4531417"><ele>222.25</ele><time>2026-04-11T15:18:33.916Z</time></trkpt><trkpt lat="43.9585667" lon="12.45325"><ele>220.5</ele><time>2026-04-11T15:18:34.916Z</time></trkpt><trkpt lat="43.9586633" lon="12.453345"><ele>218.75</ele><time>2026-04-11T15:18:35.915Z</time></trkpt><trkpt lat="43.9587717" lon="12.45341"><ele>217.0</ele><time>2026-04-11T15:18:36.915Z</time></trkpt><trkpt lat="43.9588967" lon="12.4534483"><ele>217.0</ele><time>2026-04-11T15:18:37.915Z</time></trkpt><trkpt lat="43.9590267" lon="12.4534767"><ele>217.0</ele><time>2026-04-11T15:18:38.915Z</time></trkpt><trkpt lat="43.9591633" lon="12.4535"><ele>217.0</ele><time>2026-04-11T15:18:39.915Z</time></trkpt><trkpt lat="43.9593017" lon="12.4535283"><ele>217.0</ele><time>2026-04-11T15:18:40.916Z</time></trkpt><trkpt lat="43.95943" lon="12.45356"><ele>217.5</ele><time>2026-04-11T15:18:41.915Z</time></trkpt><trkpt lat="43.9595533" lon="12.4535967"><ele>218.0</ele><time>2026-04-11T15:18:42.915Z</time></trkpt><trkpt lat="43.95966" lon="12.4536733"><ele>218.5</ele><time>2026-04-11T15:18:43.916Z</time></trkpt><trkpt lat="43.95976" lon="12.4537783"><ele>219.0</ele><time>2026-04-11T15:18:44.915Z</time></trkpt><trkpt lat="43.9598533" lon="12.4539017"><ele>217.6</ele><time>2026-04-11T15:18:45.915Z</time></trkpt><trkpt lat="43.9599517" lon="12.4540133"><ele>216.2</ele><time>2026-04-11T15:18:46.916Z</time></trkpt><trkpt lat="43.9600533" lon="12.454085"><ele>214.79999999999998</ele><time>2026-04-11T15:18:47.916Z</time></trkpt><trkpt lat="43.9601517" lon="12.4541117"><ele>213.39999999999998</ele><time>2026-04-11T15:18:48.916Z</time></trkpt><trkpt lat="43.9602533" lon="12.4540917"><ele>212.0</ele><time>2026-04-11T15:18:49.915Z</time></trkpt><trkpt lat="43.9603633" lon="12.4540333"><ele>210.0</ele><time>2026-04-11T15:18:50.915Z</time></trkpt><trkpt lat="43.9604483" lon="12.4539867"><ele>208.0</ele><time>2026-04-11T15:18:51.916Z</time></trkpt><trkpt lat="43.9605233" lon="12.45397"><ele>206.0</ele><time>2026-04-11T15:18:52.915Z</time></trkpt><trkpt lat="43.9606083" lon="12.453975"><ele>204.0</ele><time>2026-04-11T15:18:53.916Z</time></trkpt><trkpt lat="43.960715" lon="12.4540283"><ele>202.0</ele><time>2026-04-11T15:18:54.916Z</time></trkpt><trkpt lat="43.9608233" lon="12.454135"><ele>198.75</ele><time>2026-04-11T15:18:55.916Z</time></trkpt><trkpt lat="43.96091" lon="12.4542883"><ele>195.5</ele><time>2026-04-11T15:18:56.916Z</time></trkpt><trkpt lat="43.96098" lon="12.454465"><ele>192.25</ele><time>2026-04-11T15:18:57.915Z</time></trkpt><trkpt lat="43.9610583" lon="12.4546467"><ele>189.0</ele><time>2026-04-11T15:18:58.915Z</time></trkpt><trkpt lat="43.96113" lon="12.454835"><ele>188.33333333333334</ele><time>2026-04-11T15:18:59.915Z</time></trkpt><trkpt lat="43.9612067" lon="12.455045"><ele>187.66666666666669</ele><time>2026-04-11T15:19:00.916Z</time></trkpt><trkpt lat="43.9612783" lon="12.4552467"><ele>187.0</ele><time>2026-04-11T15:19:01.916Z</time></trkpt><trkpt lat="43.961355" lon="12.4554283"><ele>187.0</ele><time>2026-04-11T15:19:02.916Z</time></trkpt><trkpt lat="43.9614283" lon="12.4555983"><ele>187.0</ele><time>2026-04-11T15:19:03.916Z</time></trkpt><trkpt lat="43.9614967" lon="12.4557567"><ele>187.0</ele><time>2026-04-11T15:19:04.916Z</time></trkpt><trkpt lat="43.9615533" lon="12.4559133"><ele>187.0</ele><time>2026-04-11T15:19:05.916Z</time></trkpt><trkpt lat="43.9616083" lon="12.456055"><ele>187.0</ele><time>2026-04-11T15:19:06.915Z</time></trkpt><trkpt lat="43.961655" lon="12.4561917"><ele>187.0</ele><time>2026-04-11T15:19:07.915Z</time></trkpt><trkpt lat="43.9617067" lon="12.4563133"><ele>187.0</ele><time>2026-04-11T15:19:08.916Z</time></trkpt><trkpt lat="43.9617567" lon="12.4564317"><ele>187.0</ele><time>2026-04-11T15:19:09.916Z</time></trkpt><trkpt lat="43.9618033" lon="12.45656"><ele>187.0</ele><time>2026-04-11T15:19:10.916Z</time></trkpt><trkpt lat="43.9618583" lon="12.45667"><ele>184.39999999999998</ele><time>2026-04-11T15:19:11.915Z</time></trkpt><trkpt lat="43.961925" lon="12.4567817"><ele>181.79999999999998</ele><time>2026-04-11T15:19:12.916Z</time></trkpt><trkpt lat="43.9620033" lon="12.4568817"><ele>179.2</ele><time>2026-04-11T15:19:13.916Z</time></trkpt><trkpt lat="43.9620933" lon="12.45697"><ele>176.6</ele><time>2026-04-11T15:19:14.915Z</time></trkpt><trkpt lat="43.962195" lon="12.4570417"><ele>174.0</ele><time>2026-04-11T15:19:15.915Z</time></trkpt><trkpt lat="43.9622983" lon="12.4570933"><ele>172.2</ele><time>2026-04-11T15:19:16.916Z</time></trkpt><trkpt lat="43.9624083" lon="12.457135"><ele>170.39999999999998</ele><time>2026-04-11T15:19:17.916Z</time></trkpt><trkpt lat="43.96252" lon="12.4571583"><ele>168.6</ele><time>2026-04-11T15:19:18.915Z</time></trkpt><trkpt lat="43.962625" lon="12.4571983"><ele>166.8</ele><time>2026-04-11T15:19:19.915Z</time></trkpt><trkpt lat="43.9627217" lon="12.45723"><ele>165.0</ele><time>2026-04-11T15:19:20.916Z</time></trkpt><trkpt lat="43.962805" lon="12.45727"><ele>163.2</ele><time>2026-04-11T15:19:21.915Z</time></trkpt><trkpt lat="43.962875" lon="12.4573117"><ele>161.4</ele><time>2026-04-11T15:19:22.915Z</time></trkpt><trkpt lat="43.9629583" lon="12.4573883"><ele>159.6</ele><time>2026-04-11T15:19:24.916Z</time></trkpt><trkpt lat="43.96293" lon="12.4575"><ele>157.8</ele><time>2026-04-11T15:19:27.916Z</time></trkpt><trkpt lat="43.96283" lon="12.45756"><ele>156.0</ele><time>2026-04-11T15:19:29.916Z</time></trkpt><trkpt lat="43.9627833" lon="12.457705"><ele>156.0</ele><time>2026-04-11T15:19:31.915Z</time></trkpt><trkpt lat="43.9627933" lon="12.4577917"><ele>156.0</ele><time>2026-04-11T15:19:32.915Z</time></trkpt><trkpt lat="43.9628117" lon="12.4578783"><ele>156.0</ele><time>2026-04-11T15:19:33.915Z</time></trkpt><trkpt lat="43.9628717" lon="12.4579167"><ele>156.0</ele><time>2026-04-11T15:19:34.915Z</time></trkpt><trkpt lat="43.9629533" lon="12.457955"><ele>156.0</ele><time>2026-04-11T15:19:35.914Z</time></trkpt><trkpt lat="43.9630417" lon="12.4579833"><ele>156.0</ele><time>2026-04-11T15:19:36.914Z</time></trkpt><trkpt lat="43.9631283" lon="12.4580017"><ele>157.66666666666666</ele><time>2026-04-11T15:19:37.915Z</time></trkpt><trkpt lat="43.96321" lon="12.4580067"><ele>159.33333333333334</ele><time>2026-04-11T15:19:38.914Z</time></trkpt><trkpt lat="43.9632833" lon="12.45803"><ele>161.0</ele><time>2026-04-11T15:19:39.914Z</time></trkpt><trkpt lat="43.963335" lon="12.4580883"><ele>162.66666666666669</ele><time>2026-04-11T15:19:40.915Z</time></trkpt><trkpt lat="43.9633317" lon="12.45821"><ele>164.33333333333334</ele><time>2026-04-11T15:19:42.915Z</time></trkpt><trkpt lat="43.9632267" lon="12.4582833"><ele>166.0</ele><time>2026-04-11T15:19:44.914Z</time></trkpt><trkpt lat="43.9631483" lon="12.458325"><ele>166.0</ele><time>2026-04-11T15:19:45.915Z</time></trkpt><trkpt lat="43.963065" lon="12.4583917"><ele>166.0</ele><time>2026-04-11T15:19:46.914Z</time></trkpt><trkpt lat="43.9629833" lon="12.4584933"><ele>166.0</ele><time>2026-04-11T15:19:47.914Z</time></trkpt><trkpt lat="43.9629017" lon="12.4586283"><ele>166.0</ele><time>2026-04-11T15:19:48.915Z</time></trkpt><trkpt lat="43.9628183" lon="12.458795"><ele>168.25</ele><time>2026-04-11T15:19:49.915Z</time></trkpt><trkpt lat="43.962735" lon="12.4589683"><ele>170.5</ele><time>2026-04-11T15:19:50.914Z</time></trkpt><trkpt lat="43.9626583" lon="12.4591383"><ele>172.75</ele><time>2026-04-11T15:19:51.915Z</time></trkpt><trkpt lat="43.9625983" lon="12.4593283"><ele>175.0</ele><time>2026-04-11T15:19:52.915Z</time></trkpt><trkpt lat="43.96254" lon="12.45953"><ele>179.25</ele><time>2026-04-11T15:19:53.914Z</time></trkpt><trkpt lat="43.9624817" lon="12.4597367"><ele>183.5</ele><time>2026-04-11T15:19:54.914Z</time></trkpt><trkpt lat="43.9624233" lon="12.4599217"><ele>187.75</ele><time>2026-04-11T15:19:55.914Z</time></trkpt><trkpt lat="43.9623617" lon="12.46008"><ele>192.0</ele><time>2026-04-11T15:19:56.915Z</time></trkpt><trkpt lat="43.9622933" lon="12.4602283"><ele>192.0</ele><time>2026-04-11T15:19:57.915Z</time></trkpt><trkpt lat="43.9622233" lon="12.460355"><ele>192.0</ele><time>2026-04-11T15:19:58.915Z</time></trkpt><trkpt lat="43.9621583" lon="12.460465"><ele>192.0</ele><time>2026-04-11T15:19:59.914Z</time></trkpt><trkpt lat="43.9621267" lon="12.460565"><ele>192.0</ele><time>2026-04-11T15:20:00.915Z</time></trkpt><trkpt lat="43.9621067" lon="12.46067"><ele>192.0</ele><time>2026-04-11T15:20:01.915Z</time></trkpt><trkpt lat="43.9621067" lon="12.46076"><ele>192.0</ele><time>2026-04-11T15:20:02.915Z</time></trkpt><trkpt lat="43.9621617" lon="12.4608883"><ele>193.0</ele><time>2026-04-11T15:20:04.915Z</time></trkpt><trkpt lat="43.9622267" lon="12.460955"><ele>194.0</ele><time>2026-04-11T15:20:05.914Z</time></trkpt><trkpt lat="43.962315" lon="12.46104"><ele>195.0</ele><time>2026-04-11T15:20:06.915Z</time></trkpt><trkpt lat="43.9624333" lon="12.4611467"><ele>196.0</ele><time>2026-04-11T15:20:07.914Z</time></trkpt><trkpt lat="43.9625483" lon="12.4612633"><ele>192.75</ele><time>2026-04-11T15:20:08.914Z</time></trkpt><trkpt lat="43.9626567" lon="12.4613667"><ele>189.5</ele><time>2026-04-11T15:20:09.915Z</time></trkpt><trkpt lat="43.9627667" lon="12.4614483"><ele>186.25</ele><time>2026-04-11T15:20:10.915Z</time></trkpt><trkpt lat="43.9628717" lon="12.4614917"><ele>183.0</ele><time>2026-04-11T15:20:11.915Z</time></trkpt><trkpt lat="43.96296" lon="12.46151"><ele>183.0</ele><time>2026-04-11T15:20:12.914Z</time></trkpt><trkpt lat="43.9630433" lon="12.461515"><ele>183.0</ele><time>2026-04-11T15:20:13.915Z</time></trkpt><trkpt lat="43.963145" lon="12.46156"><ele>183.0</ele><time>2026-04-11T15:20:15.914Z</time></trkpt><trkpt lat="43.9632383" lon="12.4616683"><ele>183.0</ele><time>2026-04-11T15:20:17.914Z</time></trkpt><trkpt lat="43.9632967" lon="12.4617517"><ele>183.0</ele><time>2026-04-11T15:20:18.915Z</time></trkpt><trkpt lat="43.9633617" lon="12.4618417"><ele>180.8</ele><time>2026-04-11T15:20:19.915Z</time></trkpt><trkpt lat="43.9634183" lon="12.461955"><ele>178.60000000000002</ele><time>2026-04-11T15:20:20.914Z</time></trkpt><trkpt lat="43.96349" lon="12.462065"><ele>176.39999999999998</ele><time>2026-04-11T15:20:21.914Z</time></trkpt><trkpt lat="43.9635483" lon="12.46217"><ele>174.2</ele><time>2026-04-11T15:20:22.914Z</time></trkpt><trkpt lat="43.9636217" lon="12.4622667"><ele>172.0</ele><time>2026-04-11T15:20:23.915Z</time></trkpt><trkpt lat="43.963685" lon="12.46236"><ele>172.0</ele><time>2026-04-11T15:20:24.915Z</time></trkpt><trkpt lat="43.9637433" lon="12.4624417"><ele>172.0</ele><time>2026-04-11T15:20:25.914Z</time></trkpt><trkpt lat="43.9638067" lon="12.4625183"><ele>172.0</ele><time>2026-04-11T15:20:26.914Z</time></trkpt><trkpt lat="43.96388" lon="12.4625833"><ele>172.0</ele><time>2026-04-11T15:20:27.915Z</time></trkpt><trkpt lat="43.9639583" lon="12.4626467"><ele>172.0</ele><time>2026-04-11T15:20:28.914Z</time></trkpt><trkpt lat="43.964045" lon="12.4627"><ele>172.0</ele><time>2026-04-11T15:20:29.915Z</time></trkpt><trkpt lat="43.9641283" lon="12.462755"><ele>169.83333333333334</ele><time>2026-04-11T15:20:30.914Z</time></trkpt><trkpt lat="43.96421" lon="12.462815"><ele>167.66666666666669</ele><time>2026-04-11T15:20:31.915Z</time></trkpt><trkpt lat="43.9642817" lon="12.4628867"><ele>165.5</ele><time>2026-04-11T15:20:32.914Z</time></trkpt><trkpt lat="43.96435" lon="12.46296"><ele>163.33333333333334</ele><time>2026-04-11T15:20:33.914Z</time></trkpt><trkpt lat="43.9644233" lon="12.46302"><ele>161.16666666666666</ele><time>2026-04-11T15:20:34.915Z</time></trkpt><trkpt lat="43.9644917" lon="12.463075"><ele>159.0</ele><time>2026-04-11T15:20:35.915Z</time></trkpt><trkpt lat="43.9645683" lon="12.4631183"><ele>159.0</ele><time>2026-04-11T15:20:36.915Z</time></trkpt><trkpt lat="43.9646483" lon="12.46314"><ele>159.0</ele><time>2026-04-11T15:20:37.915Z</time></trkpt><trkpt lat="43.9647367" lon="12.463135"><ele>159.0</ele><time>2026-04-11T15:20:38.914Z</time></trkpt><trkpt lat="43.9648183" lon="12.4631233"><ele>159.0</ele><time>2026-04-11T15:20:39.915Z</time></trkpt><trkpt lat="43.9648917" lon="12.463105"><ele>159.0</ele><time>2026-04-11T15:20:40.915Z</time></trkpt><trkpt lat="43.96497" lon="12.4630983"><ele>159.0</ele><time>2026-04-11T15:20:41.915Z</time></trkpt><trkpt lat="43.965045" lon="12.4631217"><ele>157.14285714285714</ele><time>2026-04-11T15:20:42.915Z</time></trkpt><trkpt lat="43.9651033" lon="12.463175"><ele>155.2857142857143</ele><time>2026-04-11T15:20:43.914Z</time></trkpt><trkpt lat="43.9651533" lon="12.4632417"><ele>153.42857142857144</ele><time>2026-04-11T15:20:44.914Z</time></trkpt><trkpt lat="43.965195" lon="12.4633217"><ele>151.57142857142856</ele><time>2026-04-11T15:20:45.915Z</time></trkpt><trkpt lat="43.9652317" lon="12.4634083"><ele>149.71428571428572</ele><time>2026-04-11T15:20:46.915Z</time></trkpt><trkpt lat="43.9652733" lon="12.4634967"><ele>147.85714285714286</ele><time>2026-04-11T15:20:47.915Z</time></trkpt><trkpt lat="43.9653167" lon="12.4635767"><ele>146.0</ele><time>2026-04-11T15:20:48.915Z</time></trkpt><trkpt lat="43.96535" lon="12.463665"><ele>146.0</ele><time>2026-04-11T15:20:49.915Z</time></trkpt><trkpt lat="43.965375" lon="12.4637483"><ele>146.0</ele><time>2026-04-11T15:20:50.915Z</time></trkpt><trkpt lat="43.9654633" lon="12.463865"><ele>146.0</ele><time>2026-04-11T15:20:52.915Z</time></trkpt><trkpt lat="43.9655283" lon="12.4638933"><ele>146.0</ele><time>2026-04-11T15:20:53.915Z</time></trkpt><trkpt lat="43.9656067" lon="12.463915"><ele>146.0</ele><time>2026-04-11T15:20:54.915Z</time></trkpt><trkpt lat="43.9656917" lon="12.463955"><ele>146.0</ele><time>2026-04-11T15:20:55.915Z</time></trkpt><trkpt lat="43.9657783" lon="12.463995"><ele>145.5</ele><time>2026-04-11T15:20:56.915Z</time></trkpt><trkpt lat="43.965855" lon="12.464055"><ele>145.0</ele><time>2026-04-11T15:20:57.914Z</time></trkpt><trkpt lat="43.9659233" lon="12.46413"><ele>144.5</ele><time>2026-04-11T15:20:58.915Z</time></trkpt><trkpt lat="43.9659817" lon="12.4642033"><ele>144.0</ele><time>2026-04-11T15:20:59.915Z</time></trkpt><trkpt lat="43.96604" lon="12.4642683"><ele>143.5</ele><time>2026-04-11T15:21:00.914Z</time></trkpt><trkpt lat="43.9661033" lon="12.4643033"><ele>143.0</ele><time>2026-04-11T15:21:01.915Z</time></trkpt><trkpt lat="43.9661717" lon="12.4643183"><ele>141.0</ele><time>2026-04-11T15:21:02.915Z</time></trkpt><trkpt lat="43.9662617" lon="12.4643083"><ele>139.0</ele><time>2026-04-11T15:21:03.915Z</time></trkpt><trkpt lat="43.966375" lon="12.4642967"><ele>137.0</ele><time>2026-04-11T15:21:04.915Z</time></trkpt><trkpt lat="43.9664917" lon="12.4642833"><ele>135.0</ele><time>2026-04-11T15:21:05.915Z</time></trkpt><trkpt lat="43.966605" lon="12.464275"><ele>133.0</ele><time>2026-04-11T15:21:06.915Z</time></trkpt><trkpt lat="43.9667233" lon="12.46426"><ele>130.8</ele><time>2026-04-11T15:21:07.914Z</time></trkpt><trkpt lat="43.9668333" lon="12.464265"><ele>128.60000000000002</ele><time>2026-04-11T15:21:08.914Z</time></trkpt><trkpt lat="43.966935" lon="12.4642667"><ele>126.39999999999999</ele><time>2026-04-11T15:21:09.915Z</time></trkpt><trkpt lat="43.96703" lon="12.46428"><ele>124.19999999999999</ele><time>2026-04-11T15:21:10.914Z</time></trkpt><trkpt lat="43.9671267" lon="12.4643183"><ele>122.0</ele><time>2026-04-11T15:21:11.915Z</time></trkpt><trkpt lat="43.9672183" lon="12.4643667"><ele>122.0</ele><time>2026-04-11T15:21:12.914Z</time></trkpt><trkpt lat="43.967315" lon="12.4644033"><ele>122.0</ele><time>2026-04-11T15:21:13.914Z</time></trkpt><trkpt lat="43.9674217" lon="12.4644333"><ele>122.0</ele><time>2026-04-11T15:21:14.914Z</time></trkpt><trkpt lat="43.96754" lon="12.4644367"><ele>122.0</ele><time>2026-04-11T15:21:15.915Z</time></trkpt><trkpt lat="43.9676783" lon="12.4644333"><ele>120.75</ele><time>2026-04-11T15:21:16.915Z</time></trkpt><trkpt lat="43.96782" lon="12.46441"><ele>119.5</ele><time>2026-04-11T15:21:17.915Z</time></trkpt><trkpt lat="43.9679617" lon="12.4643717"><ele>118.25</ele><time>2026-04-11T15:21:18.914Z</time></trkpt><trkpt lat="43.968085" lon="12.4643383"><ele>117.0</ele><time>2026-04-11T15:21:19.914Z</time></trkpt><trkpt lat="43.96819" lon="12.4643117"><ele>117.0</ele><time>2026-04-11T15:21:20.915Z</time></trkpt><trkpt lat="43.9682883" lon="12.4642883"><ele>116.99999999999999</ele><time>2026-04-11T15:21:21.914Z</time></trkpt><trkpt lat="43.9683733" lon="12.46426"><ele>116.99999999999999</ele><time>2026-04-11T15:21:22.915Z</time></trkpt><trkpt lat="43.96849" lon="12.4642483"><ele>117.0</ele><time>2026-04-11T15:21:24.915Z</time></trkpt><trkpt lat="43.9685533" lon="12.4642967"><ele>117.0</ele><time>2026-04-11T15:21:25.914Z</time></trkpt><trkpt lat="43.9686183" lon="12.4643867"><ele>117.0</ele><time>2026-04-11T15:21:26.914Z</time></trkpt><trkpt lat="43.9686833" lon="12.46451"><ele>117.0</ele><time>2026-04-11T15:21:27.914Z</time></trkpt><trkpt lat="43.9687483" lon="12.464655"><ele>117.0</ele><time>2026-04-11T15:21:28.915Z</time></trkpt><trkpt lat="43.9688033" lon="12.4647983"><ele>117.0</ele><time>2026-04-11T15:21:29.914Z</time></trkpt><trkpt lat="43.968825" lon="12.464955"><ele>117.0</ele><time>2026-04-11T15:21:30.914Z</time></trkpt><trkpt lat="43.9688083" lon="12.4651183"><ele>117.0</ele><time>2026-04-11T15:21:31.914Z</time></trkpt><trkpt lat="43.9687917" lon="12.4652783"><ele>117.0</ele><time>2026-04-11T15:21:32.914Z</time></trkpt><trkpt lat="43.968765" lon="12.4654467"><ele>117.0</ele><time>2026-04-11T15:21:33.914Z</time></trkpt><trkpt lat="43.96874" lon="12.46563"><ele>117.0</ele><time>2026-04-11T15:21:34.915Z</time></trkpt><trkpt lat="43.9687133" lon="12.465815"><ele>117.0</ele><time>2026-04-11T15:21:35.914Z</time></trkpt><trkpt lat="43.9686917" lon="12.465995"><ele>117.0</ele><time>2026-04-11T15:21:36.914Z</time></trkpt><trkpt lat="43.96867" lon="12.4661767"><ele>117.0</ele><time>2026-04-11T15:21:37.915Z</time></trkpt><trkpt lat="43.9686367" lon="12.4663483"><ele>115.75</ele><time>2026-04-11T15:21:38.914Z</time></trkpt><trkpt lat="43.9685983" lon="12.466525"><ele>114.5</ele><time>2026-04-11T15:21:39.914Z</time></trkpt><trkpt lat="43.968565" lon="12.4667017"><ele>113.25</ele><time>2026-04-11T15:21:40.915Z</time></trkpt><trkpt lat="43.96853" lon="12.466895"><ele>112.0</ele><time>2026-04-11T15:21:41.915Z</time></trkpt><trkpt lat="43.968495" lon="12.4670833"><ele>110.33333333333334</ele><time>2026-04-11T15:21:42.915Z</time></trkpt><trkpt lat="43.9684517" lon="12.4672817"><ele>108.66666666666666</ele><time>2026-04-11T15:21:43.915Z</time></trkpt><trkpt lat="43.968415" lon="12.46749"><ele>107.0</ele><time>2026-04-11T15:21:44.915Z</time></trkpt><trkpt lat="43.9683733" lon="12.467715"><ele>107.0</ele><time>2026-04-11T15:21:45.914Z</time></trkpt><trkpt lat="43.9683617" lon="12.46793"><ele>107.0</ele><time>2026-04-11T15:21:46.914Z</time></trkpt><trkpt lat="43.96836" lon="12.4681517"><ele>107.0</ele><time>2026-04-11T15:21:47.914Z</time></trkpt><trkpt lat="43.9683817" lon="12.468375"><ele>107.33333333333333</ele><time>2026-04-11T15:21:48.914Z</time></trkpt><trkpt lat="43.968405" lon="12.4685933"><ele>107.66666666666666</ele><time>2026-04-11T15:21:49.915Z</time></trkpt><trkpt lat="43.9684217" lon="12.4688217"><ele>108.0</ele><time>2026-04-11T15:21:50.915Z</time></trkpt><trkpt lat="43.9684167" lon="12.469045"><ele>108.33333333333334</ele><time>2026-04-11T15:21:51.914Z</time></trkpt><trkpt lat="43.96841" lon="12.4692717"><ele>108.66666666666667</ele><time>2026-04-11T15:21:52.915Z</time></trkpt><trkpt lat="43.968405" lon="12.469495"><ele>109.0</ele><time>2026-04-11T15:21:53.914Z</time></trkpt><trkpt lat="43.9684017" lon="12.4697083"><ele>109.75</ele><time>2026-04-11T15:21:54.915Z</time></trkpt><trkpt lat="43.9683783" lon="12.4699"><ele>110.5</ele><time>2026-04-11T15:21:55.915Z</time></trkpt><trkpt lat="43.9683167" lon="12.4700683"><ele>111.25</ele><time>2026-04-11T15:21:56.915Z</time></trkpt><trkpt lat="43.96823" lon="12.4702383"><ele>112.0</ele><time>2026-04-11T15:21:57.915Z</time></trkpt><trkpt lat="43.9681283" lon="12.4704083"><ele>110.0</ele><time>2026-04-11T15:21:58.914Z</time></trkpt><trkpt lat="43.96803" lon="12.4705783"><ele>108.0</ele><time>2026-04-11T15:21:59.915Z</time></trkpt><trkpt lat="43.967935" lon="12.47074"><ele>106.0</ele><time>2026-04-11T15:22:00.915Z</time></trkpt><trkpt lat="43.967855" lon="12.4708867"><ele>104.0</ele><time>2026-04-11T15:22:01.915Z</time></trkpt><trkpt lat="43.9678283" lon="12.471035"><ele>104.0</ele><time>2026-04-11T15:22:02.915Z</time></trkpt><trkpt lat="43.967825" lon="12.4711667"><ele>104.0</ele><time>2026-04-11T15:22:03.914Z</time></trkpt><trkpt lat="43.9678633" lon="12.471295"><ele>104.0</ele><time>2026-04-11T15:22:04.914Z</time></trkpt><trkpt lat="43.96793" lon="12.471415"><ele>104.0</ele><time>2026-04-11T15:22:05.915Z</time></trkpt><trkpt lat="43.9680317" lon="12.4715083"><ele>104.0</ele><time>2026-04-11T15:22:06.915Z</time></trkpt><trkpt lat="43.9681433" lon="12.4716117"><ele>104.0</ele><time>2026-04-11T15:22:07.915Z</time></trkpt><trkpt lat="43.968265" lon="12.47171"><ele>104.0</ele><time>2026-04-11T15:22:08.914Z</time></trkpt><trkpt lat="43.9683983" lon="12.4718117"><ele>104.0</ele><time>2026-04-11T15:22:09.914Z</time></trkpt><trkpt lat="43.9685267" lon="12.4719333"><ele>104.0</ele><time>2026-04-11T15:22:10.915Z</time></trkpt><trkpt lat="43.968635" lon="12.4720717"><ele>102.75</ele><time>2026-04-11T15:22:11.914Z</time></trkpt><trkpt lat="43.9687133" lon="12.472225"><ele>101.5</ele><time>2026-04-11T15:22:12.914Z</time></trkpt><trkpt lat="43.9687617" lon="12.4723917"><ele>100.25</ele><time>2026-04-11T15:22:13.914Z</time></trkpt><trkpt lat="43.9687733" lon="12.47257"><ele>99.0</ele><time>2026-04-11T15:22:14.915Z</time></trkpt><trkpt lat="43.9687517" lon="12.472755"><ele>99.5</ele><time>2026-04-11T15:22:15.915Z</time></trkpt><trkpt lat="43.968735" lon="12.4729533"><ele>100.0</ele><time>2026-04-11T15:22:16.914Z</time></trkpt><trkpt lat="43.9687383" lon="12.4731617"><ele>100.5</ele><time>2026-04-11T15:22:17.914Z</time></trkpt><trkpt lat="43.968765" lon="12.473345"><ele>101.0</ele><time>2026-04-11T15:22:18.914Z</time></trkpt><trkpt lat="43.968815" lon="12.4735117"><ele>101.0</ele><time>2026-04-11T15:22:19.914Z</time></trkpt><trkpt lat="43.9688567" lon="12.4736683"><ele>101.0</ele><time>2026-04-11T15:22:20.914Z</time></trkpt><trkpt lat="43.9688983" lon="12.473805"><ele>101.0</ele><time>2026-04-11T15:22:21.915Z</time></trkpt><trkpt lat="43.9689367" lon="12.4739233"><ele>101.0</ele><time>2026-04-11T15:22:22.914Z</time></trkpt><trkpt lat="43.9689767" lon="12.4740467"><ele>101.0</ele><time>2026-04-11T15:22:23.915Z</time></trkpt><trkpt lat="43.9690167" lon="12.4741667"><ele>101.19999999999999</ele><time>2026-04-11T15:22:24.914Z</time></trkpt><trkpt lat="43.9690567" lon="12.4742967"><ele>101.39999999999999</ele><time>2026-04-11T15:22:25.915Z</time></trkpt><trkpt lat="43.9690983" lon="12.4744333"><ele>101.6</ele><time>2026-04-11T15:22:26.915Z</time></trkpt><trkpt lat="43.96914" lon="12.4745717"><ele>101.8</ele><time>2026-04-11T15:22:27.914Z</time></trkpt><trkpt lat="43.969185" lon="12.4747083"><ele>102.0</ele><time>2026-04-11T15:22:28.915Z</time></trkpt><trkpt lat="43.9692317" lon="12.4748333"><ele>102.33333333333333</ele><time>2026-04-11T15:22:29.914Z</time></trkpt><trkpt lat="43.96927" lon="12.474945"><ele>102.66666666666666</ele><time>2026-04-11T15:22:30.914Z</time></trkpt><trkpt lat="43.9693183" lon="12.4750283"><ele>103.0</ele><time>2026-04-11T15:22:31.914Z</time></trkpt><trkpt lat="43.9693767" lon="12.4750817"><ele>103.33333333333333</ele><time>2026-04-11T15:22:32.915Z</time></trkpt><trkpt lat="43.969455" lon="12.4751167"><ele>103.66666666666666</ele><time>2026-04-11T15:22:33.914Z</time></trkpt><trkpt lat="43.9695383" lon="12.4751833"><ele>104.0</ele><time>2026-04-11T15:22:34.914Z</time></trkpt><trkpt lat="43.9696067" lon="12.4752917"><ele>104.0</ele><time>2026-04-11T15:22:35.914Z</time></trkpt><trkpt lat="43.96966" lon="12.4754417"><ele>104.0</ele><time>2026-04-11T15:22:36.915Z</time></trkpt><trkpt lat="43.9697167" lon="12.475585"><ele>104.0</ele><time>2026-04-11T15:22:37.915Z</time></trkpt><trkpt lat="43.969775" lon="12.4757333"><ele>104.0</ele><time>2026-04-11T15:22:38.915Z</time></trkpt><trkpt lat="43.96984" lon="12.47587"><ele>104.0</ele><time>2026-04-11T15:22:39.914Z</time></trkpt><trkpt lat="43.9698933" lon="12.4759867"><ele>104.0</ele><time>2026-04-11T15:22:40.915Z</time></trkpt><trkpt lat="43.969945" lon="12.4761033"><ele>104.0</ele><time>2026-04-11T15:22:41.915Z</time></trkpt><trkpt lat="43.9699967" lon="12.4762233"><ele>104.0</ele><time>2026-04-11T15:22:42.914Z</time></trkpt><trkpt lat="43.970045" lon="12.476345"><ele>104.0</ele><time>2026-04-11T15:22:43.915Z</time></trkpt><trkpt lat="43.9700967" lon="12.4764683"><ele>103.0</ele><time>2026-04-11T15:22:44.915Z</time></trkpt><trkpt lat="43.9701467" lon="12.4765867"><ele>102.0</ele><time>2026-04-11T15:22:45.914Z</time></trkpt><trkpt lat="43.9701967" lon="12.476715"><ele>101.0</ele><time>2026-04-11T15:22:46.914Z</time></trkpt><trkpt lat="43.9702383" lon="12.4768533"><ele>100.0</ele><time>2026-04-11T15:22:47.914Z</time></trkpt><trkpt lat="43.9702817" lon="12.477005"><ele>99.0</ele><time>2026-04-11T15:22:48.914Z</time></trkpt><trkpt lat="43.9703233" lon="12.4771433"><ele>98.80000000000001</ele><time>2026-04-11T15:22:49.914Z</time></trkpt><trkpt lat="43.970355" lon="12.477275"><ele>98.60000000000001</ele><time>2026-04-11T15:22:50.914Z</time></trkpt><trkpt lat="43.9703867" lon="12.4774083"><ele>98.4</ele><time>2026-04-11T15:22:51.914Z</time></trkpt><trkpt lat="43.9704283" lon="12.477545"><ele>98.2</ele><time>2026-04-11T15:22:52.915Z</time></trkpt><trkpt lat="43.97047" lon="12.4776783"><ele>98.0</ele><time>2026-04-11T15:22:53.915Z</time></trkpt><trkpt lat="43.9705183" lon="12.477805"><ele>99.25</ele><time>2026-04-11T15:22:54.915Z</time></trkpt><trkpt lat="43.9705817" lon="12.4779367"><ele>100.5</ele><time>2026-04-11T15:22:55.914Z</time></trkpt><trkpt lat="43.9706517" lon="12.47807"><ele>101.75</ele><time>2026-04-11T15:22:56.915Z</time></trkpt><trkpt lat="43.9707233" lon="12.4781933"><ele>103.0</ele><time>2026-04-11T15:22:57.915Z</time></trkpt><trkpt lat="43.970795" lon="12.4783067"><ele>101.4</ele><time>2026-04-11T15:22:58.915Z</time></trkpt><trkpt lat="43.9708667" lon="12.478405"><ele>99.80000000000001</ele><time>2026-04-11T15:22:59.914Z</time></trkpt><trkpt lat="43.9709467" lon="12.478485"><ele>98.2</ele><time>2026-04-11T15:23:00.914Z</time></trkpt><trkpt lat="43.9710383" lon="12.47855"><ele>96.6</ele><time>2026-04-11T15:23:01.914Z</time></trkpt><trkpt lat="43.971135" lon="12.4786033"><ele>95.0</ele><time>2026-04-11T15:23:02.915Z</time></trkpt><trkpt lat="43.97124" lon="12.4786417"><ele>95.0</ele><time>2026-04-11T15:23:03.914Z</time></trkpt><trkpt lat="43.9713367" lon="12.47868"><ele>95.0</ele><time>2026-04-11T15:23:04.914Z</time></trkpt><trkpt lat="43.97143" lon="12.4787317"><ele>95.0</ele><time>2026-04-11T15:23:05.915Z</time></trkpt><trkpt lat="43.9715333" lon="12.47881"><ele>95.0</ele><time>2026-04-11T15:23:06.915Z</time></trkpt><trkpt lat="43.971635" lon="12.4788967"><ele>95.0</ele><time>2026-04-11T15:23:07.914Z</time></trkpt><trkpt lat="43.9717283" lon="12.4789917"><ele>93.75</ele><time>2026-04-11T15:23:08.915Z</time></trkpt><trkpt lat="43.97181" lon="12.4791183"><ele>92.5</ele><time>2026-04-11T15:23:09.914Z</time></trkpt><trkpt lat="43.97187" lon="12.4792633"><ele>91.25</ele><time>2026-04-11T15:23:10.915Z</time></trkpt><trkpt lat="43.9719217" lon="12.479405"><ele>90.0</ele><time>2026-04-11T15:23:11.915Z</time></trkpt><trkpt lat="43.9719717" lon="12.4795517"><ele>89.0</ele><time>2026-04-11T15:23:12.914Z</time></trkpt><trkpt lat="43.9720133" lon="12.4796967"><ele>88.0</ele><time>2026-04-11T15:23:13.915Z</time></trkpt><trkpt lat="43.9720583" lon="12.4798267"><ele>87.0</ele><time>2026-04-11T15:23:14.915Z</time></trkpt><trkpt lat="43.972095" lon="12.4799483"><ele>86.0</ele><time>2026-04-11T15:23:15.914Z</time></trkpt><trkpt lat="43.9721283" lon="12.4800633"><ele>85.0</ele><time>2026-04-11T15:23:16.914Z</time></trkpt><trkpt lat="43.9721617" lon="12.48017"><ele>85.0</ele><time>2026-04-11T15:23:17.915Z</time></trkpt><trkpt lat="43.972195" lon="12.48027"><ele>85.0</ele><time>2026-04-11T15:23:18.915Z</time></trkpt><trkpt lat="43.9722267" lon="12.4803717"><ele>85.0</ele><time>2026-04-11T15:23:19.915Z</time></trkpt><trkpt lat="43.9722583" lon="12.4804883"><ele>85.0</ele><time>2026-04-11T15:23:20.914Z</time></trkpt><trkpt lat="43.9722883" lon="12.480585"><ele>85.0</ele><time>2026-04-11T15:23:21.915Z</time></trkpt><trkpt lat="43.9723233" lon="12.4806933"><ele>85.0</ele><time>2026-04-11T15:23:22.914Z</time></trkpt><trkpt lat="43.9723567" lon="12.4808017"><ele>85.0</ele><time>2026-04-11T15:23:23.914Z</time></trkpt><trkpt lat="43.97239" lon="12.4809283"><ele>85.0</ele><time>2026-04-11T15:23:24.914Z</time></trkpt><trkpt lat="43.97243" lon="12.481065"><ele>85.0</ele><time>2026-04-11T15:23:25.914Z</time></trkpt><trkpt lat="43.97247" lon="12.48119"><ele>85.0</ele><time>2026-04-11T15:23:26.914Z</time></trkpt><trkpt lat="43.9725017" lon="12.48131"><ele>85.0</ele><time>2026-04-11T15:23:27.914Z</time></trkpt><trkpt lat="43.9725383" lon="12.4814167"><ele>86.0</ele><time>2026-04-11T15:23:28.915Z</time></trkpt><trkpt lat="43.9725633" lon="12.48153"><ele>87.0</ele><time>2026-04-11T15:23:29.915Z</time></trkpt><trkpt lat="43.9725867" lon="12.4816283"><ele>88.0</ele><time>2026-04-11T15:23:30.915Z</time></trkpt><trkpt lat="43.9726117" lon="12.481715"><ele>89.0</ele><time>2026-04-11T15:23:31.915Z</time></trkpt><trkpt lat="43.972655" lon="12.481865"><ele>90.0</ele><time>2026-04-11T15:23:33.915Z</time></trkpt><trkpt lat="43.9727033" lon="12.4820067"><ele>89.33333333333333</ele><time>2026-04-11T15:23:42.914Z</time></trkpt><trkpt lat="43.9727017" lon="12.4821067"><ele>88.66666666666667</ele><time>2026-04-11T15:23:45.915Z</time></trkpt><trkpt lat="43.9726483" lon="12.482185"><ele>88.0</ele><time>2026-04-11T15:23:47.914Z</time></trkpt><trkpt lat="43.9726017" lon="12.4822483"><ele>87.33333333333334</ele><time>2026-04-11T15:23:48.914Z</time></trkpt><trkpt lat="43.9725383" lon="12.4823183"><ele>86.66666666666667</ele><time>2026-04-11T15:23:49.915Z</time></trkpt><trkpt lat="43.9724383" lon="12.4823933"><ele>86.0</ele><time>2026-04-11T15:23:50.915Z</time></trkpt><trkpt lat="43.9723117" lon="12.4824533"><ele>86.0</ele><time>2026-04-11T15:23:51.914Z</time></trkpt><trkpt lat="43.972195" lon="12.4825117"><ele>86.0</ele><time>2026-04-11T15:23:52.915Z</time></trkpt><trkpt lat="43.9720733" lon="12.482555"><ele>86.0</ele><time>2026-04-11T15:23:53.915Z</time></trkpt><trkpt lat="43.9719567" lon="12.4825967"><ele>86.0</ele><time>2026-04-11T15:23:54.914Z</time></trkpt><trkpt lat="43.9718367" lon="12.4826367"><ele>86.0</ele><time>2026-04-11T15:23:55.915Z</time></trkpt><trkpt lat="43.9717167" lon="12.4826767"><ele>86.0</ele><time>2026-04-11T15:23:56.914Z</time></trkpt><trkpt lat="43.9716183" lon="12.4827667"><ele>86.0</ele><time>2026-04-11T15:23:57.915Z</time></trkpt><trkpt lat="43.9715367" lon="12.4828717"><ele>86.0</ele><time>2026-04-11T15:23:58.915Z</time></trkpt><trkpt lat="43.97151" lon="12.483005"><ele>85.8</ele><time>2026-04-11T15:23:59.915Z</time></trkpt><trkpt lat="43.9715083" lon="12.4831517"><ele>85.6</ele><time>2026-04-11T15:24:00.914Z</time></trkpt><trkpt lat="43.97156" lon="12.4832267"><ele>85.4</ele><time>2026-04-11T15:24:01.915Z</time></trkpt><trkpt lat="43.9716933" lon="12.4832517"><ele>85.2</ele><time>2026-04-11T15:24:03.914Z</time></trkpt><trkpt lat="43.9717717" lon="12.4832717"><ele>85.0</ele><time>2026-04-11T15:24:05.914Z</time></trkpt><trkpt lat="43.971845" lon="12.48328"><ele>85.0</ele><time>2026-04-11T15:24:07.915Z</time></trkpt><trkpt lat="43.971925" lon="12.4832717"><ele>85.0</ele><time>2026-04-11T15:24:09.915Z</time></trkpt><trkpt lat="43.9720533" lon="12.4832883"><ele>85.0</ele><time>2026-04-11T15:24:11.914Z</time></trkpt><trkpt lat="43.97213" lon="12.4833133"><ele>85.0</ele><time>2026-04-11T15:24:12.915Z</time></trkpt><trkpt lat="43.9722117" lon="12.48333"><ele>85.0</ele><time>2026-04-11T15:24:13.915Z</time></trkpt><trkpt lat="43.9722933" lon="12.4833517"><ele>85.0</ele><time>2026-04-11T15:24:14.914Z</time></trkpt><trkpt lat="43.9723783" lon="12.4833667"><ele>85.0</ele><time>2026-04-11T15:24:15.914Z</time></trkpt><trkpt lat="43.9724617" lon="12.4833933"><ele>85.0</ele><time>2026-04-11T15:24:16.914Z</time></trkpt><trkpt lat="43.9725467" lon="12.48343"><ele>85.0</ele><time>2026-04-11T15:24:17.914Z</time></trkpt><trkpt lat="43.9726283" lon="12.4834833"><ele>85.0</ele><time>2026-04-11T15:24:18.915Z</time></trkpt><trkpt lat="43.9727017" lon="12.483545"><ele>85.0</ele><time>2026-04-11T15:24:19.915Z</time></trkpt><trkpt lat="43.9727767" lon="12.4836233"><ele>84.0</ele><time>2026-04-11T15:24:20.915Z</time></trkpt><trkpt lat="43.9728367" lon="12.48372"><ele>83.0</ele><time>2026-04-11T15:24:21.915Z</time></trkpt><trkpt lat="43.972905" lon="12.4838117"><ele>82.0</ele><time>2026-04-11T15:24:22.914Z</time></trkpt><trkpt lat="43.9729533" lon="12.48389"><ele>81.0</ele><time>2026-04-11T15:24:23.914Z</time></trkpt><trkpt lat="43.97302" lon="12.4839517"><ele>80.0</ele><time>2026-04-11T15:24:25.914Z</time></trkpt><trkpt lat="43.9730683" lon="12.4840267"><ele>79.0</ele><time>2026-04-11T15:24:28.914Z</time></trkpt><trkpt lat="43.9731517" lon="12.4841017"><ele>79.0</ele><time>2026-04-11T15:24:30.915Z</time></trkpt><trkpt lat="43.97321" lon="12.48414"><ele>79.0</ele><time>2026-04-11T15:24:32.915Z</time></trkpt><trkpt lat="43.9732767" lon="12.4842133"><ele>79.0</ele><time>2026-04-11T15:24:35.914Z</time></trkpt><trkpt lat="43.9733433" lon="12.4842517"><ele>79.0</ele><time>2026-04-11T15:24:45.913Z</time></trkpt><trkpt lat="43.9733967" lon="12.4843067"><ele>79.0</ele><time>2026-04-11T15:24:46.914Z</time></trkpt><trkpt lat="43.9734717" lon="12.4843883"><ele>79.0</ele><time>2026-04-11T15:24:47.914Z</time></trkpt><trkpt lat="43.9735533" lon="12.4844767"><ele>79.2</ele><time>2026-04-11T15:24:48.914Z</time></trkpt><trkpt lat="43.9736317" lon="12.4845667"><ele>79.4</ele><time>2026-04-11T15:24:49.913Z</time></trkpt><trkpt lat="43.9737183" lon="12.48466"><ele>79.6</ele><time>2026-04-11T15:24:50.914Z</time></trkpt><trkpt lat="43.9738" lon="12.4847467"><ele>79.8</ele><time>2026-04-11T15:24:51.913Z</time></trkpt><trkpt lat="43.9738883" lon="12.4848483"><ele>80.0</ele><time>2026-04-11T15:24:52.913Z</time></trkpt><trkpt lat="43.9739717" lon="12.4849483"><ele>80.0</ele><time>2026-04-11T15:24:53.913Z</time></trkpt><trkpt lat="43.9740717" lon="12.48505"><ele>80.0</ele><time>2026-04-11T15:24:54.914Z</time></trkpt><trkpt lat="43.97416" lon="12.48516"><ele>80.0</ele><time>2026-04-11T15:24:55.914Z</time></trkpt><trkpt lat="43.9742483" lon="12.4852667"><ele>80.0</ele><time>2026-04-11T15:24:56.914Z</time></trkpt><trkpt lat="43.9743383" lon="12.4853733"><ele>80.0</ele><time>2026-04-11T15:24:57.913Z</time></trkpt><trkpt lat="43.9744167" lon="12.485475"><ele>80.0</ele><time>2026-04-11T15:24:58.913Z</time></trkpt><trkpt lat="43.9744917" lon="12.4855733"><ele>80.0</ele><time>2026-04-11T15:24:59.914Z</time></trkpt><trkpt lat="43.974575" lon="12.4856617"><ele>80.0</ele><time>2026-04-11T15:25:00.913Z</time></trkpt><trkpt lat="43.9746617" lon="12.485745"><ele>80.0</ele><time>2026-04-11T15:25:01.914Z</time></trkpt><trkpt lat="43.9747517" lon="12.4858217"><ele>80.0</ele><time>2026-04-11T15:25:02.914Z</time></trkpt><trkpt lat="43.974845" lon="12.4858967"><ele>80.0</ele><time>2026-04-11T15:25:03.913Z</time></trkpt><trkpt lat="43.9749483" lon="12.485955"><ele>80.0</ele><time>2026-04-11T15:25:04.914Z</time></trkpt><trkpt lat="43.9750517" lon="12.48601"><ele>80.0</ele><time>2026-04-11T15:25:05.913Z</time></trkpt><trkpt lat="43.9751667" lon="12.4860633"><ele>80.0</ele><time>2026-04-11T15:25:06.914Z</time></trkpt><trkpt lat="43.9752867" lon="12.48613"><ele>80.0</ele><time>2026-04-11T15:25:07.913Z</time></trkpt><trkpt lat="43.9754117" lon="12.4861933"><ele>80.0</ele><time>2026-04-11T15:25:08.914Z</time></trkpt><trkpt lat="43.9755417" lon="12.4862633"><ele>80.0</ele><time>2026-04-11T15:25:09.914Z</time></trkpt><trkpt lat="43.9756817" lon="12.48632"><ele>79.25</ele><time>2026-04-11T15:25:10.914Z</time></trkpt><trkpt lat="43.97581" lon="12.4863833"><ele>78.5</ele><time>2026-04-11T15:25:11.913Z</time></trkpt><trkpt lat="43.9759383" lon="12.4864433"><ele>77.75</ele><time>2026-04-11T15:25:12.913Z</time></trkpt><trkpt lat="43.976065" lon="12.486485"><ele>77.0</ele><time>2026-04-11T15:25:13.914Z</time></trkpt><trkpt lat="43.9761683" lon="12.48654"><ele>77.0</ele><time>2026-04-11T15:25:14.914Z</time></trkpt><trkpt lat="43.9762717" lon="12.4865967"><ele>77.0</ele><time>2026-04-11T15:25:15.913Z</time></trkpt><trkpt lat="43.9763717" lon="12.4866817"><ele>77.0</ele><time>2026-04-11T15:25:16.914Z</time></trkpt><trkpt lat="43.9764783" lon="12.486755"><ele>77.0</ele><time>2026-04-11T15:25:17.913Z</time></trkpt><trkpt lat="43.976595" lon="12.4868317"><ele>76.75</ele><time>2026-04-11T15:25:18.913Z</time></trkpt><trkpt lat="43.9767117" lon="12.4869367"><ele>76.5</ele><time>2026-04-11T15:25:19.914Z</time></trkpt><trkpt lat="43.9768383" lon="12.48704"><ele>76.25</ele><time>2026-04-11T15:25:20.914Z</time></trkpt><trkpt lat="43.9769733" lon="12.4871383"><ele>76.0</ele><time>2026-04-11T15:25:21.914Z</time></trkpt><trkpt lat="43.977115" lon="12.4872333"><ele>76.0</ele><time>2026-04-11T15:25:22.913Z</time></trkpt><trkpt lat="43.977265" lon="12.487335"><ele>76.0</ele><time>2026-04-11T15:25:23.914Z</time></trkpt><trkpt lat="43.9774167" lon="12.4874517"><ele>76.0</ele><time>2026-04-11T15:25:24.913Z</time></trkpt><trkpt lat="43.977565" lon="12.487575"><ele>78.66666666666666</ele><time>2026-04-11T15:25:25.914Z</time></trkpt><trkpt lat="43.977725" lon="12.4876917"><ele>81.33333333333333</ele><time>2026-04-11T15:25:26.914Z</time></trkpt><trkpt lat="43.97792" lon="12.48775"><ele>84.0</ele><time>2026-04-11T15:25:27.914Z</time></trkpt><trkpt lat="43.9780983" lon="12.4878333"><ele>84.0</ele><time>2026-04-11T15:25:28.913Z</time></trkpt><trkpt lat="43.9782967" lon="12.4879"><ele>84.0</ele><time>2026-04-11T15:25:29.914Z</time></trkpt><trkpt lat="43.9784917" lon="12.487945"><ele>84.0</ele><time>2026-04-11T15:25:30.913Z</time></trkpt><trkpt lat="43.9786733" lon="12.488"><ele>85.33333333333333</ele><time>2026-04-11T15:25:31.913Z</time></trkpt><trkpt lat="43.9788567" lon="12.48805"><ele>86.66666666666666</ele><time>2026-04-11T15:25:32.914Z</time></trkpt><trkpt lat="43.9790333" lon="12.4881033"><ele>88.0</ele><time>2026-04-11T15:25:33.914Z</time></trkpt><trkpt lat="43.979205" lon="12.4881633"><ele>90.33333333333333</ele><time>2026-04-11T15:25:34.913Z</time></trkpt><trkpt lat="43.97937" lon="12.488235"><ele>92.66666666666667</ele><time>2026-04-11T15:25:35.914Z</time></trkpt><trkpt lat="43.97953" lon="12.48832"><ele>95.0</ele><time>2026-04-11T15:25:36.913Z</time></trkpt><trkpt lat="43.979685" lon="12.4884183"><ele>95.0</ele><time>2026-04-11T15:25:37.914Z</time></trkpt><trkpt lat="43.9798317" lon="12.4885317"><ele>95.0</ele><time>2026-04-11T15:25:38.914Z</time></trkpt><trkpt lat="43.97997" lon="12.4886617"><ele>95.0</ele><time>2026-04-11T15:25:39.914Z</time></trkpt><trkpt lat="43.9801033" lon="12.4887983"><ele>93.66666666666667</ele><time>2026-04-11T15:25:40.913Z</time></trkpt><trkpt lat="43.9802333" lon="12.4889417"><ele>92.33333333333333</ele><time>2026-04-11T15:25:41.914Z</time></trkpt><trkpt lat="43.9803717" lon="12.4890833"><ele>91.0</ele><time>2026-04-11T15:25:42.914Z</time></trkpt><trkpt lat="43.9805117" lon="12.4892233"><ele>91.0</ele><time>2026-04-11T15:25:43.914Z</time></trkpt><trkpt lat="43.9806533" lon="12.4893567"><ele>91.0</ele><time>2026-04-11T15:25:44.913Z</time></trkpt><trkpt lat="43.9807867" lon="12.4894817"><ele>91.0</ele><time>2026-04-11T15:25:45.913Z</time></trkpt><trkpt lat="43.9809117" lon="12.4895967"><ele>90.0</ele><time>2026-04-11T15:25:46.914Z</time></trkpt><trkpt lat="43.9810333" lon="12.48971"><ele>89.0</ele><time>2026-04-11T15:25:47.914Z</time></trkpt><trkpt lat="43.98116" lon="12.4898183"><ele>88.0</ele><time>2026-04-11T15:25:48.914Z</time></trkpt><trkpt lat="43.9813" lon="12.48992"><ele>88.0</ele><time>2026-04-11T15:25:49.913Z</time></trkpt><trkpt lat="43.9814333" lon="12.4900233"><ele>88.0</ele><time>2026-04-11T15:25:50.914Z</time></trkpt><trkpt lat="43.98156" lon="12.4901267"><ele>88.0</ele><time>2026-04-11T15:25:51.914Z</time></trkpt><trkpt lat="43.98169" lon="12.49022"><ele>88.0</ele><time>2026-04-11T15:25:52.914Z</time></trkpt><trkpt lat="43.98181" lon="12.4903317"><ele>88.25</ele><time>2026-04-11T15:25:53.914Z</time></trkpt><trkpt lat="43.9819267" lon="12.4904183"><ele>88.5</ele><time>2026-04-11T15:25:54.914Z</time></trkpt><trkpt lat="43.982035" lon="12.4905017"><ele>88.75</ele><time>2026-04-11T15:25:55.913Z</time></trkpt><trkpt lat="43.982135" lon="12.49058"><ele>89.0</ele><time>2026-04-11T15:25:56.914Z</time></trkpt><trkpt lat="43.98223" lon="12.4906583"><ele>88.33333333333334</ele><time>2026-04-11T15:25:57.913Z</time></trkpt><trkpt lat="43.98232" lon="12.4907367"><ele>87.66666666666667</ele><time>2026-04-11T15:25:58.914Z</time></trkpt><trkpt lat="43.982405" lon="12.4908117"><ele>87.0</ele><time>2026-04-11T15:25:59.913Z</time></trkpt><trkpt lat="43.9824817" lon="12.4908783"><ele>86.33333333333333</ele><time>2026-04-11T15:26:00.913Z</time></trkpt><trkpt lat="43.982545" lon="12.4909283"><ele>85.66666666666666</ele><time>2026-04-11T15:26:01.914Z</time></trkpt><trkpt lat="43.9825783" lon="12.4910233"><ele>85.0</ele><time>2026-04-11T15:26:03.914Z</time></trkpt><trkpt lat="43.9825233" lon="12.49112"><ele>85.0</ele><time>2026-04-11T15:26:05.914Z</time></trkpt><trkpt lat="43.9824633" lon="12.4912033"><ele>85.0</ele><time>2026-04-11T15:26:07.914Z</time></trkpt><trkpt lat="43.9825317" lon="12.491365"><ele>85.0</ele><time>2026-04-11T15:26:10.913Z</time></trkpt><trkpt lat="43.9826033" lon="12.4914533"><ele>85.0</ele><time>2026-04-11T15:26:11.913Z</time></trkpt><trkpt lat="43.9826783" lon="12.4915417"><ele>85.0</ele><time>2026-04-11T15:26:12.914Z</time></trkpt><trkpt lat="43.9827483" lon="12.4916417"><ele>84.2</ele><time>2026-04-11T15:26:13.913Z</time></trkpt><trkpt lat="43.9828317" lon="12.4916967"><ele>83.4</ele><time>2026-04-11T15:26:14.913Z</time></trkpt><trkpt lat="43.9829017" lon="12.4917433"><ele>82.6</ele><time>2026-04-11T15:26:15.913Z</time></trkpt><trkpt lat="43.9829567" lon="12.49179"><ele>81.8</ele><time>2026-04-11T15:26:16.914Z</time></trkpt><trkpt lat="43.983015" lon="12.49189"><ele>81.0</ele><time>2026-04-11T15:26:18.913Z</time></trkpt><trkpt lat="43.98298" lon="12.49206"><ele>79.8</ele><time>2026-04-11T15:26:20.913Z</time></trkpt><trkpt lat="43.9829333" lon="12.4921683"><ele>78.6</ele><time>2026-04-11T15:26:21.914Z</time></trkpt><trkpt lat="43.9828767" lon="12.4922533"><ele>77.4</ele><time>2026-04-11T15:26:22.913Z</time></trkpt><trkpt lat="43.9828117" lon="12.49234"><ele>76.2</ele><time>2026-04-11T15:26:23.913Z</time></trkpt><trkpt lat="43.9827383" lon="12.4924183"><ele>75.0</ele><time>2026-04-11T15:26:24.913Z</time></trkpt><trkpt lat="43.9826583" lon="12.492485"><ele>75.0</ele><time>2026-04-11T15:26:25.913Z</time></trkpt><trkpt lat="43.982565" lon="12.49254"><ele>75.0</ele><time>2026-04-11T15:26:26.914Z</time></trkpt><trkpt lat="43.98247" lon="12.4925867"><ele>75.0</ele><time>2026-04-11T15:26:27.914Z</time></trkpt><trkpt lat="43.9823767" lon="12.4926283"><ele>75.0</ele><time>2026-04-11T15:26:28.914Z</time></trkpt><trkpt lat="43.9822867" lon="12.492665"><ele>75.0</ele><time>2026-04-11T15:26:29.914Z</time></trkpt><trkpt lat="43.9822067" lon="12.49271"><ele>73.5</ele><time>2026-04-11T15:26:30.913Z</time></trkpt><trkpt lat="43.9821383" lon="12.492765"><ele>72.0</ele><time>2026-04-11T15:26:31.914Z</time></trkpt><trkpt lat="43.98208" lon="12.492805"><ele>70.5</ele><time>2026-04-11T15:26:32.913Z</time></trkpt><trkpt lat="43.9820483" lon="12.49294"><ele>69.0</ele><time>2026-04-11T15:26:34.913Z</time></trkpt><trkpt lat="43.98209" lon="12.4930133"><ele>67.5</ele><time>2026-04-11T15:26:35.914Z</time></trkpt><trkpt lat="43.98215" lon="12.49307"><ele>66.0</ele><time>2026-04-11T15:26:36.914Z</time></trkpt><trkpt lat="43.9822217" lon="12.4931233"><ele>65.25</ele><time>2026-04-11T15:26:37.913Z</time></trkpt><trkpt lat="43.9823133" lon="12.493195"><ele>64.5</ele><time>2026-04-11T15:26:38.914Z</time></trkpt><trkpt lat="43.9824133" lon="12.493285"><ele>63.75</ele><time>2026-04-11T15:26:39.914Z</time></trkpt><trkpt lat="43.9825133" lon="12.4933917"><ele>63.0</ele><time>2026-04-11T15:26:40.913Z</time></trkpt><trkpt lat="43.982615" lon="12.493515"><ele>63.5</ele><time>2026-04-11T15:26:41.913Z</time></trkpt><trkpt lat="43.9827117" lon="12.493645"><ele>64.0</ele><time>2026-04-11T15:26:42.914Z</time></trkpt><trkpt lat="43.9827883" lon="12.4937933"><ele>64.5</ele><time>2026-04-11T15:26:43.914Z</time></trkpt><trkpt lat="43.9828333" lon="12.493965"><ele>65.0</ele><time>2026-04-11T15:26:44.913Z</time></trkpt><trkpt lat="43.98288" lon="12.4941583"><ele>65.0</ele><time>2026-04-11T15:26:45.913Z</time></trkpt><trkpt lat="43.982925" lon="12.4943617"><ele>65.0</ele><time>2026-04-11T15:26:46.913Z</time></trkpt><trkpt lat="43.98297" lon="12.4945683"><ele>65.0</ele><time>2026-04-11T15:26:47.913Z</time></trkpt><trkpt lat="43.9830233" lon="12.49477"><ele>64.75</ele><time>2026-04-11T15:26:48.914Z</time></trkpt><trkpt lat="43.9830833" lon="12.4949683"><ele>64.5</ele><time>2026-04-11T15:26:49.913Z</time></trkpt><trkpt lat="43.98314" lon="12.4951567"><ele>64.25</ele><time>2026-04-11T15:26:50.914Z</time></trkpt><trkpt lat="43.9832033" lon="12.4953333"><ele>64.0</ele><time>2026-04-11T15:26:51.914Z</time></trkpt><trkpt lat="43.9832583" lon="12.4955083"><ele>63.25</ele><time>2026-04-11T15:26:52.914Z</time></trkpt><trkpt lat="43.983305" lon="12.4956817"><ele>62.5</ele><time>2026-04-11T15:26:53.914Z</time></trkpt><trkpt lat="43.9833333" lon="12.4958683"><ele>61.75</ele><time>2026-04-11T15:26:54.914Z</time></trkpt><trkpt lat="43.9833317" lon="12.4960683"><ele>61.0</ele><time>2026-04-11T15:26:55.914Z</time></trkpt><trkpt lat="43.9833333" lon="12.496255"><ele>60.75</ele><time>2026-04-11T15:26:56.914Z</time></trkpt><trkpt lat="43.9833517" lon="12.4964383"><ele>60.5</ele><time>2026-04-11T15:26:57.914Z</time></trkpt><trkpt lat="43.9834033" lon="12.4966183"><ele>60.25</ele><time>2026-04-11T15:26:58.914Z</time></trkpt><trkpt lat="43.9834867" lon="12.49677"><ele>60.0</ele><time>2026-04-11T15:26:59.914Z</time></trkpt><trkpt lat="43.9835933" lon="12.4969133"><ele>60.0</ele><time>2026-04-11T15:27:00.914Z</time></trkpt><trkpt lat="43.983705" lon="12.4970467"><ele>60.0</ele><time>2026-04-11T15:27:01.914Z</time></trkpt><trkpt lat="43.9838167" lon="12.497185"><ele>60.0</ele><time>2026-04-11T15:27:02.913Z</time></trkpt><trkpt lat="43.9839283" lon="12.49733"><ele>61.0</ele><time>2026-04-11T15:27:03.914Z</time></trkpt><trkpt lat="43.9840517" lon="12.49746"><ele>62.0</ele><time>2026-04-11T15:27:04.914Z</time></trkpt><trkpt lat="43.98418" lon="12.49758"><ele>63.0</ele><time>2026-04-11T15:27:05.914Z</time></trkpt><trkpt lat="43.9843083" lon="12.4976933"><ele>62.0</ele><time>2026-04-11T15:27:06.914Z</time></trkpt><trkpt lat="43.9844283" lon="12.4978283"><ele>61.0</ele><time>2026-04-11T15:27:07.913Z</time></trkpt><trkpt lat="43.9845333" lon="12.4979817"><ele>60.0</ele><time>2026-04-11T15:27:08.913Z</time></trkpt><trkpt lat="43.9846283" lon="12.4981383"><ele>60.0</ele><time>2026-04-11T15:27:09.913Z</time></trkpt><trkpt lat="43.9847217" lon="12.4982967"><ele>60.0</ele><time>2026-04-11T15:27:10.914Z</time></trkpt><trkpt lat="43.9848133" lon="12.498455"><ele>60.0</ele><time>2026-04-11T15:27:11.914Z</time></trkpt><trkpt lat="43.9848983" lon="12.4986167"><ele>60.0</ele><time>2026-04-11T15:27:12.914Z</time></trkpt><trkpt lat="43.9849767" lon="12.4987717"><ele>59.0</ele><time>2026-04-11T15:27:13.914Z</time></trkpt><trkpt lat="43.9850433" lon="12.49891"><ele>58.0</ele><time>2026-04-11T15:27:14.914Z</time></trkpt><trkpt lat="43.9851133" lon="12.4990467"><ele>57.0</ele><time>2026-04-11T15:27:15.914Z</time></trkpt><trkpt lat="43.9851967" lon="12.4991717"><ele>56.0</ele><time>2026-04-11T15:27:16.914Z</time></trkpt><trkpt lat="43.9852867" lon="12.4992883"><ele>56.0</ele><time>2026-04-11T15:27:17.913Z</time></trkpt><trkpt lat="43.98539" lon="12.49939"><ele>56.0</ele><time>2026-04-11T15:27:18.913Z</time></trkpt><trkpt lat="43.9855067" lon="12.4994783"><ele>56.0</ele><time>2026-04-11T15:27:19.913Z</time></trkpt><trkpt lat="43.9856383" lon="12.4995533"><ele>56.0</ele><time>2026-04-11T15:27:20.913Z</time></trkpt><trkpt lat="43.98576" lon="12.4996117"><ele>56.25</ele><time>2026-04-11T15:27:21.913Z</time></trkpt><trkpt lat="43.9858883" lon="12.4996733"><ele>56.5</ele><time>2026-04-11T15:27:22.913Z</time></trkpt><trkpt lat="43.9860033" lon="12.49976"><ele>56.75</ele><time>2026-04-11T15:27:23.914Z</time></trkpt><trkpt lat="43.9861067" lon="12.4998467"><ele>57.0</ele><time>2026-04-11T15:27:24.913Z</time></trkpt><trkpt lat="43.9861933" lon="12.4999533"><ele>57.0</ele><time>2026-04-11T15:27:25.913Z</time></trkpt><trkpt lat="43.9862667" lon="12.50008"><ele>57.0</ele><time>2026-04-11T15:27:26.913Z</time></trkpt><trkpt lat="43.9863333" lon="12.5002083"><ele>57.0</ele><time>2026-04-11T15:27:27.914Z</time></trkpt><trkpt lat="43.9863767" lon="12.50034"><ele>57.0</ele><time>2026-04-11T15:27:28.913Z</time></trkpt><trkpt lat="43.986405" lon="12.50048"><ele>57.0</ele><time>2026-04-11T15:27:29.913Z</time></trkpt><trkpt lat="43.9864283" lon="12.5006083"><ele>57.333333333333336</ele><time>2026-04-11T15:27:30.914Z</time></trkpt><trkpt lat="43.98645" lon="12.5007217"><ele>57.66666666666667</ele><time>2026-04-11T15:27:31.913Z</time></trkpt><trkpt lat="43.98646" lon="12.5008283"><ele>58.0</ele><time>2026-04-11T15:27:32.914Z</time></trkpt><trkpt lat="43.9864667" lon="12.500925"><ele>58.333333333333336</ele><time>2026-04-11T15:27:33.914Z</time></trkpt><trkpt lat="43.9865067" lon="12.5010667"><ele>58.66666666666667</ele><time>2026-04-11T15:27:35.914Z</time></trkpt><trkpt lat="43.9865717" lon="12.50105"><ele>59.0</ele><time>2026-04-11T15:27:38.913Z</time></trkpt><trkpt lat="43.9865667" lon="12.500935"><ele>59.0</ele><time>2026-04-11T15:27:41.913Z</time></trkpt></trkseg></trk></gpx>